<?xml version="1.0" encoding="UTF-8" standalone="no" ?>
<gpx xmlns="http://www.topografix.com/GPX/1/1" xmlns:xsi="http://www.w3.org/2001/XMLSchema-instance" xsi:schemaLocation="http://www.topografix.com/GPX/1/1 http://www.topografix.com/GPX/1/1/gpx.xsd" version="1.1" creator="VisuGPX - https://www.visugpx.com">
  <metadata>
    <name>Rando Dounoux 2014</name>
    <desc><![CDATA[Belle rando avec 40% de sentier.]]></desc>
  </metadata>
  <trk>
    <name><![CDATA[rando Dounoux 2014]]></name>
    <trkseg>
      <trkpt lat="48.10631" lon="6.44456">
        <ele>420</ele>
        <time>2014-04-27T06:37:30Z</time>
      </trkpt>
      <trkpt lat="48.10631" lon="6.44456">
        <ele>420</ele>
        <time>2014-04-27T06:37:53Z</time>
      </trkpt>
      <trkpt lat="48.10632" lon="6.44456">
        <ele>420</ele>
        <time>2014-04-27T06:38:13Z</time>
      </trkpt>
      <trkpt lat="48.10631" lon="6.44455">
        <ele>420</ele>
        <time>2014-04-27T06:38:34Z</time>
      </trkpt>
      <trkpt lat="48.10632" lon="6.44457">
        <ele>420</ele>
        <time>2014-04-27T06:38:51Z</time>
      </trkpt>
      <trkpt lat="48.10632" lon="6.44456">
        <ele>420</ele>
        <time>2014-04-27T06:39:14Z</time>
      </trkpt>
      <trkpt lat="48.1063" lon="6.44455">
        <ele>420</ele>
        <time>2014-04-27T06:39:40Z</time>
      </trkpt>
      <trkpt lat="48.10631" lon="6.44455">
        <ele>420</ele>
        <time>2014-04-27T06:39:51Z</time>
      </trkpt>
      <trkpt lat="48.1063" lon="6.44452">
        <ele>420</ele>
        <time>2014-04-27T06:40:05Z</time>
      </trkpt>
      <trkpt lat="48.1063" lon="6.44452">
        <ele>420</ele>
        <time>2014-04-27T06:40:17Z</time>
      </trkpt>
      <trkpt lat="48.1063" lon="6.44452">
        <ele>420</ele>
        <time>2014-04-27T06:40:31Z</time>
      </trkpt>
      <trkpt lat="48.1063" lon="6.44453">
        <ele>420</ele>
        <time>2014-04-27T06:40:51Z</time>
      </trkpt>
      <trkpt lat="48.10632" lon="6.44456">
        <ele>420</ele>
        <time>2014-04-27T06:41:04Z</time>
      </trkpt>
      <trkpt lat="48.10631" lon="6.44458">
        <ele>420</ele>
        <time>2014-04-27T06:41:16Z</time>
      </trkpt>
      <trkpt lat="48.10631" lon="6.44459">
        <ele>420</ele>
        <time>2014-04-27T06:41:34Z</time>
      </trkpt>
      <trkpt lat="48.10631" lon="6.44459">
        <ele>420</ele>
        <time>2014-04-27T06:41:54Z</time>
      </trkpt>
      <trkpt lat="48.10631" lon="6.44457">
        <ele>420</ele>
        <time>2014-04-27T06:42:06Z</time>
      </trkpt>
      <trkpt lat="48.1062" lon="6.44464">
        <ele>419.84765625</ele>
        <time>2014-04-27T06:42:17Z</time>
      </trkpt>
      <trkpt lat="48.10614" lon="6.44533">
        <ele>419.62890625</ele>
        <time>2014-04-27T06:42:34Z</time>
      </trkpt>
      <trkpt lat="48.10609" lon="6.44576">
        <ele>419.44921875</ele>
        <time>2014-04-27T06:42:43Z</time>
      </trkpt>
      <trkpt lat="48.10609" lon="6.44579">
        <ele>419.45703125</ele>
        <time>2014-04-27T06:42:47Z</time>
      </trkpt>
      <trkpt lat="48.10609" lon="6.4457">
        <ele>419.4296875</ele>
        <time>2014-04-27T06:42:56Z</time>
      </trkpt>
      <trkpt lat="48.10611" lon="6.44567">
        <ele>419.50390625</ele>
        <time>2014-04-27T06:43:06Z</time>
      </trkpt>
      <trkpt lat="48.10611" lon="6.44569">
        <ele>419.51171875</ele>
        <time>2014-04-27T06:43:17Z</time>
      </trkpt>
      <trkpt lat="48.10603" lon="6.44618">
        <ele>419.2265625</ele>
        <time>2014-04-27T06:43:30Z</time>
      </trkpt>
      <trkpt lat="48.10597" lon="6.44655">
        <ele>418.28515625</ele>
        <time>2014-04-27T06:43:36Z</time>
      </trkpt>
      <trkpt lat="48.10585" lon="6.44784">
        <ele>415.20703125</ele>
        <time>2014-04-27T06:43:51Z</time>
      </trkpt>
      <trkpt lat="48.1057" lon="6.44934">
        <ele>409.2578125</ele>
        <time>2014-04-27T06:44:07Z</time>
      </trkpt>
      <trkpt lat="48.10569" lon="6.44952">
        <ele>408.59375</ele>
        <time>2014-04-27T06:44:09Z</time>
      </trkpt>
      <trkpt lat="48.10572" lon="6.44959">
        <ele>408.43359375</ele>
        <time>2014-04-27T06:44:10Z</time>
      </trkpt>
      <trkpt lat="48.10576" lon="6.44964">
        <ele>408.41015625</ele>
        <time>2014-04-27T06:44:11Z</time>
      </trkpt>
      <trkpt lat="48.10581" lon="6.44967">
        <ele>408.5</ele>
        <time>2014-04-27T06:44:12Z</time>
      </trkpt>
      <trkpt lat="48.10587" lon="6.44968">
        <ele>408.640625</ele>
        <time>2014-04-27T06:44:13Z</time>
      </trkpt>
      <trkpt lat="48.10659" lon="6.44997">
        <ele>408.9609375</ele>
        <time>2014-04-27T06:44:26Z</time>
      </trkpt>
      <trkpt lat="48.10707" lon="6.45011">
        <ele>408.46875</ele>
        <time>2014-04-27T06:44:35Z</time>
      </trkpt>
      <trkpt lat="48.10722" lon="6.45017">
        <ele>408.22265625</ele>
        <time>2014-04-27T06:44:38Z</time>
      </trkpt>
      <trkpt lat="48.10808" lon="6.45051">
        <ele>408</ele>
        <time>2014-04-27T06:44:53Z</time>
      </trkpt>
      <trkpt lat="48.10889" lon="6.45082">
        <ele>406.89453125</ele>
        <time>2014-04-27T06:45:07Z</time>
      </trkpt>
      <trkpt lat="48.10956" lon="6.45098">
        <ele>406.328125</ele>
        <time>2014-04-27T06:45:19Z</time>
      </trkpt>
      <trkpt lat="48.10972" lon="6.45106">
        <ele>405.5</ele>
        <time>2014-04-27T06:45:22Z</time>
      </trkpt>
      <trkpt lat="48.10994" lon="6.4511">
        <ele>404.56640625</ele>
        <time>2014-04-27T06:45:26Z</time>
      </trkpt>
      <trkpt lat="48.10999" lon="6.45109">
        <ele>404.41796875</ele>
        <time>2014-04-27T06:45:27Z</time>
      </trkpt>
      <trkpt lat="48.11051" lon="6.45098">
        <ele>403.94140625</ele>
        <time>2014-04-27T06:45:36Z</time>
      </trkpt>
      <trkpt lat="48.11082" lon="6.45094">
        <ele>402.98828125</ele>
        <time>2014-04-27T06:45:42Z</time>
      </trkpt>
      <trkpt lat="48.11098" lon="6.45084">
        <ele>402.7734375</ele>
        <time>2014-04-27T06:45:46Z</time>
      </trkpt>
      <trkpt lat="48.11106" lon="6.45079">
        <ele>402.66015625</ele>
        <time>2014-04-27T06:45:48Z</time>
      </trkpt>
      <trkpt lat="48.1112" lon="6.45072">
        <ele>402.3671875</ele>
        <time>2014-04-27T06:45:52Z</time>
      </trkpt>
      <trkpt lat="48.11126" lon="6.45056">
        <ele>402.78125</ele>
        <time>2014-04-27T06:45:56Z</time>
      </trkpt>
      <trkpt lat="48.11137" lon="6.44981">
        <ele>402.78125</ele>
        <time>2014-04-27T06:46:10Z</time>
      </trkpt>
      <trkpt lat="48.11139" lon="6.44956">
        <ele>403</ele>
        <time>2014-04-27T06:46:14Z</time>
      </trkpt>
      <trkpt lat="48.11155" lon="6.44938">
        <ele>402.890625</ele>
        <time>2014-04-27T06:46:19Z</time>
      </trkpt>
      <trkpt lat="48.11178" lon="6.44932">
        <ele>402.33984375</ele>
        <time>2014-04-27T06:46:24Z</time>
      </trkpt>
      <trkpt lat="48.11198" lon="6.44915">
        <ele>402.91015625</ele>
        <time>2014-04-27T06:46:29Z</time>
      </trkpt>
      <trkpt lat="48.112" lon="6.4491">
        <ele>403</ele>
        <time>2014-04-27T06:46:30Z</time>
      </trkpt>
      <trkpt lat="48.11202" lon="6.44904">
        <ele>403</ele>
        <time>2014-04-27T06:46:31Z</time>
      </trkpt>
      <trkpt lat="48.11203" lon="6.44897">
        <ele>403</ele>
        <time>2014-04-27T06:46:32Z</time>
      </trkpt>
      <trkpt lat="48.11204" lon="6.44891">
        <ele>403</ele>
        <time>2014-04-27T06:46:33Z</time>
      </trkpt>
      <trkpt lat="48.11206" lon="6.44871">
        <ele>403.03125</ele>
        <time>2014-04-27T06:46:36Z</time>
      </trkpt>
      <trkpt lat="48.11207" lon="6.44866">
        <ele>403</ele>
        <time>2014-04-27T06:46:37Z</time>
      </trkpt>
      <trkpt lat="48.11227" lon="6.44852">
        <ele>403.17578125</ele>
        <time>2014-04-27T06:46:42Z</time>
      </trkpt>
      <trkpt lat="48.11248" lon="6.44837">
        <ele>403.85546875</ele>
        <time>2014-04-27T06:46:47Z</time>
      </trkpt>
      <trkpt lat="48.11253" lon="6.44836">
        <ele>403.9140625</ele>
        <time>2014-04-27T06:46:48Z</time>
      </trkpt>
      <trkpt lat="48.11258" lon="6.44837">
        <ele>403.9453125</ele>
        <time>2014-04-27T06:46:49Z</time>
      </trkpt>
      <trkpt lat="48.11264" lon="6.44844">
        <ele>404.04296875</ele>
        <time>2014-04-27T06:46:51Z</time>
      </trkpt>
      <trkpt lat="48.11274" lon="6.44855">
        <ele>404.38671875</ele>
        <time>2014-04-27T06:46:54Z</time>
      </trkpt>
      <trkpt lat="48.11304" lon="6.4484">
        <ele>405.9765625</ele>
        <time>2014-04-27T06:47:03Z</time>
      </trkpt>
      <trkpt lat="48.11332" lon="6.44825">
        <ele>407.94140625</ele>
        <time>2014-04-27T06:47:12Z</time>
      </trkpt>
      <trkpt lat="48.11354" lon="6.44866">
        <ele>408.5625</ele>
        <time>2014-04-27T06:47:23Z</time>
      </trkpt>
      <trkpt lat="48.11358" lon="6.44874">
        <ele>408.87109375</ele>
        <time>2014-04-27T06:47:25Z</time>
      </trkpt>
      <trkpt lat="48.1137" lon="6.44871">
        <ele>409.7421875</ele>
        <time>2014-04-27T06:47:30Z</time>
      </trkpt>
      <trkpt lat="48.11395" lon="6.4481">
        <ele>412.49609375</ele>
        <time>2014-04-27T06:47:45Z</time>
      </trkpt>
      <trkpt lat="48.11424" lon="6.44752">
        <ele>415.56640625</ele>
        <time>2014-04-27T06:48:00Z</time>
      </trkpt>
      <trkpt lat="48.11455" lon="6.44699">
        <ele>419.53125</ele>
        <time>2014-04-27T06:48:15Z</time>
      </trkpt>
      <trkpt lat="48.11478" lon="6.44663">
        <ele>422.48828125</ele>
        <time>2014-04-27T06:48:27Z</time>
      </trkpt>
      <trkpt lat="48.11505" lon="6.44617">
        <ele>425.4453125</ele>
        <time>2014-04-27T06:48:41Z</time>
      </trkpt>
      <trkpt lat="48.11536" lon="6.44558">
        <ele>427.53125</ele>
        <time>2014-04-27T06:48:57Z</time>
      </trkpt>
      <trkpt lat="48.11539" lon="6.44554">
        <ele>427.8203125</ele>
        <time>2014-04-27T06:49:00Z</time>
      </trkpt>
      <trkpt lat="48.11553" lon="6.4457">
        <ele>429.13671875</ele>
        <time>2014-04-27T06:49:09Z</time>
      </trkpt>
      <trkpt lat="48.11572" lon="6.446">
        <ele>431.390625</ele>
        <time>2014-04-27T06:49:21Z</time>
      </trkpt>
      <trkpt lat="48.11574" lon="6.44604">
        <ele>431.59765625</ele>
        <time>2014-04-27T06:49:22Z</time>
      </trkpt>
      <trkpt lat="48.11582" lon="6.446">
        <ele>432.51171875</ele>
        <time>2014-04-27T06:49:26Z</time>
      </trkpt>
      <trkpt lat="48.11603" lon="6.44538">
        <ele>433.63671875</ele>
        <time>2014-04-27T06:49:41Z</time>
      </trkpt>
      <trkpt lat="48.1163" lon="6.44474">
        <ele>434.4609375</ele>
        <time>2014-04-27T06:49:56Z</time>
      </trkpt>
      <trkpt lat="48.11663" lon="6.44411">
        <ele>435.76171875</ele>
        <time>2014-04-27T06:50:10Z</time>
      </trkpt>
      <trkpt lat="48.11699" lon="6.44335">
        <ele>437.22265625</ele>
        <time>2014-04-27T06:50:26Z</time>
      </trkpt>
      <trkpt lat="48.11702" lon="6.44331">
        <ele>437.4296875</ele>
        <time>2014-04-27T06:50:27Z</time>
      </trkpt>
      <trkpt lat="48.11732" lon="6.44282">
        <ele>439.0703125</ele>
        <time>2014-04-27T06:50:39Z</time>
      </trkpt>
      <trkpt lat="48.11761" lon="6.4424">
        <ele>440.7734375</ele>
        <time>2014-04-27T06:50:51Z</time>
      </trkpt>
      <trkpt lat="48.11763" lon="6.44238">
        <ele>441.0859375</ele>
        <time>2014-04-27T06:50:52Z</time>
      </trkpt>
      <trkpt lat="48.11766" lon="6.44236">
        <ele>441.37890625</ele>
        <time>2014-04-27T06:50:53Z</time>
      </trkpt>
      <trkpt lat="48.11769" lon="6.44237">
        <ele>441.63671875</ele>
        <time>2014-04-27T06:50:54Z</time>
      </trkpt>
      <trkpt lat="48.1177" lon="6.44238">
        <ele>441.828125</ele>
        <time>2014-04-27T06:50:55Z</time>
      </trkpt>
      <trkpt lat="48.11772" lon="6.44238">
        <ele>442</ele>
        <time>2014-04-27T06:50:56Z</time>
      </trkpt>
      <trkpt lat="48.11774" lon="6.4424">
        <ele>442.234375</ele>
        <time>2014-04-27T06:50:57Z</time>
      </trkpt>
      <trkpt lat="48.11796" lon="6.44273">
        <ele>445.5703125</ele>
        <time>2014-04-27T06:51:09Z</time>
      </trkpt>
      <trkpt lat="48.118" lon="6.4432">
        <ele>447.1015625</ele>
        <time>2014-04-27T06:51:19Z</time>
      </trkpt>
      <trkpt lat="48.11798" lon="6.44361">
        <ele>448.21484375</ele>
        <time>2014-04-27T06:51:29Z</time>
      </trkpt>
      <trkpt lat="48.118" lon="6.44397">
        <ele>450.0546875</ele>
        <time>2014-04-27T06:51:36Z</time>
      </trkpt>
      <trkpt lat="48.11798" lon="6.44411">
        <ele>450.25</ele>
        <time>2014-04-27T06:51:40Z</time>
      </trkpt>
      <trkpt lat="48.11799" lon="6.44443">
        <ele>452.2421875</ele>
        <time>2014-04-27T06:51:48Z</time>
      </trkpt>
      <trkpt lat="48.11806" lon="6.44491">
        <ele>455.4453125</ele>
        <time>2014-04-27T06:51:59Z</time>
      </trkpt>
      <trkpt lat="48.11813" lon="6.44525">
        <ele>458.3046875</ele>
        <time>2014-04-27T06:52:09Z</time>
      </trkpt>
      <trkpt lat="48.1182" lon="6.44566">
        <ele>462.8046875</ele>
        <time>2014-04-27T06:52:21Z</time>
      </trkpt>
      <trkpt lat="48.11835" lon="6.44584">
        <ele>466.7421875</ele>
        <time>2014-04-27T06:52:32Z</time>
      </trkpt>
      <trkpt lat="48.11841" lon="6.44586">
        <ele>467.765625</ele>
        <time>2014-04-27T06:52:36Z</time>
      </trkpt>
      <trkpt lat="48.11852" lon="6.44593">
        <ele>469.953125</ele>
        <time>2014-04-27T06:52:42Z</time>
      </trkpt>
      <trkpt lat="48.11872" lon="6.44598">
        <ele>473.421875</ele>
        <time>2014-04-27T06:52:56Z</time>
      </trkpt>
      <trkpt lat="48.11879" lon="6.446">
        <ele>474.44140625</ele>
        <time>2014-04-27T06:53:01Z</time>
      </trkpt>
      <trkpt lat="48.11886" lon="6.44585">
        <ele>475.02734375</ele>
        <time>2014-04-27T06:53:08Z</time>
      </trkpt>
      <trkpt lat="48.11904" lon="6.44555">
        <ele>476.4765625</ele>
        <time>2014-04-27T06:53:20Z</time>
      </trkpt>
      <trkpt lat="48.11925" lon="6.44521">
        <ele>479.28515625</ele>
        <time>2014-04-27T06:53:34Z</time>
      </trkpt>
      <trkpt lat="48.11951" lon="6.44483">
        <ele>482.6875</ele>
        <time>2014-04-27T06:53:47Z</time>
      </trkpt>
      <trkpt lat="48.11961" lon="6.44468">
        <ele>483.44921875</ele>
        <time>2014-04-27T06:53:52Z</time>
      </trkpt>
      <trkpt lat="48.11984" lon="6.4444">
        <ele>484.78515625</ele>
        <time>2014-04-27T06:54:04Z</time>
      </trkpt>
      <trkpt lat="48.12013" lon="6.44401">
        <ele>486.60546875</ele>
        <time>2014-04-27T06:54:17Z</time>
      </trkpt>
      <trkpt lat="48.12044" lon="6.44366">
        <ele>488.046875</ele>
        <time>2014-04-27T06:54:28Z</time>
      </trkpt>
      <trkpt lat="48.12051" lon="6.44362">
        <ele>488.41796875</ele>
        <time>2014-04-27T06:54:30Z</time>
      </trkpt>
      <trkpt lat="48.12078" lon="6.44365">
        <ele>490.9609375</ele>
        <time>2014-04-27T06:54:40Z</time>
      </trkpt>
      <trkpt lat="48.12103" lon="6.4438">
        <ele>493.30859375</ele>
        <time>2014-04-27T06:54:51Z</time>
      </trkpt>
      <trkpt lat="48.12126" lon="6.44392">
        <ele>495.68359375</ele>
        <time>2014-04-27T06:55:04Z</time>
      </trkpt>
      <trkpt lat="48.12144" lon="6.44405">
        <ele>498.37109375</ele>
        <time>2014-04-27T06:55:12Z</time>
      </trkpt>
      <trkpt lat="48.12146" lon="6.44406">
        <ele>498.69921875</ele>
        <time>2014-04-27T06:55:14Z</time>
      </trkpt>
      <trkpt lat="48.12153" lon="6.44408">
        <ele>499.5625</ele>
        <time>2014-04-27T06:55:20Z</time>
      </trkpt>
      <trkpt lat="48.12173" lon="6.44418">
        <ele>502.11328125</ele>
        <time>2014-04-27T06:55:32Z</time>
      </trkpt>
      <trkpt lat="48.12177" lon="6.44414">
        <ele>501.9765625</ele>
        <time>2014-04-27T06:55:34Z</time>
      </trkpt>
      <trkpt lat="48.12202" lon="6.44407">
        <ele>503.90234375</ele>
        <time>2014-04-27T06:55:45Z</time>
      </trkpt>
      <trkpt lat="48.1223" lon="6.44394">
        <ele>504.1015625</ele>
        <time>2014-04-27T06:55:54Z</time>
      </trkpt>
      <trkpt lat="48.12242" lon="6.44395">
        <ele>504.65625</ele>
        <time>2014-04-27T06:55:59Z</time>
      </trkpt>
      <trkpt lat="48.12245" lon="6.44408">
        <ele>506.7421875</ele>
        <time>2014-04-27T06:56:07Z</time>
      </trkpt>
      <trkpt lat="48.12247" lon="6.44428">
        <ele>509.06640625</ele>
        <time>2014-04-27T06:56:14Z</time>
      </trkpt>
      <trkpt lat="48.12268" lon="6.44477">
        <ele>513.96484375</ele>
        <time>2014-04-27T06:56:27Z</time>
      </trkpt>
      <trkpt lat="48.12286" lon="6.44507">
        <ele>514.14453125</ele>
        <time>2014-04-27T06:56:34Z</time>
      </trkpt>
      <trkpt lat="48.12302" lon="6.44526">
        <ele>513.3203125</ele>
        <time>2014-04-27T06:56:38Z</time>
      </trkpt>
      <trkpt lat="48.12306" lon="6.4453">
        <ele>512.8984375</ele>
        <time>2014-04-27T06:56:39Z</time>
      </trkpt>
      <trkpt lat="48.1231" lon="6.44533">
        <ele>512.55859375</ele>
        <time>2014-04-27T06:56:40Z</time>
      </trkpt>
      <trkpt lat="48.12314" lon="6.44537">
        <ele>512.33203125</ele>
        <time>2014-04-27T06:56:41Z</time>
      </trkpt>
      <trkpt lat="48.12336" lon="6.44574">
        <ele>511.09765625</ele>
        <time>2014-04-27T06:56:46Z</time>
      </trkpt>
      <trkpt lat="48.12363" lon="6.44612">
        <ele>508.55078125</ele>
        <time>2014-04-27T06:56:51Z</time>
      </trkpt>
      <trkpt lat="48.12369" lon="6.4462">
        <ele>508.0390625</ele>
        <time>2014-04-27T06:56:52Z</time>
      </trkpt>
      <trkpt lat="48.12423" lon="6.44687">
        <ele>503.515625</ele>
        <time>2014-04-27T06:57:01Z</time>
      </trkpt>
      <trkpt lat="48.12438" lon="6.44718">
        <ele>501.328125</ele>
        <time>2014-04-27T06:57:08Z</time>
      </trkpt>
      <trkpt lat="48.1243" lon="6.44742">
        <ele>499.46484375</ele>
        <time>2014-04-27T06:57:14Z</time>
      </trkpt>
      <trkpt lat="48.12425" lon="6.44744">
        <ele>499.20703125</ele>
        <time>2014-04-27T06:57:15Z</time>
      </trkpt>
      <trkpt lat="48.12406" lon="6.44751">
        <ele>497.90625</ele>
        <time>2014-04-27T06:57:18Z</time>
      </trkpt>
      <trkpt lat="48.12395" lon="6.44753">
        <ele>497.06640625</ele>
        <time>2014-04-27T06:57:20Z</time>
      </trkpt>
      <trkpt lat="48.12391" lon="6.44752">
        <ele>496.88671875</ele>
        <time>2014-04-27T06:57:21Z</time>
      </trkpt>
      <trkpt lat="48.12378" lon="6.44749">
        <ele>496.59765625</ele>
        <time>2014-04-27T06:57:25Z</time>
      </trkpt>
      <trkpt lat="48.12374" lon="6.44748">
        <ele>496.6171875</ele>
        <time>2014-04-27T06:57:26Z</time>
      </trkpt>
      <trkpt lat="48.1237" lon="6.44747">
        <ele>496.62890625</ele>
        <time>2014-04-27T06:57:27Z</time>
      </trkpt>
      <trkpt lat="48.12347" lon="6.44739">
        <ele>497.578125</ele>
        <time>2014-04-27T06:57:33Z</time>
      </trkpt>
      <trkpt lat="48.12302" lon="6.44737">
        <ele>498.58203125</ele>
        <time>2014-04-27T06:57:44Z</time>
      </trkpt>
      <trkpt lat="48.12298" lon="6.44739">
        <ele>498.25390625</ele>
        <time>2014-04-27T06:57:45Z</time>
      </trkpt>
      <trkpt lat="48.12287" lon="6.44746">
        <ele>497.20703125</ele>
        <time>2014-04-27T06:57:47Z</time>
      </trkpt>
      <trkpt lat="48.12282" lon="6.44752">
        <ele>496.484375</ele>
        <time>2014-04-27T06:57:48Z</time>
      </trkpt>
      <trkpt lat="48.12268" lon="6.44771">
        <ele>494.1484375</ele>
        <time>2014-04-27T06:57:51Z</time>
      </trkpt>
      <trkpt lat="48.12257" lon="6.4478">
        <ele>493.19921875</ele>
        <time>2014-04-27T06:57:54Z</time>
      </trkpt>
      <trkpt lat="48.12249" lon="6.44783">
        <ele>492.98046875</ele>
        <time>2014-04-27T06:57:56Z</time>
      </trkpt>
      <trkpt lat="48.12244" lon="6.44785">
        <ele>492.859375</ele>
        <time>2014-04-27T06:57:57Z</time>
      </trkpt>
      <trkpt lat="48.12209" lon="6.44793">
        <ele>492.27734375</ele>
        <time>2014-04-27T06:58:05Z</time>
      </trkpt>
      <trkpt lat="48.12174" lon="6.44798">
        <ele>490.0234375</ele>
        <time>2014-04-27T06:58:15Z</time>
      </trkpt>
      <trkpt lat="48.12147" lon="6.44792">
        <ele>488.875</ele>
        <time>2014-04-27T06:58:20Z</time>
      </trkpt>
      <trkpt lat="48.12144" lon="6.44795">
        <ele>488.453125</ele>
        <time>2014-04-27T06:58:21Z</time>
      </trkpt>
      <trkpt lat="48.12134" lon="6.44808">
        <ele>486.453125</ele>
        <time>2014-04-27T06:58:26Z</time>
      </trkpt>
      <trkpt lat="48.12137" lon="6.44829">
        <ele>483.45703125</ele>
        <time>2014-04-27T06:58:34Z</time>
      </trkpt>
      <trkpt lat="48.1214" lon="6.4484">
        <ele>482.4296875</ele>
        <time>2014-04-27T06:58:36Z</time>
      </trkpt>
      <trkpt lat="48.12142" lon="6.44845">
        <ele>482.05859375</ele>
        <time>2014-04-27T06:58:37Z</time>
      </trkpt>
      <trkpt lat="48.12144" lon="6.4485">
        <ele>481.76171875</ele>
        <time>2014-04-27T06:58:38Z</time>
      </trkpt>
      <trkpt lat="48.12149" lon="6.44861">
        <ele>481.23828125</ele>
        <time>2014-04-27T06:58:40Z</time>
      </trkpt>
      <trkpt lat="48.12149" lon="6.44866">
        <ele>480.7421875</ele>
        <time>2014-04-27T06:58:41Z</time>
      </trkpt>
      <trkpt lat="48.12151" lon="6.44877">
        <ele>479.84375</ele>
        <time>2014-04-27T06:58:43Z</time>
      </trkpt>
      <trkpt lat="48.12155" lon="6.44908">
        <ele>477.06640625</ele>
        <time>2014-04-27T06:58:53Z</time>
      </trkpt>
      <trkpt lat="48.12155" lon="6.44911">
        <ele>476.7578125</ele>
        <time>2014-04-27T06:58:54Z</time>
      </trkpt>
      <trkpt lat="48.12156" lon="6.44928">
        <ele>475.17578125</ele>
        <time>2014-04-27T06:58:59Z</time>
      </trkpt>
      <trkpt lat="48.12163" lon="6.44953">
        <ele>474.49609375</ele>
        <time>2014-04-27T06:59:09Z</time>
      </trkpt>
      <trkpt lat="48.12177" lon="6.44972">
        <ele>475.45703125</ele>
        <time>2014-04-27T06:59:17Z</time>
      </trkpt>
      <trkpt lat="48.12191" lon="6.45001">
        <ele>473.7734375</ele>
        <time>2014-04-27T06:59:27Z</time>
      </trkpt>
      <trkpt lat="48.1221" lon="6.45046">
        <ele>472.84765625</ele>
        <time>2014-04-27T06:59:40Z</time>
      </trkpt>
      <trkpt lat="48.12224" lon="6.45083">
        <ele>471.6484375</ele>
        <time>2014-04-27T06:59:49Z</time>
      </trkpt>
      <trkpt lat="48.12229" lon="6.45094">
        <ele>471.17578125</ele>
        <time>2014-04-27T06:59:52Z</time>
      </trkpt>
      <trkpt lat="48.12241" lon="6.45138">
        <ele>469.484375</ele>
        <time>2014-04-27T07:00:03Z</time>
      </trkpt>
      <trkpt lat="48.12243" lon="6.45144">
        <ele>468.90234375</ele>
        <time>2014-04-27T07:00:04Z</time>
      </trkpt>
      <trkpt lat="48.12245" lon="6.45149">
        <ele>468.43359375</ele>
        <time>2014-04-27T07:00:05Z</time>
      </trkpt>
      <trkpt lat="48.12249" lon="6.45172">
        <ele>466.6953125</ele>
        <time>2014-04-27T07:00:09Z</time>
      </trkpt>
      <trkpt lat="48.12249" lon="6.45179">
        <ele>466.08984375</ele>
        <time>2014-04-27T07:00:10Z</time>
      </trkpt>
      <trkpt lat="48.12249" lon="6.45187">
        <ele>465.33203125</ele>
        <time>2014-04-27T07:00:11Z</time>
      </trkpt>
      <trkpt lat="48.12245" lon="6.45203">
        <ele>462.578125</ele>
        <time>2014-04-27T07:00:13Z</time>
      </trkpt>
      <trkpt lat="48.12242" lon="6.45211">
        <ele>461.0625</ele>
        <time>2014-04-27T07:00:14Z</time>
      </trkpt>
      <trkpt lat="48.1224" lon="6.4522">
        <ele>459.3203125</ele>
        <time>2014-04-27T07:00:15Z</time>
      </trkpt>
      <trkpt lat="48.12237" lon="6.45226">
        <ele>458.109375</ele>
        <time>2014-04-27T07:00:16Z</time>
      </trkpt>
      <trkpt lat="48.12233" lon="6.45233">
        <ele>456.7890625</ele>
        <time>2014-04-27T07:00:17Z</time>
      </trkpt>
      <trkpt lat="48.12229" lon="6.45238">
        <ele>455.58203125</ele>
        <time>2014-04-27T07:00:18Z</time>
      </trkpt>
      <trkpt lat="48.12224" lon="6.45242">
        <ele>454.51171875</ele>
        <time>2014-04-27T07:00:19Z</time>
      </trkpt>
      <trkpt lat="48.12219" lon="6.45245">
        <ele>453.4296875</ele>
        <time>2014-04-27T07:00:20Z</time>
      </trkpt>
      <trkpt lat="48.12213" lon="6.45247">
        <ele>452.38671875</ele>
        <time>2014-04-27T07:00:21Z</time>
      </trkpt>
      <trkpt lat="48.12205" lon="6.45249">
        <ele>451.44140625</ele>
        <time>2014-04-27T07:00:22Z</time>
      </trkpt>
      <trkpt lat="48.12198" lon="6.45249">
        <ele>450.55859375</ele>
        <time>2014-04-27T07:00:23Z</time>
      </trkpt>
      <trkpt lat="48.12191" lon="6.45251">
        <ele>449.52734375</ele>
        <time>2014-04-27T07:00:24Z</time>
      </trkpt>
      <trkpt lat="48.12114" lon="6.45275">
        <ele>432.03515625</ele>
        <time>2014-04-27T07:00:33Z</time>
      </trkpt>
      <trkpt lat="48.121" lon="6.45284">
        <ele>428.2421875</ele>
        <time>2014-04-27T07:00:35Z</time>
      </trkpt>
      <trkpt lat="48.12093" lon="6.45286">
        <ele>426.640625</ele>
        <time>2014-04-27T07:00:36Z</time>
      </trkpt>
      <trkpt lat="48.12086" lon="6.45287">
        <ele>425.140625</ele>
        <time>2014-04-27T07:00:37Z</time>
      </trkpt>
      <trkpt lat="48.12019" lon="6.45282">
        <ele>412.35546875</ele>
        <time>2014-04-27T07:00:46Z</time>
      </trkpt>
      <trkpt lat="48.12009" lon="6.45298">
        <ele>409.96875</ele>
        <time>2014-04-27T07:00:51Z</time>
      </trkpt>
      <trkpt lat="48.12008" lon="6.45309">
        <ele>409.125</ele>
        <time>2014-04-27T07:00:52Z</time>
      </trkpt>
      <trkpt lat="48.12007" lon="6.45341">
        <ele>406.74609375</ele>
        <time>2014-04-27T07:00:55Z</time>
      </trkpt>
      <trkpt lat="48.12005" lon="6.4535">
        <ele>405.98046875</ele>
        <time>2014-04-27T07:00:56Z</time>
      </trkpt>
      <trkpt lat="48.12001" lon="6.45355">
        <ele>405.2890625</ele>
        <time>2014-04-27T07:00:57Z</time>
      </trkpt>
      <trkpt lat="48.11997" lon="6.45359">
        <ele>404.70703125</ele>
        <time>2014-04-27T07:00:58Z</time>
      </trkpt>
      <trkpt lat="48.11995" lon="6.45363">
        <ele>404.25</ele>
        <time>2014-04-27T07:00:59Z</time>
      </trkpt>
      <trkpt lat="48.11993" lon="6.45367">
        <ele>403.8359375</ele>
        <time>2014-04-27T07:01:00Z</time>
      </trkpt>
      <trkpt lat="48.11994" lon="6.45372">
        <ele>403.6171875</ele>
        <time>2014-04-27T07:01:01Z</time>
      </trkpt>
      <trkpt lat="48.11996" lon="6.45377">
        <ele>403.390625</ele>
        <time>2014-04-27T07:01:02Z</time>
      </trkpt>
      <trkpt lat="48.11997" lon="6.45383">
        <ele>403.02734375</ele>
        <time>2014-04-27T07:01:03Z</time>
      </trkpt>
      <trkpt lat="48.12002" lon="6.45389">
        <ele>402.8125</ele>
        <time>2014-04-27T07:01:04Z</time>
      </trkpt>
      <trkpt lat="48.12008" lon="6.45397">
        <ele>402.42578125</ele>
        <time>2014-04-27T07:01:05Z</time>
      </trkpt>
      <trkpt lat="48.12015" lon="6.45401">
        <ele>402.3359375</ele>
        <time>2014-04-27T07:01:06Z</time>
      </trkpt>
      <trkpt lat="48.12021" lon="6.45405">
        <ele>402.4140625</ele>
        <time>2014-04-27T07:01:07Z</time>
      </trkpt>
      <trkpt lat="48.12035" lon="6.45408">
        <ele>403.0546875</ele>
        <time>2014-04-27T07:01:09Z</time>
      </trkpt>
      <trkpt lat="48.12041" lon="6.45412">
        <ele>403.08203125</ele>
        <time>2014-04-27T07:01:10Z</time>
      </trkpt>
      <trkpt lat="48.12045" lon="6.45418">
        <ele>402.66015625</ele>
        <time>2014-04-27T07:01:11Z</time>
      </trkpt>
      <trkpt lat="48.12048" lon="6.45429">
        <ele>401.59765625</ele>
        <time>2014-04-27T07:01:12Z</time>
      </trkpt>
      <trkpt lat="48.12049" lon="6.4544">
        <ele>400.3671875</ele>
        <time>2014-04-27T07:01:13Z</time>
      </trkpt>
      <trkpt lat="48.12048" lon="6.4545">
        <ele>399.390625</ele>
        <time>2014-04-27T07:01:14Z</time>
      </trkpt>
      <trkpt lat="48.1205" lon="6.45457">
        <ele>398.6640625</ele>
        <time>2014-04-27T07:01:15Z</time>
      </trkpt>
      <trkpt lat="48.1205" lon="6.45467">
        <ele>397.7578125</ele>
        <time>2014-04-27T07:01:16Z</time>
      </trkpt>
      <trkpt lat="48.12051" lon="6.45477">
        <ele>396.91015625</ele>
        <time>2014-04-27T07:01:17Z</time>
      </trkpt>
      <trkpt lat="48.12053" lon="6.45489">
        <ele>396.01953125</ele>
        <time>2014-04-27T07:01:18Z</time>
      </trkpt>
      <trkpt lat="48.12056" lon="6.455">
        <ele>395.265625</ele>
        <time>2014-04-27T07:01:19Z</time>
      </trkpt>
      <trkpt lat="48.12059" lon="6.45511">
        <ele>394.75</ele>
        <time>2014-04-27T07:01:20Z</time>
      </trkpt>
      <trkpt lat="48.12063" lon="6.45522">
        <ele>394.24609375</ele>
        <time>2014-04-27T07:01:21Z</time>
      </trkpt>
      <trkpt lat="48.12067" lon="6.45532">
        <ele>393.41015625</ele>
        <time>2014-04-27T07:01:22Z</time>
      </trkpt>
      <trkpt lat="48.12095" lon="6.45598">
        <ele>393.6953125</ele>
        <time>2014-04-27T07:01:29Z</time>
      </trkpt>
      <trkpt lat="48.12099" lon="6.45603">
        <ele>393.78515625</ele>
        <time>2014-04-27T07:01:30Z</time>
      </trkpt>
      <trkpt lat="48.12103" lon="6.45612">
        <ele>394.1796875</ele>
        <time>2014-04-27T07:01:32Z</time>
      </trkpt>
      <trkpt lat="48.12103" lon="6.45615">
        <ele>394.47265625</ele>
        <time>2014-04-27T07:01:33Z</time>
      </trkpt>
      <trkpt lat="48.12101" lon="6.45617">
        <ele>394.6328125</ele>
        <time>2014-04-27T07:01:34Z</time>
      </trkpt>
      <trkpt lat="48.121" lon="6.45619">
        <ele>394.80859375</ele>
        <time>2014-04-27T07:01:35Z</time>
      </trkpt>
      <trkpt lat="48.121" lon="6.4562">
        <ele>394.9140625</ele>
        <time>2014-04-27T07:01:36Z</time>
      </trkpt>
      <trkpt lat="48.12101" lon="6.45622">
        <ele>395.015625</ele>
        <time>2014-04-27T07:01:37Z</time>
      </trkpt>
      <trkpt lat="48.12102" lon="6.45624">
        <ele>395.12890625</ele>
        <time>2014-04-27T07:01:38Z</time>
      </trkpt>
      <trkpt lat="48.12103" lon="6.45627">
        <ele>395.37890625</ele>
        <time>2014-04-27T07:01:39Z</time>
      </trkpt>
      <trkpt lat="48.12102" lon="6.45631">
        <ele>395.69140625</ele>
        <time>2014-04-27T07:01:40Z</time>
      </trkpt>
      <trkpt lat="48.12101" lon="6.45633">
        <ele>395.91015625</ele>
        <time>2014-04-27T07:01:41Z</time>
      </trkpt>
      <trkpt lat="48.12098" lon="6.45636">
        <ele>396.14453125</ele>
        <time>2014-04-27T07:01:42Z</time>
      </trkpt>
      <trkpt lat="48.12062" lon="6.45651">
        <ele>399.19140625</ele>
        <time>2014-04-27T07:01:54Z</time>
      </trkpt>
      <trkpt lat="48.12007" lon="6.45645">
        <ele>403.109375</ele>
        <time>2014-04-27T07:02:05Z</time>
      </trkpt>
      <trkpt lat="48.11997" lon="6.45643">
        <ele>404.13671875</ele>
        <time>2014-04-27T07:02:07Z</time>
      </trkpt>
      <trkpt lat="48.11992" lon="6.45643">
        <ele>404.55859375</ele>
        <time>2014-04-27T07:02:08Z</time>
      </trkpt>
      <trkpt lat="48.11988" lon="6.45643">
        <ele>405.2109375</ele>
        <time>2014-04-27T07:02:09Z</time>
      </trkpt>
      <trkpt lat="48.11985" lon="6.45646">
        <ele>406.13671875</ele>
        <time>2014-04-27T07:02:10Z</time>
      </trkpt>
      <trkpt lat="48.11983" lon="6.4565">
        <ele>407.0859375</ele>
        <time>2014-04-27T07:02:11Z</time>
      </trkpt>
      <trkpt lat="48.11986" lon="6.45657">
        <ele>407.890625</ele>
        <time>2014-04-27T07:02:14Z</time>
      </trkpt>
      <trkpt lat="48.12015" lon="6.45694">
        <ele>410.3515625</ele>
        <time>2014-04-27T07:02:27Z</time>
      </trkpt>
      <trkpt lat="48.12039" lon="6.45726">
        <ele>412.7265625</ele>
        <time>2014-04-27T07:02:38Z</time>
      </trkpt>
      <trkpt lat="48.12047" lon="6.45733">
        <ele>412.9453125</ele>
        <time>2014-04-27T07:02:42Z</time>
      </trkpt>
      <trkpt lat="48.12068" lon="6.45739">
        <ele>411.12890625</ele>
        <time>2014-04-27T07:02:48Z</time>
      </trkpt>
      <trkpt lat="48.12081" lon="6.4574">
        <ele>410.7109375</ele>
        <time>2014-04-27T07:02:53Z</time>
      </trkpt>
      <trkpt lat="48.12093" lon="6.45755">
        <ele>412.41796875</ele>
        <time>2014-04-27T07:03:02Z</time>
      </trkpt>
      <trkpt lat="48.12107" lon="6.45765">
        <ele>413.875</ele>
        <time>2014-04-27T07:03:15Z</time>
      </trkpt>
      <trkpt lat="48.1211" lon="6.45779">
        <ele>415.88671875</ele>
        <time>2014-04-27T07:03:25Z</time>
      </trkpt>
      <trkpt lat="48.12113" lon="6.45785">
        <ele>416.6328125</ele>
        <time>2014-04-27T07:03:27Z</time>
      </trkpt>
      <trkpt lat="48.12118" lon="6.45795">
        <ele>418.09765625</ele>
        <time>2014-04-27T07:03:33Z</time>
      </trkpt>
      <trkpt lat="48.12123" lon="6.45812">
        <ele>420.9609375</ele>
        <time>2014-04-27T07:03:43Z</time>
      </trkpt>
      <trkpt lat="48.12129" lon="6.45832">
        <ele>425.4609375</ele>
        <time>2014-04-27T07:03:57Z</time>
      </trkpt>
      <trkpt lat="48.12133" lon="6.45841">
        <ele>427.609375</ele>
        <time>2014-04-27T07:04:03Z</time>
      </trkpt>
      <trkpt lat="48.12136" lon="6.45848">
        <ele>429.28125</ele>
        <time>2014-04-27T07:04:08Z</time>
      </trkpt>
      <trkpt lat="48.12148" lon="6.45856">
        <ele>432.41796875</ele>
        <time>2014-04-27T07:04:19Z</time>
      </trkpt>
      <trkpt lat="48.12151" lon="6.45856">
        <ele>432.84375</ele>
        <time>2014-04-27T07:04:22Z</time>
      </trkpt>
      <trkpt lat="48.12158" lon="6.45861">
        <ele>434.5</ele>
        <time>2014-04-27T07:04:27Z</time>
      </trkpt>
      <trkpt lat="48.12166" lon="6.45861">
        <ele>435.32421875</ele>
        <time>2014-04-27T07:04:32Z</time>
      </trkpt>
      <trkpt lat="48.12185" lon="6.45875">
        <ele>439.0859375</ele>
        <time>2014-04-27T07:04:46Z</time>
      </trkpt>
      <trkpt lat="48.12197" lon="6.45883">
        <ele>441.00390625</ele>
        <time>2014-04-27T07:04:55Z</time>
      </trkpt>
      <trkpt lat="48.12198" lon="6.45885">
        <ele>441.55078125</ele>
        <time>2014-04-27T07:04:57Z</time>
      </trkpt>
      <trkpt lat="48.12194" lon="6.45894">
        <ele>442.9609375</ele>
        <time>2014-04-27T07:05:03Z</time>
      </trkpt>
      <trkpt lat="48.12191" lon="6.45898">
        <ele>443.66015625</ele>
        <time>2014-04-27T07:05:07Z</time>
      </trkpt>
      <trkpt lat="48.12174" lon="6.4591">
        <ele>445.11328125</ele>
        <time>2014-04-27T07:05:17Z</time>
      </trkpt>
      <trkpt lat="48.12149" lon="6.45925">
        <ele>446.12109375</ele>
        <time>2014-04-27T07:05:28Z</time>
      </trkpt>
      <trkpt lat="48.12146" lon="6.45933">
        <ele>447.28125</ele>
        <time>2014-04-27T07:05:32Z</time>
      </trkpt>
      <trkpt lat="48.12118" lon="6.45939">
        <ele>446.796875</ele>
        <time>2014-04-27T07:05:43Z</time>
      </trkpt>
      <trkpt lat="48.12093" lon="6.45934">
        <ele>446.00390625</ele>
        <time>2014-04-27T07:05:49Z</time>
      </trkpt>
      <trkpt lat="48.12088" lon="6.45933">
        <ele>446.01953125</ele>
        <time>2014-04-27T07:05:50Z</time>
      </trkpt>
      <trkpt lat="48.12084" lon="6.45931">
        <ele>446.01171875</ele>
        <time>2014-04-27T07:05:51Z</time>
      </trkpt>
      <trkpt lat="48.12053" lon="6.45913">
        <ele>445.35546875</ele>
        <time>2014-04-27T07:05:57Z</time>
      </trkpt>
      <trkpt lat="48.12019" lon="6.45891">
        <ele>446.08203125</ele>
        <time>2014-04-27T07:06:03Z</time>
      </trkpt>
      <trkpt lat="48.1199" lon="6.45866">
        <ele>447.6328125</ele>
        <time>2014-04-27T07:06:08Z</time>
      </trkpt>
      <trkpt lat="48.1197" lon="6.45843">
        <ele>448.28125</ele>
        <time>2014-04-27T07:06:12Z</time>
      </trkpt>
      <trkpt lat="48.11944" lon="6.45802">
        <ele>446.4453125</ele>
        <time>2014-04-27T07:06:19Z</time>
      </trkpt>
      <trkpt lat="48.11916" lon="6.45774">
        <ele>446.078125</ele>
        <time>2014-04-27T07:06:25Z</time>
      </trkpt>
      <trkpt lat="48.11868" lon="6.45746">
        <ele>447.796875</ele>
        <time>2014-04-27T07:06:37Z</time>
      </trkpt>
      <trkpt lat="48.11839" lon="6.45733">
        <ele>448.921875</ele>
        <time>2014-04-27T07:06:46Z</time>
      </trkpt>
      <trkpt lat="48.11803" lon="6.45717">
        <ele>449.0546875</ele>
        <time>2014-04-27T07:06:56Z</time>
      </trkpt>
      <trkpt lat="48.11757" lon="6.45696">
        <ele>447.2265625</ele>
        <time>2014-04-27T07:07:08Z</time>
      </trkpt>
      <trkpt lat="48.11703" lon="6.45684">
        <ele>443.2734375</ele>
        <time>2014-04-27T07:07:19Z</time>
      </trkpt>
      <trkpt lat="48.1169" lon="6.45685">
        <ele>441.7890625</ele>
        <time>2014-04-27T07:07:21Z</time>
      </trkpt>
      <trkpt lat="48.11685" lon="6.45687">
        <ele>441.36328125</ele>
        <time>2014-04-27T07:07:22Z</time>
      </trkpt>
      <trkpt lat="48.11679" lon="6.4569">
        <ele>440.9921875</ele>
        <time>2014-04-27T07:07:23Z</time>
      </trkpt>
      <trkpt lat="48.11674" lon="6.45694">
        <ele>440.50390625</ele>
        <time>2014-04-27T07:07:24Z</time>
      </trkpt>
      <trkpt lat="48.11669" lon="6.45699">
        <ele>440.1484375</ele>
        <time>2014-04-27T07:07:25Z</time>
      </trkpt>
      <trkpt lat="48.11664" lon="6.45704">
        <ele>439.72265625</ele>
        <time>2014-04-27T07:07:26Z</time>
      </trkpt>
      <trkpt lat="48.1166" lon="6.4571">
        <ele>439.41015625</ele>
        <time>2014-04-27T07:07:27Z</time>
      </trkpt>
      <trkpt lat="48.11656" lon="6.45717">
        <ele>439.046875</ele>
        <time>2014-04-27T07:07:28Z</time>
      </trkpt>
      <trkpt lat="48.11653" lon="6.45724">
        <ele>438.76171875</ele>
        <time>2014-04-27T07:07:29Z</time>
      </trkpt>
      <trkpt lat="48.1165" lon="6.45731">
        <ele>438.734375</ele>
        <time>2014-04-27T07:07:30Z</time>
      </trkpt>
      <trkpt lat="48.11648" lon="6.45739">
        <ele>438.828125</ele>
        <time>2014-04-27T07:07:31Z</time>
      </trkpt>
      <trkpt lat="48.11625" lon="6.45848">
        <ele>439.8203125</ele>
        <time>2014-04-27T07:07:45Z</time>
      </trkpt>
      <trkpt lat="48.11618" lon="6.45883">
        <ele>439.93359375</ele>
        <time>2014-04-27T07:07:50Z</time>
      </trkpt>
      <trkpt lat="48.11616" lon="6.45897">
        <ele>440.09765625</ele>
        <time>2014-04-27T07:07:52Z</time>
      </trkpt>
      <trkpt lat="48.11616" lon="6.45904">
        <ele>440.234375</ele>
        <time>2014-04-27T07:07:53Z</time>
      </trkpt>
      <trkpt lat="48.11615" lon="6.45926">
        <ele>440.68359375</ele>
        <time>2014-04-27T07:07:56Z</time>
      </trkpt>
      <trkpt lat="48.11615" lon="6.45938">
        <ele>441.06640625</ele>
        <time>2014-04-27T07:07:58Z</time>
      </trkpt>
      <trkpt lat="48.11618" lon="6.45977">
        <ele>442.0234375</ele>
        <time>2014-04-27T07:08:05Z</time>
      </trkpt>
      <trkpt lat="48.1162" lon="6.46001">
        <ele>442.578125</ele>
        <time>2014-04-27T07:08:08Z</time>
      </trkpt>
      <trkpt lat="48.11638" lon="6.46078">
        <ele>445.5703125</ele>
        <time>2014-04-27T07:08:20Z</time>
      </trkpt>
      <trkpt lat="48.11649" lon="6.46113">
        <ele>446.5234375</ele>
        <time>2014-04-27T07:08:26Z</time>
      </trkpt>
      <trkpt lat="48.11653" lon="6.46124">
        <ele>446.60546875</ele>
        <time>2014-04-27T07:08:28Z</time>
      </trkpt>
      <trkpt lat="48.11656" lon="6.46129">
        <ele>446.7734375</ele>
        <time>2014-04-27T07:08:29Z</time>
      </trkpt>
      <trkpt lat="48.11658" lon="6.46133">
        <ele>447.0390625</ele>
        <time>2014-04-27T07:08:30Z</time>
      </trkpt>
      <trkpt lat="48.11661" lon="6.46135">
        <ele>447.328125</ele>
        <time>2014-04-27T07:08:31Z</time>
      </trkpt>
      <trkpt lat="48.11664" lon="6.46137">
        <ele>447.60546875</ele>
        <time>2014-04-27T07:08:32Z</time>
      </trkpt>
      <trkpt lat="48.11667" lon="6.46139">
        <ele>447.8828125</ele>
        <time>2014-04-27T07:08:33Z</time>
      </trkpt>
      <trkpt lat="48.1167" lon="6.46141">
        <ele>448.18359375</ele>
        <time>2014-04-27T07:08:34Z</time>
      </trkpt>
      <trkpt lat="48.11706" lon="6.46177">
        <ele>451.66015625</ele>
        <time>2014-04-27T07:08:49Z</time>
      </trkpt>
      <trkpt lat="48.11743" lon="6.46213">
        <ele>455.73046875</ele>
        <time>2014-04-27T07:09:03Z</time>
      </trkpt>
      <trkpt lat="48.11783" lon="6.4623">
        <ele>459.53515625</ele>
        <time>2014-04-27T07:09:17Z</time>
      </trkpt>
      <trkpt lat="48.11824" lon="6.46226">
        <ele>462.80859375</ele>
        <time>2014-04-27T07:09:31Z</time>
      </trkpt>
      <trkpt lat="48.11873" lon="6.46232">
        <ele>465.921875</ele>
        <time>2014-04-27T07:09:46Z</time>
      </trkpt>
      <trkpt lat="48.11901" lon="6.46245">
        <ele>466.01171875</ele>
        <time>2014-04-27T07:09:54Z</time>
      </trkpt>
      <trkpt lat="48.11955" lon="6.46272">
        <ele>466.9296875</ele>
        <time>2014-04-27T07:10:06Z</time>
      </trkpt>
      <trkpt lat="48.1196" lon="6.46274">
        <ele>466.96484375</ele>
        <time>2014-04-27T07:10:07Z</time>
      </trkpt>
      <trkpt lat="48.11982" lon="6.46284">
        <ele>467.25390625</ele>
        <time>2014-04-27T07:10:11Z</time>
      </trkpt>
      <trkpt lat="48.11987" lon="6.46285">
        <ele>467.36328125</ele>
        <time>2014-04-27T07:10:12Z</time>
      </trkpt>
      <trkpt lat="48.11993" lon="6.46287">
        <ele>467.39453125</ele>
        <time>2014-04-27T07:10:13Z</time>
      </trkpt>
      <trkpt lat="48.11997" lon="6.46289">
        <ele>467.4296875</ele>
        <time>2014-04-27T07:10:14Z</time>
      </trkpt>
      <trkpt lat="48.12001" lon="6.4629">
        <ele>467.4921875</ele>
        <time>2014-04-27T07:10:15Z</time>
      </trkpt>
      <trkpt lat="48.12005" lon="6.4629">
        <ele>467.72265625</ele>
        <time>2014-04-27T07:10:16Z</time>
      </trkpt>
      <trkpt lat="48.1201" lon="6.4629">
        <ele>467.98046875</ele>
        <time>2014-04-27T07:10:17Z</time>
      </trkpt>
      <trkpt lat="48.12015" lon="6.46291">
        <ele>468.15234375</ele>
        <time>2014-04-27T07:10:18Z</time>
      </trkpt>
      <trkpt lat="48.1202" lon="6.46291">
        <ele>468.28125</ele>
        <time>2014-04-27T07:10:19Z</time>
      </trkpt>
      <trkpt lat="48.12026" lon="6.46291">
        <ele>468.54296875</ele>
        <time>2014-04-27T07:10:20Z</time>
      </trkpt>
      <trkpt lat="48.12031" lon="6.46289">
        <ele>468.9140625</ele>
        <time>2014-04-27T07:10:21Z</time>
      </trkpt>
      <trkpt lat="48.12044" lon="6.46284">
        <ele>469.84765625</ele>
        <time>2014-04-27T07:10:24Z</time>
      </trkpt>
      <trkpt lat="48.12049" lon="6.46283">
        <ele>469.984375</ele>
        <time>2014-04-27T07:10:25Z</time>
      </trkpt>
      <trkpt lat="48.12094" lon="6.46256">
        <ele>471.30078125</ele>
        <time>2014-04-27T07:10:36Z</time>
      </trkpt>
      <trkpt lat="48.1211" lon="6.46243">
        <ele>471.0859375</ele>
        <time>2014-04-27T07:10:40Z</time>
      </trkpt>
      <trkpt lat="48.12141" lon="6.46208">
        <ele>470.94140625</ele>
        <time>2014-04-27T07:10:48Z</time>
      </trkpt>
      <trkpt lat="48.12153" lon="6.46197">
        <ele>470.65234375</ele>
        <time>2014-04-27T07:10:51Z</time>
      </trkpt>
      <trkpt lat="48.12158" lon="6.46196">
        <ele>470.51953125</ele>
        <time>2014-04-27T07:10:52Z</time>
      </trkpt>
      <trkpt lat="48.12163" lon="6.46196">
        <ele>470.34765625</ele>
        <time>2014-04-27T07:10:53Z</time>
      </trkpt>
      <trkpt lat="48.12179" lon="6.46195">
        <ele>469.80859375</ele>
        <time>2014-04-27T07:10:56Z</time>
      </trkpt>
      <trkpt lat="48.1219" lon="6.46197">
        <ele>469.6484375</ele>
        <time>2014-04-27T07:10:58Z</time>
      </trkpt>
      <trkpt lat="48.12196" lon="6.46197">
        <ele>469.5625</ele>
        <time>2014-04-27T07:10:59Z</time>
      </trkpt>
      <trkpt lat="48.12202" lon="6.46199">
        <ele>469.38671875</ele>
        <time>2014-04-27T07:11:00Z</time>
      </trkpt>
      <trkpt lat="48.12212" lon="6.46205">
        <ele>468.921875</ele>
        <time>2014-04-27T07:11:02Z</time>
      </trkpt>
      <trkpt lat="48.12216" lon="6.46209">
        <ele>468.625</ele>
        <time>2014-04-27T07:11:03Z</time>
      </trkpt>
      <trkpt lat="48.12233" lon="6.46231">
        <ele>466.56640625</ele>
        <time>2014-04-27T07:11:07Z</time>
      </trkpt>
      <trkpt lat="48.12238" lon="6.46236">
        <ele>466.1484375</ele>
        <time>2014-04-27T07:11:08Z</time>
      </trkpt>
      <trkpt lat="48.12247" lon="6.46245">
        <ele>465.44921875</ele>
        <time>2014-04-27T07:11:10Z</time>
      </trkpt>
      <trkpt lat="48.12251" lon="6.4625">
        <ele>465.01171875</ele>
        <time>2014-04-27T07:11:11Z</time>
      </trkpt>
      <trkpt lat="48.1227" lon="6.46268">
        <ele>464.03125</ele>
        <time>2014-04-27T07:11:15Z</time>
      </trkpt>
      <trkpt lat="48.12279" lon="6.46281">
        <ele>463.359375</ele>
        <time>2014-04-27T07:11:17Z</time>
      </trkpt>
      <trkpt lat="48.12282" lon="6.46288">
        <ele>462.79296875</ele>
        <time>2014-04-27T07:11:18Z</time>
      </trkpt>
      <trkpt lat="48.12286" lon="6.46295">
        <ele>462.265625</ele>
        <time>2014-04-27T07:11:19Z</time>
      </trkpt>
      <trkpt lat="48.12305" lon="6.46323">
        <ele>460.62109375</ele>
        <time>2014-04-27T07:11:23Z</time>
      </trkpt>
      <trkpt lat="48.12332" lon="6.46373">
        <ele>458.3984375</ele>
        <time>2014-04-27T07:11:29Z</time>
      </trkpt>
      <trkpt lat="48.12335" lon="6.46382">
        <ele>457.75</ele>
        <time>2014-04-27T07:11:30Z</time>
      </trkpt>
      <trkpt lat="48.12338" lon="6.46391">
        <ele>457.07421875</ele>
        <time>2014-04-27T07:11:31Z</time>
      </trkpt>
      <trkpt lat="48.12341" lon="6.46401">
        <ele>456.28515625</ele>
        <time>2014-04-27T07:11:32Z</time>
      </trkpt>
      <trkpt lat="48.12343" lon="6.46412">
        <ele>455.44921875</ele>
        <time>2014-04-27T07:11:33Z</time>
      </trkpt>
      <trkpt lat="48.12347" lon="6.46432">
        <ele>454.10546875</ele>
        <time>2014-04-27T07:11:36Z</time>
      </trkpt>
      <trkpt lat="48.12348" lon="6.46434">
        <ele>454.1171875</ele>
        <time>2014-04-27T07:11:37Z</time>
      </trkpt>
      <trkpt lat="48.12349" lon="6.46435">
        <ele>454.25390625</ele>
        <time>2014-04-27T07:11:38Z</time>
      </trkpt>
      <trkpt lat="48.12362" lon="6.46443">
        <ele>456.30078125</ele>
        <time>2014-04-27T07:11:45Z</time>
      </trkpt>
      <trkpt lat="48.12387" lon="6.46482">
        <ele>458.03515625</ele>
        <time>2014-04-27T07:11:56Z</time>
      </trkpt>
      <trkpt lat="48.12401" lon="6.465">
        <ele>459.5546875</ele>
        <time>2014-04-27T07:12:01Z</time>
      </trkpt>
      <trkpt lat="48.12421" lon="6.46519">
        <ele>460.57421875</ele>
        <time>2014-04-27T07:12:08Z</time>
      </trkpt>
      <trkpt lat="48.12424" lon="6.46525">
        <ele>460.2734375</ele>
        <time>2014-04-27T07:12:09Z</time>
      </trkpt>
      <trkpt lat="48.12425" lon="6.46532">
        <ele>459.83984375</ele>
        <time>2014-04-27T07:12:10Z</time>
      </trkpt>
      <trkpt lat="48.12424" lon="6.46547">
        <ele>458.6015625</ele>
        <time>2014-04-27T07:12:12Z</time>
      </trkpt>
      <trkpt lat="48.12423" lon="6.46622">
        <ele>447.50390625</ele>
        <time>2014-04-27T07:12:21Z</time>
      </trkpt>
      <trkpt lat="48.12414" lon="6.46629">
        <ele>445.296875</ele>
        <time>2014-04-27T07:12:26Z</time>
      </trkpt>
      <trkpt lat="48.12398" lon="6.46627">
        <ele>443.81640625</ele>
        <time>2014-04-27T07:12:35Z</time>
      </trkpt>
      <trkpt lat="48.12386" lon="6.46635">
        <ele>441.1953125</ele>
        <time>2014-04-27T07:12:39Z</time>
      </trkpt>
      <trkpt lat="48.12382" lon="6.46637">
        <ele>440.4296875</ele>
        <time>2014-04-27T07:12:40Z</time>
      </trkpt>
      <trkpt lat="48.12377" lon="6.4664">
        <ele>439.48046875</ele>
        <time>2014-04-27T07:12:41Z</time>
      </trkpt>
      <trkpt lat="48.12371" lon="6.46641">
        <ele>438.59375</ele>
        <time>2014-04-27T07:12:42Z</time>
      </trkpt>
      <trkpt lat="48.12364" lon="6.46641">
        <ele>437.66015625</ele>
        <time>2014-04-27T07:12:43Z</time>
      </trkpt>
      <trkpt lat="48.12358" lon="6.46638">
        <ele>437.18359375</ele>
        <time>2014-04-27T07:12:44Z</time>
      </trkpt>
      <trkpt lat="48.12353" lon="6.46633">
        <ele>437.0546875</ele>
        <time>2014-04-27T07:12:45Z</time>
      </trkpt>
      <trkpt lat="48.12333" lon="6.46624">
        <ele>434.82421875</ele>
        <time>2014-04-27T07:12:48Z</time>
      </trkpt>
      <trkpt lat="48.1229" lon="6.46617">
        <ele>427.5234375</ele>
        <time>2014-04-27T07:12:53Z</time>
      </trkpt>
      <trkpt lat="48.12269" lon="6.46615">
        <ele>423.69921875</ele>
        <time>2014-04-27T07:12:56Z</time>
      </trkpt>
      <trkpt lat="48.12261" lon="6.46614">
        <ele>422.1484375</ele>
        <time>2014-04-27T07:12:58Z</time>
      </trkpt>
      <trkpt lat="48.12257" lon="6.46615">
        <ele>420.91015625</ele>
        <time>2014-04-27T07:13:00Z</time>
      </trkpt>
      <trkpt lat="48.12245" lon="6.46591">
        <ele>419.2109375</ele>
        <time>2014-04-27T07:13:12Z</time>
      </trkpt>
      <trkpt lat="48.12245" lon="6.46585">
        <ele>419.36328125</ele>
        <time>2014-04-27T07:13:15Z</time>
      </trkpt>
      <trkpt lat="48.12249" lon="6.46544">
        <ele>421.421875</ele>
        <time>2014-04-27T07:13:27Z</time>
      </trkpt>
      <trkpt lat="48.12249" lon="6.4653">
        <ele>422.25390625</ele>
        <time>2014-04-27T07:13:33Z</time>
      </trkpt>
      <trkpt lat="48.12239" lon="6.46524">
        <ele>420.765625</ele>
        <time>2014-04-27T07:13:37Z</time>
      </trkpt>
      <trkpt lat="48.12235" lon="6.46526">
        <ele>419.78515625</ele>
        <time>2014-04-27T07:13:38Z</time>
      </trkpt>
      <trkpt lat="48.1223" lon="6.46529">
        <ele>419.12109375</ele>
        <time>2014-04-27T07:13:39Z</time>
      </trkpt>
      <trkpt lat="48.12224" lon="6.46536">
        <ele>418.10546875</ele>
        <time>2014-04-27T07:13:40Z</time>
      </trkpt>
      <trkpt lat="48.12219" lon="6.46544">
        <ele>416.8984375</ele>
        <time>2014-04-27T07:13:41Z</time>
      </trkpt>
      <trkpt lat="48.12214" lon="6.46553">
        <ele>415.6015625</ele>
        <time>2014-04-27T07:13:42Z</time>
      </trkpt>
      <trkpt lat="48.12206" lon="6.46571">
        <ele>413.6171875</ele>
        <time>2014-04-27T07:13:44Z</time>
      </trkpt>
      <trkpt lat="48.12203" lon="6.4658">
        <ele>413.00390625</ele>
        <time>2014-04-27T07:13:45Z</time>
      </trkpt>
      <trkpt lat="48.12197" lon="6.46602">
        <ele>411.05078125</ele>
        <time>2014-04-27T07:13:47Z</time>
      </trkpt>
      <trkpt lat="48.12195" lon="6.46612">
        <ele>410.046875</ele>
        <time>2014-04-27T07:13:48Z</time>
      </trkpt>
      <trkpt lat="48.12192" lon="6.46621">
        <ele>409.08203125</ele>
        <time>2014-04-27T07:13:49Z</time>
      </trkpt>
      <trkpt lat="48.12188" lon="6.46629">
        <ele>408.08203125</ele>
        <time>2014-04-27T07:13:50Z</time>
      </trkpt>
      <trkpt lat="48.12183" lon="6.46637">
        <ele>407.11328125</ele>
        <time>2014-04-27T07:13:51Z</time>
      </trkpt>
      <trkpt lat="48.12173" lon="6.46659">
        <ele>405.4453125</ele>
        <time>2014-04-27T07:13:54Z</time>
      </trkpt>
      <trkpt lat="48.12171" lon="6.46666">
        <ele>404.90234375</ele>
        <time>2014-04-27T07:13:55Z</time>
      </trkpt>
      <trkpt lat="48.12168" lon="6.46682">
        <ele>403.671875</ele>
        <time>2014-04-27T07:13:57Z</time>
      </trkpt>
      <trkpt lat="48.12165" lon="6.46699">
        <ele>402.12109375</ele>
        <time>2014-04-27T07:13:59Z</time>
      </trkpt>
      <trkpt lat="48.12165" lon="6.46706">
        <ele>401.46484375</ele>
        <time>2014-04-27T07:14:00Z</time>
      </trkpt>
      <trkpt lat="48.12165" lon="6.46713">
        <ele>400.890625</ele>
        <time>2014-04-27T07:14:01Z</time>
      </trkpt>
      <trkpt lat="48.12166" lon="6.46717">
        <ele>400.55078125</ele>
        <time>2014-04-27T07:14:02Z</time>
      </trkpt>
      <trkpt lat="48.12167" lon="6.46719">
        <ele>400.40234375</ele>
        <time>2014-04-27T07:14:03Z</time>
      </trkpt>
      <trkpt lat="48.12166" lon="6.46722">
        <ele>400.1875</ele>
        <time>2014-04-27T07:14:04Z</time>
      </trkpt>
      <trkpt lat="48.12167" lon="6.46725">
        <ele>399.99609375</ele>
        <time>2014-04-27T07:14:05Z</time>
      </trkpt>
      <trkpt lat="48.12166" lon="6.46729">
        <ele>399.6796875</ele>
        <time>2014-04-27T07:14:06Z</time>
      </trkpt>
      <trkpt lat="48.12164" lon="6.46734">
        <ele>399.265625</ele>
        <time>2014-04-27T07:14:08Z</time>
      </trkpt>
      <trkpt lat="48.12165" lon="6.46737">
        <ele>399.08203125</ele>
        <time>2014-04-27T07:14:09Z</time>
      </trkpt>
      <trkpt lat="48.12167" lon="6.4674">
        <ele>398.88671875</ele>
        <time>2014-04-27T07:14:10Z</time>
      </trkpt>
      <trkpt lat="48.12168" lon="6.46745">
        <ele>398.62890625</ele>
        <time>2014-04-27T07:14:11Z</time>
      </trkpt>
      <trkpt lat="48.1217" lon="6.4675">
        <ele>398.2890625</ele>
        <time>2014-04-27T07:14:12Z</time>
      </trkpt>
      <trkpt lat="48.12169" lon="6.46758">
        <ele>397.6953125</ele>
        <time>2014-04-27T07:14:13Z</time>
      </trkpt>
      <trkpt lat="48.12167" lon="6.46768">
        <ele>396.87890625</ele>
        <time>2014-04-27T07:14:14Z</time>
      </trkpt>
      <trkpt lat="48.12147" lon="6.46829">
        <ele>394.328125</ele>
        <time>2014-04-27T07:14:21Z</time>
      </trkpt>
      <trkpt lat="48.12157" lon="6.46843">
        <ele>396.43359375</ele>
        <time>2014-04-27T07:14:30Z</time>
      </trkpt>
      <trkpt lat="48.12159" lon="6.46848">
        <ele>397.046875</ele>
        <time>2014-04-27T07:14:33Z</time>
      </trkpt>
      <trkpt lat="48.12156" lon="6.46858">
        <ele>399.05078125</ele>
        <time>2014-04-27T07:14:45Z</time>
      </trkpt>
      <trkpt lat="48.12152" lon="6.46858">
        <ele>399.40234375</ele>
        <time>2014-04-27T07:14:57Z</time>
      </trkpt>
      <trkpt lat="48.12143" lon="6.46848">
        <ele>398.12890625</ele>
        <time>2014-04-27T07:15:06Z</time>
      </trkpt>
      <trkpt lat="48.1214" lon="6.46845">
        <ele>397.71484375</ele>
        <time>2014-04-27T07:15:09Z</time>
      </trkpt>
      <trkpt lat="48.12132" lon="6.46841">
        <ele>397.44140625</ele>
        <time>2014-04-27T07:15:13Z</time>
      </trkpt>
      <trkpt lat="48.12103" lon="6.46835">
        <ele>399.58203125</ele>
        <time>2014-04-27T07:15:23Z</time>
      </trkpt>
      <trkpt lat="48.12094" lon="6.46834">
        <ele>400.41796875</ele>
        <time>2014-04-27T07:15:27Z</time>
      </trkpt>
      <trkpt lat="48.12086" lon="6.4683">
        <ele>400.8515625</ele>
        <time>2014-04-27T07:15:32Z</time>
      </trkpt>
      <trkpt lat="48.12073" lon="6.46817">
        <ele>401.546875</ele>
        <time>2014-04-27T07:15:41Z</time>
      </trkpt>
      <trkpt lat="48.12049" lon="6.46804">
        <ele>402.75390625</ele>
        <time>2014-04-27T07:15:47Z</time>
      </trkpt>
      <trkpt lat="48.12037" lon="6.46796">
        <ele>402.8203125</ele>
        <time>2014-04-27T07:15:50Z</time>
      </trkpt>
      <trkpt lat="48.12024" lon="6.46786">
        <ele>402.56640625</ele>
        <time>2014-04-27T07:15:54Z</time>
      </trkpt>
      <trkpt lat="48.11981" lon="6.46775">
        <ele>403.53515625</ele>
        <time>2014-04-27T07:16:04Z</time>
      </trkpt>
      <trkpt lat="48.11933" lon="6.46777">
        <ele>405.6875</ele>
        <time>2014-04-27T07:16:15Z</time>
      </trkpt>
      <trkpt lat="48.11899" lon="6.46786">
        <ele>407.5859375</ele>
        <time>2014-04-27T07:16:27Z</time>
      </trkpt>
      <trkpt lat="48.11891" lon="6.46788">
        <ele>408.125</ele>
        <time>2014-04-27T07:16:30Z</time>
      </trkpt>
      <trkpt lat="48.1187" lon="6.46798">
        <ele>410.6015625</ele>
        <time>2014-04-27T07:16:39Z</time>
      </trkpt>
      <trkpt lat="48.11824" lon="6.46815">
        <ele>413.1171875</ele>
        <time>2014-04-27T07:16:50Z</time>
      </trkpt>
      <trkpt lat="48.11839" lon="6.46839">
        <ele>416.62109375</ele>
        <time>2014-04-27T07:17:05Z</time>
      </trkpt>
      <trkpt lat="48.11847" lon="6.46853">
        <ele>418.56640625</ele>
        <time>2014-04-27T07:17:12Z</time>
      </trkpt>
      <trkpt lat="48.11857" lon="6.46878">
        <ele>422.5859375</ele>
        <time>2014-04-27T07:17:22Z</time>
      </trkpt>
      <trkpt lat="48.11858" lon="6.46883">
        <ele>423.359375</ele>
        <time>2014-04-27T07:17:24Z</time>
      </trkpt>
      <trkpt lat="48.11867" lon="6.46904">
        <ele>425.41796875</ele>
        <time>2014-04-27T07:17:36Z</time>
      </trkpt>
      <trkpt lat="48.11873" lon="6.46914">
        <ele>426.1875</ele>
        <time>2014-04-27T07:17:41Z</time>
      </trkpt>
      <trkpt lat="48.11874" lon="6.46929">
        <ele>427.30078125</ele>
        <time>2014-04-27T07:17:46Z</time>
      </trkpt>
      <trkpt lat="48.11869" lon="6.46936">
        <ele>427.80078125</ele>
        <time>2014-04-27T07:17:48Z</time>
      </trkpt>
      <trkpt lat="48.11858" lon="6.46948">
        <ele>428.50390625</ele>
        <time>2014-04-27T07:17:51Z</time>
      </trkpt>
      <trkpt lat="48.11851" lon="6.46956">
        <ele>429.0859375</ele>
        <time>2014-04-27T07:17:53Z</time>
      </trkpt>
      <trkpt lat="48.11844" lon="6.46963">
        <ele>429.76171875</ele>
        <time>2014-04-27T07:17:55Z</time>
      </trkpt>
      <trkpt lat="48.11829" lon="6.46975">
        <ele>431.20703125</ele>
        <time>2014-04-27T07:18:03Z</time>
      </trkpt>
      <trkpt lat="48.11819" lon="6.46984">
        <ele>432.21484375</ele>
        <time>2014-04-27T07:18:07Z</time>
      </trkpt>
      <trkpt lat="48.11781" lon="6.47013">
        <ele>434.33984375</ele>
        <time>2014-04-27T07:18:17Z</time>
      </trkpt>
      <trkpt lat="48.11752" lon="6.47013">
        <ele>433.6640625</ele>
        <time>2014-04-27T07:18:26Z</time>
      </trkpt>
      <trkpt lat="48.11739" lon="6.4702">
        <ele>433.921875</ele>
        <time>2014-04-27T07:18:30Z</time>
      </trkpt>
      <trkpt lat="48.11718" lon="6.47026">
        <ele>432.78125</ele>
        <time>2014-04-27T07:18:35Z</time>
      </trkpt>
      <trkpt lat="48.11685" lon="6.47033">
        <ele>431.203125</ele>
        <time>2014-04-27T07:18:43Z</time>
      </trkpt>
      <trkpt lat="48.11673" lon="6.47087">
        <ele>430.43359375</ele>
        <time>2014-04-27T07:18:54Z</time>
      </trkpt>
      <trkpt lat="48.11674" lon="6.47094">
        <ele>430.21484375</ele>
        <time>2014-04-27T07:18:55Z</time>
      </trkpt>
      <trkpt lat="48.11691" lon="6.47169">
        <ele>426.6171875</ele>
        <time>2014-04-27T07:19:02Z</time>
      </trkpt>
      <trkpt lat="48.11698" lon="6.47238">
        <ele>418.58203125</ele>
        <time>2014-04-27T07:19:07Z</time>
      </trkpt>
      <trkpt lat="48.11702" lon="6.47252">
        <ele>416.78125</ele>
        <time>2014-04-27T07:19:08Z</time>
      </trkpt>
      <trkpt lat="48.11708" lon="6.47265">
        <ele>414.9921875</ele>
        <time>2014-04-27T07:19:09Z</time>
      </trkpt>
      <trkpt lat="48.11715" lon="6.4728">
        <ele>412.9296875</ele>
        <time>2014-04-27T07:19:10Z</time>
      </trkpt>
      <trkpt lat="48.11724" lon="6.47295">
        <ele>410.796875</ele>
        <time>2014-04-27T07:19:11Z</time>
      </trkpt>
      <trkpt lat="48.11732" lon="6.47307">
        <ele>408.94921875</ele>
        <time>2014-04-27T07:19:12Z</time>
      </trkpt>
      <trkpt lat="48.11759" lon="6.47352">
        <ele>402.37109375</ele>
        <time>2014-04-27T07:19:15Z</time>
      </trkpt>
      <trkpt lat="48.11766" lon="6.47368">
        <ele>401.0390625</ele>
        <time>2014-04-27T07:19:16Z</time>
      </trkpt>
      <trkpt lat="48.1177" lon="6.47384">
        <ele>399.9375</ele>
        <time>2014-04-27T07:19:17Z</time>
      </trkpt>
      <trkpt lat="48.1179" lon="6.47464">
        <ele>397.9140625</ele>
        <time>2014-04-27T07:19:23Z</time>
      </trkpt>
      <trkpt lat="48.11797" lon="6.47507">
        <ele>398.6875</ele>
        <time>2014-04-27T07:19:28Z</time>
      </trkpt>
      <trkpt lat="48.11799" lon="6.47513">
        <ele>398.96875</ele>
        <time>2014-04-27T07:19:29Z</time>
      </trkpt>
      <trkpt lat="48.11801" lon="6.47518">
        <ele>399.21875</ele>
        <time>2014-04-27T07:19:30Z</time>
      </trkpt>
      <trkpt lat="48.11804" lon="6.47521">
        <ele>399.4453125</ele>
        <time>2014-04-27T07:19:31Z</time>
      </trkpt>
      <trkpt lat="48.11807" lon="6.47524">
        <ele>399.703125</ele>
        <time>2014-04-27T07:19:32Z</time>
      </trkpt>
      <trkpt lat="48.11811" lon="6.4753">
        <ele>400.32421875</ele>
        <time>2014-04-27T07:19:34Z</time>
      </trkpt>
      <trkpt lat="48.11811" lon="6.47534">
        <ele>400.578125</ele>
        <time>2014-04-27T07:19:35Z</time>
      </trkpt>
      <trkpt lat="48.1181" lon="6.47537">
        <ele>400.76953125</ele>
        <time>2014-04-27T07:19:36Z</time>
      </trkpt>
      <trkpt lat="48.11808" lon="6.4754">
        <ele>400.91796875</ele>
        <time>2014-04-27T07:19:37Z</time>
      </trkpt>
      <trkpt lat="48.11806" lon="6.47543">
        <ele>401.05078125</ele>
        <time>2014-04-27T07:19:38Z</time>
      </trkpt>
      <trkpt lat="48.1177" lon="6.47605">
        <ele>402.9609375</ele>
        <time>2014-04-27T07:19:53Z</time>
      </trkpt>
      <trkpt lat="48.11754" lon="6.4767">
        <ele>406.3203125</ele>
        <time>2014-04-27T07:20:07Z</time>
      </trkpt>
      <trkpt lat="48.1174" lon="6.47727">
        <ele>409.14453125</ele>
        <time>2014-04-27T07:20:20Z</time>
      </trkpt>
      <trkpt lat="48.1175" lon="6.47788">
        <ele>411.44921875</ele>
        <time>2014-04-27T07:20:34Z</time>
      </trkpt>
      <trkpt lat="48.11778" lon="6.47826">
        <ele>415.06640625</ele>
        <time>2014-04-27T07:20:46Z</time>
      </trkpt>
      <trkpt lat="48.11807" lon="6.47865">
        <ele>418.54296875</ele>
        <time>2014-04-27T07:20:58Z</time>
      </trkpt>
      <trkpt lat="48.1181" lon="6.47865">
        <ele>418.76171875</ele>
        <time>2014-04-27T07:20:59Z</time>
      </trkpt>
      <trkpt lat="48.11813" lon="6.47863">
        <ele>418.90234375</ele>
        <time>2014-04-27T07:21:00Z</time>
      </trkpt>
      <trkpt lat="48.11856" lon="6.47816">
        <ele>419.921875</ele>
        <time>2014-04-27T07:21:13Z</time>
      </trkpt>
      <trkpt lat="48.11859" lon="6.47813">
        <ele>419.96875</ele>
        <time>2014-04-27T07:21:14Z</time>
      </trkpt>
      <trkpt lat="48.11864" lon="6.47812">
        <ele>420.07421875</ele>
        <time>2014-04-27T07:21:15Z</time>
      </trkpt>
      <trkpt lat="48.11867" lon="6.47814">
        <ele>420.28515625</ele>
        <time>2014-04-27T07:21:16Z</time>
      </trkpt>
      <trkpt lat="48.1187" lon="6.47818">
        <ele>420.546875</ele>
        <time>2014-04-27T07:21:17Z</time>
      </trkpt>
      <trkpt lat="48.11871" lon="6.47824">
        <ele>420.78515625</ele>
        <time>2014-04-27T07:21:18Z</time>
      </trkpt>
      <trkpt lat="48.11871" lon="6.4783">
        <ele>420.98046875</ele>
        <time>2014-04-27T07:21:19Z</time>
      </trkpt>
      <trkpt lat="48.1187" lon="6.47836">
        <ele>421.16015625</ele>
        <time>2014-04-27T07:21:20Z</time>
      </trkpt>
      <trkpt lat="48.11869" lon="6.47841">
        <ele>421.3359375</ele>
        <time>2014-04-27T07:21:21Z</time>
      </trkpt>
      <trkpt lat="48.11869" lon="6.47847">
        <ele>421.51953125</ele>
        <time>2014-04-27T07:21:22Z</time>
      </trkpt>
      <trkpt lat="48.11864" lon="6.4789">
        <ele>422.80078125</ele>
        <time>2014-04-27T07:21:29Z</time>
      </trkpt>
      <trkpt lat="48.11857" lon="6.4798">
        <ele>425.3046875</ele>
        <time>2014-04-27T07:21:43Z</time>
      </trkpt>
      <trkpt lat="48.11858" lon="6.48069">
        <ele>428.59375</ele>
        <time>2014-04-27T07:21:58Z</time>
      </trkpt>
      <trkpt lat="48.11858" lon="6.48075">
        <ele>428.81640625</ele>
        <time>2014-04-27T07:21:59Z</time>
      </trkpt>
      <trkpt lat="48.11858" lon="6.48081">
        <ele>429.03125</ele>
        <time>2014-04-27T07:22:00Z</time>
      </trkpt>
      <trkpt lat="48.11856" lon="6.48159">
        <ele>431</ele>
        <time>2014-04-27T07:22:14Z</time>
      </trkpt>
      <trkpt lat="48.11851" lon="6.48229">
        <ele>433.41015625</ele>
        <time>2014-04-27T07:22:26Z</time>
      </trkpt>
      <trkpt lat="48.11841" lon="6.48327">
        <ele>435.68359375</ele>
        <time>2014-04-27T07:22:43Z</time>
      </trkpt>
      <trkpt lat="48.11844" lon="6.48401">
        <ele>439.45703125</ele>
        <time>2014-04-27T07:22:56Z</time>
      </trkpt>
      <trkpt lat="48.11856" lon="6.48452">
        <ele>441.9296875</ele>
        <time>2014-04-27T07:23:05Z</time>
      </trkpt>
      <trkpt lat="48.11857" lon="6.48458">
        <ele>442.0546875</ele>
        <time>2014-04-27T07:23:06Z</time>
      </trkpt>
      <trkpt lat="48.11866" lon="6.48571">
        <ele>442.41015625</ele>
        <time>2014-04-27T07:23:22Z</time>
      </trkpt>
      <trkpt lat="48.11872" lon="6.48612">
        <ele>441.83203125</ele>
        <time>2014-04-27T07:23:27Z</time>
      </trkpt>
      <trkpt lat="48.11878" lon="6.48636">
        <ele>442.16796875</ele>
        <time>2014-04-27T07:23:30Z</time>
      </trkpt>
      <trkpt lat="48.11881" lon="6.48643">
        <ele>442.12890625</ele>
        <time>2014-04-27T07:23:31Z</time>
      </trkpt>
      <trkpt lat="48.11884" lon="6.48649">
        <ele>442.17578125</ele>
        <time>2014-04-27T07:23:32Z</time>
      </trkpt>
      <trkpt lat="48.11888" lon="6.48654">
        <ele>442.296875</ele>
        <time>2014-04-27T07:23:33Z</time>
      </trkpt>
      <trkpt lat="48.11893" lon="6.48658">
        <ele>442.4765625</ele>
        <time>2014-04-27T07:23:34Z</time>
      </trkpt>
      <trkpt lat="48.11898" lon="6.48661">
        <ele>442.71875</ele>
        <time>2014-04-27T07:23:35Z</time>
      </trkpt>
      <trkpt lat="48.11902" lon="6.48663">
        <ele>443.08203125</ele>
        <time>2014-04-27T07:23:36Z</time>
      </trkpt>
      <trkpt lat="48.11907" lon="6.48665">
        <ele>443.5546875</ele>
        <time>2014-04-27T07:23:37Z</time>
      </trkpt>
      <trkpt lat="48.11929" lon="6.48673">
        <ele>445.54296875</ele>
        <time>2014-04-27T07:23:42Z</time>
      </trkpt>
      <trkpt lat="48.11933" lon="6.48672">
        <ele>445.85546875</ele>
        <time>2014-04-27T07:23:43Z</time>
      </trkpt>
      <trkpt lat="48.11936" lon="6.48669">
        <ele>446.16796875</ele>
        <time>2014-04-27T07:23:44Z</time>
      </trkpt>
      <trkpt lat="48.11938" lon="6.48665">
        <ele>446.44140625</ele>
        <time>2014-04-27T07:23:45Z</time>
      </trkpt>
      <trkpt lat="48.11939" lon="6.48661">
        <ele>446.6953125</ele>
        <time>2014-04-27T07:23:46Z</time>
      </trkpt>
      <trkpt lat="48.11941" lon="6.48657">
        <ele>446.9140625</ele>
        <time>2014-04-27T07:23:47Z</time>
      </trkpt>
      <trkpt lat="48.11968" lon="6.4864">
        <ele>449.6328125</ele>
        <time>2014-04-27T07:23:57Z</time>
      </trkpt>
      <trkpt lat="48.12" lon="6.4863">
        <ele>452.7734375</ele>
        <time>2014-04-27T07:24:10Z</time>
      </trkpt>
      <trkpt lat="48.12035" lon="6.48615">
        <ele>456.55859375</ele>
        <time>2014-04-27T07:24:25Z</time>
      </trkpt>
      <trkpt lat="48.12071" lon="6.48601">
        <ele>459.33203125</ele>
        <time>2014-04-27T07:24:42Z</time>
      </trkpt>
      <trkpt lat="48.12103" lon="6.48591">
        <ele>463.46484375</ele>
        <time>2014-04-27T07:24:57Z</time>
      </trkpt>
      <trkpt lat="48.12134" lon="6.48587">
        <ele>467.37109375</ele>
        <time>2014-04-27T07:25:12Z</time>
      </trkpt>
      <trkpt lat="48.12157" lon="6.48588">
        <ele>470.171875</ele>
        <time>2014-04-27T07:25:24Z</time>
      </trkpt>
      <trkpt lat="48.12186" lon="6.48589">
        <ele>473.3046875</ele>
        <time>2014-04-27T07:25:39Z</time>
      </trkpt>
      <trkpt lat="48.12222" lon="6.48589">
        <ele>476.875</ele>
        <time>2014-04-27T07:25:54Z</time>
      </trkpt>
      <trkpt lat="48.12258" lon="6.48588">
        <ele>480.23046875</ele>
        <time>2014-04-27T07:26:09Z</time>
      </trkpt>
      <trkpt lat="48.1228" lon="6.48577">
        <ele>482.26953125</ele>
        <time>2014-04-27T07:26:21Z</time>
      </trkpt>
      <trkpt lat="48.12301" lon="6.48556">
        <ele>485.26953125</ele>
        <time>2014-04-27T07:26:34Z</time>
      </trkpt>
      <trkpt lat="48.12334" lon="6.48527">
        <ele>489.65234375</ele>
        <time>2014-04-27T07:26:49Z</time>
      </trkpt>
      <trkpt lat="48.12364" lon="6.48506">
        <ele>493.3359375</ele>
        <time>2014-04-27T07:27:02Z</time>
      </trkpt>
      <trkpt lat="48.1238" lon="6.48495">
        <ele>495.3125</ele>
        <time>2014-04-27T07:27:13Z</time>
      </trkpt>
      <trkpt lat="48.12377" lon="6.48492">
        <ele>495.4609375</ele>
        <time>2014-04-27T07:27:18Z</time>
      </trkpt>
      <trkpt lat="48.12373" lon="6.48489">
        <ele>495.671875</ele>
        <time>2014-04-27T07:27:21Z</time>
      </trkpt>
      <trkpt lat="48.12354" lon="6.48463">
        <ele>497.1484375</ele>
        <time>2014-04-27T07:27:35Z</time>
      </trkpt>
      <trkpt lat="48.12339" lon="6.48438">
        <ele>497.26953125</ele>
        <time>2014-04-27T07:27:46Z</time>
      </trkpt>
      <trkpt lat="48.12335" lon="6.48402">
        <ele>498.99609375</ele>
        <time>2014-04-27T07:27:59Z</time>
      </trkpt>
      <trkpt lat="48.12335" lon="6.4838">
        <ele>500.62890625</ele>
        <time>2014-04-27T07:28:10Z</time>
      </trkpt>
      <trkpt lat="48.12335" lon="6.48341">
        <ele>503.47265625</ele>
        <time>2014-04-27T07:28:25Z</time>
      </trkpt>
      <trkpt lat="48.12339" lon="6.48315">
        <ele>505.43359375</ele>
        <time>2014-04-27T07:28:34Z</time>
      </trkpt>
      <trkpt lat="48.12365" lon="6.48274">
        <ele>510.69921875</ele>
        <time>2014-04-27T07:28:49Z</time>
      </trkpt>
      <trkpt lat="48.12396" lon="6.48247">
        <ele>514.6328125</ele>
        <time>2014-04-27T07:29:02Z</time>
      </trkpt>
      <trkpt lat="48.12424" lon="6.48238">
        <ele>516.4765625</ele>
        <time>2014-04-27T07:29:10Z</time>
      </trkpt>
      <trkpt lat="48.12438" lon="6.48236">
        <ele>516.9375</ele>
        <time>2014-04-27T07:29:13Z</time>
      </trkpt>
      <trkpt lat="48.12444" lon="6.48233">
        <ele>516.9375</ele>
        <time>2014-04-27T07:29:14Z</time>
      </trkpt>
      <trkpt lat="48.12449" lon="6.48232">
        <ele>516.96875</ele>
        <time>2014-04-27T07:29:15Z</time>
      </trkpt>
      <trkpt lat="48.12454" lon="6.48231">
        <ele>516.9921875</ele>
        <time>2014-04-27T07:29:16Z</time>
      </trkpt>
      <trkpt lat="48.12459" lon="6.48229">
        <ele>516.84765625</ele>
        <time>2014-04-27T07:29:17Z</time>
      </trkpt>
      <trkpt lat="48.12464" lon="6.48228">
        <ele>516.421875</ele>
        <time>2014-04-27T07:29:18Z</time>
      </trkpt>
      <trkpt lat="48.1247" lon="6.48228">
        <ele>516.1328125</ele>
        <time>2014-04-27T07:29:19Z</time>
      </trkpt>
      <trkpt lat="48.12482" lon="6.4823">
        <ele>515.67578125</ele>
        <time>2014-04-27T07:29:21Z</time>
      </trkpt>
      <trkpt lat="48.12486" lon="6.48229">
        <ele>515.19921875</ele>
        <time>2014-04-27T07:29:22Z</time>
      </trkpt>
      <trkpt lat="48.12489" lon="6.48225">
        <ele>514.55078125</ele>
        <time>2014-04-27T07:29:23Z</time>
      </trkpt>
      <trkpt lat="48.12491" lon="6.48215">
        <ele>513.44921875</ele>
        <time>2014-04-27T07:29:25Z</time>
      </trkpt>
      <trkpt lat="48.1249" lon="6.48209">
        <ele>513.0625</ele>
        <time>2014-04-27T07:29:26Z</time>
      </trkpt>
      <trkpt lat="48.12488" lon="6.48203">
        <ele>512.73828125</ele>
        <time>2014-04-27T07:29:27Z</time>
      </trkpt>
      <trkpt lat="48.12486" lon="6.48197">
        <ele>512.45703125</ele>
        <time>2014-04-27T07:29:28Z</time>
      </trkpt>
      <trkpt lat="48.12478" lon="6.48169">
        <ele>510.30078125</ele>
        <time>2014-04-27T07:29:31Z</time>
      </trkpt>
      <trkpt lat="48.12474" lon="6.48134">
        <ele>506.86328125</ele>
        <time>2014-04-27T07:29:34Z</time>
      </trkpt>
      <trkpt lat="48.12461" lon="6.48101">
        <ele>505.2109375</ele>
        <time>2014-04-27T07:29:38Z</time>
      </trkpt>
      <trkpt lat="48.12439" lon="6.48075">
        <ele>504.46875</ele>
        <time>2014-04-27T07:29:44Z</time>
      </trkpt>
      <trkpt lat="48.12429" lon="6.48034">
        <ele>501.8359375</ele>
        <time>2014-04-27T07:29:50Z</time>
      </trkpt>
      <trkpt lat="48.12439" lon="6.47965">
        <ele>494.0859375</ele>
        <time>2014-04-27T07:29:55Z</time>
      </trkpt>
      <trkpt lat="48.12472" lon="6.47915">
        <ele>484.84375</ele>
        <time>2014-04-27T07:30:01Z</time>
      </trkpt>
      <trkpt lat="48.12497" lon="6.47873">
        <ele>476.06640625</ele>
        <time>2014-04-27T07:30:06Z</time>
      </trkpt>
      <trkpt lat="48.125" lon="6.4786">
        <ele>474.3046875</ele>
        <time>2014-04-27T07:30:07Z</time>
      </trkpt>
      <trkpt lat="48.12505" lon="6.47846">
        <ele>472.453125</ele>
        <time>2014-04-27T07:30:08Z</time>
      </trkpt>
      <trkpt lat="48.12529" lon="6.47781">
        <ele>467.34765625</ele>
        <time>2014-04-27T07:30:13Z</time>
      </trkpt>
      <trkpt lat="48.12535" lon="6.47756">
        <ele>466.640625</ele>
        <time>2014-04-27T07:30:15Z</time>
      </trkpt>
      <trkpt lat="48.12537" lon="6.47743">
        <ele>466.37890625</ele>
        <time>2014-04-27T07:30:16Z</time>
      </trkpt>
      <trkpt lat="48.12542" lon="6.47719">
        <ele>465.19140625</ele>
        <time>2014-04-27T07:30:18Z</time>
      </trkpt>
      <trkpt lat="48.12542" lon="6.47709">
        <ele>464.171875</ele>
        <time>2014-04-27T07:30:19Z</time>
      </trkpt>
      <trkpt lat="48.12537" lon="6.47675">
        <ele>460.01953125</ele>
        <time>2014-04-27T07:30:22Z</time>
      </trkpt>
      <trkpt lat="48.12538" lon="6.47664">
        <ele>458.84765625</ele>
        <time>2014-04-27T07:30:23Z</time>
      </trkpt>
      <trkpt lat="48.1254" lon="6.47654">
        <ele>458.15625</ele>
        <time>2014-04-27T07:30:24Z</time>
      </trkpt>
      <trkpt lat="48.12543" lon="6.47647">
        <ele>457.57421875</ele>
        <time>2014-04-27T07:30:25Z</time>
      </trkpt>
      <trkpt lat="48.12548" lon="6.4764">
        <ele>457.04296875</ele>
        <time>2014-04-27T07:30:26Z</time>
      </trkpt>
      <trkpt lat="48.12554" lon="6.47635">
        <ele>456.72265625</ele>
        <time>2014-04-27T07:30:27Z</time>
      </trkpt>
      <trkpt lat="48.1256" lon="6.47632">
        <ele>456.58203125</ele>
        <time>2014-04-27T07:30:28Z</time>
      </trkpt>
      <trkpt lat="48.12566" lon="6.4763">
        <ele>456.625</ele>
        <time>2014-04-27T07:30:29Z</time>
      </trkpt>
      <trkpt lat="48.12572" lon="6.47631">
        <ele>456.73828125</ele>
        <time>2014-04-27T07:30:30Z</time>
      </trkpt>
      <trkpt lat="48.12578" lon="6.47632">
        <ele>456.90625</ele>
        <time>2014-04-27T07:30:31Z</time>
      </trkpt>
      <trkpt lat="48.12584" lon="6.47636">
        <ele>457.26953125</ele>
        <time>2014-04-27T07:30:32Z</time>
      </trkpt>
      <trkpt lat="48.1259" lon="6.4764">
        <ele>457.71484375</ele>
        <time>2014-04-27T07:30:33Z</time>
      </trkpt>
      <trkpt lat="48.12595" lon="6.47644">
        <ele>458.20703125</ele>
        <time>2014-04-27T07:30:34Z</time>
      </trkpt>
      <trkpt lat="48.12599" lon="6.47649">
        <ele>458.08203125</ele>
        <time>2014-04-27T07:30:35Z</time>
      </trkpt>
      <trkpt lat="48.12601" lon="6.47654">
        <ele>457.94140625</ele>
        <time>2014-04-27T07:30:36Z</time>
      </trkpt>
      <trkpt lat="48.12603" lon="6.47656">
        <ele>457.6953125</ele>
        <time>2014-04-27T07:30:37Z</time>
      </trkpt>
      <trkpt lat="48.12605" lon="6.47659">
        <ele>457.46484375</ele>
        <time>2014-04-27T07:30:38Z</time>
      </trkpt>
      <trkpt lat="48.12606" lon="6.47662">
        <ele>457.5</ele>
        <time>2014-04-27T07:30:39Z</time>
      </trkpt>
      <trkpt lat="48.12605" lon="6.47666">
        <ele>457.83203125</ele>
        <time>2014-04-27T07:30:40Z</time>
      </trkpt>
      <trkpt lat="48.12604" lon="6.4767">
        <ele>458.41015625</ele>
        <time>2014-04-27T07:30:41Z</time>
      </trkpt>
      <trkpt lat="48.12598" lon="6.47694">
        <ele>461.55078125</ele>
        <time>2014-04-27T07:30:46Z</time>
      </trkpt>
      <trkpt lat="48.12596" lon="6.477">
        <ele>462.265625</ele>
        <time>2014-04-27T07:30:47Z</time>
      </trkpt>
      <trkpt lat="48.12581" lon="6.47749">
        <ele>463.39453125</ele>
        <time>2014-04-27T07:30:54Z</time>
      </trkpt>
      <trkpt lat="48.12579" lon="6.47756">
        <ele>463.421875</ele>
        <time>2014-04-27T07:30:55Z</time>
      </trkpt>
      <trkpt lat="48.12577" lon="6.47762">
        <ele>463.5859375</ele>
        <time>2014-04-27T07:30:56Z</time>
      </trkpt>
      <trkpt lat="48.12575" lon="6.47768">
        <ele>463.84375</ele>
        <time>2014-04-27T07:30:57Z</time>
      </trkpt>
      <trkpt lat="48.12572" lon="6.47775">
        <ele>464.0703125</ele>
        <time>2014-04-27T07:30:58Z</time>
      </trkpt>
      <trkpt lat="48.1257" lon="6.47781">
        <ele>464.30078125</ele>
        <time>2014-04-27T07:30:59Z</time>
      </trkpt>
      <trkpt lat="48.12567" lon="6.47787">
        <ele>464.57421875</ele>
        <time>2014-04-27T07:31:00Z</time>
      </trkpt>
      <trkpt lat="48.12558" lon="6.47809">
        <ele>465.7734375</ele>
        <time>2014-04-27T07:31:04Z</time>
      </trkpt>
      <trkpt lat="48.12556" lon="6.47816">
        <ele>466.0625</ele>
        <time>2014-04-27T07:31:05Z</time>
      </trkpt>
      <trkpt lat="48.12555" lon="6.47822">
        <ele>466.3671875</ele>
        <time>2014-04-27T07:31:06Z</time>
      </trkpt>
      <trkpt lat="48.12553" lon="6.47828">
        <ele>466.69140625</ele>
        <time>2014-04-27T07:31:07Z</time>
      </trkpt>
      <trkpt lat="48.12551" lon="6.47835">
        <ele>466.73046875</ele>
        <time>2014-04-27T07:31:08Z</time>
      </trkpt>
      <trkpt lat="48.12551" lon="6.47841">
        <ele>466.671875</ele>
        <time>2014-04-27T07:31:09Z</time>
      </trkpt>
      <trkpt lat="48.12554" lon="6.4789">
        <ele>466.76953125</ele>
        <time>2014-04-27T07:31:18Z</time>
      </trkpt>
      <trkpt lat="48.12563" lon="6.47931">
        <ele>466.69921875</ele>
        <time>2014-04-27T07:31:28Z</time>
      </trkpt>
      <trkpt lat="48.12564" lon="6.47934">
        <ele>466.64453125</ele>
        <time>2014-04-27T07:31:29Z</time>
      </trkpt>
      <trkpt lat="48.12564" lon="6.47936">
        <ele>466.7265625</ele>
        <time>2014-04-27T07:31:30Z</time>
      </trkpt>
      <trkpt lat="48.12576" lon="6.47981">
        <ele>467.6875</ele>
        <time>2014-04-27T07:31:42Z</time>
      </trkpt>
      <trkpt lat="48.12577" lon="6.47985">
        <ele>467.8828125</ele>
        <time>2014-04-27T07:31:43Z</time>
      </trkpt>
      <trkpt lat="48.12578" lon="6.47988">
        <ele>468.15234375</ele>
        <time>2014-04-27T07:31:44Z</time>
      </trkpt>
      <trkpt lat="48.12579" lon="6.47992">
        <ele>468.359375</ele>
        <time>2014-04-27T07:31:45Z</time>
      </trkpt>
      <trkpt lat="48.1258" lon="6.47996">
        <ele>468.5703125</ele>
        <time>2014-04-27T07:31:46Z</time>
      </trkpt>
      <trkpt lat="48.12582" lon="6.48">
        <ele>468.88671875</ele>
        <time>2014-04-27T07:31:47Z</time>
      </trkpt>
      <trkpt lat="48.12599" lon="6.48061">
        <ele>472.5625</ele>
        <time>2014-04-27T07:32:01Z</time>
      </trkpt>
      <trkpt lat="48.12609" lon="6.48095">
        <ele>474.140625</ele>
        <time>2014-04-27T07:32:11Z</time>
      </trkpt>
      <trkpt lat="48.12611" lon="6.48099">
        <ele>474.16796875</ele>
        <time>2014-04-27T07:32:12Z</time>
      </trkpt>
      <trkpt lat="48.12628" lon="6.48161">
        <ele>477.47265625</ele>
        <time>2014-04-27T07:32:28Z</time>
      </trkpt>
      <trkpt lat="48.12635" lon="6.48188">
        <ele>479.16015625</ele>
        <time>2014-04-27T07:32:35Z</time>
      </trkpt>
      <trkpt lat="48.12636" lon="6.48191">
        <ele>479.20703125</ele>
        <time>2014-04-27T07:32:36Z</time>
      </trkpt>
      <trkpt lat="48.12651" lon="6.48243">
        <ele>479.9375</ele>
        <time>2014-04-27T07:32:50Z</time>
      </trkpt>
      <trkpt lat="48.12664" lon="6.48289">
        <ele>481.81640625</ele>
        <time>2014-04-27T07:33:03Z</time>
      </trkpt>
      <trkpt lat="48.12687" lon="6.4833">
        <ele>481.8984375</ele>
        <time>2014-04-27T07:33:16Z</time>
      </trkpt>
      <trkpt lat="48.12719" lon="6.48355">
        <ele>480.20703125</ele>
        <time>2014-04-27T07:33:31Z</time>
      </trkpt>
      <trkpt lat="48.12749" lon="6.48375">
        <ele>482.046875</ele>
        <time>2014-04-27T07:33:46Z</time>
      </trkpt>
      <trkpt lat="48.12773" lon="6.48377">
        <ele>483.82421875</ele>
        <time>2014-04-27T07:33:58Z</time>
      </trkpt>
      <trkpt lat="48.12803" lon="6.48385">
        <ele>487.24609375</ele>
        <time>2014-04-27T07:34:12Z</time>
      </trkpt>
      <trkpt lat="48.12813" lon="6.48389">
        <ele>488.65234375</ele>
        <time>2014-04-27T07:34:17Z</time>
      </trkpt>
      <trkpt lat="48.12817" lon="6.48391">
        <ele>489.12890625</ele>
        <time>2014-04-27T07:34:19Z</time>
      </trkpt>
      <trkpt lat="48.12818" lon="6.48391">
        <ele>489.2421875</ele>
        <time>2014-04-27T07:34:20Z</time>
      </trkpt>
      <trkpt lat="48.1282" lon="6.48391">
        <ele>489.30078125</ele>
        <time>2014-04-27T07:34:21Z</time>
      </trkpt>
      <trkpt lat="48.12824" lon="6.48393">
        <ele>489.91015625</ele>
        <time>2014-04-27T07:34:33Z</time>
      </trkpt>
      <trkpt lat="48.12828" lon="6.48398">
        <ele>490.671875</ele>
        <time>2014-04-27T07:34:52Z</time>
      </trkpt>
      <trkpt lat="48.1283" lon="6.48398">
        <ele>490.8671875</ele>
        <time>2014-04-27T07:35:05Z</time>
      </trkpt>
      <trkpt lat="48.12833" lon="6.48401">
        <ele>491.40625</ele>
        <time>2014-04-27T07:35:20Z</time>
      </trkpt>
      <trkpt lat="48.12834" lon="6.48402">
        <ele>491.484375</ele>
        <time>2014-04-27T07:35:32Z</time>
      </trkpt>
      <trkpt lat="48.12834" lon="6.48404">
        <ele>491.76171875</ele>
        <time>2014-04-27T07:35:43Z</time>
      </trkpt>
      <trkpt lat="48.12835" lon="6.48406">
        <ele>492.0390625</ele>
        <time>2014-04-27T07:36:06Z</time>
      </trkpt>
      <trkpt lat="48.12834" lon="6.48406">
        <ele>492.05859375</ele>
        <time>2014-04-27T07:36:27Z</time>
      </trkpt>
      <trkpt lat="48.12834" lon="6.48406">
        <ele>492.02734375</ele>
        <time>2014-04-27T07:36:45Z</time>
      </trkpt>
      <trkpt lat="48.12834" lon="6.48405">
        <ele>491.9375</ele>
        <time>2014-04-27T07:36:56Z</time>
      </trkpt>
      <trkpt lat="48.12836" lon="6.48406">
        <ele>492.1484375</ele>
        <time>2014-04-27T07:37:09Z</time>
      </trkpt>
      <trkpt lat="48.12836" lon="6.48408">
        <ele>492.41796875</ele>
        <time>2014-04-27T07:37:26Z</time>
      </trkpt>
      <trkpt lat="48.12836" lon="6.4841">
        <ele>492.53125</ele>
        <time>2014-04-27T07:37:37Z</time>
      </trkpt>
      <trkpt lat="48.12837" lon="6.48412">
        <ele>492.8828125</ele>
        <time>2014-04-27T07:37:50Z</time>
      </trkpt>
      <trkpt lat="48.12836" lon="6.48414">
        <ele>493.0390625</ele>
        <time>2014-04-27T07:38:05Z</time>
      </trkpt>
      <trkpt lat="48.12838" lon="6.48415">
        <ele>493.1875</ele>
        <time>2014-04-27T07:38:19Z</time>
      </trkpt>
      <trkpt lat="48.1284" lon="6.48415">
        <ele>493.2578125</ele>
        <time>2014-04-27T07:38:39Z</time>
      </trkpt>
      <trkpt lat="48.12842" lon="6.48413">
        <ele>493.15234375</ele>
        <time>2014-04-27T07:38:52Z</time>
      </trkpt>
      <trkpt lat="48.12843" lon="6.48412">
        <ele>493.04296875</ele>
        <time>2014-04-27T07:39:07Z</time>
      </trkpt>
      <trkpt lat="48.12842" lon="6.48411">
        <ele>492.9765625</ele>
        <time>2014-04-27T07:39:27Z</time>
      </trkpt>
      <trkpt lat="48.12843" lon="6.48413">
        <ele>493.14453125</ele>
        <time>2014-04-27T07:39:42Z</time>
      </trkpt>
      <trkpt lat="48.12843" lon="6.48412">
        <ele>493.11328125</ele>
        <time>2014-04-27T07:39:55Z</time>
      </trkpt>
      <trkpt lat="48.12844" lon="6.48414">
        <ele>493.375</ele>
        <time>2014-04-27T07:40:04Z</time>
      </trkpt>
      <trkpt lat="48.12843" lon="6.48416">
        <ele>493.50390625</ele>
        <time>2014-04-27T07:40:18Z</time>
      </trkpt>
      <trkpt lat="48.12844" lon="6.48417">
        <ele>493.64453125</ele>
        <time>2014-04-27T07:40:39Z</time>
      </trkpt>
      <trkpt lat="48.12842" lon="6.48414">
        <ele>493.20703125</ele>
        <time>2014-04-27T07:40:52Z</time>
      </trkpt>
      <trkpt lat="48.1284" lon="6.48415">
        <ele>493.28515625</ele>
        <time>2014-04-27T07:41:05Z</time>
      </trkpt>
      <trkpt lat="48.12837" lon="6.48409">
        <ele>492.57421875</ele>
        <time>2014-04-27T07:41:17Z</time>
      </trkpt>
      <trkpt lat="48.12839" lon="6.48403">
        <ele>491.9375</ele>
        <time>2014-04-27T07:41:31Z</time>
      </trkpt>
      <trkpt lat="48.1284" lon="6.48403">
        <ele>491.88671875</ele>
        <time>2014-04-27T07:41:32Z</time>
      </trkpt>
      <trkpt lat="48.12841" lon="6.48401">
        <ele>491.76953125</ele>
        <time>2014-04-27T07:41:33Z</time>
      </trkpt>
      <trkpt lat="48.12843" lon="6.48398">
        <ele>491.55078125</ele>
        <time>2014-04-27T07:41:34Z</time>
      </trkpt>
      <trkpt lat="48.12844" lon="6.48396">
        <ele>491.33203125</ele>
        <time>2014-04-27T07:41:35Z</time>
      </trkpt>
      <trkpt lat="48.12846" lon="6.48392">
        <ele>491.07421875</ele>
        <time>2014-04-27T07:41:36Z</time>
      </trkpt>
      <trkpt lat="48.12848" lon="6.48389">
        <ele>490.7734375</ele>
        <time>2014-04-27T07:41:37Z</time>
      </trkpt>
      <trkpt lat="48.12851" lon="6.48385">
        <ele>490.4453125</ele>
        <time>2014-04-27T07:41:38Z</time>
      </trkpt>
      <trkpt lat="48.12854" lon="6.48381">
        <ele>490.11328125</ele>
        <time>2014-04-27T07:41:39Z</time>
      </trkpt>
      <trkpt lat="48.12862" lon="6.48366">
        <ele>489.2109375</ele>
        <time>2014-04-27T07:41:42Z</time>
      </trkpt>
      <trkpt lat="48.12865" lon="6.48359">
        <ele>488.78515625</ele>
        <time>2014-04-27T07:41:43Z</time>
      </trkpt>
      <trkpt lat="48.12867" lon="6.48352">
        <ele>488.34375</ele>
        <time>2014-04-27T07:41:44Z</time>
      </trkpt>
      <trkpt lat="48.12869" lon="6.48344">
        <ele>487.8203125</ele>
        <time>2014-04-27T07:41:45Z</time>
      </trkpt>
      <trkpt lat="48.1287" lon="6.48334">
        <ele>487.1640625</ele>
        <time>2014-04-27T07:41:46Z</time>
      </trkpt>
      <trkpt lat="48.12872" lon="6.48313">
        <ele>485.78515625</ele>
        <time>2014-04-27T07:41:48Z</time>
      </trkpt>
      <trkpt lat="48.12879" lon="6.4829">
        <ele>484.65234375</ele>
        <time>2014-04-27T07:41:55Z</time>
      </trkpt>
      <trkpt lat="48.12894" lon="6.4827">
        <ele>484.3984375</ele>
        <time>2014-04-27T07:42:01Z</time>
      </trkpt>
      <trkpt lat="48.12898" lon="6.48258">
        <ele>483.8671875</ele>
        <time>2014-04-27T07:42:03Z</time>
      </trkpt>
      <trkpt lat="48.12902" lon="6.48244">
        <ele>483.0546875</ele>
        <time>2014-04-27T07:42:05Z</time>
      </trkpt>
      <trkpt lat="48.12906" lon="6.48228">
        <ele>483.25</ele>
        <time>2014-04-27T07:42:07Z</time>
      </trkpt>
      <trkpt lat="48.12911" lon="6.482">
        <ele>482.59765625</ele>
        <time>2014-04-27T07:42:10Z</time>
      </trkpt>
      <trkpt lat="48.1291" lon="6.4815">
        <ele>480.3046875</ele>
        <time>2014-04-27T07:42:15Z</time>
      </trkpt>
      <trkpt lat="48.12898" lon="6.48087">
        <ele>476.02734375</ele>
        <time>2014-04-27T07:42:22Z</time>
      </trkpt>
      <trkpt lat="48.12886" lon="6.48046">
        <ele>472.8125</ele>
        <time>2014-04-27T07:42:26Z</time>
      </trkpt>
      <trkpt lat="48.12877" lon="6.48014">
        <ele>471.6875</ele>
        <time>2014-04-27T07:42:29Z</time>
      </trkpt>
      <trkpt lat="48.12868" lon="6.47995">
        <ele>470.22265625</ele>
        <time>2014-04-27T07:42:31Z</time>
      </trkpt>
      <trkpt lat="48.12876" lon="6.47958">
        <ele>469.1796875</ele>
        <time>2014-04-27T07:42:37Z</time>
      </trkpt>
      <trkpt lat="48.12887" lon="6.47957">
        <ele>468.3515625</ele>
        <time>2014-04-27T07:42:39Z</time>
      </trkpt>
      <trkpt lat="48.12905" lon="6.47958">
        <ele>466.921875</ele>
        <time>2014-04-27T07:42:42Z</time>
      </trkpt>
      <trkpt lat="48.12924" lon="6.47951">
        <ele>463.9609375</ele>
        <time>2014-04-27T07:42:49Z</time>
      </trkpt>
      <trkpt lat="48.12924" lon="6.47951">
        <ele>463.94921875</ele>
        <time>2014-04-27T07:42:53Z</time>
      </trkpt>
      <trkpt lat="48.12923" lon="6.47948">
        <ele>463.73828125</ele>
        <time>2014-04-27T07:42:55Z</time>
      </trkpt>
      <trkpt lat="48.1292" lon="6.47936">
        <ele>463.078125</ele>
        <time>2014-04-27T07:42:59Z</time>
      </trkpt>
      <trkpt lat="48.12912" lon="6.47901">
        <ele>461.4296875</ele>
        <time>2014-04-27T07:43:04Z</time>
      </trkpt>
      <trkpt lat="48.12914" lon="6.47855">
        <ele>458.0625</ele>
        <time>2014-04-27T07:43:11Z</time>
      </trkpt>
      <trkpt lat="48.12918" lon="6.47836">
        <ele>456.41015625</ele>
        <time>2014-04-27T07:43:14Z</time>
      </trkpt>
      <trkpt lat="48.12921" lon="6.47828">
        <ele>455.578125</ele>
        <time>2014-04-27T07:43:15Z</time>
      </trkpt>
      <trkpt lat="48.12923" lon="6.47818">
        <ele>455</ele>
        <time>2014-04-27T07:43:16Z</time>
      </trkpt>
      <trkpt lat="48.12949" lon="6.47703">
        <ele>447.203125</ele>
        <time>2014-04-27T07:43:26Z</time>
      </trkpt>
      <trkpt lat="48.12954" lon="6.47674">
        <ele>446.046875</ele>
        <time>2014-04-27T07:43:28Z</time>
      </trkpt>
      <trkpt lat="48.1299" lon="6.47555">
        <ele>442.74609375</ele>
        <time>2014-04-27T07:43:39Z</time>
      </trkpt>
      <trkpt lat="48.13013" lon="6.47492">
        <ele>443.87109375</ele>
        <time>2014-04-27T07:43:47Z</time>
      </trkpt>
      <trkpt lat="48.13015" lon="6.47483">
        <ele>443.47265625</ele>
        <time>2014-04-27T07:43:48Z</time>
      </trkpt>
      <trkpt lat="48.1303" lon="6.47429">
        <ele>440.49609375</ele>
        <time>2014-04-27T07:43:54Z</time>
      </trkpt>
      <trkpt lat="48.13042" lon="6.47393">
        <ele>436.15234375</ele>
        <time>2014-04-27T07:43:58Z</time>
      </trkpt>
      <trkpt lat="48.13069" lon="6.47302">
        <ele>425.80859375</ele>
        <time>2014-04-27T07:44:08Z</time>
      </trkpt>
      <trkpt lat="48.13074" lon="6.47294">
        <ele>423.74609375</ele>
        <time>2014-04-27T07:44:11Z</time>
      </trkpt>
      <trkpt lat="48.13079" lon="6.47343">
        <ele>425.984375</ele>
        <time>2014-04-27T07:44:22Z</time>
      </trkpt>
      <trkpt lat="48.13081" lon="6.4736">
        <ele>426.33984375</ele>
        <time>2014-04-27T07:44:25Z</time>
      </trkpt>
      <trkpt lat="48.13075" lon="6.47431">
        <ele>430.5390625</ele>
        <time>2014-04-27T07:44:38Z</time>
      </trkpt>
      <trkpt lat="48.13068" lon="6.4747">
        <ele>431.56640625</ele>
        <time>2014-04-27T07:44:45Z</time>
      </trkpt>
      <trkpt lat="48.1304" lon="6.47534">
        <ele>436.04296875</ele>
        <time>2014-04-27T07:44:59Z</time>
      </trkpt>
      <trkpt lat="48.1302" lon="6.47585">
        <ele>438.609375</ele>
        <time>2014-04-27T07:45:12Z</time>
      </trkpt>
      <trkpt lat="48.13001" lon="6.47627">
        <ele>440.59375</ele>
        <time>2014-04-27T07:45:24Z</time>
      </trkpt>
      <trkpt lat="48.12985" lon="6.47675">
        <ele>442.7109375</ele>
        <time>2014-04-27T07:45:37Z</time>
      </trkpt>
      <trkpt lat="48.12974" lon="6.47733">
        <ele>443.453125</ele>
        <time>2014-04-27T07:45:52Z</time>
      </trkpt>
      <trkpt lat="48.12969" lon="6.47787">
        <ele>444.25390625</ele>
        <time>2014-04-27T07:46:02Z</time>
      </trkpt>
      <trkpt lat="48.1297" lon="6.47837">
        <ele>445.3125</ele>
        <time>2014-04-27T07:46:09Z</time>
      </trkpt>
      <trkpt lat="48.12971" lon="6.47844">
        <ele>445.5234375</ele>
        <time>2014-04-27T07:46:10Z</time>
      </trkpt>
      <trkpt lat="48.12974" lon="6.47859">
        <ele>445.734375</ele>
        <time>2014-04-27T07:46:12Z</time>
      </trkpt>
      <trkpt lat="48.12977" lon="6.47863">
        <ele>445.5078125</ele>
        <time>2014-04-27T07:46:13Z</time>
      </trkpt>
      <trkpt lat="48.1298" lon="6.47866">
        <ele>445.08203125</ele>
        <time>2014-04-27T07:46:14Z</time>
      </trkpt>
      <trkpt lat="48.12982" lon="6.47864">
        <ele>444.3515625</ele>
        <time>2014-04-27T07:46:15Z</time>
      </trkpt>
      <trkpt lat="48.12986" lon="6.47859">
        <ele>443.16796875</ele>
        <time>2014-04-27T07:46:16Z</time>
      </trkpt>
      <trkpt lat="48.1299" lon="6.47853">
        <ele>441.8046875</ele>
        <time>2014-04-27T07:46:17Z</time>
      </trkpt>
      <trkpt lat="48.12994" lon="6.47845">
        <ele>440.1015625</ele>
        <time>2014-04-27T07:46:18Z</time>
      </trkpt>
      <trkpt lat="48.12999" lon="6.47836">
        <ele>437.859375</ele>
        <time>2014-04-27T07:46:19Z</time>
      </trkpt>
      <trkpt lat="48.1301" lon="6.47816">
        <ele>433.2578125</ele>
        <time>2014-04-27T07:46:21Z</time>
      </trkpt>
      <trkpt lat="48.13047" lon="6.47753">
        <ele>422.32421875</ele>
        <time>2014-04-27T07:46:28Z</time>
      </trkpt>
      <trkpt lat="48.13055" lon="6.47745">
        <ele>420.2578125</ele>
        <time>2014-04-27T07:46:29Z</time>
      </trkpt>
      <trkpt lat="48.13148" lon="6.47658">
        <ele>403.6171875</ele>
        <time>2014-04-27T07:46:41Z</time>
      </trkpt>
      <trkpt lat="48.13222" lon="6.47602">
        <ele>399.18359375</ele>
        <time>2014-04-27T07:46:52Z</time>
      </trkpt>
      <trkpt lat="48.13234" lon="6.47598">
        <ele>399.62890625</ele>
        <time>2014-04-27T07:46:54Z</time>
      </trkpt>
      <trkpt lat="48.13253" lon="6.47588">
        <ele>400.03515625</ele>
        <time>2014-04-27T07:46:57Z</time>
      </trkpt>
      <trkpt lat="48.13277" lon="6.47572">
        <ele>399.484375</ele>
        <time>2014-04-27T07:47:01Z</time>
      </trkpt>
      <trkpt lat="48.13281" lon="6.47568">
        <ele>399.23046875</ele>
        <time>2014-04-27T07:47:02Z</time>
      </trkpt>
      <trkpt lat="48.13284" lon="6.47565">
        <ele>398.96484375</ele>
        <time>2014-04-27T07:47:03Z</time>
      </trkpt>
      <trkpt lat="48.13285" lon="6.47562">
        <ele>398.703125</ele>
        <time>2014-04-27T07:47:04Z</time>
      </trkpt>
      <trkpt lat="48.13287" lon="6.47561">
        <ele>398.6953125</ele>
        <time>2014-04-27T07:47:05Z</time>
      </trkpt>
      <trkpt lat="48.13294" lon="6.47564">
        <ele>399.828125</ele>
        <time>2014-04-27T07:47:15Z</time>
      </trkpt>
      <trkpt lat="48.13296" lon="6.47569">
        <ele>400.87109375</ele>
        <time>2014-04-27T07:47:22Z</time>
      </trkpt>
      <trkpt lat="48.13296" lon="6.47571">
        <ele>401.234375</ele>
        <time>2014-04-27T07:47:23Z</time>
      </trkpt>
      <trkpt lat="48.13296" lon="6.47572">
        <ele>401.56640625</ele>
        <time>2014-04-27T07:47:24Z</time>
      </trkpt>
      <trkpt lat="48.13294" lon="6.47585">
        <ele>403.3515625</ele>
        <time>2014-04-27T07:47:33Z</time>
      </trkpt>
      <trkpt lat="48.13293" lon="6.47589">
        <ele>403.80859375</ele>
        <time>2014-04-27T07:47:35Z</time>
      </trkpt>
      <trkpt lat="48.13292" lon="6.4759">
        <ele>404.0078125</ele>
        <time>2014-04-27T07:47:36Z</time>
      </trkpt>
      <trkpt lat="48.13291" lon="6.47592">
        <ele>404.20703125</ele>
        <time>2014-04-27T07:47:37Z</time>
      </trkpt>
      <trkpt lat="48.1329" lon="6.47594">
        <ele>404.35546875</ele>
        <time>2014-04-27T07:47:38Z</time>
      </trkpt>
      <trkpt lat="48.13289" lon="6.47595">
        <ele>404.4765625</ele>
        <time>2014-04-27T07:47:39Z</time>
      </trkpt>
      <trkpt lat="48.13288" lon="6.47599">
        <ele>404.890625</ele>
        <time>2014-04-27T07:47:41Z</time>
      </trkpt>
      <trkpt lat="48.13282" lon="6.47628">
        <ele>409.76171875</ele>
        <time>2014-04-27T07:47:55Z</time>
      </trkpt>
      <trkpt lat="48.13281" lon="6.47632">
        <ele>410.48046875</ele>
        <time>2014-04-27T07:47:57Z</time>
      </trkpt>
      <trkpt lat="48.13281" lon="6.47634">
        <ele>410.77734375</ele>
        <time>2014-04-27T07:47:58Z</time>
      </trkpt>
      <trkpt lat="48.13281" lon="6.47636">
        <ele>411.1484375</ele>
        <time>2014-04-27T07:47:59Z</time>
      </trkpt>
      <trkpt lat="48.13279" lon="6.47648">
        <ele>412.76171875</ele>
        <time>2014-04-27T07:48:05Z</time>
      </trkpt>
      <trkpt lat="48.13278" lon="6.47652">
        <ele>413.25390625</ele>
        <time>2014-04-27T07:48:07Z</time>
      </trkpt>
      <trkpt lat="48.13278" lon="6.47654">
        <ele>413.6171875</ele>
        <time>2014-04-27T07:48:08Z</time>
      </trkpt>
      <trkpt lat="48.13285" lon="6.47678">
        <ele>417.33203125</ele>
        <time>2014-04-27T07:48:20Z</time>
      </trkpt>
      <trkpt lat="48.13286" lon="6.47679">
        <ele>417.59765625</ele>
        <time>2014-04-27T07:48:21Z</time>
      </trkpt>
      <trkpt lat="48.13287" lon="6.47681">
        <ele>417.82421875</ele>
        <time>2014-04-27T07:48:22Z</time>
      </trkpt>
      <trkpt lat="48.13288" lon="6.47682">
        <ele>418.08984375</ele>
        <time>2014-04-27T07:48:23Z</time>
      </trkpt>
      <trkpt lat="48.13289" lon="6.47684">
        <ele>418.3671875</ele>
        <time>2014-04-27T07:48:24Z</time>
      </trkpt>
      <trkpt lat="48.1329" lon="6.47686">
        <ele>418.640625</ele>
        <time>2014-04-27T07:48:25Z</time>
      </trkpt>
      <trkpt lat="48.13306" lon="6.47715">
        <ele>423.12890625</ele>
        <time>2014-04-27T07:48:36Z</time>
      </trkpt>
      <trkpt lat="48.13321" lon="6.47747">
        <ele>425.98046875</ele>
        <time>2014-04-27T07:48:47Z</time>
      </trkpt>
      <trkpt lat="48.13323" lon="6.47749">
        <ele>426.08203125</ele>
        <time>2014-04-27T07:48:48Z</time>
      </trkpt>
      <trkpt lat="48.13325" lon="6.47752">
        <ele>426.23828125</ele>
        <time>2014-04-27T07:48:49Z</time>
      </trkpt>
      <trkpt lat="48.13326" lon="6.47756">
        <ele>426.5390625</ele>
        <time>2014-04-27T07:48:50Z</time>
      </trkpt>
      <trkpt lat="48.13328" lon="6.4776">
        <ele>426.9453125</ele>
        <time>2014-04-27T07:48:51Z</time>
      </trkpt>
      <trkpt lat="48.13329" lon="6.47765">
        <ele>427.4140625</ele>
        <time>2014-04-27T07:48:52Z</time>
      </trkpt>
      <trkpt lat="48.1333" lon="6.4777">
        <ele>427.890625</ele>
        <time>2014-04-27T07:48:53Z</time>
      </trkpt>
      <trkpt lat="48.13331" lon="6.47774">
        <ele>428.28125</ele>
        <time>2014-04-27T07:48:54Z</time>
      </trkpt>
      <trkpt lat="48.13331" lon="6.4778">
        <ele>428.8046875</ele>
        <time>2014-04-27T07:48:55Z</time>
      </trkpt>
      <trkpt lat="48.13332" lon="6.47784">
        <ele>429.28125</ele>
        <time>2014-04-27T07:48:56Z</time>
      </trkpt>
      <trkpt lat="48.13332" lon="6.47788">
        <ele>429.6640625</ele>
        <time>2014-04-27T07:48:57Z</time>
      </trkpt>
      <trkpt lat="48.13332" lon="6.47792">
        <ele>430.0546875</ele>
        <time>2014-04-27T07:48:58Z</time>
      </trkpt>
      <trkpt lat="48.13332" lon="6.47797">
        <ele>430.4453125</ele>
        <time>2014-04-27T07:48:59Z</time>
      </trkpt>
      <trkpt lat="48.13332" lon="6.47801">
        <ele>430.875</ele>
        <time>2014-04-27T07:49:00Z</time>
      </trkpt>
      <trkpt lat="48.13332" lon="6.47805">
        <ele>431.25</ele>
        <time>2014-04-27T07:49:01Z</time>
      </trkpt>
      <trkpt lat="48.13333" lon="6.4781">
        <ele>431.46875</ele>
        <time>2014-04-27T07:49:02Z</time>
      </trkpt>
      <trkpt lat="48.13334" lon="6.47815">
        <ele>431.69921875</ele>
        <time>2014-04-27T07:49:03Z</time>
      </trkpt>
      <trkpt lat="48.13335" lon="6.4782">
        <ele>431.94140625</ele>
        <time>2014-04-27T07:49:04Z</time>
      </trkpt>
      <trkpt lat="48.13337" lon="6.47885">
        <ele>435.41015625</ele>
        <time>2014-04-27T07:49:16Z</time>
      </trkpt>
      <trkpt lat="48.13332" lon="6.47906">
        <ele>437.41796875</ele>
        <time>2014-04-27T07:49:19Z</time>
      </trkpt>
      <trkpt lat="48.1333" lon="6.47912">
        <ele>438.2734375</ele>
        <time>2014-04-27T07:49:20Z</time>
      </trkpt>
      <trkpt lat="48.13319" lon="6.47935">
        <ele>439.80859375</ele>
        <time>2014-04-27T07:49:24Z</time>
      </trkpt>
      <trkpt lat="48.13315" lon="6.47939">
        <ele>440.55078125</ele>
        <time>2014-04-27T07:49:25Z</time>
      </trkpt>
      <trkpt lat="48.13312" lon="6.47944">
        <ele>441.40625</ele>
        <time>2014-04-27T07:49:26Z</time>
      </trkpt>
      <trkpt lat="48.13256" lon="6.48">
        <ele>451.84765625</ele>
        <time>2014-04-27T07:49:39Z</time>
      </trkpt>
      <trkpt lat="48.13241" lon="6.48018">
        <ele>452.28125</ele>
        <time>2014-04-27T07:49:43Z</time>
      </trkpt>
      <trkpt lat="48.13237" lon="6.48023">
        <ele>452.81640625</ele>
        <time>2014-04-27T07:49:44Z</time>
      </trkpt>
      <trkpt lat="48.13232" lon="6.48027">
        <ele>453.00390625</ele>
        <time>2014-04-27T07:49:45Z</time>
      </trkpt>
      <trkpt lat="48.13228" lon="6.48033">
        <ele>452.921875</ele>
        <time>2014-04-27T07:49:46Z</time>
      </trkpt>
      <trkpt lat="48.13224" lon="6.48038">
        <ele>453.0703125</ele>
        <time>2014-04-27T07:49:47Z</time>
      </trkpt>
      <trkpt lat="48.1322" lon="6.48043">
        <ele>453.484375</ele>
        <time>2014-04-27T07:49:48Z</time>
      </trkpt>
      <trkpt lat="48.13216" lon="6.48049">
        <ele>453.90625</ele>
        <time>2014-04-27T07:49:49Z</time>
      </trkpt>
      <trkpt lat="48.13212" lon="6.48055">
        <ele>453.796875</ele>
        <time>2014-04-27T07:49:50Z</time>
      </trkpt>
      <trkpt lat="48.1317" lon="6.48109">
        <ele>453.171875</ele>
        <time>2014-04-27T07:50:03Z</time>
      </trkpt>
      <trkpt lat="48.1315" lon="6.48142">
        <ele>453.63671875</ele>
        <time>2014-04-27T07:50:13Z</time>
      </trkpt>
      <trkpt lat="48.13137" lon="6.48168">
        <ele>452.79296875</ele>
        <time>2014-04-27T07:50:23Z</time>
      </trkpt>
      <trkpt lat="48.13123" lon="6.48195">
        <ele>453.51171875</ele>
        <time>2014-04-27T07:50:34Z</time>
      </trkpt>
      <trkpt lat="48.13127" lon="6.48218">
        <ele>450.78515625</ele>
        <time>2014-04-27T07:50:40Z</time>
      </trkpt>
      <trkpt lat="48.1313" lon="6.4822">
        <ele>449.89453125</ele>
        <time>2014-04-27T07:50:41Z</time>
      </trkpt>
      <trkpt lat="48.13132" lon="6.48222">
        <ele>449.08984375</ele>
        <time>2014-04-27T07:50:42Z</time>
      </trkpt>
      <trkpt lat="48.13135" lon="6.48223">
        <ele>448.35546875</ele>
        <time>2014-04-27T07:50:43Z</time>
      </trkpt>
      <trkpt lat="48.13138" lon="6.48223">
        <ele>447.578125</ele>
        <time>2014-04-27T07:50:44Z</time>
      </trkpt>
      <trkpt lat="48.13157" lon="6.48219">
        <ele>442.734375</ele>
        <time>2014-04-27T07:50:50Z</time>
      </trkpt>
      <trkpt lat="48.13161" lon="6.48216">
        <ele>441.81640625</ele>
        <time>2014-04-27T07:50:51Z</time>
      </trkpt>
      <trkpt lat="48.13165" lon="6.48215">
        <ele>440.9609375</ele>
        <time>2014-04-27T07:50:52Z</time>
      </trkpt>
      <trkpt lat="48.13176" lon="6.4821">
        <ele>438.27734375</ele>
        <time>2014-04-27T07:50:55Z</time>
      </trkpt>
      <trkpt lat="48.13205" lon="6.482">
        <ele>430.83984375</ele>
        <time>2014-04-27T07:51:01Z</time>
      </trkpt>
      <trkpt lat="48.13286" lon="6.48192">
        <ele>421.2890625</ele>
        <time>2014-04-27T07:51:13Z</time>
      </trkpt>
      <trkpt lat="48.13394" lon="6.48215">
        <ele>417.13671875</ele>
        <time>2014-04-27T07:51:25Z</time>
      </trkpt>
      <trkpt lat="48.13412" lon="6.48218">
        <ele>416.1640625</ele>
        <time>2014-04-27T07:51:27Z</time>
      </trkpt>
      <trkpt lat="48.1342" lon="6.48222">
        <ele>415.83984375</ele>
        <time>2014-04-27T07:51:28Z</time>
      </trkpt>
      <trkpt lat="48.13428" lon="6.48228">
        <ele>415.77734375</ele>
        <time>2014-04-27T07:51:29Z</time>
      </trkpt>
      <trkpt lat="48.13441" lon="6.48241">
        <ele>416.24609375</ele>
        <time>2014-04-27T07:51:31Z</time>
      </trkpt>
      <trkpt lat="48.13447" lon="6.48249">
        <ele>416.6796875</ele>
        <time>2014-04-27T07:51:32Z</time>
      </trkpt>
      <trkpt lat="48.13453" lon="6.48258">
        <ele>417.046875</ele>
        <time>2014-04-27T07:51:33Z</time>
      </trkpt>
      <trkpt lat="48.13458" lon="6.48268">
        <ele>417.39453125</ele>
        <time>2014-04-27T07:51:34Z</time>
      </trkpt>
      <trkpt lat="48.13462" lon="6.48278">
        <ele>418.02734375</ele>
        <time>2014-04-27T07:51:35Z</time>
      </trkpt>
      <trkpt lat="48.13466" lon="6.48288">
        <ele>418.7109375</ele>
        <time>2014-04-27T07:51:36Z</time>
      </trkpt>
      <trkpt lat="48.13469" lon="6.48297">
        <ele>419.421875</ele>
        <time>2014-04-27T07:51:37Z</time>
      </trkpt>
      <trkpt lat="48.13474" lon="6.48311">
        <ele>420.09765625</ele>
        <time>2014-04-27T07:51:39Z</time>
      </trkpt>
      <trkpt lat="48.13476" lon="6.48315">
        <ele>420.08203125</ele>
        <time>2014-04-27T07:51:40Z</time>
      </trkpt>
      <trkpt lat="48.13478" lon="6.4832">
        <ele>420.35546875</ele>
        <time>2014-04-27T07:51:41Z</time>
      </trkpt>
      <trkpt lat="48.13478" lon="6.48325">
        <ele>420.7109375</ele>
        <time>2014-04-27T07:51:42Z</time>
      </trkpt>
      <trkpt lat="48.13479" lon="6.48329">
        <ele>420.796875</ele>
        <time>2014-04-27T07:51:43Z</time>
      </trkpt>
      <trkpt lat="48.13481" lon="6.48333">
        <ele>420.39453125</ele>
        <time>2014-04-27T07:51:44Z</time>
      </trkpt>
      <trkpt lat="48.13483" lon="6.48337">
        <ele>419.84375</ele>
        <time>2014-04-27T07:51:45Z</time>
      </trkpt>
      <trkpt lat="48.13485" lon="6.48341">
        <ele>419.23046875</ele>
        <time>2014-04-27T07:51:46Z</time>
      </trkpt>
      <trkpt lat="48.13515" lon="6.48353">
        <ele>413.5</ele>
        <time>2014-04-27T07:51:53Z</time>
      </trkpt>
      <trkpt lat="48.13521" lon="6.48353">
        <ele>412.703125</ele>
        <time>2014-04-27T07:51:54Z</time>
      </trkpt>
      <trkpt lat="48.13533" lon="6.48352">
        <ele>410.9296875</ele>
        <time>2014-04-27T07:51:56Z</time>
      </trkpt>
      <trkpt lat="48.1354" lon="6.48353">
        <ele>409.890625</ele>
        <time>2014-04-27T07:51:57Z</time>
      </trkpt>
      <trkpt lat="48.13555" lon="6.48359">
        <ele>407.38671875</ele>
        <time>2014-04-27T07:51:59Z</time>
      </trkpt>
      <trkpt lat="48.13599" lon="6.48374">
        <ele>401.6484375</ele>
        <time>2014-04-27T07:52:05Z</time>
      </trkpt>
      <trkpt lat="48.13644" lon="6.48424">
        <ele>396.00390625</ele>
        <time>2014-04-27T07:52:12Z</time>
      </trkpt>
      <trkpt lat="48.13654" lon="6.48438">
        <ele>394.86328125</ele>
        <time>2014-04-27T07:52:14Z</time>
      </trkpt>
      <trkpt lat="48.1366" lon="6.48442">
        <ele>394.171875</ele>
        <time>2014-04-27T07:52:15Z</time>
      </trkpt>
      <trkpt lat="48.13665" lon="6.48444">
        <ele>393.796875</ele>
        <time>2014-04-27T07:52:16Z</time>
      </trkpt>
      <trkpt lat="48.13669" lon="6.48443">
        <ele>393.70703125</ele>
        <time>2014-04-27T07:52:17Z</time>
      </trkpt>
      <trkpt lat="48.13672" lon="6.48443">
        <ele>393.67578125</ele>
        <time>2014-04-27T07:52:18Z</time>
      </trkpt>
      <trkpt lat="48.13674" lon="6.48448">
        <ele>393.07421875</ele>
        <time>2014-04-27T07:52:24Z</time>
      </trkpt>
      <trkpt lat="48.13672" lon="6.4845">
        <ele>392.85546875</ele>
        <time>2014-04-27T07:52:25Z</time>
      </trkpt>
      <trkpt lat="48.13669" lon="6.48453">
        <ele>392.515625</ele>
        <time>2014-04-27T07:52:26Z</time>
      </trkpt>
      <trkpt lat="48.13666" lon="6.48457">
        <ele>392.17578125</ele>
        <time>2014-04-27T07:52:27Z</time>
      </trkpt>
      <trkpt lat="48.13661" lon="6.48459">
        <ele>391.87109375</ele>
        <time>2014-04-27T07:52:28Z</time>
      </trkpt>
      <trkpt lat="48.13655" lon="6.48461">
        <ele>391.6640625</ele>
        <time>2014-04-27T07:52:29Z</time>
      </trkpt>
      <trkpt lat="48.1365" lon="6.48462">
        <ele>391.609375</ele>
        <time>2014-04-27T07:52:30Z</time>
      </trkpt>
      <trkpt lat="48.13644" lon="6.48462">
        <ele>391.796875</ele>
        <time>2014-04-27T07:52:31Z</time>
      </trkpt>
      <trkpt lat="48.13622" lon="6.48462">
        <ele>392.68359375</ele>
        <time>2014-04-27T07:52:34Z</time>
      </trkpt>
      <trkpt lat="48.13615" lon="6.48464">
        <ele>392.5703125</ele>
        <time>2014-04-27T07:52:35Z</time>
      </trkpt>
      <trkpt lat="48.13608" lon="6.48469">
        <ele>392.25</ele>
        <time>2014-04-27T07:52:36Z</time>
      </trkpt>
      <trkpt lat="48.13603" lon="6.48474">
        <ele>391.81640625</ele>
        <time>2014-04-27T07:52:37Z</time>
      </trkpt>
      <trkpt lat="48.13598" lon="6.48481">
        <ele>391.22265625</ele>
        <time>2014-04-27T07:52:38Z</time>
      </trkpt>
      <trkpt lat="48.13594" lon="6.4849">
        <ele>390.4921875</ele>
        <time>2014-04-27T07:52:39Z</time>
      </trkpt>
      <trkpt lat="48.13592" lon="6.48498">
        <ele>390.26953125</ele>
        <time>2014-04-27T07:52:40Z</time>
      </trkpt>
      <trkpt lat="48.13592" lon="6.48507">
        <ele>390.3359375</ele>
        <time>2014-04-27T07:52:41Z</time>
      </trkpt>
      <trkpt lat="48.13592" lon="6.48516">
        <ele>390.34765625</ele>
        <time>2014-04-27T07:52:42Z</time>
      </trkpt>
      <trkpt lat="48.13592" lon="6.48524">
        <ele>390.3984375</ele>
        <time>2014-04-27T07:52:43Z</time>
      </trkpt>
      <trkpt lat="48.13594" lon="6.48552">
        <ele>391.24609375</ele>
        <time>2014-04-27T07:52:47Z</time>
      </trkpt>
      <trkpt lat="48.13596" lon="6.48613">
        <ele>394.390625</ele>
        <time>2014-04-27T07:52:58Z</time>
      </trkpt>
      <trkpt lat="48.13595" lon="6.48672">
        <ele>398.34765625</ele>
        <time>2014-04-27T07:53:11Z</time>
      </trkpt>
      <trkpt lat="48.13586" lon="6.4872">
        <ele>402.3984375</ele>
        <time>2014-04-27T07:53:22Z</time>
      </trkpt>
      <trkpt lat="48.13584" lon="6.48737">
        <ele>403.70703125</ele>
        <time>2014-04-27T07:53:26Z</time>
      </trkpt>
      <trkpt lat="48.13583" lon="6.48741">
        <ele>404.21875</ele>
        <time>2014-04-27T07:53:27Z</time>
      </trkpt>
      <trkpt lat="48.13582" lon="6.48745">
        <ele>404.73046875</ele>
        <time>2014-04-27T07:53:28Z</time>
      </trkpt>
      <trkpt lat="48.13575" lon="6.48787">
        <ele>407.2890625</ele>
        <time>2014-04-27T07:53:38Z</time>
      </trkpt>
      <trkpt lat="48.13568" lon="6.48809">
        <ele>409.40625</ele>
        <time>2014-04-27T07:53:42Z</time>
      </trkpt>
      <trkpt lat="48.13558" lon="6.48836">
        <ele>411.94921875</ele>
        <time>2014-04-27T07:53:46Z</time>
      </trkpt>
      <trkpt lat="48.13555" lon="6.48844">
        <ele>412.59375</ele>
        <time>2014-04-27T07:53:47Z</time>
      </trkpt>
      <trkpt lat="48.13552" lon="6.48851">
        <ele>413.46484375</ele>
        <time>2014-04-27T07:53:48Z</time>
      </trkpt>
      <trkpt lat="48.13549" lon="6.48858">
        <ele>414.2109375</ele>
        <time>2014-04-27T07:53:49Z</time>
      </trkpt>
      <trkpt lat="48.13546" lon="6.48865">
        <ele>414.59375</ele>
        <time>2014-04-27T07:53:50Z</time>
      </trkpt>
      <trkpt lat="48.13543" lon="6.48872">
        <ele>414.734375</ele>
        <time>2014-04-27T07:53:51Z</time>
      </trkpt>
      <trkpt lat="48.13541" lon="6.48879">
        <ele>414.8203125</ele>
        <time>2014-04-27T07:53:52Z</time>
      </trkpt>
      <trkpt lat="48.13538" lon="6.48885">
        <ele>414.88671875</ele>
        <time>2014-04-27T07:53:53Z</time>
      </trkpt>
      <trkpt lat="48.13532" lon="6.48896">
        <ele>414.7265625</ele>
        <time>2014-04-27T07:53:55Z</time>
      </trkpt>
      <trkpt lat="48.13525" lon="6.48905">
        <ele>414.77734375</ele>
        <time>2014-04-27T07:53:57Z</time>
      </trkpt>
      <trkpt lat="48.13504" lon="6.4893">
        <ele>413.3828125</ele>
        <time>2014-04-27T07:54:03Z</time>
      </trkpt>
      <trkpt lat="48.13501" lon="6.48934">
        <ele>412.8671875</ele>
        <time>2014-04-27T07:54:04Z</time>
      </trkpt>
      <trkpt lat="48.13489" lon="6.48944">
        <ele>412.68359375</ele>
        <time>2014-04-27T07:54:07Z</time>
      </trkpt>
      <trkpt lat="48.13486" lon="6.48948">
        <ele>412.44921875</ele>
        <time>2014-04-27T07:54:08Z</time>
      </trkpt>
      <trkpt lat="48.13482" lon="6.48953">
        <ele>411.85546875</ele>
        <time>2014-04-27T07:54:09Z</time>
      </trkpt>
      <trkpt lat="48.1348" lon="6.48959">
        <ele>410.7265625</ele>
        <time>2014-04-27T07:54:10Z</time>
      </trkpt>
      <trkpt lat="48.13479" lon="6.48966">
        <ele>409.44140625</ele>
        <time>2014-04-27T07:54:11Z</time>
      </trkpt>
      <trkpt lat="48.13477" lon="6.48974">
        <ele>408.5703125</ele>
        <time>2014-04-27T07:54:12Z</time>
      </trkpt>
      <trkpt lat="48.13463" lon="6.49045">
        <ele>401.9453125</ele>
        <time>2014-04-27T07:54:23Z</time>
      </trkpt>
      <trkpt lat="48.1346" lon="6.49047">
        <ele>401.89453125</ele>
        <time>2014-04-27T07:54:24Z</time>
      </trkpt>
      <trkpt lat="48.13457" lon="6.49049">
        <ele>401.89453125</ele>
        <time>2014-04-27T07:54:25Z</time>
      </trkpt>
      <trkpt lat="48.13418" lon="6.49063">
        <ele>402.69140625</ele>
        <time>2014-04-27T07:54:33Z</time>
      </trkpt>
      <trkpt lat="48.1335" lon="6.49085">
        <ele>407.0703125</ele>
        <time>2014-04-27T07:54:45Z</time>
      </trkpt>
      <trkpt lat="48.13332" lon="6.491">
        <ele>409.59375</ele>
        <time>2014-04-27T07:54:49Z</time>
      </trkpt>
      <trkpt lat="48.13329" lon="6.49102">
        <ele>410.08984375</ele>
        <time>2014-04-27T07:54:50Z</time>
      </trkpt>
      <trkpt lat="48.13326" lon="6.49104">
        <ele>410.4609375</ele>
        <time>2014-04-27T07:54:51Z</time>
      </trkpt>
      <trkpt lat="48.13324" lon="6.49106">
        <ele>410.6875</ele>
        <time>2014-04-27T07:54:52Z</time>
      </trkpt>
      <trkpt lat="48.13321" lon="6.49109">
        <ele>410.8046875</ele>
        <time>2014-04-27T07:54:53Z</time>
      </trkpt>
      <trkpt lat="48.13319" lon="6.49111">
        <ele>410.92578125</ele>
        <time>2014-04-27T07:54:54Z</time>
      </trkpt>
      <trkpt lat="48.13317" lon="6.49114">
        <ele>411.05078125</ele>
        <time>2014-04-27T07:54:55Z</time>
      </trkpt>
      <trkpt lat="48.13287" lon="6.49137">
        <ele>411.390625</ele>
        <time>2014-04-27T07:55:07Z</time>
      </trkpt>
      <trkpt lat="48.1328" lon="6.49142">
        <ele>410.9921875</ele>
        <time>2014-04-27T07:55:09Z</time>
      </trkpt>
      <trkpt lat="48.13265" lon="6.49148">
        <ele>410.54296875</ele>
        <time>2014-04-27T07:55:12Z</time>
      </trkpt>
      <trkpt lat="48.1324" lon="6.49161">
        <ele>409.71875</ele>
        <time>2014-04-27T07:55:16Z</time>
      </trkpt>
      <trkpt lat="48.13235" lon="6.49166">
        <ele>409.515625</ele>
        <time>2014-04-27T07:55:17Z</time>
      </trkpt>
      <trkpt lat="48.13232" lon="6.49172">
        <ele>409.32421875</ele>
        <time>2014-04-27T07:55:18Z</time>
      </trkpt>
      <trkpt lat="48.13229" lon="6.49178">
        <ele>409.16015625</ele>
        <time>2014-04-27T07:55:19Z</time>
      </trkpt>
      <trkpt lat="48.13227" lon="6.49183">
        <ele>409.0234375</ele>
        <time>2014-04-27T07:55:20Z</time>
      </trkpt>
      <trkpt lat="48.13226" lon="6.49189">
        <ele>408.859375</ele>
        <time>2014-04-27T07:55:21Z</time>
      </trkpt>
      <trkpt lat="48.13227" lon="6.49194">
        <ele>408.84375</ele>
        <time>2014-04-27T07:55:22Z</time>
      </trkpt>
      <trkpt lat="48.13227" lon="6.49198">
        <ele>408.796875</ele>
        <time>2014-04-27T07:55:23Z</time>
      </trkpt>
      <trkpt lat="48.13221" lon="6.49244">
        <ele>411.3125</ele>
        <time>2014-04-27T07:55:33Z</time>
      </trkpt>
      <trkpt lat="48.13198" lon="6.49278">
        <ele>416.37890625</ele>
        <time>2014-04-27T07:55:44Z</time>
      </trkpt>
      <trkpt lat="48.1318" lon="6.49307">
        <ele>420.53515625</ele>
        <time>2014-04-27T07:55:54Z</time>
      </trkpt>
      <trkpt lat="48.13155" lon="6.49347">
        <ele>423.8125</ele>
        <time>2014-04-27T07:56:04Z</time>
      </trkpt>
      <trkpt lat="48.13146" lon="6.49387">
        <ele>421.18359375</ele>
        <time>2014-04-27T07:56:13Z</time>
      </trkpt>
      <trkpt lat="48.13158" lon="6.49398">
        <ele>418.35546875</ele>
        <time>2014-04-27T07:56:18Z</time>
      </trkpt>
      <trkpt lat="48.13162" lon="6.49398">
        <ele>417.92578125</ele>
        <time>2014-04-27T07:56:19Z</time>
      </trkpt>
      <trkpt lat="48.13165" lon="6.49397">
        <ele>417.46484375</ele>
        <time>2014-04-27T07:56:20Z</time>
      </trkpt>
      <trkpt lat="48.13169" lon="6.49395">
        <ele>416.89453125</ele>
        <time>2014-04-27T07:56:21Z</time>
      </trkpt>
      <trkpt lat="48.13173" lon="6.49394">
        <ele>416.30859375</ele>
        <time>2014-04-27T07:56:22Z</time>
      </trkpt>
      <trkpt lat="48.13176" lon="6.49391">
        <ele>415.7109375</ele>
        <time>2014-04-27T07:56:23Z</time>
      </trkpt>
      <trkpt lat="48.13189" lon="6.49385">
        <ele>414.01171875</ele>
        <time>2014-04-27T07:56:26Z</time>
      </trkpt>
      <trkpt lat="48.13231" lon="6.49374">
        <ele>411.21875</ele>
        <time>2014-04-27T07:56:36Z</time>
      </trkpt>
      <trkpt lat="48.13235" lon="6.49373">
        <ele>411.015625</ele>
        <time>2014-04-27T07:56:37Z</time>
      </trkpt>
      <trkpt lat="48.13259" lon="6.4937">
        <ele>410.328125</ele>
        <time>2014-04-27T07:56:42Z</time>
      </trkpt>
      <trkpt lat="48.13274" lon="6.49372">
        <ele>410.33203125</ele>
        <time>2014-04-27T07:56:45Z</time>
      </trkpt>
      <trkpt lat="48.13335" lon="6.49374">
        <ele>408.81640625</ele>
        <time>2014-04-27T07:56:56Z</time>
      </trkpt>
      <trkpt lat="48.13373" lon="6.49369">
        <ele>406.09765625</ele>
        <time>2014-04-27T07:57:01Z</time>
      </trkpt>
      <trkpt lat="48.1343" lon="6.49383">
        <ele>403.953125</ele>
        <time>2014-04-27T07:57:08Z</time>
      </trkpt>
      <trkpt lat="48.13439" lon="6.49387">
        <ele>403.62109375</ele>
        <time>2014-04-27T07:57:09Z</time>
      </trkpt>
      <trkpt lat="48.13447" lon="6.49394">
        <ele>403.7265625</ele>
        <time>2014-04-27T07:57:10Z</time>
      </trkpt>
      <trkpt lat="48.13454" lon="6.49402">
        <ele>404.109375</ele>
        <time>2014-04-27T07:57:11Z</time>
      </trkpt>
      <trkpt lat="48.13461" lon="6.49411">
        <ele>404.4609375</ele>
        <time>2014-04-27T07:57:12Z</time>
      </trkpt>
      <trkpt lat="48.13467" lon="6.49421">
        <ele>404.68359375</ele>
        <time>2014-04-27T07:57:13Z</time>
      </trkpt>
      <trkpt lat="48.13471" lon="6.49433">
        <ele>405.328125</ele>
        <time>2014-04-27T07:57:14Z</time>
      </trkpt>
      <trkpt lat="48.13473" lon="6.49444">
        <ele>406.21484375</ele>
        <time>2014-04-27T07:57:15Z</time>
      </trkpt>
      <trkpt lat="48.13475" lon="6.49455">
        <ele>407.171875</ele>
        <time>2014-04-27T07:57:16Z</time>
      </trkpt>
      <trkpt lat="48.13475" lon="6.49464">
        <ele>408.109375</ele>
        <time>2014-04-27T07:57:17Z</time>
      </trkpt>
      <trkpt lat="48.13476" lon="6.49473">
        <ele>408.80859375</ele>
        <time>2014-04-27T07:57:18Z</time>
      </trkpt>
      <trkpt lat="48.13476" lon="6.49481">
        <ele>409.4609375</ele>
        <time>2014-04-27T07:57:19Z</time>
      </trkpt>
      <trkpt lat="48.13475" lon="6.49488">
        <ele>410.1015625</ele>
        <time>2014-04-27T07:57:20Z</time>
      </trkpt>
      <trkpt lat="48.13475" lon="6.49495">
        <ele>410.71875</ele>
        <time>2014-04-27T07:57:21Z</time>
      </trkpt>
      <trkpt lat="48.13473" lon="6.49542">
        <ele>414.29296875</ele>
        <time>2014-04-27T07:57:28Z</time>
      </trkpt>
      <trkpt lat="48.13473" lon="6.49548">
        <ele>414.81640625</ele>
        <time>2014-04-27T07:57:29Z</time>
      </trkpt>
      <trkpt lat="48.13472" lon="6.49555">
        <ele>415.24609375</ele>
        <time>2014-04-27T07:57:30Z</time>
      </trkpt>
      <trkpt lat="48.1347" lon="6.4957">
        <ele>416.16015625</ele>
        <time>2014-04-27T07:57:32Z</time>
      </trkpt>
      <trkpt lat="48.13471" lon="6.49577">
        <ele>416.37109375</ele>
        <time>2014-04-27T07:57:33Z</time>
      </trkpt>
      <trkpt lat="48.13471" lon="6.49585">
        <ele>416.4375</ele>
        <time>2014-04-27T07:57:34Z</time>
      </trkpt>
      <trkpt lat="48.13473" lon="6.49592">
        <ele>416.3125</ele>
        <time>2014-04-27T07:57:35Z</time>
      </trkpt>
      <trkpt lat="48.13475" lon="6.49599">
        <ele>415.9453125</ele>
        <time>2014-04-27T07:57:36Z</time>
      </trkpt>
      <trkpt lat="48.13478" lon="6.49605">
        <ele>415.453125</ele>
        <time>2014-04-27T07:57:37Z</time>
      </trkpt>
      <trkpt lat="48.13481" lon="6.4961">
        <ele>415.33203125</ele>
        <time>2014-04-27T07:57:38Z</time>
      </trkpt>
      <trkpt lat="48.13501" lon="6.49651">
        <ele>416.13671875</ele>
        <time>2014-04-27T07:57:46Z</time>
      </trkpt>
      <trkpt lat="48.13512" lon="6.49659">
        <ele>414.8984375</ele>
        <time>2014-04-27T07:57:49Z</time>
      </trkpt>
      <trkpt lat="48.1354" lon="6.49674">
        <ele>413.00390625</ele>
        <time>2014-04-27T07:57:56Z</time>
      </trkpt>
      <trkpt lat="48.13544" lon="6.49676">
        <ele>413.16015625</ele>
        <time>2014-04-27T07:57:57Z</time>
      </trkpt>
      <trkpt lat="48.13548" lon="6.49679">
        <ele>413.26953125</ele>
        <time>2014-04-27T07:57:58Z</time>
      </trkpt>
      <trkpt lat="48.13553" lon="6.49682">
        <ele>413.23828125</ele>
        <time>2014-04-27T07:57:59Z</time>
      </trkpt>
      <trkpt lat="48.13559" lon="6.49682">
        <ele>412.90625</ele>
        <time>2014-04-27T07:58:00Z</time>
      </trkpt>
      <trkpt lat="48.13565" lon="6.4968">
        <ele>412.28125</ele>
        <time>2014-04-27T07:58:01Z</time>
      </trkpt>
      <trkpt lat="48.13571" lon="6.49675">
        <ele>411.671875</ele>
        <time>2014-04-27T07:58:02Z</time>
      </trkpt>
      <trkpt lat="48.13577" lon="6.49669">
        <ele>411.02734375</ele>
        <time>2014-04-27T07:58:03Z</time>
      </trkpt>
      <trkpt lat="48.13581" lon="6.49662">
        <ele>410.21484375</ele>
        <time>2014-04-27T07:58:04Z</time>
      </trkpt>
      <trkpt lat="48.13586" lon="6.49653">
        <ele>409.3046875</ele>
        <time>2014-04-27T07:58:05Z</time>
      </trkpt>
      <trkpt lat="48.13621" lon="6.4958">
        <ele>406.22265625</ele>
        <time>2014-04-27T07:58:15Z</time>
      </trkpt>
      <trkpt lat="48.13631" lon="6.49568">
        <ele>406.51953125</ele>
        <time>2014-04-27T07:58:18Z</time>
      </trkpt>
      <trkpt lat="48.13634" lon="6.49565">
        <ele>406.859375</ele>
        <time>2014-04-27T07:58:19Z</time>
      </trkpt>
      <trkpt lat="48.13673" lon="6.4956">
        <ele>411.58984375</ele>
        <time>2014-04-27T07:58:30Z</time>
      </trkpt>
      <trkpt lat="48.13676" lon="6.49562">
        <ele>412.1328125</ele>
        <time>2014-04-27T07:58:31Z</time>
      </trkpt>
      <trkpt lat="48.13679" lon="6.49563">
        <ele>412.59375</ele>
        <time>2014-04-27T07:58:32Z</time>
      </trkpt>
      <trkpt lat="48.13703" lon="6.49578">
        <ele>415.1328125</ele>
        <time>2014-04-27T07:58:44Z</time>
      </trkpt>
      <trkpt lat="48.13724" lon="6.49597">
        <ele>419.33203125</ele>
        <time>2014-04-27T07:58:56Z</time>
      </trkpt>
      <trkpt lat="48.13734" lon="6.49612">
        <ele>421.84765625</ele>
        <time>2014-04-27T07:59:02Z</time>
      </trkpt>
      <trkpt lat="48.13735" lon="6.49613">
        <ele>422</ele>
        <time>2014-04-27T07:59:03Z</time>
      </trkpt>
      <trkpt lat="48.13737" lon="6.49615">
        <ele>422.16796875</ele>
        <time>2014-04-27T07:59:04Z</time>
      </trkpt>
      <trkpt lat="48.13738" lon="6.49617">
        <ele>422.3828125</ele>
        <time>2014-04-27T07:59:05Z</time>
      </trkpt>
      <trkpt lat="48.1374" lon="6.49619">
        <ele>422.60546875</ele>
        <time>2014-04-27T07:59:06Z</time>
      </trkpt>
      <trkpt lat="48.13741" lon="6.49621">
        <ele>422.8359375</ele>
        <time>2014-04-27T07:59:07Z</time>
      </trkpt>
      <trkpt lat="48.13742" lon="6.49623">
        <ele>423.0703125</ele>
        <time>2014-04-27T07:59:08Z</time>
      </trkpt>
      <trkpt lat="48.13744" lon="6.49626">
        <ele>423.33203125</ele>
        <time>2014-04-27T07:59:09Z</time>
      </trkpt>
      <trkpt lat="48.13746" lon="6.49628">
        <ele>423.5625</ele>
        <time>2014-04-27T07:59:10Z</time>
      </trkpt>
      <trkpt lat="48.13764" lon="6.4966">
        <ele>427.01953125</ele>
        <time>2014-04-27T07:59:20Z</time>
      </trkpt>
      <trkpt lat="48.13767" lon="6.49701">
        <ele>430.09375</ele>
        <time>2014-04-27T07:59:31Z</time>
      </trkpt>
      <trkpt lat="48.13751" lon="6.49726">
        <ele>433.41796875</ele>
        <time>2014-04-27T07:59:46Z</time>
      </trkpt>
      <trkpt lat="48.13734" lon="6.49752">
        <ele>437.609375</ele>
        <time>2014-04-27T08:00:01Z</time>
      </trkpt>
      <trkpt lat="48.13708" lon="6.49761">
        <ele>438.546875</ele>
        <time>2014-04-27T08:00:13Z</time>
      </trkpt>
      <trkpt lat="48.13682" lon="6.49767">
        <ele>438.3828125</ele>
        <time>2014-04-27T08:00:25Z</time>
      </trkpt>
      <trkpt lat="48.13643" lon="6.49781">
        <ele>436.26953125</ele>
        <time>2014-04-27T08:00:39Z</time>
      </trkpt>
      <trkpt lat="48.13609" lon="6.49818">
        <ele>438.61328125</ele>
        <time>2014-04-27T08:00:55Z</time>
      </trkpt>
      <trkpt lat="48.13588" lon="6.49844">
        <ele>441.41015625</ele>
        <time>2014-04-27T08:01:06Z</time>
      </trkpt>
      <trkpt lat="48.13559" lon="6.49879">
        <ele>446.8984375</ele>
        <time>2014-04-27T08:01:19Z</time>
      </trkpt>
      <trkpt lat="48.13533" lon="6.49922">
        <ele>453.9609375</ele>
        <time>2014-04-27T08:01:33Z</time>
      </trkpt>
      <trkpt lat="48.13532" lon="6.49923">
        <ele>454.29296875</ele>
        <time>2014-04-27T08:01:34Z</time>
      </trkpt>
      <trkpt lat="48.1353" lon="6.49923">
        <ele>454.6171875</ele>
        <time>2014-04-27T08:01:35Z</time>
      </trkpt>
      <trkpt lat="48.13528" lon="6.49922">
        <ele>454.90234375</ele>
        <time>2014-04-27T08:01:36Z</time>
      </trkpt>
      <trkpt lat="48.13496" lon="6.49905">
        <ele>458.828125</ele>
        <time>2014-04-27T08:01:47Z</time>
      </trkpt>
      <trkpt lat="48.13474" lon="6.4988">
        <ele>461.0859375</ele>
        <time>2014-04-27T08:01:58Z</time>
      </trkpt>
      <trkpt lat="48.13445" lon="6.49838">
        <ele>462.73046875</ele>
        <time>2014-04-27T08:02:11Z</time>
      </trkpt>
      <trkpt lat="48.13416" lon="6.49795">
        <ele>463.86328125</ele>
        <time>2014-04-27T08:02:26Z</time>
      </trkpt>
      <trkpt lat="48.13396" lon="6.49768">
        <ele>464.75</ele>
        <time>2014-04-27T08:02:34Z</time>
      </trkpt>
      <trkpt lat="48.13393" lon="6.49765">
        <ele>465.15234375</ele>
        <time>2014-04-27T08:02:35Z</time>
      </trkpt>
      <trkpt lat="48.1339" lon="6.49762">
        <ele>465.37109375</ele>
        <time>2014-04-27T08:02:36Z</time>
      </trkpt>
      <trkpt lat="48.13387" lon="6.49759">
        <ele>465.5</ele>
        <time>2014-04-27T08:02:37Z</time>
      </trkpt>
      <trkpt lat="48.13385" lon="6.49755">
        <ele>465.484375</ele>
        <time>2014-04-27T08:02:38Z</time>
      </trkpt>
      <trkpt lat="48.13382" lon="6.49751">
        <ele>465.4296875</ele>
        <time>2014-04-27T08:02:39Z</time>
      </trkpt>
      <trkpt lat="48.13349" lon="6.4971">
        <ele>468.15625</ele>
        <time>2014-04-27T08:02:51Z</time>
      </trkpt>
      <trkpt lat="48.13328" lon="6.49671">
        <ele>467.5390625</ele>
        <time>2014-04-27T08:03:01Z</time>
      </trkpt>
      <trkpt lat="48.13301" lon="6.49635">
        <ele>465.21875</ele>
        <time>2014-04-27T08:03:13Z</time>
      </trkpt>
      <trkpt lat="48.13271" lon="6.49608">
        <ele>462.41796875</ele>
        <time>2014-04-27T08:03:24Z</time>
      </trkpt>
      <trkpt lat="48.13237" lon="6.49624">
        <ele>464.3046875</ele>
        <time>2014-04-27T08:03:37Z</time>
      </trkpt>
      <trkpt lat="48.1321" lon="6.49635">
        <ele>464.91015625</ele>
        <time>2014-04-27T08:03:47Z</time>
      </trkpt>
      <trkpt lat="48.13167" lon="6.49646">
        <ele>465.234375</ele>
        <time>2014-04-27T08:04:00Z</time>
      </trkpt>
      <trkpt lat="48.13126" lon="6.49657">
        <ele>466.31640625</ele>
        <time>2014-04-27T08:04:11Z</time>
      </trkpt>
      <trkpt lat="48.13095" lon="6.49663">
        <ele>468.19140625</ele>
        <time>2014-04-27T08:04:21Z</time>
      </trkpt>
      <trkpt lat="48.13093" lon="6.49666">
        <ele>469.27734375</ele>
        <time>2014-04-27T08:04:23Z</time>
      </trkpt>
      <trkpt lat="48.13094" lon="6.49668">
        <ele>469.84765625</ele>
        <time>2014-04-27T08:04:24Z</time>
      </trkpt>
      <trkpt lat="48.1312" lon="6.49685">
        <ele>474.51171875</ele>
        <time>2014-04-27T08:04:36Z</time>
      </trkpt>
      <trkpt lat="48.13141" lon="6.49706">
        <ele>480.64453125</ele>
        <time>2014-04-27T08:04:49Z</time>
      </trkpt>
      <trkpt lat="48.13151" lon="6.49718">
        <ele>483.51953125</ele>
        <time>2014-04-27T08:04:55Z</time>
      </trkpt>
      <trkpt lat="48.13169" lon="6.49754">
        <ele>490.90234375</ele>
        <time>2014-04-27T08:05:09Z</time>
      </trkpt>
      <trkpt lat="48.13157" lon="6.49784">
        <ele>495.94921875</ele>
        <time>2014-04-27T08:05:20Z</time>
      </trkpt>
      <trkpt lat="48.13139" lon="6.49814">
        <ele>498.54296875</ele>
        <time>2014-04-27T08:05:32Z</time>
      </trkpt>
      <trkpt lat="48.13109" lon="6.49853">
        <ele>499</ele>
        <time>2014-04-27T08:05:46Z</time>
      </trkpt>
      <trkpt lat="48.13094" lon="6.49872">
        <ele>499.01953125</ele>
        <time>2014-04-27T08:05:51Z</time>
      </trkpt>
      <trkpt lat="48.13091" lon="6.49876">
        <ele>499.125</ele>
        <time>2014-04-27T08:05:52Z</time>
      </trkpt>
      <trkpt lat="48.13051" lon="6.49921">
        <ele>498.96875</ele>
        <time>2014-04-27T08:06:02Z</time>
      </trkpt>
      <trkpt lat="48.13046" lon="6.49926">
        <ele>498.6328125</ele>
        <time>2014-04-27T08:06:03Z</time>
      </trkpt>
      <trkpt lat="48.13017" lon="6.49965">
        <ele>497.19140625</ele>
        <time>2014-04-27T08:06:10Z</time>
      </trkpt>
      <trkpt lat="48.13013" lon="6.4997">
        <ele>497.046875</ele>
        <time>2014-04-27T08:06:11Z</time>
      </trkpt>
      <trkpt lat="48.1301" lon="6.49975">
        <ele>496.85546875</ele>
        <time>2014-04-27T08:06:12Z</time>
      </trkpt>
      <trkpt lat="48.12965" lon="6.5006">
        <ele>494.58984375</ele>
        <time>2014-04-27T08:06:27Z</time>
      </trkpt>
      <trkpt lat="48.12939" lon="6.5011">
        <ele>494.4375</ele>
        <time>2014-04-27T08:06:35Z</time>
      </trkpt>
      <trkpt lat="48.12936" lon="6.50116">
        <ele>494.47265625</ele>
        <time>2014-04-27T08:06:36Z</time>
      </trkpt>
      <trkpt lat="48.12933" lon="6.50122">
        <ele>494.59375</ele>
        <time>2014-04-27T08:06:37Z</time>
      </trkpt>
      <trkpt lat="48.1293" lon="6.50127">
        <ele>494.8046875</ele>
        <time>2014-04-27T08:06:38Z</time>
      </trkpt>
      <trkpt lat="48.12927" lon="6.50133">
        <ele>494.73046875</ele>
        <time>2014-04-27T08:06:39Z</time>
      </trkpt>
      <trkpt lat="48.12897" lon="6.50191">
        <ele>491.19921875</ele>
        <time>2014-04-27T08:06:48Z</time>
      </trkpt>
      <trkpt lat="48.12895" lon="6.50199">
        <ele>490.62109375</ele>
        <time>2014-04-27T08:06:49Z</time>
      </trkpt>
      <trkpt lat="48.12892" lon="6.50214">
        <ele>489.6796875</ele>
        <time>2014-04-27T08:06:51Z</time>
      </trkpt>
      <trkpt lat="48.12891" lon="6.50222">
        <ele>489.375</ele>
        <time>2014-04-27T08:06:52Z</time>
      </trkpt>
      <trkpt lat="48.12893" lon="6.50231">
        <ele>489.296875</ele>
        <time>2014-04-27T08:06:53Z</time>
      </trkpt>
      <trkpt lat="48.12896" lon="6.50239">
        <ele>489.41796875</ele>
        <time>2014-04-27T08:06:54Z</time>
      </trkpt>
      <trkpt lat="48.129" lon="6.50246">
        <ele>489.54296875</ele>
        <time>2014-04-27T08:06:55Z</time>
      </trkpt>
      <trkpt lat="48.12904" lon="6.50251">
        <ele>489.3359375</ele>
        <time>2014-04-27T08:06:56Z</time>
      </trkpt>
      <trkpt lat="48.12906" lon="6.50255">
        <ele>488.984375</ele>
        <time>2014-04-27T08:06:57Z</time>
      </trkpt>
      <trkpt lat="48.12903" lon="6.50271">
        <ele>487.109375</ele>
        <time>2014-04-27T08:07:00Z</time>
      </trkpt>
      <trkpt lat="48.12899" lon="6.50275">
        <ele>486.171875</ele>
        <time>2014-04-27T08:07:01Z</time>
      </trkpt>
      <trkpt lat="48.12895" lon="6.50279">
        <ele>485.20703125</ele>
        <time>2014-04-27T08:07:02Z</time>
      </trkpt>
      <trkpt lat="48.1289" lon="6.50283">
        <ele>484.29296875</ele>
        <time>2014-04-27T08:07:03Z</time>
      </trkpt>
      <trkpt lat="48.12885" lon="6.50288">
        <ele>483.4765625</ele>
        <time>2014-04-27T08:07:04Z</time>
      </trkpt>
      <trkpt lat="48.12858" lon="6.50311">
        <ele>478.26171875</ele>
        <time>2014-04-27T08:07:09Z</time>
      </trkpt>
      <trkpt lat="48.12835" lon="6.5035">
        <ele>470.55859375</ele>
        <time>2014-04-27T08:07:14Z</time>
      </trkpt>
      <trkpt lat="48.12818" lon="6.5035">
        <ele>467.58203125</ele>
        <time>2014-04-27T08:07:19Z</time>
      </trkpt>
      <trkpt lat="48.12809" lon="6.50348">
        <ele>465.52734375</ele>
        <time>2014-04-27T08:07:21Z</time>
      </trkpt>
      <trkpt lat="48.12794" lon="6.50358">
        <ele>460.55859375</ele>
        <time>2014-04-27T08:07:25Z</time>
      </trkpt>
      <trkpt lat="48.12787" lon="6.50374">
        <ele>456.8984375</ele>
        <time>2014-04-27T08:07:28Z</time>
      </trkpt>
      <trkpt lat="48.12769" lon="6.50408">
        <ele>447.78515625</ele>
        <time>2014-04-27T08:07:35Z</time>
      </trkpt>
      <trkpt lat="48.12756" lon="6.50427">
        <ele>442.83203125</ele>
        <time>2014-04-27T08:07:38Z</time>
      </trkpt>
      <trkpt lat="48.12751" lon="6.5043">
        <ele>441.18359375</ele>
        <time>2014-04-27T08:07:39Z</time>
      </trkpt>
      <trkpt lat="48.12744" lon="6.5043">
        <ele>439.70703125</ele>
        <time>2014-04-27T08:07:40Z</time>
      </trkpt>
      <trkpt lat="48.12686" lon="6.5041">
        <ele>430.17578125</ele>
        <time>2014-04-27T08:07:48Z</time>
      </trkpt>
      <trkpt lat="48.12677" lon="6.50405">
        <ele>428.87890625</ele>
        <time>2014-04-27T08:07:49Z</time>
      </trkpt>
      <trkpt lat="48.12652" lon="6.50383">
        <ele>425.15234375</ele>
        <time>2014-04-27T08:07:52Z</time>
      </trkpt>
      <trkpt lat="48.12646" lon="6.50373">
        <ele>424.1171875</ele>
        <time>2014-04-27T08:07:53Z</time>
      </trkpt>
      <trkpt lat="48.1263" lon="6.50341">
        <ele>421.68359375</ele>
        <time>2014-04-27T08:07:56Z</time>
      </trkpt>
      <trkpt lat="48.12617" lon="6.50307">
        <ele>419.9609375</ele>
        <time>2014-04-27T08:07:59Z</time>
      </trkpt>
      <trkpt lat="48.12616" lon="6.50299">
        <ele>419.68359375</ele>
        <time>2014-04-27T08:08:00Z</time>
      </trkpt>
      <trkpt lat="48.12616" lon="6.50294">
        <ele>419.73828125</ele>
        <time>2014-04-27T08:08:01Z</time>
      </trkpt>
      <trkpt lat="48.12617" lon="6.5029">
        <ele>419.9296875</ele>
        <time>2014-04-27T08:08:02Z</time>
      </trkpt>
      <trkpt lat="48.12619" lon="6.50287">
        <ele>420.2109375</ele>
        <time>2014-04-27T08:08:03Z</time>
      </trkpt>
      <trkpt lat="48.12621" lon="6.50285">
        <ele>420.5625</ele>
        <time>2014-04-27T08:08:04Z</time>
      </trkpt>
      <trkpt lat="48.12642" lon="6.5025">
        <ele>424.13671875</ele>
        <time>2014-04-27T08:08:15Z</time>
      </trkpt>
      <trkpt lat="48.12643" lon="6.50248">
        <ele>424.2421875</ele>
        <time>2014-04-27T08:08:16Z</time>
      </trkpt>
      <trkpt lat="48.12643" lon="6.50246">
        <ele>424.34765625</ele>
        <time>2014-04-27T08:08:17Z</time>
      </trkpt>
      <trkpt lat="48.12644" lon="6.50243">
        <ele>424.48046875</ele>
        <time>2014-04-27T08:08:18Z</time>
      </trkpt>
      <trkpt lat="48.12645" lon="6.50241">
        <ele>424.6875</ele>
        <time>2014-04-27T08:08:19Z</time>
      </trkpt>
      <trkpt lat="48.12646" lon="6.50238">
        <ele>424.90625</ele>
        <time>2014-04-27T08:08:20Z</time>
      </trkpt>
      <trkpt lat="48.12657" lon="6.50212">
        <ele>426.59375</ele>
        <time>2014-04-27T08:08:30Z</time>
      </trkpt>
      <trkpt lat="48.12666" lon="6.50174">
        <ele>429.05078125</ele>
        <time>2014-04-27T08:08:42Z</time>
      </trkpt>
      <trkpt lat="48.12667" lon="6.50167">
        <ele>429.03125</ele>
        <time>2014-04-27T08:08:45Z</time>
      </trkpt>
      <trkpt lat="48.12668" lon="6.50163">
        <ele>429.10546875</ele>
        <time>2014-04-27T08:08:46Z</time>
      </trkpt>
      <trkpt lat="48.12668" lon="6.5016">
        <ele>429.15625</ele>
        <time>2014-04-27T08:08:47Z</time>
      </trkpt>
      <trkpt lat="48.12669" lon="6.50157">
        <ele>429.2578125</ele>
        <time>2014-04-27T08:08:48Z</time>
      </trkpt>
      <trkpt lat="48.1267" lon="6.50155">
        <ele>429.41015625</ele>
        <time>2014-04-27T08:08:49Z</time>
      </trkpt>
      <trkpt lat="48.12686" lon="6.50113">
        <ele>432.875</ele>
        <time>2014-04-27T08:08:59Z</time>
      </trkpt>
      <trkpt lat="48.12693" lon="6.50079">
        <ele>434.171875</ele>
        <time>2014-04-27T08:09:08Z</time>
      </trkpt>
      <trkpt lat="48.12705" lon="6.50047">
        <ele>436.75</ele>
        <time>2014-04-27T08:09:18Z</time>
      </trkpt>
      <trkpt lat="48.12717" lon="6.50009">
        <ele>440.08984375</ele>
        <time>2014-04-27T08:09:30Z</time>
      </trkpt>
      <trkpt lat="48.12722" lon="6.49999">
        <ele>441.1015625</ele>
        <time>2014-04-27T08:09:35Z</time>
      </trkpt>
      <trkpt lat="48.12734" lon="6.49977">
        <ele>444.12109375</ele>
        <time>2014-04-27T08:09:47Z</time>
      </trkpt>
      <trkpt lat="48.12735" lon="6.49976">
        <ele>444.44140625</ele>
        <time>2014-04-27T08:09:48Z</time>
      </trkpt>
      <trkpt lat="48.12749" lon="6.49958">
        <ele>448.24609375</ele>
        <time>2014-04-27T08:10:02Z</time>
      </trkpt>
      <trkpt lat="48.12751" lon="6.49957">
        <ele>448.703125</ele>
        <time>2014-04-27T08:10:04Z</time>
      </trkpt>
      <trkpt lat="48.12759" lon="6.49941">
        <ele>451.31640625</ele>
        <time>2014-04-27T08:10:13Z</time>
      </trkpt>
      <trkpt lat="48.12769" lon="6.49918">
        <ele>454.9765625</ele>
        <time>2014-04-27T08:10:23Z</time>
      </trkpt>
      <trkpt lat="48.12776" lon="6.49893">
        <ele>458.25390625</ele>
        <time>2014-04-27T08:10:33Z</time>
      </trkpt>
      <trkpt lat="48.12776" lon="6.4989">
        <ele>458.6171875</ele>
        <time>2014-04-27T08:10:35Z</time>
      </trkpt>
      <trkpt lat="48.12782" lon="6.49877">
        <ele>460.30078125</ele>
        <time>2014-04-27T08:10:41Z</time>
      </trkpt>
      <trkpt lat="48.12784" lon="6.49875">
        <ele>460.5859375</ele>
        <time>2014-04-27T08:10:43Z</time>
      </trkpt>
      <trkpt lat="48.12789" lon="6.49864">
        <ele>461.8984375</ele>
        <time>2014-04-27T08:10:47Z</time>
      </trkpt>
      <trkpt lat="48.1279" lon="6.49859">
        <ele>462.4921875</ele>
        <time>2014-04-27T08:10:49Z</time>
      </trkpt>
      <trkpt lat="48.12797" lon="6.49834">
        <ele>466.69921875</ele>
        <time>2014-04-27T08:11:02Z</time>
      </trkpt>
      <trkpt lat="48.12798" lon="6.49828">
        <ele>467.78515625</ele>
        <time>2014-04-27T08:11:05Z</time>
      </trkpt>
      <trkpt lat="48.128" lon="6.49824">
        <ele>468.34375</ele>
        <time>2014-04-27T08:11:07Z</time>
      </trkpt>
      <trkpt lat="48.12804" lon="6.49809">
        <ele>470.203125</ele>
        <time>2014-04-27T08:11:16Z</time>
      </trkpt>
      <trkpt lat="48.1282" lon="6.49784">
        <ele>473.08203125</ele>
        <time>2014-04-27T08:11:29Z</time>
      </trkpt>
      <trkpt lat="48.12833" lon="6.49759">
        <ele>475.65625</ele>
        <time>2014-04-27T08:11:42Z</time>
      </trkpt>
      <trkpt lat="48.12837" lon="6.49753">
        <ele>476.2734375</ele>
        <time>2014-04-27T08:11:44Z</time>
      </trkpt>
      <trkpt lat="48.12848" lon="6.49737">
        <ele>477.69921875</ele>
        <time>2014-04-27T08:11:52Z</time>
      </trkpt>
      <trkpt lat="48.12856" lon="6.49731">
        <ele>478.5390625</ele>
        <time>2014-04-27T08:11:59Z</time>
      </trkpt>
      <trkpt lat="48.12866" lon="6.49726">
        <ele>479.09765625</ele>
        <time>2014-04-27T08:12:04Z</time>
      </trkpt>
      <trkpt lat="48.12897" lon="6.49712">
        <ele>481.984375</ele>
        <time>2014-04-27T08:12:16Z</time>
      </trkpt>
      <trkpt lat="48.1292" lon="6.49672">
        <ele>484.921875</ele>
        <time>2014-04-27T08:12:26Z</time>
      </trkpt>
      <trkpt lat="48.1292" lon="6.49667">
        <ele>485.17578125</ele>
        <time>2014-04-27T08:12:27Z</time>
      </trkpt>
      <trkpt lat="48.12934" lon="6.49642">
        <ele>486.2109375</ele>
        <time>2014-04-27T08:12:33Z</time>
      </trkpt>
      <trkpt lat="48.12941" lon="6.49582">
        <ele>490.703125</ele>
        <time>2014-04-27T08:12:46Z</time>
      </trkpt>
      <trkpt lat="48.12951" lon="6.49511">
        <ele>493.32421875</ele>
        <time>2014-04-27T08:12:58Z</time>
      </trkpt>
      <trkpt lat="48.12948" lon="6.49439">
        <ele>492.04296875</ele>
        <time>2014-04-27T08:13:11Z</time>
      </trkpt>
      <trkpt lat="48.12921" lon="6.49376">
        <ele>494.1171875</ele>
        <time>2014-04-27T08:13:26Z</time>
      </trkpt>
      <trkpt lat="48.12897" lon="6.49326">
        <ele>495.70703125</ele>
        <time>2014-04-27T08:13:39Z</time>
      </trkpt>
      <trkpt lat="48.12875" lon="6.49279">
        <ele>496.22265625</ele>
        <time>2014-04-27T08:13:51Z</time>
      </trkpt>
      <trkpt lat="48.12844" lon="6.49217">
        <ele>498.2890625</ele>
        <time>2014-04-27T08:14:06Z</time>
      </trkpt>
      <trkpt lat="48.12813" lon="6.49159">
        <ele>500.77734375</ele>
        <time>2014-04-27T08:14:21Z</time>
      </trkpt>
      <trkpt lat="48.12784" lon="6.49115">
        <ele>503.05859375</ele>
        <time>2014-04-27T08:14:34Z</time>
      </trkpt>
      <trkpt lat="48.12762" lon="6.49078">
        <ele>504.14453125</ele>
        <time>2014-04-27T08:14:45Z</time>
      </trkpt>
      <trkpt lat="48.12736" lon="6.49033">
        <ele>507.16015625</ele>
        <time>2014-04-27T08:14:58Z</time>
      </trkpt>
      <trkpt lat="48.1271" lon="6.48995">
        <ele>507.8359375</ele>
        <time>2014-04-27T08:15:10Z</time>
      </trkpt>
      <trkpt lat="48.12686" lon="6.4895">
        <ele>509.9296875</ele>
        <time>2014-04-27T08:15:22Z</time>
      </trkpt>
      <trkpt lat="48.12684" lon="6.48892">
        <ele>511.3125</ele>
        <time>2014-04-27T08:15:32Z</time>
      </trkpt>
      <trkpt lat="48.12684" lon="6.48885">
        <ele>511.4921875</ele>
        <time>2014-04-27T08:15:33Z</time>
      </trkpt>
      <trkpt lat="48.12685" lon="6.48878">
        <ele>511.83203125</ele>
        <time>2014-04-27T08:15:34Z</time>
      </trkpt>
      <trkpt lat="48.12685" lon="6.48872">
        <ele>512.2421875</ele>
        <time>2014-04-27T08:15:35Z</time>
      </trkpt>
      <trkpt lat="48.12686" lon="6.48865">
        <ele>512.60546875</ele>
        <time>2014-04-27T08:15:36Z</time>
      </trkpt>
      <trkpt lat="48.12687" lon="6.48858">
        <ele>512.92578125</ele>
        <time>2014-04-27T08:15:37Z</time>
      </trkpt>
      <trkpt lat="48.12692" lon="6.48828">
        <ele>513.55078125</ele>
        <time>2014-04-27T08:15:41Z</time>
      </trkpt>
      <trkpt lat="48.12706" lon="6.48791">
        <ele>513.3125</ele>
        <time>2014-04-27T08:15:47Z</time>
      </trkpt>
      <trkpt lat="48.1271" lon="6.48784">
        <ele>513.1015625</ele>
        <time>2014-04-27T08:15:48Z</time>
      </trkpt>
      <trkpt lat="48.12713" lon="6.48777">
        <ele>513.05078125</ele>
        <time>2014-04-27T08:15:49Z</time>
      </trkpt>
      <trkpt lat="48.12716" lon="6.4877">
        <ele>513.0625</ele>
        <time>2014-04-27T08:15:50Z</time>
      </trkpt>
      <trkpt lat="48.12722" lon="6.48756">
        <ele>512.84765625</ele>
        <time>2014-04-27T08:15:51Z</time>
      </trkpt>
      <trkpt lat="48.12728" lon="6.48744">
        <ele>512.625</ele>
        <time>2014-04-27T08:15:52Z</time>
      </trkpt>
      <trkpt lat="48.12776" lon="6.48685">
        <ele>509.51953125</ele>
        <time>2014-04-27T08:16:03Z</time>
      </trkpt>
      <trkpt lat="48.12785" lon="6.48676">
        <ele>508.5</ele>
        <time>2014-04-27T08:16:05Z</time>
      </trkpt>
      <trkpt lat="48.12806" lon="6.48655">
        <ele>506.21875</ele>
        <time>2014-04-27T08:16:09Z</time>
      </trkpt>
      <trkpt lat="48.12818" lon="6.4864">
        <ele>504.96875</ele>
        <time>2014-04-27T08:16:11Z</time>
      </trkpt>
      <trkpt lat="48.12823" lon="6.4863">
        <ele>504.37890625</ele>
        <time>2014-04-27T08:16:12Z</time>
      </trkpt>
      <trkpt lat="48.12859" lon="6.4853">
        <ele>501</ele>
        <time>2014-04-27T08:16:23Z</time>
      </trkpt>
      <trkpt lat="48.12872" lon="6.48475">
        <ele>498.33984375</ele>
        <time>2014-04-27T08:16:29Z</time>
      </trkpt>
      <trkpt lat="48.12873" lon="6.48466">
        <ele>497.96484375</ele>
        <time>2014-04-27T08:16:30Z</time>
      </trkpt>
      <trkpt lat="48.12873" lon="6.48456">
        <ele>497.26953125</ele>
        <time>2014-04-27T08:16:31Z</time>
      </trkpt>
      <trkpt lat="48.12872" lon="6.48447">
        <ele>496.6015625</ele>
        <time>2014-04-27T08:16:32Z</time>
      </trkpt>
      <trkpt lat="48.1287" lon="6.48438">
        <ele>495.9921875</ele>
        <time>2014-04-27T08:16:33Z</time>
      </trkpt>
      <trkpt lat="48.12868" lon="6.4843">
        <ele>495.3828125</ele>
        <time>2014-04-27T08:16:34Z</time>
      </trkpt>
      <trkpt lat="48.12866" lon="6.48424">
        <ele>494.8671875</ele>
        <time>2014-04-27T08:16:35Z</time>
      </trkpt>
      <trkpt lat="48.12863" lon="6.4842">
        <ele>494.42578125</ele>
        <time>2014-04-27T08:16:36Z</time>
      </trkpt>
      <trkpt lat="48.12859" lon="6.48417">
        <ele>494.0546875</ele>
        <time>2014-04-27T08:16:37Z</time>
      </trkpt>
      <trkpt lat="48.12857" lon="6.48415">
        <ele>493.87109375</ele>
        <time>2014-04-27T08:16:38Z</time>
      </trkpt>
      <trkpt lat="48.1285" lon="6.48419">
        <ele>494.04296875</ele>
        <time>2014-04-27T08:16:48Z</time>
      </trkpt>
      <trkpt lat="48.12847" lon="6.48417">
        <ele>493.78125</ele>
        <time>2014-04-27T08:17:00Z</time>
      </trkpt>
      <trkpt lat="48.12846" lon="6.48411">
        <ele>493.0859375</ele>
        <time>2014-04-27T08:17:13Z</time>
      </trkpt>
      <trkpt lat="48.12849" lon="6.48412">
        <ele>493.24609375</ele>
        <time>2014-04-27T08:17:33Z</time>
      </trkpt>
      <trkpt lat="48.12851" lon="6.48412">
        <ele>493.3828125</ele>
        <time>2014-04-27T08:17:56Z</time>
      </trkpt>
      <trkpt lat="48.1285" lon="6.4841">
        <ele>493.1171875</ele>
        <time>2014-04-27T08:18:11Z</time>
      </trkpt>
      <trkpt lat="48.12849" lon="6.48413">
        <ele>493.34765625</ele>
        <time>2014-04-27T08:18:22Z</time>
      </trkpt>
      <trkpt lat="48.12848" lon="6.48414">
        <ele>493.41015625</ele>
        <time>2014-04-27T08:18:39Z</time>
      </trkpt>
      <trkpt lat="48.12843" lon="6.4841">
        <ele>492.82421875</ele>
        <time>2014-04-27T08:18:49Z</time>
      </trkpt>
      <trkpt lat="48.1284" lon="6.48406">
        <ele>492.2734375</ele>
        <time>2014-04-27T08:19:01Z</time>
      </trkpt>
      <trkpt lat="48.12841" lon="6.48403">
        <ele>491.9765625</ele>
        <time>2014-04-27T08:19:13Z</time>
      </trkpt>
      <trkpt lat="48.12844" lon="6.484">
        <ele>491.81640625</ele>
        <time>2014-04-27T08:19:30Z</time>
      </trkpt>
      <trkpt lat="48.12846" lon="6.484">
        <ele>491.89453125</ele>
        <time>2014-04-27T08:19:47Z</time>
      </trkpt>
      <trkpt lat="48.12847" lon="6.484">
        <ele>491.8984375</ele>
        <time>2014-04-27T08:20:10Z</time>
      </trkpt>
      <trkpt lat="48.12848" lon="6.48399">
        <ele>491.86328125</ele>
        <time>2014-04-27T08:20:29Z</time>
      </trkpt>
      <trkpt lat="48.12848" lon="6.48399">
        <ele>491.859375</ele>
        <time>2014-04-27T08:20:49Z</time>
      </trkpt>
      <trkpt lat="48.12848" lon="6.48398">
        <ele>491.7734375</ele>
        <time>2014-04-27T08:21:10Z</time>
      </trkpt>
      <trkpt lat="48.12848" lon="6.48399">
        <ele>491.8671875</ele>
        <time>2014-04-27T08:21:28Z</time>
      </trkpt>
      <trkpt lat="48.12846" lon="6.48401">
        <ele>491.98046875</ele>
        <time>2014-04-27T08:21:41Z</time>
      </trkpt>
      <trkpt lat="48.12845" lon="6.48403">
        <ele>492.12109375</ele>
        <time>2014-04-27T08:21:56Z</time>
      </trkpt>
      <trkpt lat="48.12844" lon="6.48404">
        <ele>492.1796875</ele>
        <time>2014-04-27T08:22:20Z</time>
      </trkpt>
      <trkpt lat="48.12843" lon="6.48405">
        <ele>492.33203125</ele>
        <time>2014-04-27T08:22:33Z</time>
      </trkpt>
      <trkpt lat="48.12843" lon="6.48406">
        <ele>492.44140625</ele>
        <time>2014-04-27T08:22:49Z</time>
      </trkpt>
      <trkpt lat="48.12843" lon="6.48405">
        <ele>492.296875</ele>
        <time>2014-04-27T08:23:00Z</time>
      </trkpt>
      <trkpt lat="48.12842" lon="6.48406">
        <ele>492.41796875</ele>
        <time>2014-04-27T08:23:16Z</time>
      </trkpt>
      <trkpt lat="48.12842" lon="6.48409">
        <ele>492.6796875</ele>
        <time>2014-04-27T08:23:32Z</time>
      </trkpt>
      <trkpt lat="48.12843" lon="6.48409">
        <ele>492.7421875</ele>
        <time>2014-04-27T08:23:46Z</time>
      </trkpt>
      <trkpt lat="48.12842" lon="6.48407">
        <ele>492.53125</ele>
        <time>2014-04-27T08:23:47Z</time>
      </trkpt>
      <trkpt lat="48.12842" lon="6.48405">
        <ele>492.26953125</ele>
        <time>2014-04-27T08:23:48Z</time>
      </trkpt>
      <trkpt lat="48.12842" lon="6.48402">
        <ele>491.90234375</ele>
        <time>2014-04-27T08:23:49Z</time>
      </trkpt>
      <trkpt lat="48.12842" lon="6.48398">
        <ele>491.51953125</ele>
        <time>2014-04-27T08:23:50Z</time>
      </trkpt>
      <trkpt lat="48.12843" lon="6.48395">
        <ele>491.234375</ele>
        <time>2014-04-27T08:23:51Z</time>
      </trkpt>
      <trkpt lat="48.12846" lon="6.48391">
        <ele>490.90625</ele>
        <time>2014-04-27T08:23:52Z</time>
      </trkpt>
      <trkpt lat="48.12856" lon="6.48375">
        <ele>489.6015625</ele>
        <time>2014-04-27T08:23:55Z</time>
      </trkpt>
      <trkpt lat="48.12864" lon="6.48361">
        <ele>488.8515625</ele>
        <time>2014-04-27T08:23:57Z</time>
      </trkpt>
      <trkpt lat="48.12867" lon="6.48354">
        <ele>488.4296875</ele>
        <time>2014-04-27T08:23:58Z</time>
      </trkpt>
      <trkpt lat="48.12869" lon="6.48345">
        <ele>487.89453125</ele>
        <time>2014-04-27T08:23:59Z</time>
      </trkpt>
      <trkpt lat="48.12872" lon="6.48324">
        <ele>486.5859375</ele>
        <time>2014-04-27T08:24:01Z</time>
      </trkpt>
      <trkpt lat="48.12875" lon="6.48302">
        <ele>485.23046875</ele>
        <time>2014-04-27T08:24:03Z</time>
      </trkpt>
      <trkpt lat="48.12874" lon="6.48266">
        <ele>482.66796875</ele>
        <time>2014-04-27T08:24:07Z</time>
      </trkpt>
      <trkpt lat="48.12877" lon="6.48231">
        <ele>480.9296875</ele>
        <time>2014-04-27T08:24:12Z</time>
      </trkpt>
      <trkpt lat="48.12869" lon="6.48194">
        <ele>477.40625</ele>
        <time>2014-04-27T08:24:19Z</time>
      </trkpt>
      <trkpt lat="48.12847" lon="6.48155">
        <ele>470.24609375</ele>
        <time>2014-04-27T08:24:28Z</time>
      </trkpt>
      <trkpt lat="48.12821" lon="6.48137">
        <ele>463.046875</ele>
        <time>2014-04-27T08:24:38Z</time>
      </trkpt>
      <trkpt lat="48.12784" lon="6.4812">
        <ele>452.44140625</ele>
        <time>2014-04-27T08:24:45Z</time>
      </trkpt>
      <trkpt lat="48.12776" lon="6.48113">
        <ele>450.52734375</ele>
        <time>2014-04-27T08:24:47Z</time>
      </trkpt>
      <trkpt lat="48.1275" lon="6.481">
        <ele>445.234375</ele>
        <time>2014-04-27T08:24:56Z</time>
      </trkpt>
      <trkpt lat="48.12748" lon="6.48102">
        <ele>444.89453125</ele>
        <time>2014-04-27T08:24:57Z</time>
      </trkpt>
      <trkpt lat="48.12739" lon="6.48079">
        <ele>442.95703125</ele>
        <time>2014-04-27T08:25:04Z</time>
      </trkpt>
      <trkpt lat="48.12738" lon="6.4807">
        <ele>442.453125</ele>
        <time>2014-04-27T08:25:05Z</time>
      </trkpt>
      <trkpt lat="48.12735" lon="6.48061">
        <ele>441.59375</ele>
        <time>2014-04-27T08:25:06Z</time>
      </trkpt>
      <trkpt lat="48.12732" lon="6.48051">
        <ele>441.21875</ele>
        <time>2014-04-27T08:25:07Z</time>
      </trkpt>
      <trkpt lat="48.12707" lon="6.47989">
        <ele>438.44921875</ele>
        <time>2014-04-27T08:25:14Z</time>
      </trkpt>
      <trkpt lat="48.12704" lon="6.47979">
        <ele>437.5703125</ele>
        <time>2014-04-27T08:25:15Z</time>
      </trkpt>
      <trkpt lat="48.12703" lon="6.47967">
        <ele>436.296875</ele>
        <time>2014-04-27T08:25:16Z</time>
      </trkpt>
      <trkpt lat="48.12703" lon="6.47953">
        <ele>435.359375</ele>
        <time>2014-04-27T08:25:17Z</time>
      </trkpt>
      <trkpt lat="48.12703" lon="6.47941">
        <ele>434.43359375</ele>
        <time>2014-04-27T08:25:18Z</time>
      </trkpt>
      <trkpt lat="48.12702" lon="6.47892">
        <ele>431.90625</ele>
        <time>2014-04-27T08:25:22Z</time>
      </trkpt>
      <trkpt lat="48.12705" lon="6.47882">
        <ele>431.03125</ele>
        <time>2014-04-27T08:25:23Z</time>
      </trkpt>
      <trkpt lat="48.12709" lon="6.47872">
        <ele>430.66796875</ele>
        <time>2014-04-27T08:25:24Z</time>
      </trkpt>
      <trkpt lat="48.12712" lon="6.47865">
        <ele>430.41796875</ele>
        <time>2014-04-27T08:25:25Z</time>
      </trkpt>
      <trkpt lat="48.12715" lon="6.47858">
        <ele>430.14453125</ele>
        <time>2014-04-27T08:25:26Z</time>
      </trkpt>
      <trkpt lat="48.12718" lon="6.47852">
        <ele>429.87890625</ele>
        <time>2014-04-27T08:25:27Z</time>
      </trkpt>
      <trkpt lat="48.12721" lon="6.47846">
        <ele>429.65234375</ele>
        <time>2014-04-27T08:25:28Z</time>
      </trkpt>
      <trkpt lat="48.12724" lon="6.47839">
        <ele>429.41796875</ele>
        <time>2014-04-27T08:25:29Z</time>
      </trkpt>
      <trkpt lat="48.12727" lon="6.47833">
        <ele>429.1875</ele>
        <time>2014-04-27T08:25:30Z</time>
      </trkpt>
      <trkpt lat="48.12729" lon="6.47826">
        <ele>428.82421875</ele>
        <time>2014-04-27T08:25:31Z</time>
      </trkpt>
      <trkpt lat="48.1273" lon="6.47818">
        <ele>428.09765625</ele>
        <time>2014-04-27T08:25:32Z</time>
      </trkpt>
      <trkpt lat="48.1277" lon="6.47696">
        <ele>419.42578125</ele>
        <time>2014-04-27T08:25:45Z</time>
      </trkpt>
      <trkpt lat="48.12809" lon="6.47579">
        <ele>415.78515625</ele>
        <time>2014-04-27T08:25:56Z</time>
      </trkpt>
      <trkpt lat="48.12827" lon="6.4751">
        <ele>413.4453125</ele>
        <time>2014-04-27T08:26:02Z</time>
      </trkpt>
      <trkpt lat="48.12829" lon="6.47451">
        <ele>411.13671875</ele>
        <time>2014-04-27T08:26:07Z</time>
      </trkpt>
      <trkpt lat="48.1283" lon="6.47444">
        <ele>410.9140625</ele>
        <time>2014-04-27T08:26:08Z</time>
      </trkpt>
      <trkpt lat="48.12829" lon="6.47441">
        <ele>410.6796875</ele>
        <time>2014-04-27T08:26:09Z</time>
      </trkpt>
      <trkpt lat="48.12821" lon="6.47441">
        <ele>409.64453125</ele>
        <time>2014-04-27T08:26:12Z</time>
      </trkpt>
      <trkpt lat="48.12816" lon="6.47443">
        <ele>409.03515625</ele>
        <time>2014-04-27T08:26:13Z</time>
      </trkpt>
      <trkpt lat="48.12811" lon="6.47447">
        <ele>408.83984375</ele>
        <time>2014-04-27T08:26:14Z</time>
      </trkpt>
      <trkpt lat="48.12808" lon="6.47453">
        <ele>408.85546875</ele>
        <time>2014-04-27T08:26:15Z</time>
      </trkpt>
      <trkpt lat="48.12807" lon="6.47461">
        <ele>409.01171875</ele>
        <time>2014-04-27T08:26:16Z</time>
      </trkpt>
      <trkpt lat="48.12805" lon="6.47467">
        <ele>409.11328125</ele>
        <time>2014-04-27T08:26:17Z</time>
      </trkpt>
      <trkpt lat="48.12802" lon="6.47471">
        <ele>409.03125</ele>
        <time>2014-04-27T08:26:18Z</time>
      </trkpt>
      <trkpt lat="48.12797" lon="6.47461">
        <ele>408.296875</ele>
        <time>2014-04-27T08:26:21Z</time>
      </trkpt>
      <trkpt lat="48.12799" lon="6.47453">
        <ele>408.140625</ele>
        <time>2014-04-27T08:26:22Z</time>
      </trkpt>
      <trkpt lat="48.128" lon="6.47445">
        <ele>407.9375</ele>
        <time>2014-04-27T08:26:23Z</time>
      </trkpt>
      <trkpt lat="48.128" lon="6.47437">
        <ele>407.62890625</ele>
        <time>2014-04-27T08:26:24Z</time>
      </trkpt>
      <trkpt lat="48.12792" lon="6.47323">
        <ele>400.10546875</ele>
        <time>2014-04-27T08:26:34Z</time>
      </trkpt>
      <trkpt lat="48.12793" lon="6.47297">
        <ele>399.1015625</ele>
        <time>2014-04-27T08:26:36Z</time>
      </trkpt>
      <trkpt lat="48.12794" lon="6.47284">
        <ele>398.6640625</ele>
        <time>2014-04-27T08:26:37Z</time>
      </trkpt>
      <trkpt lat="48.12797" lon="6.47271">
        <ele>398.21484375</ele>
        <time>2014-04-27T08:26:38Z</time>
      </trkpt>
      <trkpt lat="48.12811" lon="6.47205">
        <ele>395.83203125</ele>
        <time>2014-04-27T08:26:43Z</time>
      </trkpt>
      <trkpt lat="48.12811" lon="6.47191">
        <ele>395.296875</ele>
        <time>2014-04-27T08:26:44Z</time>
      </trkpt>
      <trkpt lat="48.12811" lon="6.47177">
        <ele>394.59765625</ele>
        <time>2014-04-27T08:26:45Z</time>
      </trkpt>
      <trkpt lat="48.12808" lon="6.47164">
        <ele>394.11328125</ele>
        <time>2014-04-27T08:26:46Z</time>
      </trkpt>
      <trkpt lat="48.12805" lon="6.47151">
        <ele>393.8359375</ele>
        <time>2014-04-27T08:26:47Z</time>
      </trkpt>
      <trkpt lat="48.12801" lon="6.47139">
        <ele>393.5625</ele>
        <time>2014-04-27T08:26:48Z</time>
      </trkpt>
      <trkpt lat="48.12796" lon="6.47127">
        <ele>393.26953125</ele>
        <time>2014-04-27T08:26:49Z</time>
      </trkpt>
      <trkpt lat="48.12792" lon="6.47114">
        <ele>393.0703125</ele>
        <time>2014-04-27T08:26:50Z</time>
      </trkpt>
      <trkpt lat="48.12789" lon="6.47101">
        <ele>392.75</ele>
        <time>2014-04-27T08:26:51Z</time>
      </trkpt>
      <trkpt lat="48.12787" lon="6.47087">
        <ele>392.04296875</ele>
        <time>2014-04-27T08:26:52Z</time>
      </trkpt>
      <trkpt lat="48.12785" lon="6.47074">
        <ele>391.015625</ele>
        <time>2014-04-27T08:26:53Z</time>
      </trkpt>
      <trkpt lat="48.12784" lon="6.4706">
        <ele>389.52734375</ele>
        <time>2014-04-27T08:26:54Z</time>
      </trkpt>
      <trkpt lat="48.12784" lon="6.47046">
        <ele>387.98828125</ele>
        <time>2014-04-27T08:26:55Z</time>
      </trkpt>
      <trkpt lat="48.12784" lon="6.47011">
        <ele>384.09375</ele>
        <time>2014-04-27T08:26:58Z</time>
      </trkpt>
      <trkpt lat="48.12782" lon="6.47003">
        <ele>383.2734375</ele>
        <time>2014-04-27T08:26:59Z</time>
      </trkpt>
      <trkpt lat="48.1278" lon="6.46997">
        <ele>382.6484375</ele>
        <time>2014-04-27T08:27:00Z</time>
      </trkpt>
      <trkpt lat="48.12777" lon="6.46992">
        <ele>382.203125</ele>
        <time>2014-04-27T08:27:01Z</time>
      </trkpt>
      <trkpt lat="48.12772" lon="6.46989">
        <ele>382.05078125</ele>
        <time>2014-04-27T08:27:02Z</time>
      </trkpt>
      <trkpt lat="48.12767" lon="6.46988">
        <ele>382.07421875</ele>
        <time>2014-04-27T08:27:03Z</time>
      </trkpt>
      <trkpt lat="48.12762" lon="6.46987">
        <ele>382.17578125</ele>
        <time>2014-04-27T08:27:04Z</time>
      </trkpt>
      <trkpt lat="48.12756" lon="6.46986">
        <ele>382.47265625</ele>
        <time>2014-04-27T08:27:05Z</time>
      </trkpt>
      <trkpt lat="48.1275" lon="6.46985">
        <ele>382.7890625</ele>
        <time>2014-04-27T08:27:06Z</time>
      </trkpt>
      <trkpt lat="48.12744" lon="6.46983">
        <ele>383.0390625</ele>
        <time>2014-04-27T08:27:07Z</time>
      </trkpt>
      <trkpt lat="48.12667" lon="6.46957">
        <ele>386.01953125</ele>
        <time>2014-04-27T08:27:20Z</time>
      </trkpt>
      <trkpt lat="48.12581" lon="6.4695">
        <ele>387.58203125</ele>
        <time>2014-04-27T08:27:35Z</time>
      </trkpt>
      <trkpt lat="48.1257" lon="6.46951">
        <ele>387.453125</ele>
        <time>2014-04-27T08:27:37Z</time>
      </trkpt>
      <trkpt lat="48.1256" lon="6.46953">
        <ele>387.4921875</ele>
        <time>2014-04-27T08:27:39Z</time>
      </trkpt>
      <trkpt lat="48.12527" lon="6.46962">
        <ele>388.359375</ele>
        <time>2014-04-27T08:27:46Z</time>
      </trkpt>
      <trkpt lat="48.12513" lon="6.46966">
        <ele>388.953125</ele>
        <time>2014-04-27T08:27:49Z</time>
      </trkpt>
      <trkpt lat="48.12509" lon="6.46968">
        <ele>389.04296875</ele>
        <time>2014-04-27T08:27:50Z</time>
      </trkpt>
      <trkpt lat="48.12504" lon="6.46969">
        <ele>389.16015625</ele>
        <time>2014-04-27T08:27:51Z</time>
      </trkpt>
      <trkpt lat="48.12461" lon="6.46996">
        <ele>390.24609375</ele>
        <time>2014-04-27T08:28:01Z</time>
      </trkpt>
      <trkpt lat="48.12456" lon="6.46997">
        <ele>390.1328125</ele>
        <time>2014-04-27T08:28:02Z</time>
      </trkpt>
      <trkpt lat="48.12452" lon="6.46994">
        <ele>389.96484375</ele>
        <time>2014-04-27T08:28:03Z</time>
      </trkpt>
      <trkpt lat="48.12448" lon="6.46988">
        <ele>389.7421875</ele>
        <time>2014-04-27T08:28:04Z</time>
      </trkpt>
      <trkpt lat="48.12446" lon="6.4698">
        <ele>389.4765625</ele>
        <time>2014-04-27T08:28:05Z</time>
      </trkpt>
      <trkpt lat="48.12445" lon="6.46973">
        <ele>389.203125</ele>
        <time>2014-04-27T08:28:06Z</time>
      </trkpt>
      <trkpt lat="48.12432" lon="6.46901">
        <ele>394.953125</ele>
        <time>2014-04-27T08:28:16Z</time>
      </trkpt>
      <trkpt lat="48.12432" lon="6.46895">
        <ele>396.00390625</ele>
        <time>2014-04-27T08:28:17Z</time>
      </trkpt>
      <trkpt lat="48.12434" lon="6.4689">
        <ele>396.8203125</ele>
        <time>2014-04-27T08:28:18Z</time>
      </trkpt>
      <trkpt lat="48.12436" lon="6.46887">
        <ele>397.4453125</ele>
        <time>2014-04-27T08:28:19Z</time>
      </trkpt>
      <trkpt lat="48.12438" lon="6.46884">
        <ele>397.8984375</ele>
        <time>2014-04-27T08:28:20Z</time>
      </trkpt>
      <trkpt lat="48.12441" lon="6.46882">
        <ele>398.26953125</ele>
        <time>2014-04-27T08:28:21Z</time>
      </trkpt>
      <trkpt lat="48.12443" lon="6.46881">
        <ele>398.51171875</ele>
        <time>2014-04-27T08:28:22Z</time>
      </trkpt>
      <trkpt lat="48.12446" lon="6.46881">
        <ele>398.46484375</ele>
        <time>2014-04-27T08:28:23Z</time>
      </trkpt>
      <trkpt lat="48.12448" lon="6.46881">
        <ele>398.46484375</ele>
        <time>2014-04-27T08:28:24Z</time>
      </trkpt>
      <trkpt lat="48.1245" lon="6.4688">
        <ele>398.625</ele>
        <time>2014-04-27T08:28:25Z</time>
      </trkpt>
      <trkpt lat="48.12452" lon="6.46879">
        <ele>398.8671875</ele>
        <time>2014-04-27T08:28:26Z</time>
      </trkpt>
      <trkpt lat="48.12454" lon="6.46878">
        <ele>399.0234375</ele>
        <time>2014-04-27T08:28:27Z</time>
      </trkpt>
      <trkpt lat="48.12457" lon="6.46877">
        <ele>399.14453125</ele>
        <time>2014-04-27T08:28:28Z</time>
      </trkpt>
      <trkpt lat="48.12472" lon="6.4687">
        <ele>399.55859375</ele>
        <time>2014-04-27T08:28:37Z</time>
      </trkpt>
      <trkpt lat="48.1249" lon="6.46836">
        <ele>403.4296875</ele>
        <time>2014-04-27T08:28:48Z</time>
      </trkpt>
      <trkpt lat="48.12514" lon="6.468">
        <ele>405.90234375</ele>
        <time>2014-04-27T08:29:00Z</time>
      </trkpt>
      <trkpt lat="48.12552" lon="6.4678">
        <ele>406.15234375</ele>
        <time>2014-04-27T08:29:14Z</time>
      </trkpt>
      <trkpt lat="48.12589" lon="6.46787">
        <ele>406.19140625</ele>
        <time>2014-04-27T08:29:26Z</time>
      </trkpt>
      <trkpt lat="48.12638" lon="6.46799">
        <ele>406.21875</ele>
        <time>2014-04-27T08:29:37Z</time>
      </trkpt>
      <trkpt lat="48.12643" lon="6.468">
        <ele>406.11328125</ele>
        <time>2014-04-27T08:29:38Z</time>
      </trkpt>
      <trkpt lat="48.12671" lon="6.46798">
        <ele>406.41796875</ele>
        <time>2014-04-27T08:29:43Z</time>
      </trkpt>
      <trkpt lat="48.12733" lon="6.46791">
        <ele>406.375</ele>
        <time>2014-04-27T08:29:54Z</time>
      </trkpt>
      <trkpt lat="48.12738" lon="6.46791">
        <ele>406.05859375</ele>
        <time>2014-04-27T08:29:55Z</time>
      </trkpt>
      <trkpt lat="48.12818" lon="6.46783">
        <ele>402.24609375</ele>
        <time>2014-04-27T08:30:07Z</time>
      </trkpt>
      <trkpt lat="48.12892" lon="6.46743">
        <ele>403.99609375</ele>
        <time>2014-04-27T08:30:18Z</time>
      </trkpt>
      <trkpt lat="48.12897" lon="6.46739">
        <ele>404.41796875</ele>
        <time>2014-04-27T08:30:19Z</time>
      </trkpt>
      <trkpt lat="48.12905" lon="6.46731">
        <ele>404.94140625</ele>
        <time>2014-04-27T08:30:21Z</time>
      </trkpt>
      <trkpt lat="48.12919" lon="6.46719">
        <ele>405.61328125</ele>
        <time>2014-04-27T08:30:24Z</time>
      </trkpt>
      <trkpt lat="48.12932" lon="6.46704">
        <ele>406.41015625</ele>
        <time>2014-04-27T08:30:27Z</time>
      </trkpt>
      <trkpt lat="48.12947" lon="6.46676">
        <ele>406.3515625</ele>
        <time>2014-04-27T08:30:32Z</time>
      </trkpt>
      <trkpt lat="48.12949" lon="6.4667">
        <ele>406.06640625</ele>
        <time>2014-04-27T08:30:33Z</time>
      </trkpt>
      <trkpt lat="48.12951" lon="6.46663">
        <ele>405.82421875</ele>
        <time>2014-04-27T08:30:34Z</time>
      </trkpt>
      <trkpt lat="48.12952" lon="6.46656">
        <ele>405.4609375</ele>
        <time>2014-04-27T08:30:35Z</time>
      </trkpt>
      <trkpt lat="48.12953" lon="6.46648">
        <ele>405.09375</ele>
        <time>2014-04-27T08:30:36Z</time>
      </trkpt>
      <trkpt lat="48.12953" lon="6.4664">
        <ele>404.734375</ele>
        <time>2014-04-27T08:30:37Z</time>
      </trkpt>
      <trkpt lat="48.12954" lon="6.46631">
        <ele>404.3046875</ele>
        <time>2014-04-27T08:30:38Z</time>
      </trkpt>
      <trkpt lat="48.12952" lon="6.46605">
        <ele>402.671875</ele>
        <time>2014-04-27T08:30:41Z</time>
      </trkpt>
      <trkpt lat="48.1295" lon="6.46597">
        <ele>402.42578125</ele>
        <time>2014-04-27T08:30:42Z</time>
      </trkpt>
      <trkpt lat="48.12947" lon="6.46583">
        <ele>402.02734375</ele>
        <time>2014-04-27T08:30:44Z</time>
      </trkpt>
      <trkpt lat="48.12946" lon="6.46577">
        <ele>401.66796875</ele>
        <time>2014-04-27T08:30:45Z</time>
      </trkpt>
      <trkpt lat="48.12941" lon="6.46554">
        <ele>400.2109375</ele>
        <time>2014-04-27T08:30:48Z</time>
      </trkpt>
      <trkpt lat="48.12929" lon="6.4653">
        <ele>399.83984375</ele>
        <time>2014-04-27T08:30:51Z</time>
      </trkpt>
      <trkpt lat="48.12915" lon="6.46509">
        <ele>399.078125</ele>
        <time>2014-04-27T08:30:54Z</time>
      </trkpt>
      <trkpt lat="48.12882" lon="6.46473">
        <ele>398.5703125</ele>
        <time>2014-04-27T08:31:00Z</time>
      </trkpt>
      <trkpt lat="48.12861" lon="6.46453">
        <ele>397.828125</ele>
        <time>2014-04-27T08:31:04Z</time>
      </trkpt>
      <trkpt lat="48.12857" lon="6.46449">
        <ele>397.4765625</ele>
        <time>2014-04-27T08:31:05Z</time>
      </trkpt>
      <trkpt lat="48.12852" lon="6.46445">
        <ele>397.3046875</ele>
        <time>2014-04-27T08:31:06Z</time>
      </trkpt>
      <trkpt lat="48.12836" lon="6.46435">
        <ele>396.921875</ele>
        <time>2014-04-27T08:31:09Z</time>
      </trkpt>
      <trkpt lat="48.1282" lon="6.46427">
        <ele>396.546875</ele>
        <time>2014-04-27T08:31:12Z</time>
      </trkpt>
      <trkpt lat="48.12807" lon="6.4642">
        <ele>395.8359375</ele>
        <time>2014-04-27T08:31:15Z</time>
      </trkpt>
      <trkpt lat="48.12797" lon="6.46416">
        <ele>395.578125</ele>
        <time>2014-04-27T08:31:17Z</time>
      </trkpt>
      <trkpt lat="48.12792" lon="6.46414">
        <ele>395.37109375</ele>
        <time>2014-04-27T08:31:18Z</time>
      </trkpt>
      <trkpt lat="48.12786" lon="6.46413">
        <ele>395.015625</ele>
        <time>2014-04-27T08:31:19Z</time>
      </trkpt>
      <trkpt lat="48.1278" lon="6.46411">
        <ele>394.60546875</ele>
        <time>2014-04-27T08:31:20Z</time>
      </trkpt>
      <trkpt lat="48.12774" lon="6.46411">
        <ele>394.2578125</ele>
        <time>2014-04-27T08:31:21Z</time>
      </trkpt>
      <trkpt lat="48.12706" lon="6.46428">
        <ele>399.80078125</ele>
        <time>2014-04-27T08:31:33Z</time>
      </trkpt>
      <trkpt lat="48.12694" lon="6.46435">
        <ele>403.7734375</ele>
        <time>2014-04-27T08:31:35Z</time>
      </trkpt>
      <trkpt lat="48.12688" lon="6.46437">
        <ele>405.4609375</ele>
        <time>2014-04-27T08:31:36Z</time>
      </trkpt>
      <trkpt lat="48.12682" lon="6.46436">
        <ele>407.015625</ele>
        <time>2014-04-27T08:31:37Z</time>
      </trkpt>
      <trkpt lat="48.12677" lon="6.46435">
        <ele>408.9921875</ele>
        <time>2014-04-27T08:31:38Z</time>
      </trkpt>
      <trkpt lat="48.12671" lon="6.46433">
        <ele>411.70703125</ele>
        <time>2014-04-27T08:31:39Z</time>
      </trkpt>
      <trkpt lat="48.12666" lon="6.46429">
        <ele>413.98828125</ele>
        <time>2014-04-27T08:31:40Z</time>
      </trkpt>
      <trkpt lat="48.12663" lon="6.46425">
        <ele>415.8671875</ele>
        <time>2014-04-27T08:31:41Z</time>
      </trkpt>
      <trkpt lat="48.12656" lon="6.4641">
        <ele>418.98828125</ele>
        <time>2014-04-27T08:31:44Z</time>
      </trkpt>
      <trkpt lat="48.12657" lon="6.46403">
        <ele>418.375</ele>
        <time>2014-04-27T08:31:45Z</time>
      </trkpt>
      <trkpt lat="48.1266" lon="6.46357">
        <ele>414.73046875</ele>
        <time>2014-04-27T08:31:51Z</time>
      </trkpt>
      <trkpt lat="48.12663" lon="6.46327">
        <ele>411.203125</ele>
        <time>2014-04-27T08:31:54Z</time>
      </trkpt>
      <trkpt lat="48.12665" lon="6.46317">
        <ele>409.59375</ele>
        <time>2014-04-27T08:31:55Z</time>
      </trkpt>
      <trkpt lat="48.12668" lon="6.46302">
        <ele>407.55078125</ele>
        <time>2014-04-27T08:31:57Z</time>
      </trkpt>
      <trkpt lat="48.12669" lon="6.46294">
        <ele>406.45703125</ele>
        <time>2014-04-27T08:31:58Z</time>
      </trkpt>
      <trkpt lat="48.1267" lon="6.46265">
        <ele>403.9140625</ele>
        <time>2014-04-27T08:32:02Z</time>
      </trkpt>
      <trkpt lat="48.12669" lon="6.46258">
        <ele>403.5859375</ele>
        <time>2014-04-27T08:32:03Z</time>
      </trkpt>
      <trkpt lat="48.12668" lon="6.46251">
        <ele>403.28125</ele>
        <time>2014-04-27T08:32:04Z</time>
      </trkpt>
      <trkpt lat="48.12665" lon="6.46237">
        <ele>402.44140625</ele>
        <time>2014-04-27T08:32:06Z</time>
      </trkpt>
      <trkpt lat="48.12654" lon="6.46211">
        <ele>401.58984375</ele>
        <time>2014-04-27T08:32:10Z</time>
      </trkpt>
      <trkpt lat="48.12635" lon="6.46179">
        <ele>402.25</ele>
        <time>2014-04-27T08:32:16Z</time>
      </trkpt>
      <trkpt lat="48.12619" lon="6.46153">
        <ele>402.57421875</ele>
        <time>2014-04-27T08:32:22Z</time>
      </trkpt>
      <trkpt lat="48.12612" lon="6.4614">
        <ele>402.2421875</ele>
        <time>2014-04-27T08:32:25Z</time>
      </trkpt>
      <trkpt lat="48.1258" lon="6.46114">
        <ele>405.12109375</ele>
        <time>2014-04-27T08:32:33Z</time>
      </trkpt>
      <trkpt lat="48.12566" lon="6.46104">
        <ele>405.9296875</ele>
        <time>2014-04-27T08:32:36Z</time>
      </trkpt>
      <trkpt lat="48.1255" lon="6.46084">
        <ele>406.21875</ele>
        <time>2014-04-27T08:32:40Z</time>
      </trkpt>
      <trkpt lat="48.12525" lon="6.46047">
        <ele>406.93359375</ele>
        <time>2014-04-27T08:32:46Z</time>
      </trkpt>
      <trkpt lat="48.12516" lon="6.46034">
        <ele>407.6171875</ele>
        <time>2014-04-27T08:32:48Z</time>
      </trkpt>
      <trkpt lat="48.12519" lon="6.4598">
        <ele>400.62890625</ele>
        <time>2014-04-27T08:32:53Z</time>
      </trkpt>
      <trkpt lat="48.12532" lon="6.45935">
        <ele>393.5390625</ele>
        <time>2014-04-27T08:32:58Z</time>
      </trkpt>
      <trkpt lat="48.1253" lon="6.45929">
        <ele>393.3125</ele>
        <time>2014-04-27T08:32:59Z</time>
      </trkpt>
      <trkpt lat="48.12528" lon="6.45922">
        <ele>393.22265625</ele>
        <time>2014-04-27T08:33:00Z</time>
      </trkpt>
      <trkpt lat="48.12525" lon="6.45916">
        <ele>393.22265625</ele>
        <time>2014-04-27T08:33:01Z</time>
      </trkpt>
      <trkpt lat="48.12522" lon="6.45911">
        <ele>393.46484375</ele>
        <time>2014-04-27T08:33:02Z</time>
      </trkpt>
      <trkpt lat="48.12518" lon="6.45905">
        <ele>393.75</ele>
        <time>2014-04-27T08:33:03Z</time>
      </trkpt>
      <trkpt lat="48.12462" lon="6.45823">
        <ele>395.3203125</ele>
        <time>2014-04-27T08:33:20Z</time>
      </trkpt>
      <trkpt lat="48.12458" lon="6.45819">
        <ele>395.4140625</ele>
        <time>2014-04-27T08:33:21Z</time>
      </trkpt>
      <trkpt lat="48.12436" lon="6.45797">
        <ele>395.4765625</ele>
        <time>2014-04-27T08:33:27Z</time>
      </trkpt>
      <trkpt lat="48.12432" lon="6.45793">
        <ele>395.4609375</ele>
        <time>2014-04-27T08:33:28Z</time>
      </trkpt>
      <trkpt lat="48.12428" lon="6.45789">
        <ele>395.40625</ele>
        <time>2014-04-27T08:33:29Z</time>
      </trkpt>
      <trkpt lat="48.12421" lon="6.45781">
        <ele>395.375</ele>
        <time>2014-04-27T08:33:31Z</time>
      </trkpt>
      <trkpt lat="48.12417" lon="6.45778">
        <ele>395.3984375</ele>
        <time>2014-04-27T08:33:32Z</time>
      </trkpt>
      <trkpt lat="48.1241" lon="6.45767">
        <ele>394.83984375</ele>
        <time>2014-04-27T08:33:35Z</time>
      </trkpt>
      <trkpt lat="48.12412" lon="6.45761">
        <ele>393.9140625</ele>
        <time>2014-04-27T08:33:36Z</time>
      </trkpt>
      <trkpt lat="48.12415" lon="6.45755">
        <ele>392.71875</ele>
        <time>2014-04-27T08:33:37Z</time>
      </trkpt>
      <trkpt lat="48.12421" lon="6.45751">
        <ele>391.4765625</ele>
        <time>2014-04-27T08:33:38Z</time>
      </trkpt>
      <trkpt lat="48.12428" lon="6.45747">
        <ele>390.3046875</ele>
        <time>2014-04-27T08:33:39Z</time>
      </trkpt>
      <trkpt lat="48.12435" lon="6.45744">
        <ele>389.2734375</ele>
        <time>2014-04-27T08:33:40Z</time>
      </trkpt>
      <trkpt lat="48.12443" lon="6.45742">
        <ele>388.27734375</ele>
        <time>2014-04-27T08:33:41Z</time>
      </trkpt>
      <trkpt lat="48.12452" lon="6.45739">
        <ele>387.2578125</ele>
        <time>2014-04-27T08:33:42Z</time>
      </trkpt>
      <trkpt lat="48.12497" lon="6.45726">
        <ele>385.56640625</ele>
        <time>2014-04-27T08:33:47Z</time>
      </trkpt>
      <trkpt lat="48.12504" lon="6.45719">
        <ele>385.91796875</ele>
        <time>2014-04-27T08:33:48Z</time>
      </trkpt>
      <trkpt lat="48.12509" lon="6.45711">
        <ele>386.484375</ele>
        <time>2014-04-27T08:33:49Z</time>
      </trkpt>
      <trkpt lat="48.12518" lon="6.45691">
        <ele>388.08984375</ele>
        <time>2014-04-27T08:33:51Z</time>
      </trkpt>
      <trkpt lat="48.12518" lon="6.4568">
        <ele>389.36328125</ele>
        <time>2014-04-27T08:33:52Z</time>
      </trkpt>
      <trkpt lat="48.12518" lon="6.4567">
        <ele>390.51171875</ele>
        <time>2014-04-27T08:33:53Z</time>
      </trkpt>
      <trkpt lat="48.12516" lon="6.45662">
        <ele>391.27734375</ele>
        <time>2014-04-27T08:33:54Z</time>
      </trkpt>
      <trkpt lat="48.12513" lon="6.45656">
        <ele>391.671875</ele>
        <time>2014-04-27T08:33:55Z</time>
      </trkpt>
      <trkpt lat="48.1251" lon="6.45652">
        <ele>391.984375</ele>
        <time>2014-04-27T08:33:56Z</time>
      </trkpt>
      <trkpt lat="48.12506" lon="6.45648">
        <ele>392.2109375</ele>
        <time>2014-04-27T08:33:57Z</time>
      </trkpt>
      <trkpt lat="48.12502" lon="6.45646">
        <ele>392.15625</ele>
        <time>2014-04-27T08:33:58Z</time>
      </trkpt>
      <trkpt lat="48.12497" lon="6.45645">
        <ele>391.96875</ele>
        <time>2014-04-27T08:33:59Z</time>
      </trkpt>
      <trkpt lat="48.12492" lon="6.45643">
        <ele>391.83984375</ele>
        <time>2014-04-27T08:34:00Z</time>
      </trkpt>
      <trkpt lat="48.12488" lon="6.4564">
        <ele>391.8125</ele>
        <time>2014-04-27T08:34:01Z</time>
      </trkpt>
      <trkpt lat="48.12485" lon="6.45637">
        <ele>391.80078125</ele>
        <time>2014-04-27T08:34:02Z</time>
      </trkpt>
      <trkpt lat="48.12481" lon="6.45634">
        <ele>391.875</ele>
        <time>2014-04-27T08:34:03Z</time>
      </trkpt>
      <trkpt lat="48.12479" lon="6.45631">
        <ele>392.1875</ele>
        <time>2014-04-27T08:34:04Z</time>
      </trkpt>
      <trkpt lat="48.12477" lon="6.45623">
        <ele>392.96484375</ele>
        <time>2014-04-27T08:34:06Z</time>
      </trkpt>
      <trkpt lat="48.12477" lon="6.45619">
        <ele>393.41015625</ele>
        <time>2014-04-27T08:34:07Z</time>
      </trkpt>
      <trkpt lat="48.12488" lon="6.45579">
        <ele>397.19140625</ele>
        <time>2014-04-27T08:34:20Z</time>
      </trkpt>
      <trkpt lat="48.12512" lon="6.45562">
        <ele>399.58203125</ele>
        <time>2014-04-27T08:34:34Z</time>
      </trkpt>
      <trkpt lat="48.12537" lon="6.45564">
        <ele>402.20703125</ele>
        <time>2014-04-27T08:34:46Z</time>
      </trkpt>
      <trkpt lat="48.12562" lon="6.45566">
        <ele>405.54296875</ele>
        <time>2014-04-27T08:34:59Z</time>
      </trkpt>
      <trkpt lat="48.12593" lon="6.45568">
        <ele>409.79296875</ele>
        <time>2014-04-27T08:35:11Z</time>
      </trkpt>
      <trkpt lat="48.12627" lon="6.45564">
        <ele>413.125</ele>
        <time>2014-04-27T08:35:24Z</time>
      </trkpt>
      <trkpt lat="48.12644" lon="6.45546">
        <ele>415.75</ele>
        <time>2014-04-27T08:35:31Z</time>
      </trkpt>
      <trkpt lat="48.12645" lon="6.45543">
        <ele>416.265625</ele>
        <time>2014-04-27T08:35:32Z</time>
      </trkpt>
      <trkpt lat="48.12647" lon="6.45541">
        <ele>416.73046875</ele>
        <time>2014-04-27T08:35:33Z</time>
      </trkpt>
      <trkpt lat="48.12649" lon="6.45539">
        <ele>417.1484375</ele>
        <time>2014-04-27T08:35:34Z</time>
      </trkpt>
      <trkpt lat="48.1265" lon="6.45537">
        <ele>417.55078125</ele>
        <time>2014-04-27T08:35:35Z</time>
      </trkpt>
      <trkpt lat="48.12652" lon="6.45536">
        <ele>417.73828125</ele>
        <time>2014-04-27T08:35:36Z</time>
      </trkpt>
      <trkpt lat="48.12653" lon="6.45535">
        <ele>417.78515625</ele>
        <time>2014-04-27T08:35:37Z</time>
      </trkpt>
      <trkpt lat="48.12654" lon="6.45533">
        <ele>417.94921875</ele>
        <time>2014-04-27T08:35:38Z</time>
      </trkpt>
      <trkpt lat="48.12655" lon="6.45531">
        <ele>418.1328125</ele>
        <time>2014-04-27T08:35:39Z</time>
      </trkpt>
      <trkpt lat="48.12657" lon="6.45529">
        <ele>418.29296875</ele>
        <time>2014-04-27T08:35:40Z</time>
      </trkpt>
      <trkpt lat="48.12658" lon="6.45527">
        <ele>418.46875</ele>
        <time>2014-04-27T08:35:41Z</time>
      </trkpt>
      <trkpt lat="48.1266" lon="6.45526">
        <ele>418.59765625</ele>
        <time>2014-04-27T08:35:42Z</time>
      </trkpt>
      <trkpt lat="48.12666" lon="6.45523">
        <ele>418.41796875</ele>
        <time>2014-04-27T08:35:45Z</time>
      </trkpt>
      <trkpt lat="48.12669" lon="6.45524">
        <ele>417.91796875</ele>
        <time>2014-04-27T08:35:46Z</time>
      </trkpt>
      <trkpt lat="48.12671" lon="6.45528">
        <ele>416.93359375</ele>
        <time>2014-04-27T08:35:47Z</time>
      </trkpt>
      <trkpt lat="48.12673" lon="6.45542">
        <ele>414.26171875</ele>
        <time>2014-04-27T08:35:49Z</time>
      </trkpt>
      <trkpt lat="48.12673" lon="6.45568">
        <ele>410.71875</ele>
        <time>2014-04-27T08:35:52Z</time>
      </trkpt>
      <trkpt lat="48.12677" lon="6.45619">
        <ele>405.57421875</ele>
        <time>2014-04-27T08:36:01Z</time>
      </trkpt>
      <trkpt lat="48.1268" lon="6.45628">
        <ele>404.83203125</ele>
        <time>2014-04-27T08:36:04Z</time>
      </trkpt>
      <trkpt lat="48.1268" lon="6.45631">
        <ele>404.64453125</ele>
        <time>2014-04-27T08:36:05Z</time>
      </trkpt>
      <trkpt lat="48.12681" lon="6.45634">
        <ele>404.5703125</ele>
        <time>2014-04-27T08:36:06Z</time>
      </trkpt>
      <trkpt lat="48.12682" lon="6.45636">
        <ele>404.578125</ele>
        <time>2014-04-27T08:36:07Z</time>
      </trkpt>
      <trkpt lat="48.12683" lon="6.45638">
        <ele>404.59375</ele>
        <time>2014-04-27T08:36:08Z</time>
      </trkpt>
      <trkpt lat="48.12683" lon="6.45639">
        <ele>404.68359375</ele>
        <time>2014-04-27T08:36:09Z</time>
      </trkpt>
      <trkpt lat="48.12684" lon="6.4564">
        <ele>404.8359375</ele>
        <time>2014-04-27T08:36:10Z</time>
      </trkpt>
      <trkpt lat="48.12685" lon="6.45642">
        <ele>404.95703125</ele>
        <time>2014-04-27T08:36:11Z</time>
      </trkpt>
      <trkpt lat="48.12686" lon="6.45644">
        <ele>405.0234375</ele>
        <time>2014-04-27T08:36:12Z</time>
      </trkpt>
      <trkpt lat="48.12687" lon="6.45647">
        <ele>405.16796875</ele>
        <time>2014-04-27T08:36:13Z</time>
      </trkpt>
      <trkpt lat="48.12688" lon="6.45649">
        <ele>405.390625</ele>
        <time>2014-04-27T08:36:14Z</time>
      </trkpt>
      <trkpt lat="48.1269" lon="6.4565">
        <ele>405.59765625</ele>
        <time>2014-04-27T08:36:15Z</time>
      </trkpt>
      <trkpt lat="48.12691" lon="6.45652">
        <ele>405.90625</ele>
        <time>2014-04-27T08:36:16Z</time>
      </trkpt>
      <trkpt lat="48.12698" lon="6.45662">
        <ele>407.19140625</ele>
        <time>2014-04-27T08:36:21Z</time>
      </trkpt>
      <trkpt lat="48.127" lon="6.45664">
        <ele>407.4609375</ele>
        <time>2014-04-27T08:36:22Z</time>
      </trkpt>
      <trkpt lat="48.12722" lon="6.45686">
        <ele>411.421875</ele>
        <time>2014-04-27T08:36:34Z</time>
      </trkpt>
      <trkpt lat="48.12733" lon="6.45692">
        <ele>413.62109375</ele>
        <time>2014-04-27T08:36:39Z</time>
      </trkpt>
      <trkpt lat="48.12739" lon="6.45695">
        <ele>414.4296875</ele>
        <time>2014-04-27T08:36:43Z</time>
      </trkpt>
      <trkpt lat="48.12758" lon="6.45679">
        <ele>417.76953125</ele>
        <time>2014-04-27T08:36:58Z</time>
      </trkpt>
      <trkpt lat="48.12773" lon="6.45657">
        <ele>421.2890625</ele>
        <time>2014-04-27T08:37:12Z</time>
      </trkpt>
      <trkpt lat="48.1278" lon="6.45644">
        <ele>423.59375</ele>
        <time>2014-04-27T08:37:19Z</time>
      </trkpt>
      <trkpt lat="48.12781" lon="6.45638">
        <ele>424.23828125</ele>
        <time>2014-04-27T08:37:23Z</time>
      </trkpt>
      <trkpt lat="48.12781" lon="6.4563">
        <ele>424.68359375</ele>
        <time>2014-04-27T08:37:28Z</time>
      </trkpt>
      <trkpt lat="48.12781" lon="6.45627">
        <ele>424.7734375</ele>
        <time>2014-04-27T08:37:30Z</time>
      </trkpt>
      <trkpt lat="48.12771" lon="6.45596">
        <ele>424.50390625</ele>
        <time>2014-04-27T08:37:47Z</time>
      </trkpt>
      <trkpt lat="48.12767" lon="6.45562">
        <ele>424.8515625</ele>
        <time>2014-04-27T08:38:01Z</time>
      </trkpt>
      <trkpt lat="48.12766" lon="6.45548">
        <ele>425.51953125</ele>
        <time>2014-04-27T08:38:06Z</time>
      </trkpt>
      <trkpt lat="48.12764" lon="6.45507">
        <ele>429.265625</ele>
        <time>2014-04-27T08:38:19Z</time>
      </trkpt>
      <trkpt lat="48.12763" lon="6.45504">
        <ele>429.3828125</ele>
        <time>2014-04-27T08:38:20Z</time>
      </trkpt>
      <trkpt lat="48.12747" lon="6.45459">
        <ele>431.1953125</ele>
        <time>2014-04-27T08:38:35Z</time>
      </trkpt>
      <trkpt lat="48.12732" lon="6.45412">
        <ele>437.1640625</ele>
        <time>2014-04-27T08:38:49Z</time>
      </trkpt>
      <trkpt lat="48.12706" lon="6.4538">
        <ele>444.98046875</ele>
        <time>2014-04-27T08:39:00Z</time>
      </trkpt>
      <trkpt lat="48.12673" lon="6.45392">
        <ele>441.921875</ele>
        <time>2014-04-27T08:39:13Z</time>
      </trkpt>
      <trkpt lat="48.12665" lon="6.45394">
        <ele>440.8828125</ele>
        <time>2014-04-27T08:39:16Z</time>
      </trkpt>
      <trkpt lat="48.12632" lon="6.45359">
        <ele>440.2421875</ele>
        <time>2014-04-27T08:39:31Z</time>
      </trkpt>
      <trkpt lat="48.12616" lon="6.45309">
        <ele>439.73046875</ele>
        <time>2014-04-27T08:39:43Z</time>
      </trkpt>
      <trkpt lat="48.12608" lon="6.45241">
        <ele>438.2890625</ele>
        <time>2014-04-27T08:39:58Z</time>
      </trkpt>
      <trkpt lat="48.12618" lon="6.45178">
        <ele>440.96875</ele>
        <time>2014-04-27T08:40:12Z</time>
      </trkpt>
      <trkpt lat="48.1263" lon="6.45143">
        <ele>445.69140625</ele>
        <time>2014-04-27T08:40:25Z</time>
      </trkpt>
      <trkpt lat="48.12631" lon="6.45134">
        <ele>446.24609375</ele>
        <time>2014-04-27T08:40:35Z</time>
      </trkpt>
      <trkpt lat="48.12635" lon="6.45137">
        <ele>447.33984375</ele>
        <time>2014-04-27T08:40:44Z</time>
      </trkpt>
      <trkpt lat="48.12635" lon="6.45136">
        <ele>447.34375</ele>
        <time>2014-04-27T08:41:00Z</time>
      </trkpt>
      <trkpt lat="48.12638" lon="6.45145">
        <ele>447.92578125</ele>
        <time>2014-04-27T08:41:06Z</time>
      </trkpt>
      <trkpt lat="48.12655" lon="6.45168">
        <ele>452.21875</ele>
        <time>2014-04-27T08:41:24Z</time>
      </trkpt>
      <trkpt lat="48.12666" lon="6.45183">
        <ele>454.796875</ele>
        <time>2014-04-27T08:41:37Z</time>
      </trkpt>
      <trkpt lat="48.1267" lon="6.4519">
        <ele>455.70703125</ele>
        <time>2014-04-27T08:41:43Z</time>
      </trkpt>
      <trkpt lat="48.12674" lon="6.45193">
        <ele>456.796875</ele>
        <time>2014-04-27T08:41:47Z</time>
      </trkpt>
      <trkpt lat="48.12692" lon="6.45217">
        <ele>460.82421875</ele>
        <time>2014-04-27T08:42:02Z</time>
      </trkpt>
      <trkpt lat="48.12706" lon="6.45233">
        <ele>463.9609375</ele>
        <time>2014-04-27T08:42:10Z</time>
      </trkpt>
      <trkpt lat="48.12717" lon="6.45229">
        <ele>465.6953125</ele>
        <time>2014-04-27T08:42:15Z</time>
      </trkpt>
      <trkpt lat="48.12734" lon="6.45196">
        <ele>468.98046875</ele>
        <time>2014-04-27T08:42:29Z</time>
      </trkpt>
      <trkpt lat="48.12753" lon="6.45159">
        <ele>472.24609375</ele>
        <time>2014-04-27T08:42:44Z</time>
      </trkpt>
      <trkpt lat="48.12769" lon="6.45125">
        <ele>475.84375</ele>
        <time>2014-04-27T08:42:57Z</time>
      </trkpt>
      <trkpt lat="48.12793" lon="6.45073">
        <ele>478.51171875</ele>
        <time>2014-04-27T08:43:11Z</time>
      </trkpt>
      <trkpt lat="48.12795" lon="6.4507">
        <ele>478.24609375</ele>
        <time>2014-04-27T08:43:12Z</time>
      </trkpt>
      <trkpt lat="48.12786" lon="6.45054">
        <ele>478.09375</ele>
        <time>2014-04-27T08:43:18Z</time>
      </trkpt>
      <trkpt lat="48.12751" lon="6.45006">
        <ele>479.265625</ele>
        <time>2014-04-27T08:43:31Z</time>
      </trkpt>
      <trkpt lat="48.12726" lon="6.4496">
        <ele>479.7890625</ele>
        <time>2014-04-27T08:43:41Z</time>
      </trkpt>
      <trkpt lat="48.12723" lon="6.44956">
        <ele>479.7734375</ele>
        <time>2014-04-27T08:43:42Z</time>
      </trkpt>
      <trkpt lat="48.1272" lon="6.44952">
        <ele>479.79296875</ele>
        <time>2014-04-27T08:43:43Z</time>
      </trkpt>
      <trkpt lat="48.12698" lon="6.44916">
        <ele>479.6640625</ele>
        <time>2014-04-27T08:43:51Z</time>
      </trkpt>
      <trkpt lat="48.12691" lon="6.44901">
        <ele>479.24609375</ele>
        <time>2014-04-27T08:43:54Z</time>
      </trkpt>
      <trkpt lat="48.12688" lon="6.44896">
        <ele>479.1328125</ele>
        <time>2014-04-27T08:43:55Z</time>
      </trkpt>
      <trkpt lat="48.12685" lon="6.44891">
        <ele>479.0546875</ele>
        <time>2014-04-27T08:43:56Z</time>
      </trkpt>
      <trkpt lat="48.12682" lon="6.44887">
        <ele>479.01171875</ele>
        <time>2014-04-27T08:43:57Z</time>
      </trkpt>
      <trkpt lat="48.12678" lon="6.44884">
        <ele>478.9609375</ele>
        <time>2014-04-27T08:43:58Z</time>
      </trkpt>
      <trkpt lat="48.12675" lon="6.4488">
        <ele>478.84375</ele>
        <time>2014-04-27T08:43:59Z</time>
      </trkpt>
      <trkpt lat="48.12672" lon="6.44876">
        <ele>478.75390625</ele>
        <time>2014-04-27T08:44:00Z</time>
      </trkpt>
      <trkpt lat="48.12665" lon="6.44866">
        <ele>478.65625</ele>
        <time>2014-04-27T08:44:02Z</time>
      </trkpt>
      <trkpt lat="48.1265" lon="6.44842">
        <ele>478.49609375</ele>
        <time>2014-04-27T08:44:07Z</time>
      </trkpt>
      <trkpt lat="48.12612" lon="6.44795">
        <ele>481.7421875</ele>
        <time>2014-04-27T08:44:17Z</time>
      </trkpt>
      <trkpt lat="48.12601" lon="6.44777">
        <ele>483.0625</ele>
        <time>2014-04-27T08:44:21Z</time>
      </trkpt>
      <trkpt lat="48.12582" lon="6.44711">
        <ele>484.10546875</ele>
        <time>2014-04-27T08:44:33Z</time>
      </trkpt>
      <trkpt lat="48.12576" lon="6.44702">
        <ele>484.4921875</ele>
        <time>2014-04-27T08:44:36Z</time>
      </trkpt>
      <trkpt lat="48.12572" lon="6.44682">
        <ele>484.05078125</ele>
        <time>2014-04-27T08:44:42Z</time>
      </trkpt>
      <trkpt lat="48.12571" lon="6.4468">
        <ele>484.16015625</ele>
        <time>2014-04-27T08:44:43Z</time>
      </trkpt>
      <trkpt lat="48.1257" lon="6.44679">
        <ele>484.2578125</ele>
        <time>2014-04-27T08:44:44Z</time>
      </trkpt>
      <trkpt lat="48.12569" lon="6.44678">
        <ele>484.37109375</ele>
        <time>2014-04-27T08:44:45Z</time>
      </trkpt>
      <trkpt lat="48.12569" lon="6.44676">
        <ele>484.3515625</ele>
        <time>2014-04-27T08:44:46Z</time>
      </trkpt>
      <trkpt lat="48.12569" lon="6.44674">
        <ele>484.23046875</ele>
        <time>2014-04-27T08:44:47Z</time>
      </trkpt>
      <trkpt lat="48.12568" lon="6.44666">
        <ele>484.08984375</ele>
        <time>2014-04-27T08:44:57Z</time>
      </trkpt>
      <trkpt lat="48.12569" lon="6.44665">
        <ele>483.984375</ele>
        <time>2014-04-27T08:45:13Z</time>
      </trkpt>
      <trkpt lat="48.12571" lon="6.44671">
        <ele>483.8359375</ele>
        <time>2014-04-27T08:45:26Z</time>
      </trkpt>
      <trkpt lat="48.12569" lon="6.4467">
        <ele>484.07421875</ele>
        <time>2014-04-27T08:45:41Z</time>
      </trkpt>
      <trkpt lat="48.12568" lon="6.44668">
        <ele>484.2109375</ele>
        <time>2014-04-27T08:45:58Z</time>
      </trkpt>
      <trkpt lat="48.12567" lon="6.44667">
        <ele>484.1796875</ele>
        <time>2014-04-27T08:46:08Z</time>
      </trkpt>
      <trkpt lat="48.12568" lon="6.44668">
        <ele>484.1796875</ele>
        <time>2014-04-27T08:46:28Z</time>
      </trkpt>
      <trkpt lat="48.12569" lon="6.44668">
        <ele>484.015625</ele>
        <time>2014-04-27T08:46:45Z</time>
      </trkpt>
      <trkpt lat="48.1257" lon="6.44667">
        <ele>483.89453125</ele>
        <time>2014-04-27T08:46:58Z</time>
      </trkpt>
      <trkpt lat="48.12569" lon="6.44667">
        <ele>483.9140625</ele>
        <time>2014-04-27T08:47:12Z</time>
      </trkpt>
      <trkpt lat="48.12568" lon="6.44665">
        <ele>484.0859375</ele>
        <time>2014-04-27T08:47:29Z</time>
      </trkpt>
      <trkpt lat="48.12566" lon="6.44666">
        <ele>484.3125</ele>
        <time>2014-04-27T08:47:43Z</time>
      </trkpt>
      <trkpt lat="48.12567" lon="6.44637">
        <ele>482.1796875</ele>
        <time>2014-04-27T08:47:49Z</time>
      </trkpt>
      <trkpt lat="48.12567" lon="6.4463">
        <ele>481.8515625</ele>
        <time>2014-04-27T08:47:50Z</time>
      </trkpt>
      <trkpt lat="48.12568" lon="6.44611">
        <ele>481.10546875</ele>
        <time>2014-04-27T08:47:55Z</time>
      </trkpt>
      <trkpt lat="48.12567" lon="6.44609">
        <ele>481.1171875</ele>
        <time>2014-04-27T08:47:56Z</time>
      </trkpt>
      <trkpt lat="48.12566" lon="6.44607">
        <ele>481.1015625</ele>
        <time>2014-04-27T08:47:57Z</time>
      </trkpt>
      <trkpt lat="48.12565" lon="6.44605">
        <ele>481.015625</ele>
        <time>2014-04-27T08:47:58Z</time>
      </trkpt>
      <trkpt lat="48.12564" lon="6.44602">
        <ele>480.88671875</ele>
        <time>2014-04-27T08:47:59Z</time>
      </trkpt>
      <trkpt lat="48.12563" lon="6.44599">
        <ele>480.71875</ele>
        <time>2014-04-27T08:48:00Z</time>
      </trkpt>
      <trkpt lat="48.12559" lon="6.44585">
        <ele>480.09375</ele>
        <time>2014-04-27T08:48:03Z</time>
      </trkpt>
      <trkpt lat="48.12556" lon="6.4458">
        <ele>479.828125</ele>
        <time>2014-04-27T08:48:04Z</time>
      </trkpt>
      <trkpt lat="48.12554" lon="6.44573">
        <ele>479.27734375</ele>
        <time>2014-04-27T08:48:05Z</time>
      </trkpt>
      <trkpt lat="48.12538" lon="6.44526">
        <ele>473.4765625</ele>
        <time>2014-04-27T08:48:11Z</time>
      </trkpt>
      <trkpt lat="48.1254" lon="6.44485">
        <ele>466.484375</ele>
        <time>2014-04-27T08:48:14Z</time>
      </trkpt>
      <trkpt lat="48.12536" lon="6.44442">
        <ele>459.4765625</ele>
        <time>2014-04-27T08:48:19Z</time>
      </trkpt>
      <trkpt lat="48.12522" lon="6.4444">
        <ele>459.40234375</ele>
        <time>2014-04-27T08:48:24Z</time>
      </trkpt>
      <trkpt lat="48.12486" lon="6.44434">
        <ele>461.6015625</ele>
        <time>2014-04-27T08:48:36Z</time>
      </trkpt>
      <trkpt lat="48.12454" lon="6.44426">
        <ele>465.6875</ele>
        <time>2014-04-27T08:48:45Z</time>
      </trkpt>
      <trkpt lat="48.12441" lon="6.44416">
        <ele>468.47265625</ele>
        <time>2014-04-27T08:48:50Z</time>
      </trkpt>
      <trkpt lat="48.12444" lon="6.44376">
        <ele>463.41015625</ele>
        <time>2014-04-27T08:48:59Z</time>
      </trkpt>
      <trkpt lat="48.12449" lon="6.44365">
        <ele>461.828125</ele>
        <time>2014-04-27T08:49:00Z</time>
      </trkpt>
      <trkpt lat="48.12469" lon="6.4431">
        <ele>458.22265625</ele>
        <time>2014-04-27T08:49:08Z</time>
      </trkpt>
      <trkpt lat="48.1247" lon="6.44292">
        <ele>459.59765625</ele>
        <time>2014-04-27T08:49:12Z</time>
      </trkpt>
      <trkpt lat="48.1247" lon="6.44283">
        <ele>460.2734375</ele>
        <time>2014-04-27T08:49:15Z</time>
      </trkpt>
      <trkpt lat="48.12477" lon="6.44266">
        <ele>460.125</ele>
        <time>2014-04-27T08:49:19Z</time>
      </trkpt>
      <trkpt lat="48.12511" lon="6.4424">
        <ele>455.21875</ele>
        <time>2014-04-27T08:49:26Z</time>
      </trkpt>
      <trkpt lat="48.12515" lon="6.44232">
        <ele>455.390625</ele>
        <time>2014-04-27T08:49:28Z</time>
      </trkpt>
      <trkpt lat="48.12525" lon="6.44192">
        <ele>458.2578125</ele>
        <time>2014-04-27T08:49:39Z</time>
      </trkpt>
      <trkpt lat="48.12526" lon="6.44183">
        <ele>459.15625</ele>
        <time>2014-04-27T08:49:41Z</time>
      </trkpt>
      <trkpt lat="48.1253" lon="6.44157">
        <ele>460.640625</ele>
        <time>2014-04-27T08:49:52Z</time>
      </trkpt>
      <trkpt lat="48.12531" lon="6.44152">
        <ele>460.7578125</ele>
        <time>2014-04-27T08:49:57Z</time>
      </trkpt>
      <trkpt lat="48.12532" lon="6.44118">
        <ele>462.9765625</ele>
        <time>2014-04-27T08:50:08Z</time>
      </trkpt>
      <trkpt lat="48.12529" lon="6.44075">
        <ele>466.22265625</ele>
        <time>2014-04-27T08:50:20Z</time>
      </trkpt>
      <trkpt lat="48.12531" lon="6.44029">
        <ele>465.9609375</ele>
        <time>2014-04-27T08:50:32Z</time>
      </trkpt>
      <trkpt lat="48.12529" lon="6.43982">
        <ele>466.41796875</ele>
        <time>2014-04-27T08:50:46Z</time>
      </trkpt>
      <trkpt lat="48.12524" lon="6.43954">
        <ele>467.53515625</ele>
        <time>2014-04-27T08:50:54Z</time>
      </trkpt>
      <trkpt lat="48.12522" lon="6.43915">
        <ele>468.3125</ele>
        <time>2014-04-27T08:51:05Z</time>
      </trkpt>
      <trkpt lat="48.12545" lon="6.4386">
        <ele>461.84375</ele>
        <time>2014-04-27T08:51:13Z</time>
      </trkpt>
      <trkpt lat="48.12548" lon="6.43847">
        <ele>460.60546875</ele>
        <time>2014-04-27T08:51:14Z</time>
      </trkpt>
      <trkpt lat="48.12573" lon="6.43711">
        <ele>453.38671875</ele>
        <time>2014-04-27T08:51:25Z</time>
      </trkpt>
      <trkpt lat="48.12575" lon="6.43702">
        <ele>453.04296875</ele>
        <time>2014-04-27T08:51:26Z</time>
      </trkpt>
      <trkpt lat="48.12579" lon="6.43686">
        <ele>452.5859375</ele>
        <time>2014-04-27T08:51:28Z</time>
      </trkpt>
      <trkpt lat="48.1258" lon="6.43677">
        <ele>452.546875</ele>
        <time>2014-04-27T08:51:29Z</time>
      </trkpt>
      <trkpt lat="48.12581" lon="6.43669">
        <ele>452.51171875</ele>
        <time>2014-04-27T08:51:30Z</time>
      </trkpt>
      <trkpt lat="48.12583" lon="6.43653">
        <ele>452.6484375</ele>
        <time>2014-04-27T08:51:32Z</time>
      </trkpt>
      <trkpt lat="48.12592" lon="6.4358">
        <ele>453</ele>
        <time>2014-04-27T08:51:41Z</time>
      </trkpt>
      <trkpt lat="48.12593" lon="6.43572">
        <ele>453</ele>
        <time>2014-04-27T08:51:42Z</time>
      </trkpt>
      <trkpt lat="48.12593" lon="6.43564">
        <ele>453</ele>
        <time>2014-04-27T08:51:43Z</time>
      </trkpt>
      <trkpt lat="48.12593" lon="6.43532">
        <ele>453.63671875</ele>
        <time>2014-04-27T08:51:47Z</time>
      </trkpt>
      <trkpt lat="48.12591" lon="6.43525">
        <ele>453.80078125</ele>
        <time>2014-04-27T08:51:48Z</time>
      </trkpt>
      <trkpt lat="48.12588" lon="6.43519">
        <ele>453.73046875</ele>
        <time>2014-04-27T08:51:49Z</time>
      </trkpt>
      <trkpt lat="48.12585" lon="6.43513">
        <ele>453.6171875</ele>
        <time>2014-04-27T08:51:50Z</time>
      </trkpt>
      <trkpt lat="48.12581" lon="6.43507">
        <ele>453.484375</ele>
        <time>2014-04-27T08:51:51Z</time>
      </trkpt>
      <trkpt lat="48.12578" lon="6.43502">
        <ele>453.37109375</ele>
        <time>2014-04-27T08:51:52Z</time>
      </trkpt>
      <trkpt lat="48.12576" lon="6.43495">
        <ele>453.2421875</ele>
        <time>2014-04-27T08:51:53Z</time>
      </trkpt>
      <trkpt lat="48.12576" lon="6.43487">
        <ele>453.03515625</ele>
        <time>2014-04-27T08:51:54Z</time>
      </trkpt>
      <trkpt lat="48.12577" lon="6.43481">
        <ele>452.94140625</ele>
        <time>2014-04-27T08:51:55Z</time>
      </trkpt>
      <trkpt lat="48.1258" lon="6.43476">
        <ele>452.99609375</ele>
        <time>2014-04-27T08:51:56Z</time>
      </trkpt>
      <trkpt lat="48.12583" lon="6.43473">
        <ele>453.140625</ele>
        <time>2014-04-27T08:51:57Z</time>
      </trkpt>
      <trkpt lat="48.12616" lon="6.43425">
        <ele>455.35546875</ele>
        <time>2014-04-27T08:52:10Z</time>
      </trkpt>
      <trkpt lat="48.12648" lon="6.43358">
        <ele>456.64453125</ele>
        <time>2014-04-27T08:52:26Z</time>
      </trkpt>
      <trkpt lat="48.12675" lon="6.43334">
        <ele>459.62890625</ele>
        <time>2014-04-27T08:52:37Z</time>
      </trkpt>
      <trkpt lat="48.12705" lon="6.43323">
        <ele>462.93359375</ele>
        <time>2014-04-27T08:52:51Z</time>
      </trkpt>
      <trkpt lat="48.12728" lon="6.43328">
        <ele>466.08984375</ele>
        <time>2014-04-27T08:53:05Z</time>
      </trkpt>
      <trkpt lat="48.12747" lon="6.43341">
        <ele>469.4765625</ele>
        <time>2014-04-27T08:53:17Z</time>
      </trkpt>
      <trkpt lat="48.12754" lon="6.43347">
        <ele>470.9453125</ele>
        <time>2014-04-27T08:53:22Z</time>
      </trkpt>
      <trkpt lat="48.12762" lon="6.43353">
        <ele>472.46875</ele>
        <time>2014-04-27T08:53:26Z</time>
      </trkpt>
      <trkpt lat="48.12764" lon="6.43355">
        <ele>472.82421875</ele>
        <time>2014-04-27T08:53:27Z</time>
      </trkpt>
      <trkpt lat="48.12782" lon="6.43377">
        <ele>476.4921875</ele>
        <time>2014-04-27T08:53:41Z</time>
      </trkpt>
      <trkpt lat="48.12802" lon="6.43398">
        <ele>478.4296875</ele>
        <time>2014-04-27T08:53:52Z</time>
      </trkpt>
      <trkpt lat="48.12827" lon="6.43428">
        <ele>479.69921875</ele>
        <time>2014-04-27T08:54:03Z</time>
      </trkpt>
      <trkpt lat="48.12866" lon="6.43464">
        <ele>480.85546875</ele>
        <time>2014-04-27T08:54:15Z</time>
      </trkpt>
      <trkpt lat="48.12875" lon="6.43479">
        <ele>480.94921875</ele>
        <time>2014-04-27T08:54:18Z</time>
      </trkpt>
      <trkpt lat="48.12881" lon="6.43491">
        <ele>480.94140625</ele>
        <time>2014-04-27T08:54:20Z</time>
      </trkpt>
      <trkpt lat="48.12884" lon="6.43497">
        <ele>481</ele>
        <time>2014-04-27T08:54:21Z</time>
      </trkpt>
      <trkpt lat="48.12887" lon="6.43502">
        <ele>481</ele>
        <time>2014-04-27T08:54:22Z</time>
      </trkpt>
      <trkpt lat="48.12891" lon="6.43507">
        <ele>481</ele>
        <time>2014-04-27T08:54:23Z</time>
      </trkpt>
      <trkpt lat="48.12894" lon="6.43512">
        <ele>481</ele>
        <time>2014-04-27T08:54:24Z</time>
      </trkpt>
      <trkpt lat="48.12897" lon="6.43519">
        <ele>481</ele>
        <time>2014-04-27T08:54:25Z</time>
      </trkpt>
      <trkpt lat="48.129" lon="6.43525">
        <ele>480.9765625</ele>
        <time>2014-04-27T08:54:26Z</time>
      </trkpt>
      <trkpt lat="48.12904" lon="6.43531">
        <ele>480.47265625</ele>
        <time>2014-04-27T08:54:27Z</time>
      </trkpt>
      <trkpt lat="48.12908" lon="6.43537">
        <ele>480.0625</ele>
        <time>2014-04-27T08:54:28Z</time>
      </trkpt>
      <trkpt lat="48.12923" lon="6.43564">
        <ele>479.40234375</ele>
        <time>2014-04-27T08:54:32Z</time>
      </trkpt>
      <trkpt lat="48.12973" lon="6.43651">
        <ele>477.1796875</ele>
        <time>2014-04-27T08:54:43Z</time>
      </trkpt>
      <trkpt lat="48.13045" lon="6.43774">
        <ele>473.19921875</ele>
        <time>2014-04-27T08:54:57Z</time>
      </trkpt>
      <trkpt lat="48.13109" lon="6.43887">
        <ele>469.9453125</ele>
        <time>2014-04-27T08:55:09Z</time>
      </trkpt>
      <trkpt lat="48.13154" lon="6.43972">
        <ele>466.35546875</ele>
        <time>2014-04-27T08:55:18Z</time>
      </trkpt>
      <trkpt lat="48.13156" lon="6.43979">
        <ele>465.41796875</ele>
        <time>2014-04-27T08:55:19Z</time>
      </trkpt>
      <trkpt lat="48.13156" lon="6.43986">
        <ele>464.6953125</ele>
        <time>2014-04-27T08:55:20Z</time>
      </trkpt>
      <trkpt lat="48.13141" lon="6.44008">
        <ele>461.78125</ele>
        <time>2014-04-27T08:55:25Z</time>
      </trkpt>
      <trkpt lat="48.13149" lon="6.4402">
        <ele>461.1953125</ele>
        <time>2014-04-27T08:55:28Z</time>
      </trkpt>
      <trkpt lat="48.13153" lon="6.44024">
        <ele>460.91015625</ele>
        <time>2014-04-27T08:55:29Z</time>
      </trkpt>
      <trkpt lat="48.13159" lon="6.4403">
        <ele>459.953125</ele>
        <time>2014-04-27T08:55:30Z</time>
      </trkpt>
      <trkpt lat="48.13165" lon="6.44037">
        <ele>458.86328125</ele>
        <time>2014-04-27T08:55:31Z</time>
      </trkpt>
      <trkpt lat="48.13171" lon="6.44045">
        <ele>457.81640625</ele>
        <time>2014-04-27T08:55:32Z</time>
      </trkpt>
      <trkpt lat="48.13213" lon="6.44119">
        <ele>442.6796875</ele>
        <time>2014-04-27T08:55:41Z</time>
      </trkpt>
      <trkpt lat="48.13215" lon="6.44124">
        <ele>441.109375</ele>
        <time>2014-04-27T08:55:42Z</time>
      </trkpt>
      <trkpt lat="48.13218" lon="6.44128">
        <ele>439.640625</ele>
        <time>2014-04-27T08:55:43Z</time>
      </trkpt>
      <trkpt lat="48.1322" lon="6.44135">
        <ele>438.046875</ele>
        <time>2014-04-27T08:55:44Z</time>
      </trkpt>
      <trkpt lat="48.13222" lon="6.44142">
        <ele>436.36328125</ele>
        <time>2014-04-27T08:55:45Z</time>
      </trkpt>
      <trkpt lat="48.13223" lon="6.44151">
        <ele>434.71875</ele>
        <time>2014-04-27T08:55:46Z</time>
      </trkpt>
      <trkpt lat="48.13224" lon="6.44159">
        <ele>433.140625</ele>
        <time>2014-04-27T08:55:47Z</time>
      </trkpt>
      <trkpt lat="48.13226" lon="6.44166">
        <ele>431.51171875</ele>
        <time>2014-04-27T08:55:48Z</time>
      </trkpt>
      <trkpt lat="48.13227" lon="6.44173">
        <ele>430.03125</ele>
        <time>2014-04-27T08:55:49Z</time>
      </trkpt>
      <trkpt lat="48.13229" lon="6.44177">
        <ele>428.99609375</ele>
        <time>2014-04-27T08:55:50Z</time>
      </trkpt>
      <trkpt lat="48.13235" lon="6.44219">
        <ele>420.8203125</ele>
        <time>2014-04-27T08:55:58Z</time>
      </trkpt>
      <trkpt lat="48.13237" lon="6.4423">
        <ele>419.26953125</ele>
        <time>2014-04-27T08:56:00Z</time>
      </trkpt>
      <trkpt lat="48.1324" lon="6.44235">
        <ele>418.55859375</ele>
        <time>2014-04-27T08:56:01Z</time>
      </trkpt>
      <trkpt lat="48.13245" lon="6.44238">
        <ele>418.08984375</ele>
        <time>2014-04-27T08:56:02Z</time>
      </trkpt>
      <trkpt lat="48.13256" lon="6.44241">
        <ele>417.5703125</ele>
        <time>2014-04-27T08:56:04Z</time>
      </trkpt>
      <trkpt lat="48.13262" lon="6.44242">
        <ele>417.4453125</ele>
        <time>2014-04-27T08:56:05Z</time>
      </trkpt>
      <trkpt lat="48.13268" lon="6.44243">
        <ele>416.69140625</ele>
        <time>2014-04-27T08:56:06Z</time>
      </trkpt>
      <trkpt lat="48.13275" lon="6.44242">
        <ele>415.953125</ele>
        <time>2014-04-27T08:56:07Z</time>
      </trkpt>
      <trkpt lat="48.13282" lon="6.44242">
        <ele>415.2421875</ele>
        <time>2014-04-27T08:56:08Z</time>
      </trkpt>
      <trkpt lat="48.13296" lon="6.44238">
        <ele>413.875</ele>
        <time>2014-04-27T08:56:10Z</time>
      </trkpt>
      <trkpt lat="48.13311" lon="6.44233">
        <ele>412.25</ele>
        <time>2014-04-27T08:56:12Z</time>
      </trkpt>
      <trkpt lat="48.13344" lon="6.44229">
        <ele>408.4296875</ele>
        <time>2014-04-27T08:56:17Z</time>
      </trkpt>
      <trkpt lat="48.1335" lon="6.44229">
        <ele>407.7890625</ele>
        <time>2014-04-27T08:56:18Z</time>
      </trkpt>
      <trkpt lat="48.13357" lon="6.44229">
        <ele>407.09765625</ele>
        <time>2014-04-27T08:56:19Z</time>
      </trkpt>
      <trkpt lat="48.13364" lon="6.4423">
        <ele>406.40234375</ele>
        <time>2014-04-27T08:56:20Z</time>
      </trkpt>
      <trkpt lat="48.13371" lon="6.44232">
        <ele>405.68359375</ele>
        <time>2014-04-27T08:56:21Z</time>
      </trkpt>
      <trkpt lat="48.13379" lon="6.44233">
        <ele>405.01171875</ele>
        <time>2014-04-27T08:56:22Z</time>
      </trkpt>
      <trkpt lat="48.13386" lon="6.44235">
        <ele>404.4140625</ele>
        <time>2014-04-27T08:56:23Z</time>
      </trkpt>
      <trkpt lat="48.13393" lon="6.44238">
        <ele>403.97265625</ele>
        <time>2014-04-27T08:56:24Z</time>
      </trkpt>
      <trkpt lat="48.13483" lon="6.443">
        <ele>396.99609375</ele>
        <time>2014-04-27T08:56:34Z</time>
      </trkpt>
      <trkpt lat="48.13545" lon="6.44365">
        <ele>388.28125</ele>
        <time>2014-04-27T08:56:40Z</time>
      </trkpt>
      <trkpt lat="48.13557" lon="6.44373">
        <ele>386.73046875</ele>
        <time>2014-04-27T08:56:41Z</time>
      </trkpt>
      <trkpt lat="48.13569" lon="6.44379">
        <ele>385.09375</ele>
        <time>2014-04-27T08:56:42Z</time>
      </trkpt>
      <trkpt lat="48.13581" lon="6.44382">
        <ele>384.08984375</ele>
        <time>2014-04-27T08:56:43Z</time>
      </trkpt>
      <trkpt lat="48.13592" lon="6.44382">
        <ele>383.20703125</ele>
        <time>2014-04-27T08:56:44Z</time>
      </trkpt>
      <trkpt lat="48.13603" lon="6.44382">
        <ele>382.7421875</ele>
        <time>2014-04-27T08:56:45Z</time>
      </trkpt>
      <trkpt lat="48.13613" lon="6.44382">
        <ele>382.40234375</ele>
        <time>2014-04-27T08:56:46Z</time>
      </trkpt>
      <trkpt lat="48.13623" lon="6.44385">
        <ele>382.02734375</ele>
        <time>2014-04-27T08:56:47Z</time>
      </trkpt>
      <trkpt lat="48.13667" lon="6.4441">
        <ele>383.36328125</ele>
        <time>2014-04-27T08:56:52Z</time>
      </trkpt>
      <trkpt lat="48.13673" lon="6.44417">
        <ele>383.375</ele>
        <time>2014-04-27T08:56:53Z</time>
      </trkpt>
      <trkpt lat="48.13733" lon="6.4448">
        <ele>386.69140625</ele>
        <time>2014-04-27T08:57:04Z</time>
      </trkpt>
      <trkpt lat="48.13739" lon="6.44483">
        <ele>387.46484375</ele>
        <time>2014-04-27T08:57:05Z</time>
      </trkpt>
      <trkpt lat="48.13744" lon="6.44485">
        <ele>388.33203125</ele>
        <time>2014-04-27T08:57:06Z</time>
      </trkpt>
      <trkpt lat="48.13756" lon="6.44486">
        <ele>390.28515625</ele>
        <time>2014-04-27T08:57:08Z</time>
      </trkpt>
      <trkpt lat="48.13798" lon="6.4449">
        <ele>393.06640625</ele>
        <time>2014-04-27T08:57:15Z</time>
      </trkpt>
      <trkpt lat="48.13804" lon="6.44493">
        <ele>392.65234375</ele>
        <time>2014-04-27T08:57:16Z</time>
      </trkpt>
      <trkpt lat="48.13818" lon="6.44497">
        <ele>391.90625</ele>
        <time>2014-04-27T08:57:18Z</time>
      </trkpt>
      <trkpt lat="48.13825" lon="6.44497">
        <ele>391.9296875</ele>
        <time>2014-04-27T08:57:19Z</time>
      </trkpt>
      <trkpt lat="48.13832" lon="6.44494">
        <ele>392.31640625</ele>
        <time>2014-04-27T08:57:20Z</time>
      </trkpt>
      <trkpt lat="48.13838" lon="6.44491">
        <ele>392.99609375</ele>
        <time>2014-04-27T08:57:21Z</time>
      </trkpt>
      <trkpt lat="48.13845" lon="6.44486">
        <ele>393.81640625</ele>
        <time>2014-04-27T08:57:22Z</time>
      </trkpt>
      <trkpt lat="48.1385" lon="6.44482">
        <ele>394.6953125</ele>
        <time>2014-04-27T08:57:23Z</time>
      </trkpt>
      <trkpt lat="48.13856" lon="6.4448">
        <ele>395.23046875</ele>
        <time>2014-04-27T08:57:24Z</time>
      </trkpt>
      <trkpt lat="48.13861" lon="6.44481">
        <ele>395.1328125</ele>
        <time>2014-04-27T08:57:25Z</time>
      </trkpt>
      <trkpt lat="48.13866" lon="6.44484">
        <ele>394.54296875</ele>
        <time>2014-04-27T08:57:26Z</time>
      </trkpt>
      <trkpt lat="48.13871" lon="6.44488">
        <ele>393.7578125</ele>
        <time>2014-04-27T08:57:27Z</time>
      </trkpt>
      <trkpt lat="48.13875" lon="6.44492">
        <ele>393.46875</ele>
        <time>2014-04-27T08:57:28Z</time>
      </trkpt>
      <trkpt lat="48.13932" lon="6.44546">
        <ele>392.9453125</ele>
        <time>2014-04-27T08:57:42Z</time>
      </trkpt>
      <trkpt lat="48.13935" lon="6.4455">
        <ele>393.203125</ele>
        <time>2014-04-27T08:57:43Z</time>
      </trkpt>
      <trkpt lat="48.13939" lon="6.44554">
        <ele>393.45703125</ele>
        <time>2014-04-27T08:57:44Z</time>
      </trkpt>
      <trkpt lat="48.13972" lon="6.44605">
        <ele>396.85546875</ele>
        <time>2014-04-27T08:57:57Z</time>
      </trkpt>
      <trkpt lat="48.14011" lon="6.44673">
        <ele>401.21484375</ele>
        <time>2014-04-27T08:58:12Z</time>
      </trkpt>
      <trkpt lat="48.14034" lon="6.44729">
        <ele>403.33203125</ele>
        <time>2014-04-27T08:58:23Z</time>
      </trkpt>
      <trkpt lat="48.14041" lon="6.44744">
        <ele>404.48046875</ele>
        <time>2014-04-27T08:58:26Z</time>
      </trkpt>
      <trkpt lat="48.14043" lon="6.44749">
        <ele>404.53515625</ele>
        <time>2014-04-27T08:58:27Z</time>
      </trkpt>
      <trkpt lat="48.14052" lon="6.44769">
        <ele>404.328125</ele>
        <time>2014-04-27T08:58:31Z</time>
      </trkpt>
      <trkpt lat="48.14067" lon="6.44792">
        <ele>405</ele>
        <time>2014-04-27T08:58:36Z</time>
      </trkpt>
      <trkpt lat="48.1411" lon="6.44839">
        <ele>407.3671875</ele>
        <time>2014-04-27T08:58:48Z</time>
      </trkpt>
      <trkpt lat="48.1415" lon="6.44881">
        <ele>408.49609375</ele>
        <time>2014-04-27T08:58:59Z</time>
      </trkpt>
      <trkpt lat="48.14179" lon="6.44899">
        <ele>408.546875</ele>
        <time>2014-04-27T08:59:05Z</time>
      </trkpt>
      <trkpt lat="48.14261" lon="6.44905">
        <ele>410.0234375</ele>
        <time>2014-04-27T08:59:17Z</time>
      </trkpt>
      <trkpt lat="48.14349" lon="6.44923">
        <ele>406.67578125</ele>
        <time>2014-04-27T08:59:29Z</time>
      </trkpt>
      <trkpt lat="48.14372" lon="6.44936">
        <ele>406.3203125</ele>
        <time>2014-04-27T08:59:33Z</time>
      </trkpt>
      <trkpt lat="48.14377" lon="6.44935">
        <ele>406.51171875</ele>
        <time>2014-04-27T08:59:34Z</time>
      </trkpt>
      <trkpt lat="48.14381" lon="6.44926">
        <ele>407.19140625</ele>
        <time>2014-04-27T08:59:36Z</time>
      </trkpt>
      <trkpt lat="48.14383" lon="6.44884">
        <ele>410.25</ele>
        <time>2014-04-27T08:59:43Z</time>
      </trkpt>
      <trkpt lat="48.14383" lon="6.44878">
        <ele>410.54296875</ele>
        <time>2014-04-27T08:59:44Z</time>
      </trkpt>
      <trkpt lat="48.14382" lon="6.44872">
        <ele>410.85546875</ele>
        <time>2014-04-27T08:59:45Z</time>
      </trkpt>
      <trkpt lat="48.14382" lon="6.44866">
        <ele>411.16796875</ele>
        <time>2014-04-27T08:59:46Z</time>
      </trkpt>
      <trkpt lat="48.14364" lon="6.44828">
        <ele>415.4765625</ele>
        <time>2014-04-27T08:59:56Z</time>
      </trkpt>
      <trkpt lat="48.14346" lon="6.44811">
        <ele>421.34375</ele>
        <time>2014-04-27T09:00:07Z</time>
      </trkpt>
      <trkpt lat="48.14337" lon="6.44789">
        <ele>425.27734375</ele>
        <time>2014-04-27T09:00:20Z</time>
      </trkpt>
      <trkpt lat="48.14336" lon="6.44773">
        <ele>427.1796875</ele>
        <time>2014-04-27T09:00:26Z</time>
      </trkpt>
      <trkpt lat="48.14328" lon="6.44761">
        <ele>429.921875</ele>
        <time>2014-04-27T09:00:35Z</time>
      </trkpt>
      <trkpt lat="48.14317" lon="6.44767">
        <ele>430.91015625</ele>
        <time>2014-04-27T09:00:42Z</time>
      </trkpt>
      <trkpt lat="48.14312" lon="6.44775">
        <ele>430.421875</ele>
        <time>2014-04-27T09:00:50Z</time>
      </trkpt>
      <trkpt lat="48.14294" lon="6.44768">
        <ele>434.421875</ele>
        <time>2014-04-27T09:00:58Z</time>
      </trkpt>
      <trkpt lat="48.14284" lon="6.44764">
        <ele>435.86328125</ele>
        <time>2014-04-27T09:01:01Z</time>
      </trkpt>
      <trkpt lat="48.14277" lon="6.44761">
        <ele>436.4921875</ele>
        <time>2014-04-27T09:01:05Z</time>
      </trkpt>
      <trkpt lat="48.14246" lon="6.44758">
        <ele>437.078125</ele>
        <time>2014-04-27T09:01:17Z</time>
      </trkpt>
      <trkpt lat="48.1422" lon="6.44757">
        <ele>435.734375</ele>
        <time>2014-04-27T09:01:27Z</time>
      </trkpt>
      <trkpt lat="48.14187" lon="6.44744">
        <ele>433.47265625</ele>
        <time>2014-04-27T09:01:36Z</time>
      </trkpt>
      <trkpt lat="48.14181" lon="6.44741">
        <ele>433.19140625</ele>
        <time>2014-04-27T09:01:37Z</time>
      </trkpt>
      <trkpt lat="48.14177" lon="6.44737">
        <ele>433.11328125</ele>
        <time>2014-04-27T09:01:38Z</time>
      </trkpt>
      <trkpt lat="48.14172" lon="6.44732">
        <ele>433.04296875</ele>
        <time>2014-04-27T09:01:39Z</time>
      </trkpt>
      <trkpt lat="48.14167" lon="6.44727">
        <ele>432.9921875</ele>
        <time>2014-04-27T09:01:40Z</time>
      </trkpt>
      <trkpt lat="48.14135" lon="6.44682">
        <ele>430.4140625</ele>
        <time>2014-04-27T09:01:49Z</time>
      </trkpt>
      <trkpt lat="48.14119" lon="6.44651">
        <ele>429.44921875</ele>
        <time>2014-04-27T09:01:54Z</time>
      </trkpt>
      <trkpt lat="48.14118" lon="6.44645">
        <ele>429.89453125</ele>
        <time>2014-04-27T09:01:55Z</time>
      </trkpt>
      <trkpt lat="48.14114" lon="6.44617">
        <ele>431.375</ele>
        <time>2014-04-27T09:02:03Z</time>
      </trkpt>
      <trkpt lat="48.14117" lon="6.4458">
        <ele>436.51953125</ele>
        <time>2014-04-27T09:02:17Z</time>
      </trkpt>
      <trkpt lat="48.1412" lon="6.44553">
        <ele>441.41015625</ele>
        <time>2014-04-27T09:02:30Z</time>
      </trkpt>
      <trkpt lat="48.1412" lon="6.44531">
        <ele>444.46875</ele>
        <time>2014-04-27T09:02:38Z</time>
      </trkpt>
      <trkpt lat="48.14115" lon="6.44512">
        <ele>446.12109375</ele>
        <time>2014-04-27T09:02:46Z</time>
      </trkpt>
      <trkpt lat="48.14116" lon="6.44509">
        <ele>446.5078125</ele>
        <time>2014-04-27T09:02:47Z</time>
      </trkpt>
      <trkpt lat="48.14116" lon="6.44506">
        <ele>446.96484375</ele>
        <time>2014-04-27T09:02:48Z</time>
      </trkpt>
      <trkpt lat="48.14116" lon="6.44503">
        <ele>447.33203125</ele>
        <time>2014-04-27T09:02:49Z</time>
      </trkpt>
      <trkpt lat="48.14116" lon="6.445">
        <ele>447.703125</ele>
        <time>2014-04-27T09:02:50Z</time>
      </trkpt>
      <trkpt lat="48.14115" lon="6.44497">
        <ele>447.89453125</ele>
        <time>2014-04-27T09:02:51Z</time>
      </trkpt>
      <trkpt lat="48.14115" lon="6.44495">
        <ele>448.12109375</ele>
        <time>2014-04-27T09:02:52Z</time>
      </trkpt>
      <trkpt lat="48.14115" lon="6.44493">
        <ele>448.359375</ele>
        <time>2014-04-27T09:02:53Z</time>
      </trkpt>
      <trkpt lat="48.14115" lon="6.4449">
        <ele>448.6640625</ele>
        <time>2014-04-27T09:02:54Z</time>
      </trkpt>
      <trkpt lat="48.14115" lon="6.44488">
        <ele>449.01953125</ele>
        <time>2014-04-27T09:02:55Z</time>
      </trkpt>
      <trkpt lat="48.14116" lon="6.44485">
        <ele>449.33984375</ele>
        <time>2014-04-27T09:02:56Z</time>
      </trkpt>
      <trkpt lat="48.14116" lon="6.44482">
        <ele>449.67578125</ele>
        <time>2014-04-27T09:02:57Z</time>
      </trkpt>
      <trkpt lat="48.14114" lon="6.44438">
        <ele>451.75390625</ele>
        <time>2014-04-27T09:03:08Z</time>
      </trkpt>
      <trkpt lat="48.14092" lon="6.44398">
        <ele>453.8828125</ele>
        <time>2014-04-27T09:03:20Z</time>
      </trkpt>
      <trkpt lat="48.14073" lon="6.44351">
        <ele>457.19140625</ele>
        <time>2014-04-27T09:03:34Z</time>
      </trkpt>
      <trkpt lat="48.14072" lon="6.44348">
        <ele>457.4375</ele>
        <time>2014-04-27T09:03:35Z</time>
      </trkpt>
      <trkpt lat="48.14071" lon="6.44344">
        <ele>457.6953125</ele>
        <time>2014-04-27T09:03:36Z</time>
      </trkpt>
      <trkpt lat="48.1407" lon="6.44341">
        <ele>457.984375</ele>
        <time>2014-04-27T09:03:37Z</time>
      </trkpt>
      <trkpt lat="48.14069" lon="6.44337">
        <ele>458.30078125</ele>
        <time>2014-04-27T09:03:38Z</time>
      </trkpt>
      <trkpt lat="48.14054" lon="6.44288">
        <ele>461.07421875</ele>
        <time>2014-04-27T09:03:51Z</time>
      </trkpt>
      <trkpt lat="48.14037" lon="6.44241">
        <ele>464.12890625</ele>
        <time>2014-04-27T09:04:03Z</time>
      </trkpt>
      <trkpt lat="48.14035" lon="6.44234">
        <ele>464.33984375</ele>
        <time>2014-04-27T09:04:05Z</time>
      </trkpt>
      <trkpt lat="48.14033" lon="6.44232">
        <ele>464.43359375</ele>
        <time>2014-04-27T09:04:06Z</time>
      </trkpt>
      <trkpt lat="48.14032" lon="6.44229">
        <ele>464.5390625</ele>
        <time>2014-04-27T09:04:07Z</time>
      </trkpt>
      <trkpt lat="48.14032" lon="6.44226">
        <ele>464.6484375</ele>
        <time>2014-04-27T09:04:08Z</time>
      </trkpt>
      <trkpt lat="48.14032" lon="6.44224">
        <ele>464.765625</ele>
        <time>2014-04-27T09:04:09Z</time>
      </trkpt>
      <trkpt lat="48.14033" lon="6.44221">
        <ele>464.90625</ele>
        <time>2014-04-27T09:04:10Z</time>
      </trkpt>
      <trkpt lat="48.14048" lon="6.44207">
        <ele>465.1015625</ele>
        <time>2014-04-27T09:04:15Z</time>
      </trkpt>
      <trkpt lat="48.14069" lon="6.44184">
        <ele>464.703125</ele>
        <time>2014-04-27T09:04:21Z</time>
      </trkpt>
      <trkpt lat="48.14074" lon="6.44159">
        <ele>464.0546875</ele>
        <time>2014-04-27T09:04:24Z</time>
      </trkpt>
      <trkpt lat="48.14074" lon="6.4415">
        <ele>464.375</ele>
        <time>2014-04-27T09:04:25Z</time>
      </trkpt>
      <trkpt lat="48.14073" lon="6.44141">
        <ele>464.73046875</ele>
        <time>2014-04-27T09:04:26Z</time>
      </trkpt>
      <trkpt lat="48.14072" lon="6.44133">
        <ele>465.01953125</ele>
        <time>2014-04-27T09:04:27Z</time>
      </trkpt>
      <trkpt lat="48.1407" lon="6.44125">
        <ele>464.95703125</ele>
        <time>2014-04-27T09:04:28Z</time>
      </trkpt>
      <trkpt lat="48.14066" lon="6.441">
        <ele>465.0625</ele>
        <time>2014-04-27T09:04:31Z</time>
      </trkpt>
      <trkpt lat="48.14058" lon="6.44059">
        <ele>465.44140625</ele>
        <time>2014-04-27T09:04:36Z</time>
      </trkpt>
      <trkpt lat="48.14058" lon="6.44051">
        <ele>465.3046875</ele>
        <time>2014-04-27T09:04:37Z</time>
      </trkpt>
      <trkpt lat="48.14058" lon="6.44043">
        <ele>465.1875</ele>
        <time>2014-04-27T09:04:38Z</time>
      </trkpt>
      <trkpt lat="48.14059" lon="6.44034">
        <ele>464.97265625</ele>
        <time>2014-04-27T09:04:39Z</time>
      </trkpt>
      <trkpt lat="48.14061" lon="6.44025">
        <ele>464.609375</ele>
        <time>2014-04-27T09:04:40Z</time>
      </trkpt>
      <trkpt lat="48.14065" lon="6.44017">
        <ele>463.9296875</ele>
        <time>2014-04-27T09:04:41Z</time>
      </trkpt>
      <trkpt lat="48.1407" lon="6.44008">
        <ele>462.7734375</ele>
        <time>2014-04-27T09:04:42Z</time>
      </trkpt>
      <trkpt lat="48.14074" lon="6.43998">
        <ele>461.3828125</ele>
        <time>2014-04-27T09:04:43Z</time>
      </trkpt>
      <trkpt lat="48.14078" lon="6.43987">
        <ele>460.0546875</ele>
        <time>2014-04-27T09:04:44Z</time>
      </trkpt>
      <trkpt lat="48.14082" lon="6.43978">
        <ele>458.76171875</ele>
        <time>2014-04-27T09:04:45Z</time>
      </trkpt>
      <trkpt lat="48.14084" lon="6.43968">
        <ele>457.71484375</ele>
        <time>2014-04-27T09:04:46Z</time>
      </trkpt>
      <trkpt lat="48.14083" lon="6.4396">
        <ele>457.234375</ele>
        <time>2014-04-27T09:04:47Z</time>
      </trkpt>
      <trkpt lat="48.14081" lon="6.43951">
        <ele>457.1640625</ele>
        <time>2014-04-27T09:04:48Z</time>
      </trkpt>
      <trkpt lat="48.14076" lon="6.43933">
        <ele>456.7421875</ele>
        <time>2014-04-27T09:04:50Z</time>
      </trkpt>
      <trkpt lat="48.14067" lon="6.43901">
        <ele>456.3671875</ele>
        <time>2014-04-27T09:04:53Z</time>
      </trkpt>
      <trkpt lat="48.14065" lon="6.43889">
        <ele>456.54296875</ele>
        <time>2014-04-27T09:04:54Z</time>
      </trkpt>
      <trkpt lat="48.14064" lon="6.43876">
        <ele>456.8046875</ele>
        <time>2014-04-27T09:04:55Z</time>
      </trkpt>
      <trkpt lat="48.14063" lon="6.43863">
        <ele>456.94140625</ele>
        <time>2014-04-27T09:04:56Z</time>
      </trkpt>
      <trkpt lat="48.14063" lon="6.43851">
        <ele>457.08203125</ele>
        <time>2014-04-27T09:04:57Z</time>
      </trkpt>
      <trkpt lat="48.14065" lon="6.43841">
        <ele>457.02734375</ele>
        <time>2014-04-27T09:04:58Z</time>
      </trkpt>
      <trkpt lat="48.14069" lon="6.43833">
        <ele>456.12109375</ele>
        <time>2014-04-27T09:04:59Z</time>
      </trkpt>
      <trkpt lat="48.14104" lon="6.43801">
        <ele>447.6640625</ele>
        <time>2014-04-27T09:05:04Z</time>
      </trkpt>
      <trkpt lat="48.14111" lon="6.43792">
        <ele>446.71875</ele>
        <time>2014-04-27T09:05:05Z</time>
      </trkpt>
      <trkpt lat="48.14117" lon="6.43783">
        <ele>445.81640625</ele>
        <time>2014-04-27T09:05:06Z</time>
      </trkpt>
      <trkpt lat="48.14122" lon="6.43773">
        <ele>445.078125</ele>
        <time>2014-04-27T09:05:07Z</time>
      </trkpt>
      <trkpt lat="48.14126" lon="6.43762">
        <ele>444.40234375</ele>
        <time>2014-04-27T09:05:08Z</time>
      </trkpt>
      <trkpt lat="48.14128" lon="6.43752">
        <ele>444.14453125</ele>
        <time>2014-04-27T09:05:09Z</time>
      </trkpt>
      <trkpt lat="48.14128" lon="6.43742">
        <ele>444.1328125</ele>
        <time>2014-04-27T09:05:10Z</time>
      </trkpt>
      <trkpt lat="48.14127" lon="6.43732">
        <ele>444.27734375</ele>
        <time>2014-04-27T09:05:11Z</time>
      </trkpt>
      <trkpt lat="48.14121" lon="6.43717">
        <ele>445.3984375</ele>
        <time>2014-04-27T09:05:13Z</time>
      </trkpt>
      <trkpt lat="48.14118" lon="6.43713">
        <ele>446.36328125</ele>
        <time>2014-04-27T09:05:14Z</time>
      </trkpt>
      <trkpt lat="48.14115" lon="6.43709">
        <ele>447.1796875</ele>
        <time>2014-04-27T09:05:15Z</time>
      </trkpt>
      <trkpt lat="48.14094" lon="6.43675">
        <ele>453.3125</ele>
        <time>2014-04-27T09:05:26Z</time>
      </trkpt>
      <trkpt lat="48.14087" lon="6.43643">
        <ele>456.34765625</ele>
        <time>2014-04-27T09:05:36Z</time>
      </trkpt>
      <trkpt lat="48.1409" lon="6.43608">
        <ele>458.09765625</ele>
        <time>2014-04-27T09:05:47Z</time>
      </trkpt>
      <trkpt lat="48.14094" lon="6.43595">
        <ele>459.12109375</ele>
        <time>2014-04-27T09:05:52Z</time>
      </trkpt>
      <trkpt lat="48.14106" lon="6.43569">
        <ele>460.69140625</ele>
        <time>2014-04-27T09:06:04Z</time>
      </trkpt>
      <trkpt lat="48.14111" lon="6.43554">
        <ele>461.68359375</ele>
        <time>2014-04-27T09:06:11Z</time>
      </trkpt>
      <trkpt lat="48.14106" lon="6.43535">
        <ele>462.42578125</ele>
        <time>2014-04-27T09:06:21Z</time>
      </trkpt>
      <trkpt lat="48.14101" lon="6.43526">
        <ele>462.7578125</ele>
        <time>2014-04-27T09:06:25Z</time>
      </trkpt>
      <trkpt lat="48.14101" lon="6.43514">
        <ele>462.296875</ele>
        <time>2014-04-27T09:06:30Z</time>
      </trkpt>
      <trkpt lat="48.1411" lon="6.43508">
        <ele>461.5234375</ele>
        <time>2014-04-27T09:06:35Z</time>
      </trkpt>
      <trkpt lat="48.14159" lon="6.43494">
        <ele>459.49609375</ele>
        <time>2014-04-27T09:06:48Z</time>
      </trkpt>
      <trkpt lat="48.14168" lon="6.43491">
        <ele>459.0859375</ele>
        <time>2014-04-27T09:06:50Z</time>
      </trkpt>
      <trkpt lat="48.14193" lon="6.43486">
        <ele>457.859375</ele>
        <time>2014-04-27T09:06:55Z</time>
      </trkpt>
      <trkpt lat="48.14204" lon="6.43483">
        <ele>457.078125</ele>
        <time>2014-04-27T09:06:57Z</time>
      </trkpt>
      <trkpt lat="48.14254" lon="6.43472">
        <ele>448.45703125</ele>
        <time>2014-04-27T09:07:05Z</time>
      </trkpt>
      <trkpt lat="48.14281" lon="6.43458">
        <ele>440.71875</ele>
        <time>2014-04-27T09:07:10Z</time>
      </trkpt>
      <trkpt lat="48.14299" lon="6.43451">
        <ele>435.37890625</ele>
        <time>2014-04-27T09:07:13Z</time>
      </trkpt>
      <trkpt lat="48.1431" lon="6.43449">
        <ele>432.0234375</ele>
        <time>2014-04-27T09:07:15Z</time>
      </trkpt>
      <trkpt lat="48.14325" lon="6.43443">
        <ele>426.81640625</ele>
        <time>2014-04-27T09:07:19Z</time>
      </trkpt>
      <trkpt lat="48.14325" lon="6.43441">
        <ele>426.44921875</ele>
        <time>2014-04-27T09:07:21Z</time>
      </trkpt>
      <trkpt lat="48.14319" lon="6.43429">
        <ele>426.51953125</ele>
        <time>2014-04-27T09:07:26Z</time>
      </trkpt>
      <trkpt lat="48.14308" lon="6.43408">
        <ele>426.16796875</ele>
        <time>2014-04-27T09:07:31Z</time>
      </trkpt>
      <trkpt lat="48.14273" lon="6.43362">
        <ele>424.453125</ele>
        <time>2014-04-27T09:07:43Z</time>
      </trkpt>
      <trkpt lat="48.14237" lon="6.4334">
        <ele>424.953125</ele>
        <time>2014-04-27T09:07:53Z</time>
      </trkpt>
      <trkpt lat="48.14193" lon="6.43321">
        <ele>424.22265625</ele>
        <time>2014-04-27T09:08:05Z</time>
      </trkpt>
      <trkpt lat="48.14154" lon="6.4332">
        <ele>426.49609375</ele>
        <time>2014-04-27T09:08:16Z</time>
      </trkpt>
      <trkpt lat="48.14115" lon="6.43338">
        <ele>435.375</ele>
        <time>2014-04-27T09:08:28Z</time>
      </trkpt>
      <trkpt lat="48.14078" lon="6.43346">
        <ele>443.1171875</ele>
        <time>2014-04-27T09:08:40Z</time>
      </trkpt>
      <trkpt lat="48.14058" lon="6.43307">
        <ele>446.33984375</ele>
        <time>2014-04-27T09:08:48Z</time>
      </trkpt>
      <trkpt lat="48.14059" lon="6.43282">
        <ele>444.625</ele>
        <time>2014-04-27T09:08:56Z</time>
      </trkpt>
      <trkpt lat="48.14063" lon="6.4325">
        <ele>441.14453125</ele>
        <time>2014-04-27T09:09:07Z</time>
      </trkpt>
      <trkpt lat="48.14063" lon="6.43237">
        <ele>439.83984375</ele>
        <time>2014-04-27T09:09:12Z</time>
      </trkpt>
      <trkpt lat="48.14055" lon="6.43219">
        <ele>439.51171875</ele>
        <time>2014-04-27T09:09:19Z</time>
      </trkpt>
      <trkpt lat="48.14037" lon="6.43197">
        <ele>439.4921875</ele>
        <time>2014-04-27T09:09:29Z</time>
      </trkpt>
      <trkpt lat="48.1403" lon="6.43193">
        <ele>440.16015625</ele>
        <time>2014-04-27T09:09:32Z</time>
      </trkpt>
      <trkpt lat="48.14002" lon="6.43178">
        <ele>441.71875</ele>
        <time>2014-04-27T09:09:46Z</time>
      </trkpt>
      <trkpt lat="48.13975" lon="6.43172">
        <ele>442.17578125</ele>
        <time>2014-04-27T09:09:56Z</time>
      </trkpt>
      <trkpt lat="48.13961" lon="6.43171">
        <ele>442.43359375</ele>
        <time>2014-04-27T09:09:59Z</time>
      </trkpt>
      <trkpt lat="48.13911" lon="6.43143">
        <ele>438.85546875</ele>
        <time>2014-04-27T09:10:06Z</time>
      </trkpt>
      <trkpt lat="48.13904" lon="6.43113">
        <ele>435.16796875</ele>
        <time>2014-04-27T09:10:11Z</time>
      </trkpt>
      <trkpt lat="48.13912" lon="6.43096">
        <ele>431.15234375</ele>
        <time>2014-04-27T09:10:13Z</time>
      </trkpt>
      <trkpt lat="48.13927" lon="6.43011">
        <ele>417.625</ele>
        <time>2014-04-27T09:10:19Z</time>
      </trkpt>
      <trkpt lat="48.13966" lon="6.42962">
        <ele>411.828125</ele>
        <time>2014-04-27T09:10:26Z</time>
      </trkpt>
      <trkpt lat="48.13974" lon="6.42962">
        <ele>410.296875</ele>
        <time>2014-04-27T09:10:27Z</time>
      </trkpt>
      <trkpt lat="48.14009" lon="6.42962">
        <ele>404.62109375</ele>
        <time>2014-04-27T09:10:31Z</time>
      </trkpt>
      <trkpt lat="48.14043" lon="6.42973">
        <ele>400.828125</ele>
        <time>2014-04-27T09:10:36Z</time>
      </trkpt>
      <trkpt lat="48.14049" lon="6.42973">
        <ele>400.44921875</ele>
        <time>2014-04-27T09:10:37Z</time>
      </trkpt>
      <trkpt lat="48.14054" lon="6.42972">
        <ele>399.99609375</ele>
        <time>2014-04-27T09:10:38Z</time>
      </trkpt>
      <trkpt lat="48.14074" lon="6.42965">
        <ele>398.1953125</ele>
        <time>2014-04-27T09:10:41Z</time>
      </trkpt>
      <trkpt lat="48.14081" lon="6.42967">
        <ele>397.3984375</ele>
        <time>2014-04-27T09:10:42Z</time>
      </trkpt>
      <trkpt lat="48.14088" lon="6.42971">
        <ele>396.81640625</ele>
        <time>2014-04-27T09:10:43Z</time>
      </trkpt>
      <trkpt lat="48.14094" lon="6.42977">
        <ele>396.5859375</ele>
        <time>2014-04-27T09:10:44Z</time>
      </trkpt>
      <trkpt lat="48.141" lon="6.42984">
        <ele>396.51953125</ele>
        <time>2014-04-27T09:10:45Z</time>
      </trkpt>
      <trkpt lat="48.14104" lon="6.42993">
        <ele>396.6484375</ele>
        <time>2014-04-27T09:10:46Z</time>
      </trkpt>
      <trkpt lat="48.14108" lon="6.43001">
        <ele>396.8359375</ele>
        <time>2014-04-27T09:10:47Z</time>
      </trkpt>
      <trkpt lat="48.14111" lon="6.43007">
        <ele>396.90234375</ele>
        <time>2014-04-27T09:10:48Z</time>
      </trkpt>
      <trkpt lat="48.14116" lon="6.43011">
        <ele>396.734375</ele>
        <time>2014-04-27T09:10:49Z</time>
      </trkpt>
      <trkpt lat="48.1412" lon="6.43015">
        <ele>396.5625</ele>
        <time>2014-04-27T09:10:50Z</time>
      </trkpt>
      <trkpt lat="48.14124" lon="6.43021">
        <ele>396.5234375</ele>
        <time>2014-04-27T09:10:51Z</time>
      </trkpt>
      <trkpt lat="48.14126" lon="6.43026">
        <ele>396.625</ele>
        <time>2014-04-27T09:10:52Z</time>
      </trkpt>
      <trkpt lat="48.14127" lon="6.43031">
        <ele>396.97265625</ele>
        <time>2014-04-27T09:10:53Z</time>
      </trkpt>
      <trkpt lat="48.14128" lon="6.43036">
        <ele>397.38671875</ele>
        <time>2014-04-27T09:10:54Z</time>
      </trkpt>
      <trkpt lat="48.14129" lon="6.43041">
        <ele>397.83203125</ele>
        <time>2014-04-27T09:10:55Z</time>
      </trkpt>
      <trkpt lat="48.1413" lon="6.43046">
        <ele>398.203125</ele>
        <time>2014-04-27T09:10:56Z</time>
      </trkpt>
      <trkpt lat="48.14131" lon="6.4305">
        <ele>398.4609375</ele>
        <time>2014-04-27T09:10:57Z</time>
      </trkpt>
      <trkpt lat="48.14134" lon="6.43054">
        <ele>398.5</ele>
        <time>2014-04-27T09:10:58Z</time>
      </trkpt>
      <trkpt lat="48.14137" lon="6.43056">
        <ele>398.3671875</ele>
        <time>2014-04-27T09:10:59Z</time>
      </trkpt>
      <trkpt lat="48.14141" lon="6.4306">
        <ele>398.16796875</ele>
        <time>2014-04-27T09:11:00Z</time>
      </trkpt>
      <trkpt lat="48.14145" lon="6.43063">
        <ele>397.96484375</ele>
        <time>2014-04-27T09:11:01Z</time>
      </trkpt>
      <trkpt lat="48.14149" lon="6.43065">
        <ele>397.48046875</ele>
        <time>2014-04-27T09:11:02Z</time>
      </trkpt>
      <trkpt lat="48.14155" lon="6.43049">
        <ele>395.0078125</ele>
        <time>2014-04-27T09:11:07Z</time>
      </trkpt>
      <trkpt lat="48.14152" lon="6.43045">
        <ele>394.97265625</ele>
        <time>2014-04-27T09:11:08Z</time>
      </trkpt>
      <trkpt lat="48.14149" lon="6.43041">
        <ele>394.89453125</ele>
        <time>2014-04-27T09:11:09Z</time>
      </trkpt>
      <trkpt lat="48.14146" lon="6.43036">
        <ele>394.87109375</ele>
        <time>2014-04-27T09:11:10Z</time>
      </trkpt>
      <trkpt lat="48.14142" lon="6.43031">
        <ele>394.9140625</ele>
        <time>2014-04-27T09:11:11Z</time>
      </trkpt>
      <trkpt lat="48.14138" lon="6.43026">
        <ele>394.88671875</ele>
        <time>2014-04-27T09:11:12Z</time>
      </trkpt>
      <trkpt lat="48.14135" lon="6.43022">
        <ele>394.9140625</ele>
        <time>2014-04-27T09:11:13Z</time>
      </trkpt>
      <trkpt lat="48.14132" lon="6.43017">
        <ele>395.09375</ele>
        <time>2014-04-27T09:11:14Z</time>
      </trkpt>
      <trkpt lat="48.14091" lon="6.42952">
        <ele>395.82421875</ele>
        <time>2014-04-27T09:11:25Z</time>
      </trkpt>
      <trkpt lat="48.14088" lon="6.42946">
        <ele>396.0703125</ele>
        <time>2014-04-27T09:11:26Z</time>
      </trkpt>
      <trkpt lat="48.14085" lon="6.4294">
        <ele>396.43359375</ele>
        <time>2014-04-27T09:11:27Z</time>
      </trkpt>
      <trkpt lat="48.14083" lon="6.42934">
        <ele>396.984375</ele>
        <time>2014-04-27T09:11:28Z</time>
      </trkpt>
      <trkpt lat="48.14081" lon="6.42927">
        <ele>397.47265625</ele>
        <time>2014-04-27T09:11:29Z</time>
      </trkpt>
      <trkpt lat="48.1408" lon="6.4292">
        <ele>397.9296875</ele>
        <time>2014-04-27T09:11:30Z</time>
      </trkpt>
      <trkpt lat="48.14078" lon="6.42914">
        <ele>398.36328125</ele>
        <time>2014-04-27T09:11:31Z</time>
      </trkpt>
      <trkpt lat="48.14077" lon="6.42907">
        <ele>398.62890625</ele>
        <time>2014-04-27T09:11:32Z</time>
      </trkpt>
      <trkpt lat="48.14078" lon="6.42901">
        <ele>398.7421875</ele>
        <time>2014-04-27T09:11:33Z</time>
      </trkpt>
      <trkpt lat="48.14078" lon="6.42895">
        <ele>398.765625</ele>
        <time>2014-04-27T09:11:34Z</time>
      </trkpt>
      <trkpt lat="48.14079" lon="6.42889">
        <ele>398.83984375</ele>
        <time>2014-04-27T09:11:35Z</time>
      </trkpt>
      <trkpt lat="48.14079" lon="6.42883">
        <ele>399.12109375</ele>
        <time>2014-04-27T09:11:36Z</time>
      </trkpt>
      <trkpt lat="48.1408" lon="6.42865">
        <ele>400.21484375</ele>
        <time>2014-04-27T09:11:39Z</time>
      </trkpt>
      <trkpt lat="48.1408" lon="6.42858">
        <ele>400.546875</ele>
        <time>2014-04-27T09:11:40Z</time>
      </trkpt>
      <trkpt lat="48.14081" lon="6.42839">
        <ele>401.421875</ele>
        <time>2014-04-27T09:11:43Z</time>
      </trkpt>
      <trkpt lat="48.14081" lon="6.42833">
        <ele>401.71875</ele>
        <time>2014-04-27T09:11:44Z</time>
      </trkpt>
      <trkpt lat="48.14082" lon="6.42827">
        <ele>401.81640625</ele>
        <time>2014-04-27T09:11:45Z</time>
      </trkpt>
      <trkpt lat="48.14074" lon="6.42794">
        <ele>403.09765625</ele>
        <time>2014-04-27T09:11:51Z</time>
      </trkpt>
      <trkpt lat="48.14072" lon="6.42789">
        <ele>403.5</ele>
        <time>2014-04-27T09:11:52Z</time>
      </trkpt>
      <trkpt lat="48.14069" lon="6.42785">
        <ele>403.890625</ele>
        <time>2014-04-27T09:11:53Z</time>
      </trkpt>
      <trkpt lat="48.14039" lon="6.42745">
        <ele>406.8359375</ele>
        <time>2014-04-27T09:12:03Z</time>
      </trkpt>
      <trkpt lat="48.14036" lon="6.42742">
        <ele>407.01953125</ele>
        <time>2014-04-27T09:12:04Z</time>
      </trkpt>
      <trkpt lat="48.14017" lon="6.42711">
        <ele>406.90625</ele>
        <time>2014-04-27T09:12:12Z</time>
      </trkpt>
      <trkpt lat="48.14019" lon="6.42707">
        <ele>405.984375</ele>
        <time>2014-04-27T09:12:13Z</time>
      </trkpt>
      <trkpt lat="48.14022" lon="6.42706">
        <ele>405.26953125</ele>
        <time>2014-04-27T09:12:14Z</time>
      </trkpt>
      <trkpt lat="48.14024" lon="6.42705">
        <ele>404.9140625</ele>
        <time>2014-04-27T09:12:15Z</time>
      </trkpt>
      <trkpt lat="48.14026" lon="6.42707">
        <ele>404.78125</ele>
        <time>2014-04-27T09:12:16Z</time>
      </trkpt>
      <trkpt lat="48.1403" lon="6.4271">
        <ele>404.4765625</ele>
        <time>2014-04-27T09:12:17Z</time>
      </trkpt>
      <trkpt lat="48.14035" lon="6.42713">
        <ele>404.0234375</ele>
        <time>2014-04-27T09:12:18Z</time>
      </trkpt>
      <trkpt lat="48.14052" lon="6.42723">
        <ele>402.04296875</ele>
        <time>2014-04-27T09:12:21Z</time>
      </trkpt>
      <trkpt lat="48.14059" lon="6.42726">
        <ele>401</ele>
        <time>2014-04-27T09:12:22Z</time>
      </trkpt>
      <trkpt lat="48.14092" lon="6.42734">
        <ele>396.42578125</ele>
        <time>2014-04-27T09:12:26Z</time>
      </trkpt>
      <trkpt lat="48.14101" lon="6.42738">
        <ele>395.8828125</ele>
        <time>2014-04-27T09:12:27Z</time>
      </trkpt>
      <trkpt lat="48.14135" lon="6.42759">
        <ele>393.6171875</ele>
        <time>2014-04-27T09:12:31Z</time>
      </trkpt>
      <trkpt lat="48.14143" lon="6.42761">
        <ele>393.26953125</ele>
        <time>2014-04-27T09:12:32Z</time>
      </trkpt>
      <trkpt lat="48.1415" lon="6.4276">
        <ele>393.08203125</ele>
        <time>2014-04-27T09:12:33Z</time>
      </trkpt>
      <trkpt lat="48.14156" lon="6.42759">
        <ele>394.171875</ele>
        <time>2014-04-27T09:12:34Z</time>
      </trkpt>
      <trkpt lat="48.14159" lon="6.42759">
        <ele>394.8984375</ele>
        <time>2014-04-27T09:12:35Z</time>
      </trkpt>
      <trkpt lat="48.14161" lon="6.42757">
        <ele>395.47265625</ele>
        <time>2014-04-27T09:12:36Z</time>
      </trkpt>
      <trkpt lat="48.14162" lon="6.42755">
        <ele>395.87890625</ele>
        <time>2014-04-27T09:12:37Z</time>
      </trkpt>
      <trkpt lat="48.14163" lon="6.42755">
        <ele>396.07421875</ele>
        <time>2014-04-27T09:12:38Z</time>
      </trkpt>
      <trkpt lat="48.14162" lon="6.42752">
        <ele>396.17578125</ele>
        <time>2014-04-27T09:12:39Z</time>
      </trkpt>
      <trkpt lat="48.14161" lon="6.42749">
        <ele>396.16015625</ele>
        <time>2014-04-27T09:12:40Z</time>
      </trkpt>
      <trkpt lat="48.1416" lon="6.42745">
        <ele>396.25</ele>
        <time>2014-04-27T09:12:41Z</time>
      </trkpt>
      <trkpt lat="48.14143" lon="6.42703">
        <ele>398.02734375</ele>
        <time>2014-04-27T09:12:52Z</time>
      </trkpt>
      <trkpt lat="48.14135" lon="6.42662">
        <ele>399.98046875</ele>
        <time>2014-04-27T09:13:02Z</time>
      </trkpt>
      <trkpt lat="48.14122" lon="6.42615">
        <ele>401.54296875</ele>
        <time>2014-04-27T09:13:14Z</time>
      </trkpt>
      <trkpt lat="48.1411" lon="6.42563">
        <ele>404.10546875</ele>
        <time>2014-04-27T09:13:27Z</time>
      </trkpt>
      <trkpt lat="48.14099" lon="6.42516">
        <ele>406.25</ele>
        <time>2014-04-27T09:13:38Z</time>
      </trkpt>
      <trkpt lat="48.14086" lon="6.42475">
        <ele>408.2421875</ele>
        <time>2014-04-27T09:13:47Z</time>
      </trkpt>
      <trkpt lat="48.14078" lon="6.42451">
        <ele>409.24609375</ele>
        <time>2014-04-27T09:13:55Z</time>
      </trkpt>
      <trkpt lat="48.14078" lon="6.42448">
        <ele>409.44140625</ele>
        <time>2014-04-27T09:13:56Z</time>
      </trkpt>
      <trkpt lat="48.14077" lon="6.42444">
        <ele>409.609375</ele>
        <time>2014-04-27T09:13:57Z</time>
      </trkpt>
      <trkpt lat="48.14076" lon="6.42441">
        <ele>409.7421875</ele>
        <time>2014-04-27T09:13:58Z</time>
      </trkpt>
      <trkpt lat="48.14075" lon="6.42438">
        <ele>409.79296875</ele>
        <time>2014-04-27T09:13:59Z</time>
      </trkpt>
      <trkpt lat="48.14067" lon="6.42398">
        <ele>411.796875</ele>
        <time>2014-04-27T09:14:10Z</time>
      </trkpt>
      <trkpt lat="48.14067" lon="6.42394">
        <ele>412.1015625</ele>
        <time>2014-04-27T09:14:11Z</time>
      </trkpt>
      <trkpt lat="48.14066" lon="6.42391">
        <ele>412.48046875</ele>
        <time>2014-04-27T09:14:12Z</time>
      </trkpt>
      <trkpt lat="48.14049" lon="6.42354">
        <ele>415.1953125</ele>
        <time>2014-04-27T09:14:24Z</time>
      </trkpt>
      <trkpt lat="48.14026" lon="6.42333">
        <ele>415.79296875</ele>
        <time>2014-04-27T09:14:35Z</time>
      </trkpt>
      <trkpt lat="48.14009" lon="6.42298">
        <ele>419.38671875</ele>
        <time>2014-04-27T09:14:46Z</time>
      </trkpt>
      <trkpt lat="48.14006" lon="6.42287">
        <ele>420.2734375</ele>
        <time>2014-04-27T09:14:50Z</time>
      </trkpt>
      <trkpt lat="48.13996" lon="6.42251">
        <ele>423.76171875</ele>
        <time>2014-04-27T09:15:05Z</time>
      </trkpt>
      <trkpt lat="48.13993" lon="6.42238">
        <ele>424.91015625</ele>
        <time>2014-04-27T09:15:11Z</time>
      </trkpt>
      <trkpt lat="48.13993" lon="6.42237">
        <ele>424.921875</ele>
        <time>2014-04-27T09:15:12Z</time>
      </trkpt>
      <trkpt lat="48.13991" lon="6.42231">
        <ele>425.42578125</ele>
        <time>2014-04-27T09:15:15Z</time>
      </trkpt>
      <trkpt lat="48.1399" lon="6.42223">
        <ele>426.109375</ele>
        <time>2014-04-27T09:15:18Z</time>
      </trkpt>
      <trkpt lat="48.1399" lon="6.4222">
        <ele>426.328125</ele>
        <time>2014-04-27T09:15:19Z</time>
      </trkpt>
      <trkpt lat="48.13984" lon="6.42194">
        <ele>427.99609375</ele>
        <time>2014-04-27T09:15:31Z</time>
      </trkpt>
      <trkpt lat="48.13983" lon="6.42186">
        <ele>428.6640625</ele>
        <time>2014-04-27T09:15:34Z</time>
      </trkpt>
      <trkpt lat="48.13982" lon="6.42184">
        <ele>428.97265625</ele>
        <time>2014-04-27T09:15:35Z</time>
      </trkpt>
      <trkpt lat="48.13982" lon="6.4218">
        <ele>429.30859375</ele>
        <time>2014-04-27T09:15:36Z</time>
      </trkpt>
      <trkpt lat="48.1398" lon="6.42172">
        <ele>430.1953125</ele>
        <time>2014-04-27T09:15:40Z</time>
      </trkpt>
      <trkpt lat="48.13979" lon="6.42169">
        <ele>430.3203125</ele>
        <time>2014-04-27T09:15:41Z</time>
      </trkpt>
      <trkpt lat="48.13979" lon="6.42167">
        <ele>430.5234375</ele>
        <time>2014-04-27T09:15:42Z</time>
      </trkpt>
      <trkpt lat="48.13968" lon="6.42135">
        <ele>432.34765625</ele>
        <time>2014-04-27T09:15:55Z</time>
      </trkpt>
      <trkpt lat="48.13958" lon="6.42105">
        <ele>433.9375</ele>
        <time>2014-04-27T09:16:07Z</time>
      </trkpt>
      <trkpt lat="48.13944" lon="6.42074">
        <ele>433.87890625</ele>
        <time>2014-04-27T09:16:20Z</time>
      </trkpt>
      <trkpt lat="48.13934" lon="6.42033">
        <ele>434.89453125</ele>
        <time>2014-04-27T09:16:32Z</time>
      </trkpt>
      <trkpt lat="48.13927" lon="6.41996">
        <ele>435.66015625</ele>
        <time>2014-04-27T09:16:43Z</time>
      </trkpt>
      <trkpt lat="48.13923" lon="6.41944">
        <ele>437.3359375</ele>
        <time>2014-04-27T09:16:54Z</time>
      </trkpt>
      <trkpt lat="48.13924" lon="6.41903">
        <ele>438.8125</ele>
        <time>2014-04-27T09:17:02Z</time>
      </trkpt>
      <trkpt lat="48.13923" lon="6.41898">
        <ele>438.7578125</ele>
        <time>2014-04-27T09:17:03Z</time>
      </trkpt>
      <trkpt lat="48.13926" lon="6.41868">
        <ele>440.19140625</ele>
        <time>2014-04-27T09:17:10Z</time>
      </trkpt>
      <trkpt lat="48.13927" lon="6.41864">
        <ele>440.63671875</ele>
        <time>2014-04-27T09:17:11Z</time>
      </trkpt>
      <trkpt lat="48.13928" lon="6.41859">
        <ele>441.125</ele>
        <time>2014-04-27T09:17:12Z</time>
      </trkpt>
      <trkpt lat="48.1393" lon="6.41855">
        <ele>441.53515625</ele>
        <time>2014-04-27T09:17:13Z</time>
      </trkpt>
      <trkpt lat="48.13931" lon="6.41851">
        <ele>441.9609375</ele>
        <time>2014-04-27T09:17:14Z</time>
      </trkpt>
      <trkpt lat="48.13944" lon="6.41803">
        <ele>446.125</ele>
        <time>2014-04-27T09:17:26Z</time>
      </trkpt>
      <trkpt lat="48.13945" lon="6.418">
        <ele>446.375</ele>
        <time>2014-04-27T09:17:27Z</time>
      </trkpt>
      <trkpt lat="48.13946" lon="6.41797">
        <ele>446.62890625</ele>
        <time>2014-04-27T09:17:28Z</time>
      </trkpt>
      <trkpt lat="48.13947" lon="6.41794">
        <ele>446.921875</ele>
        <time>2014-04-27T09:17:29Z</time>
      </trkpt>
      <trkpt lat="48.13948" lon="6.41791">
        <ele>447.21875</ele>
        <time>2014-04-27T09:17:30Z</time>
      </trkpt>
      <trkpt lat="48.13949" lon="6.41788">
        <ele>447.5</ele>
        <time>2014-04-27T09:17:31Z</time>
      </trkpt>
      <trkpt lat="48.1395" lon="6.41784">
        <ele>447.77734375</ele>
        <time>2014-04-27T09:17:32Z</time>
      </trkpt>
      <trkpt lat="48.13951" lon="6.4178">
        <ele>448.03125</ele>
        <time>2014-04-27T09:17:33Z</time>
      </trkpt>
      <trkpt lat="48.13952" lon="6.41777">
        <ele>448.3515625</ele>
        <time>2014-04-27T09:17:34Z</time>
      </trkpt>
      <trkpt lat="48.13953" lon="6.41772">
        <ele>448.69921875</ele>
        <time>2014-04-27T09:17:35Z</time>
      </trkpt>
      <trkpt lat="48.13971" lon="6.41736">
        <ele>452.4140625</ele>
        <time>2014-04-27T09:17:47Z</time>
      </trkpt>
      <trkpt lat="48.13998" lon="6.41698">
        <ele>455.12109375</ele>
        <time>2014-04-27T09:18:01Z</time>
      </trkpt>
      <trkpt lat="48.14032" lon="6.4166">
        <ele>455.09375</ele>
        <time>2014-04-27T09:18:13Z</time>
      </trkpt>
      <trkpt lat="48.14036" lon="6.41657">
        <ele>454.84765625</ele>
        <time>2014-04-27T09:18:14Z</time>
      </trkpt>
      <trkpt lat="48.1404" lon="6.41657">
        <ele>454.69921875</ele>
        <time>2014-04-27T09:18:15Z</time>
      </trkpt>
      <trkpt lat="48.14043" lon="6.41661">
        <ele>454.69140625</ele>
        <time>2014-04-27T09:18:16Z</time>
      </trkpt>
      <trkpt lat="48.14046" lon="6.41666">
        <ele>454.875</ele>
        <time>2014-04-27T09:18:17Z</time>
      </trkpt>
      <trkpt lat="48.14048" lon="6.41671">
        <ele>455.14453125</ele>
        <time>2014-04-27T09:18:18Z</time>
      </trkpt>
      <trkpt lat="48.14051" lon="6.41676">
        <ele>455.42578125</ele>
        <time>2014-04-27T09:18:19Z</time>
      </trkpt>
      <trkpt lat="48.14053" lon="6.41682">
        <ele>455.72265625</ele>
        <time>2014-04-27T09:18:20Z</time>
      </trkpt>
      <trkpt lat="48.14063" lon="6.4171">
        <ele>457.82421875</ele>
        <time>2014-04-27T09:18:26Z</time>
      </trkpt>
      <trkpt lat="48.14066" lon="6.41714">
        <ele>458.296875</ele>
        <time>2014-04-27T09:18:27Z</time>
      </trkpt>
      <trkpt lat="48.1407" lon="6.41717">
        <ele>458.5625</ele>
        <time>2014-04-27T09:18:28Z</time>
      </trkpt>
      <trkpt lat="48.14073" lon="6.4172">
        <ele>458.73046875</ele>
        <time>2014-04-27T09:18:29Z</time>
      </trkpt>
      <trkpt lat="48.14076" lon="6.41722">
        <ele>458.828125</ele>
        <time>2014-04-27T09:18:30Z</time>
      </trkpt>
      <trkpt lat="48.14096" lon="6.41746">
        <ele>460.76953125</ele>
        <time>2014-04-27T09:18:41Z</time>
      </trkpt>
      <trkpt lat="48.14099" lon="6.41754">
        <ele>461.5703125</ele>
        <time>2014-04-27T09:18:45Z</time>
      </trkpt>
      <trkpt lat="48.14099" lon="6.41756">
        <ele>461.75390625</ele>
        <time>2014-04-27T09:18:46Z</time>
      </trkpt>
      <trkpt lat="48.141" lon="6.41758">
        <ele>461.953125</ele>
        <time>2014-04-27T09:18:47Z</time>
      </trkpt>
      <trkpt lat="48.141" lon="6.4176">
        <ele>462.19921875</ele>
        <time>2014-04-27T09:18:48Z</time>
      </trkpt>
      <trkpt lat="48.14101" lon="6.41763">
        <ele>462.50390625</ele>
        <time>2014-04-27T09:18:49Z</time>
      </trkpt>
      <trkpt lat="48.14102" lon="6.41765">
        <ele>462.77734375</ele>
        <time>2014-04-27T09:18:50Z</time>
      </trkpt>
      <trkpt lat="48.14102" lon="6.41768">
        <ele>463.0859375</ele>
        <time>2014-04-27T09:18:51Z</time>
      </trkpt>
      <trkpt lat="48.14103" lon="6.41771">
        <ele>463.39453125</ele>
        <time>2014-04-27T09:18:52Z</time>
      </trkpt>
      <trkpt lat="48.14104" lon="6.41777">
        <ele>464.1953125</ele>
        <time>2014-04-27T09:18:55Z</time>
      </trkpt>
      <trkpt lat="48.14104" lon="6.4178">
        <ele>464.4609375</ele>
        <time>2014-04-27T09:18:56Z</time>
      </trkpt>
      <trkpt lat="48.14104" lon="6.41782">
        <ele>464.71875</ele>
        <time>2014-04-27T09:18:57Z</time>
      </trkpt>
      <trkpt lat="48.14104" lon="6.41784">
        <ele>464.9375</ele>
        <time>2014-04-27T09:18:58Z</time>
      </trkpt>
      <trkpt lat="48.14104" lon="6.41786">
        <ele>465.1640625</ele>
        <time>2014-04-27T09:18:59Z</time>
      </trkpt>
      <trkpt lat="48.14103" lon="6.41789">
        <ele>465.40234375</ele>
        <time>2014-04-27T09:19:00Z</time>
      </trkpt>
      <trkpt lat="48.14104" lon="6.41791">
        <ele>465.62890625</ele>
        <time>2014-04-27T09:19:01Z</time>
      </trkpt>
      <trkpt lat="48.14104" lon="6.41793">
        <ele>465.8671875</ele>
        <time>2014-04-27T09:19:02Z</time>
      </trkpt>
      <trkpt lat="48.14103" lon="6.41795">
        <ele>466.1328125</ele>
        <time>2014-04-27T09:19:03Z</time>
      </trkpt>
      <trkpt lat="48.14103" lon="6.41798">
        <ele>466.38671875</ele>
        <time>2014-04-27T09:19:04Z</time>
      </trkpt>
      <trkpt lat="48.14103" lon="6.418">
        <ele>466.65234375</ele>
        <time>2014-04-27T09:19:05Z</time>
      </trkpt>
      <trkpt lat="48.14103" lon="6.41803">
        <ele>466.9453125</ele>
        <time>2014-04-27T09:19:06Z</time>
      </trkpt>
      <trkpt lat="48.14103" lon="6.41805">
        <ele>467.1796875</ele>
        <time>2014-04-27T09:19:07Z</time>
      </trkpt>
      <trkpt lat="48.14102" lon="6.41806">
        <ele>467.3359375</ele>
        <time>2014-04-27T09:19:08Z</time>
      </trkpt>
      <trkpt lat="48.14099" lon="6.41811">
        <ele>467.83984375</ele>
        <time>2014-04-27T09:19:11Z</time>
      </trkpt>
      <trkpt lat="48.14099" lon="6.41813">
        <ele>468.0390625</ele>
        <time>2014-04-27T09:19:12Z</time>
      </trkpt>
      <trkpt lat="48.14099" lon="6.41815">
        <ele>468.2109375</ele>
        <time>2014-04-27T09:19:13Z</time>
      </trkpt>
      <trkpt lat="48.14098" lon="6.41816">
        <ele>468.37109375</ele>
        <time>2014-04-27T09:19:14Z</time>
      </trkpt>
      <trkpt lat="48.14098" lon="6.41818">
        <ele>468.625</ele>
        <time>2014-04-27T09:19:15Z</time>
      </trkpt>
      <trkpt lat="48.14099" lon="6.41821">
        <ele>468.9453125</ele>
        <time>2014-04-27T09:19:16Z</time>
      </trkpt>
      <trkpt lat="48.14099" lon="6.41824">
        <ele>469.265625</ele>
        <time>2014-04-27T09:19:17Z</time>
      </trkpt>
      <trkpt lat="48.141" lon="6.41827">
        <ele>469.55859375</ele>
        <time>2014-04-27T09:19:18Z</time>
      </trkpt>
      <trkpt lat="48.14101" lon="6.4183">
        <ele>469.8515625</ele>
        <time>2014-04-27T09:19:19Z</time>
      </trkpt>
      <trkpt lat="48.14102" lon="6.41832">
        <ele>470.14453125</ele>
        <time>2014-04-27T09:19:20Z</time>
      </trkpt>
      <trkpt lat="48.14113" lon="6.41865">
        <ele>473.38671875</ele>
        <time>2014-04-27T09:19:30Z</time>
      </trkpt>
      <trkpt lat="48.14113" lon="6.41869">
        <ele>473.61328125</ele>
        <time>2014-04-27T09:19:31Z</time>
      </trkpt>
      <trkpt lat="48.14114" lon="6.41873">
        <ele>473.8671875</ele>
        <time>2014-04-27T09:19:32Z</time>
      </trkpt>
      <trkpt lat="48.14116" lon="6.41877">
        <ele>474.16796875</ele>
        <time>2014-04-27T09:19:33Z</time>
      </trkpt>
      <trkpt lat="48.14117" lon="6.41882">
        <ele>474.51953125</ele>
        <time>2014-04-27T09:19:34Z</time>
      </trkpt>
      <trkpt lat="48.14119" lon="6.41887">
        <ele>474.88671875</ele>
        <time>2014-04-27T09:19:35Z</time>
      </trkpt>
      <trkpt lat="48.1414" lon="6.41952">
        <ele>474.140625</ele>
        <time>2014-04-27T09:19:46Z</time>
      </trkpt>
      <trkpt lat="48.14146" lon="6.41976">
        <ele>473.25390625</ele>
        <time>2014-04-27T09:19:50Z</time>
      </trkpt>
      <trkpt lat="48.14148" lon="6.41982">
        <ele>473.12109375</ele>
        <time>2014-04-27T09:19:51Z</time>
      </trkpt>
      <trkpt lat="48.1415" lon="6.41989">
        <ele>473.0078125</ele>
        <time>2014-04-27T09:19:52Z</time>
      </trkpt>
      <trkpt lat="48.14158" lon="6.42015">
        <ele>471.78515625</ele>
        <time>2014-04-27T09:19:56Z</time>
      </trkpt>
      <trkpt lat="48.14168" lon="6.42048">
        <ele>471.71875</ele>
        <time>2014-04-27T09:20:01Z</time>
      </trkpt>
      <trkpt lat="48.1417" lon="6.42054">
        <ele>471.875</ele>
        <time>2014-04-27T09:20:02Z</time>
      </trkpt>
      <trkpt lat="48.14178" lon="6.42079">
        <ele>471.9296875</ele>
        <time>2014-04-27T09:20:06Z</time>
      </trkpt>
      <trkpt lat="48.14179" lon="6.42085">
        <ele>471.85546875</ele>
        <time>2014-04-27T09:20:07Z</time>
      </trkpt>
      <trkpt lat="48.14181" lon="6.42091">
        <ele>471.7265625</ele>
        <time>2014-04-27T09:20:08Z</time>
      </trkpt>
      <trkpt lat="48.142" lon="6.42156">
        <ele>471.18359375</ele>
        <time>2014-04-27T09:20:17Z</time>
      </trkpt>
      <trkpt lat="48.14203" lon="6.42164">
        <ele>470.9296875</ele>
        <time>2014-04-27T09:20:18Z</time>
      </trkpt>
      <trkpt lat="48.14206" lon="6.42172">
        <ele>470.703125</ele>
        <time>2014-04-27T09:20:19Z</time>
      </trkpt>
      <trkpt lat="48.14208" lon="6.42181">
        <ele>470.29296875</ele>
        <time>2014-04-27T09:20:20Z</time>
      </trkpt>
      <trkpt lat="48.14211" lon="6.4219">
        <ele>469.8671875</ele>
        <time>2014-04-27T09:20:21Z</time>
      </trkpt>
      <trkpt lat="48.14214" lon="6.422">
        <ele>469.23828125</ele>
        <time>2014-04-27T09:20:22Z</time>
      </trkpt>
      <trkpt lat="48.14252" lon="6.42323">
        <ele>462.54296875</ele>
        <time>2014-04-27T09:20:34Z</time>
      </trkpt>
      <trkpt lat="48.14274" lon="6.42392">
        <ele>461.19140625</ele>
        <time>2014-04-27T09:20:41Z</time>
      </trkpt>
      <trkpt lat="48.14289" lon="6.42436">
        <ele>462.19921875</ele>
        <time>2014-04-27T09:20:46Z</time>
      </trkpt>
      <trkpt lat="48.14296" lon="6.42462">
        <ele>461.46484375</ele>
        <time>2014-04-27T09:20:49Z</time>
      </trkpt>
      <trkpt lat="48.14304" lon="6.42487">
        <ele>461.28515625</ele>
        <time>2014-04-27T09:20:52Z</time>
      </trkpt>
      <trkpt lat="48.14325" lon="6.42557">
        <ele>460.75</ele>
        <time>2014-04-27T09:21:00Z</time>
      </trkpt>
      <trkpt lat="48.14326" lon="6.42567">
        <ele>460.48046875</ele>
        <time>2014-04-27T09:21:01Z</time>
      </trkpt>
      <trkpt lat="48.14329" lon="6.42603">
        <ele>458.2421875</ele>
        <time>2014-04-27T09:21:04Z</time>
      </trkpt>
      <trkpt lat="48.14332" lon="6.42627">
        <ele>456.51953125</ele>
        <time>2014-04-27T09:21:06Z</time>
      </trkpt>
      <trkpt lat="48.14332" lon="6.42638">
        <ele>455.62109375</ele>
        <time>2014-04-27T09:21:07Z</time>
      </trkpt>
      <trkpt lat="48.14333" lon="6.42647">
        <ele>454.70703125</ele>
        <time>2014-04-27T09:21:08Z</time>
      </trkpt>
      <trkpt lat="48.14334" lon="6.42656">
        <ele>454.0390625</ele>
        <time>2014-04-27T09:21:09Z</time>
      </trkpt>
      <trkpt lat="48.14337" lon="6.42664">
        <ele>453.68359375</ele>
        <time>2014-04-27T09:21:10Z</time>
      </trkpt>
      <trkpt lat="48.14341" lon="6.42672">
        <ele>453.33984375</ele>
        <time>2014-04-27T09:21:11Z</time>
      </trkpt>
      <trkpt lat="48.14347" lon="6.42679">
        <ele>452.63671875</ele>
        <time>2014-04-27T09:21:12Z</time>
      </trkpt>
      <trkpt lat="48.14352" lon="6.42687">
        <ele>451.11328125</ele>
        <time>2014-04-27T09:21:13Z</time>
      </trkpt>
      <trkpt lat="48.14357" lon="6.42695">
        <ele>449.62890625</ele>
        <time>2014-04-27T09:21:14Z</time>
      </trkpt>
      <trkpt lat="48.14362" lon="6.42703">
        <ele>448.1953125</ele>
        <time>2014-04-27T09:21:15Z</time>
      </trkpt>
      <trkpt lat="48.14373" lon="6.42722">
        <ele>445.6875</ele>
        <time>2014-04-27T09:21:17Z</time>
      </trkpt>
      <trkpt lat="48.14377" lon="6.42734">
        <ele>444.16796875</ele>
        <time>2014-04-27T09:21:18Z</time>
      </trkpt>
      <trkpt lat="48.1438" lon="6.42747">
        <ele>442.70703125</ele>
        <time>2014-04-27T09:21:19Z</time>
      </trkpt>
      <trkpt lat="48.14385" lon="6.42759">
        <ele>441.19921875</ele>
        <time>2014-04-27T09:21:20Z</time>
      </trkpt>
      <trkpt lat="48.1439" lon="6.4277">
        <ele>440.109375</ele>
        <time>2014-04-27T09:21:21Z</time>
      </trkpt>
      <trkpt lat="48.14394" lon="6.4278">
        <ele>439.265625</ele>
        <time>2014-04-27T09:21:22Z</time>
      </trkpt>
      <trkpt lat="48.14398" lon="6.42787">
        <ele>438.6640625</ele>
        <time>2014-04-27T09:21:23Z</time>
      </trkpt>
      <trkpt lat="48.14402" lon="6.42793">
        <ele>437.89453125</ele>
        <time>2014-04-27T09:21:24Z</time>
      </trkpt>
      <trkpt lat="48.14407" lon="6.42804">
        <ele>436.6796875</ele>
        <time>2014-04-27T09:21:26Z</time>
      </trkpt>
      <trkpt lat="48.14413" lon="6.42803">
        <ele>436.48046875</ele>
        <time>2014-04-27T09:21:28Z</time>
      </trkpt>
      <trkpt lat="48.14416" lon="6.42799">
        <ele>436.70703125</ele>
        <time>2014-04-27T09:21:29Z</time>
      </trkpt>
      <trkpt lat="48.14417" lon="6.42792">
        <ele>437.0859375</ele>
        <time>2014-04-27T09:21:30Z</time>
      </trkpt>
      <trkpt lat="48.14418" lon="6.42783">
        <ele>437.59375</ele>
        <time>2014-04-27T09:21:31Z</time>
      </trkpt>
      <trkpt lat="48.14417" lon="6.42774">
        <ele>438.15234375</ele>
        <time>2014-04-27T09:21:32Z</time>
      </trkpt>
      <trkpt lat="48.14416" lon="6.42765">
        <ele>438.515625</ele>
        <time>2014-04-27T09:21:33Z</time>
      </trkpt>
      <trkpt lat="48.14415" lon="6.42755">
        <ele>439.01953125</ele>
        <time>2014-04-27T09:21:34Z</time>
      </trkpt>
      <trkpt lat="48.14414" lon="6.42744">
        <ele>439.6015625</ele>
        <time>2014-04-27T09:21:35Z</time>
      </trkpt>
      <trkpt lat="48.14413" lon="6.42734">
        <ele>440.21875</ele>
        <time>2014-04-27T09:21:36Z</time>
      </trkpt>
      <trkpt lat="48.14411" lon="6.42709">
        <ele>441.53125</ele>
        <time>2014-04-27T09:21:39Z</time>
      </trkpt>
      <trkpt lat="48.14411" lon="6.42702">
        <ele>441.484375</ele>
        <time>2014-04-27T09:21:40Z</time>
      </trkpt>
      <trkpt lat="48.14415" lon="6.42681">
        <ele>440.98046875</ele>
        <time>2014-04-27T09:21:44Z</time>
      </trkpt>
      <trkpt lat="48.1441" lon="6.42663">
        <ele>443.390625</ele>
        <time>2014-04-27T09:21:50Z</time>
      </trkpt>
      <trkpt lat="48.14409" lon="6.42662">
        <ele>444.00390625</ele>
        <time>2014-04-27T09:21:51Z</time>
      </trkpt>
      <trkpt lat="48.14406" lon="6.42656">
        <ele>445.10546875</ele>
        <time>2014-04-27T09:21:53Z</time>
      </trkpt>
      <trkpt lat="48.14406" lon="6.42652">
        <ele>445.37109375</ele>
        <time>2014-04-27T09:21:54Z</time>
      </trkpt>
      <trkpt lat="48.14417" lon="6.42604">
        <ele>441.78515625</ele>
        <time>2014-04-27T09:22:03Z</time>
      </trkpt>
      <trkpt lat="48.14435" lon="6.42565">
        <ele>435.37890625</ele>
        <time>2014-04-27T09:22:10Z</time>
      </trkpt>
      <trkpt lat="48.1444" lon="6.42533">
        <ele>433.125</ele>
        <time>2014-04-27T09:22:15Z</time>
      </trkpt>
      <trkpt lat="48.14442" lon="6.42511">
        <ele>432.35546875</ele>
        <time>2014-04-27T09:22:18Z</time>
      </trkpt>
      <trkpt lat="48.14422" lon="6.42455">
        <ele>436.89453125</ele>
        <time>2014-04-27T09:22:27Z</time>
      </trkpt>
      <trkpt lat="48.1442" lon="6.42442">
        <ele>436.703125</ele>
        <time>2014-04-27T09:22:29Z</time>
      </trkpt>
      <trkpt lat="48.14421" lon="6.42398">
        <ele>434.8203125</ele>
        <time>2014-04-27T09:22:39Z</time>
      </trkpt>
      <trkpt lat="48.14414" lon="6.42353">
        <ele>433.84375</ele>
        <time>2014-04-27T09:22:48Z</time>
      </trkpt>
      <trkpt lat="48.14398" lon="6.42304">
        <ele>433.52734375</ele>
        <time>2014-04-27T09:22:55Z</time>
      </trkpt>
      <trkpt lat="48.1438" lon="6.42253">
        <ele>436.11328125</ele>
        <time>2014-04-27T09:23:00Z</time>
      </trkpt>
      <trkpt lat="48.1438" lon="6.42245">
        <ele>436.15625</ele>
        <time>2014-04-27T09:23:01Z</time>
      </trkpt>
      <trkpt lat="48.1438" lon="6.42239">
        <ele>435.98828125</ele>
        <time>2014-04-27T09:23:02Z</time>
      </trkpt>
      <trkpt lat="48.14381" lon="6.42234">
        <ele>435.67578125</ele>
        <time>2014-04-27T09:23:03Z</time>
      </trkpt>
      <trkpt lat="48.14383" lon="6.42231">
        <ele>435.16796875</ele>
        <time>2014-04-27T09:23:04Z</time>
      </trkpt>
      <trkpt lat="48.14386" lon="6.42229">
        <ele>434.625</ele>
        <time>2014-04-27T09:23:05Z</time>
      </trkpt>
      <trkpt lat="48.1439" lon="6.42223">
        <ele>433.515625</ele>
        <time>2014-04-27T09:23:07Z</time>
      </trkpt>
      <trkpt lat="48.14392" lon="6.42219">
        <ele>433.03515625</ele>
        <time>2014-04-27T09:23:08Z</time>
      </trkpt>
      <trkpt lat="48.14395" lon="6.42209">
        <ele>432.4296875</ele>
        <time>2014-04-27T09:23:10Z</time>
      </trkpt>
      <trkpt lat="48.14395" lon="6.42204">
        <ele>432.25</ele>
        <time>2014-04-27T09:23:11Z</time>
      </trkpt>
      <trkpt lat="48.14396" lon="6.42199">
        <ele>431.96484375</ele>
        <time>2014-04-27T09:23:12Z</time>
      </trkpt>
      <trkpt lat="48.14397" lon="6.42193">
        <ele>431.84765625</ele>
        <time>2014-04-27T09:23:13Z</time>
      </trkpt>
      <trkpt lat="48.14397" lon="6.42185">
        <ele>431.875</ele>
        <time>2014-04-27T09:23:14Z</time>
      </trkpt>
      <trkpt lat="48.14397" lon="6.4217">
        <ele>431.9609375</ele>
        <time>2014-04-27T09:23:16Z</time>
      </trkpt>
      <trkpt lat="48.14396" lon="6.42162">
        <ele>431.984375</ele>
        <time>2014-04-27T09:23:17Z</time>
      </trkpt>
      <trkpt lat="48.14395" lon="6.42154">
        <ele>431.7890625</ele>
        <time>2014-04-27T09:23:18Z</time>
      </trkpt>
      <trkpt lat="48.1439" lon="6.4213">
        <ele>431.5703125</ele>
        <time>2014-04-27T09:23:21Z</time>
      </trkpt>
      <trkpt lat="48.14376" lon="6.42084">
        <ele>429.47265625</ele>
        <time>2014-04-27T09:23:26Z</time>
      </trkpt>
      <trkpt lat="48.14372" lon="6.42076">
        <ele>429.17578125</ele>
        <time>2014-04-27T09:23:27Z</time>
      </trkpt>
      <trkpt lat="48.14365" lon="6.42061">
        <ele>429.2265625</ele>
        <time>2014-04-27T09:23:29Z</time>
      </trkpt>
      <trkpt lat="48.14361" lon="6.42055">
        <ele>429.48828125</ele>
        <time>2014-04-27T09:23:30Z</time>
      </trkpt>
      <trkpt lat="48.14356" lon="6.42049">
        <ele>429.5859375</ele>
        <time>2014-04-27T09:23:31Z</time>
      </trkpt>
      <trkpt lat="48.14347" lon="6.4204">
        <ele>429.828125</ele>
        <time>2014-04-27T09:23:33Z</time>
      </trkpt>
      <trkpt lat="48.14343" lon="6.42036">
        <ele>430.28125</ele>
        <time>2014-04-27T09:23:34Z</time>
      </trkpt>
      <trkpt lat="48.14338" lon="6.42033">
        <ele>431.09765625</ele>
        <time>2014-04-27T09:23:35Z</time>
      </trkpt>
      <trkpt lat="48.14309" lon="6.42017">
        <ele>436.421875</ele>
        <time>2014-04-27T09:23:41Z</time>
      </trkpt>
      <trkpt lat="48.143" lon="6.42008">
        <ele>437.4921875</ele>
        <time>2014-04-27T09:23:43Z</time>
      </trkpt>
      <trkpt lat="48.14296" lon="6.42002">
        <ele>437.5625</ele>
        <time>2014-04-27T09:23:44Z</time>
      </trkpt>
      <trkpt lat="48.14292" lon="6.41995">
        <ele>437.4921875</ele>
        <time>2014-04-27T09:23:45Z</time>
      </trkpt>
      <trkpt lat="48.14286" lon="6.4198">
        <ele>437.43359375</ele>
        <time>2014-04-27T09:23:47Z</time>
      </trkpt>
      <trkpt lat="48.14283" lon="6.41972">
        <ele>437.08984375</ele>
        <time>2014-04-27T09:23:48Z</time>
      </trkpt>
      <trkpt lat="48.1428" lon="6.41964">
        <ele>437.671875</ele>
        <time>2014-04-27T09:23:49Z</time>
      </trkpt>
      <trkpt lat="48.14277" lon="6.41958">
        <ele>438.484375</ele>
        <time>2014-04-27T09:23:50Z</time>
      </trkpt>
      <trkpt lat="48.14276" lon="6.41953">
        <ele>438.99609375</ele>
        <time>2014-04-27T09:23:51Z</time>
      </trkpt>
      <trkpt lat="48.14276" lon="6.41947">
        <ele>439.12109375</ele>
        <time>2014-04-27T09:23:52Z</time>
      </trkpt>
      <trkpt lat="48.14276" lon="6.41943">
        <ele>439.1796875</ele>
        <time>2014-04-27T09:23:53Z</time>
      </trkpt>
      <trkpt lat="48.14276" lon="6.4194">
        <ele>439.38671875</ele>
        <time>2014-04-27T09:23:54Z</time>
      </trkpt>
      <trkpt lat="48.14276" lon="6.41936">
        <ele>439.61328125</ele>
        <time>2014-04-27T09:23:55Z</time>
      </trkpt>
      <trkpt lat="48.14276" lon="6.41934">
        <ele>439.66796875</ele>
        <time>2014-04-27T09:23:56Z</time>
      </trkpt>
      <trkpt lat="48.14276" lon="6.41933">
        <ele>439.6328125</ele>
        <time>2014-04-27T09:23:57Z</time>
      </trkpt>
      <trkpt lat="48.14276" lon="6.4193">
        <ele>439.71484375</ele>
        <time>2014-04-27T09:23:58Z</time>
      </trkpt>
      <trkpt lat="48.14276" lon="6.41927">
        <ele>439.83984375</ele>
        <time>2014-04-27T09:23:59Z</time>
      </trkpt>
      <trkpt lat="48.14277" lon="6.41923">
        <ele>439.8125</ele>
        <time>2014-04-27T09:24:00Z</time>
      </trkpt>
      <trkpt lat="48.14282" lon="6.41908">
        <ele>439.25</ele>
        <time>2014-04-27T09:24:04Z</time>
      </trkpt>
      <trkpt lat="48.14282" lon="6.41905">
        <ele>439.390625</ele>
        <time>2014-04-27T09:24:05Z</time>
      </trkpt>
      <trkpt lat="48.14283" lon="6.41902">
        <ele>439.3984375</ele>
        <time>2014-04-27T09:24:06Z</time>
      </trkpt>
      <trkpt lat="48.14285" lon="6.41891">
        <ele>439.90234375</ele>
        <time>2014-04-27T09:24:11Z</time>
      </trkpt>
      <trkpt lat="48.14284" lon="6.41885">
        <ele>440.796875</ele>
        <time>2014-04-27T09:24:14Z</time>
      </trkpt>
      <trkpt lat="48.14283" lon="6.41884">
        <ele>441.08984375</ele>
        <time>2014-04-27T09:24:15Z</time>
      </trkpt>
      <trkpt lat="48.14283" lon="6.41882">
        <ele>441.453125</ele>
        <time>2014-04-27T09:24:16Z</time>
      </trkpt>
      <trkpt lat="48.14282" lon="6.4188">
        <ele>441.765625</ele>
        <time>2014-04-27T09:24:17Z</time>
      </trkpt>
      <trkpt lat="48.14282" lon="6.41877">
        <ele>441.95703125</ele>
        <time>2014-04-27T09:24:18Z</time>
      </trkpt>
      <trkpt lat="48.14284" lon="6.41867">
        <ele>442.09375</ele>
        <time>2014-04-27T09:24:22Z</time>
      </trkpt>
      <trkpt lat="48.14285" lon="6.41865">
        <ele>441.984375</ele>
        <time>2014-04-27T09:24:23Z</time>
      </trkpt>
      <trkpt lat="48.14286" lon="6.41863">
        <ele>441.88671875</ele>
        <time>2014-04-27T09:24:24Z</time>
      </trkpt>
      <trkpt lat="48.14288" lon="6.41839">
        <ele>442.6640625</ele>
        <time>2014-04-27T09:24:35Z</time>
      </trkpt>
      <trkpt lat="48.14287" lon="6.41818">
        <ele>443.20703125</ele>
        <time>2014-04-27T09:24:46Z</time>
      </trkpt>
      <trkpt lat="48.14285" lon="6.41811">
        <ele>443.6640625</ele>
        <time>2014-04-27T09:24:49Z</time>
      </trkpt>
      <trkpt lat="48.14284" lon="6.4181">
        <ele>443.75</ele>
        <time>2014-04-27T09:24:50Z</time>
      </trkpt>
      <trkpt lat="48.14283" lon="6.41806">
        <ele>443.9921875</ele>
        <time>2014-04-27T09:24:52Z</time>
      </trkpt>
      <trkpt lat="48.14283" lon="6.41802">
        <ele>443.75</ele>
        <time>2014-04-27T09:24:53Z</time>
      </trkpt>
      <trkpt lat="48.14283" lon="6.41798">
        <ele>443.46484375</ele>
        <time>2014-04-27T09:24:54Z</time>
      </trkpt>
      <trkpt lat="48.14282" lon="6.41795">
        <ele>443.44140625</ele>
        <time>2014-04-27T09:24:55Z</time>
      </trkpt>
      <trkpt lat="48.14282" lon="6.41792">
        <ele>443.3203125</ele>
        <time>2014-04-27T09:24:56Z</time>
      </trkpt>
      <trkpt lat="48.14281" lon="6.41789">
        <ele>443.34765625</ele>
        <time>2014-04-27T09:24:57Z</time>
      </trkpt>
      <trkpt lat="48.1428" lon="6.41786">
        <ele>443.44921875</ele>
        <time>2014-04-27T09:24:58Z</time>
      </trkpt>
      <trkpt lat="48.14279" lon="6.41782">
        <ele>443.5</ele>
        <time>2014-04-27T09:24:59Z</time>
      </trkpt>
      <trkpt lat="48.14277" lon="6.41779">
        <ele>443.59375</ele>
        <time>2014-04-27T09:25:00Z</time>
      </trkpt>
      <trkpt lat="48.14276" lon="6.41776">
        <ele>443.65234375</ele>
        <time>2014-04-27T09:25:01Z</time>
      </trkpt>
      <trkpt lat="48.14275" lon="6.41773">
        <ele>443.37890625</ele>
        <time>2014-04-27T09:25:02Z</time>
      </trkpt>
      <trkpt lat="48.14274" lon="6.41769">
        <ele>443.19140625</ele>
        <time>2014-04-27T09:25:03Z</time>
      </trkpt>
      <trkpt lat="48.14249" lon="6.41724">
        <ele>441.8671875</ele>
        <time>2014-04-27T09:25:15Z</time>
      </trkpt>
      <trkpt lat="48.14225" lon="6.41692">
        <ele>440.12890625</ele>
        <time>2014-04-27T09:25:24Z</time>
      </trkpt>
      <trkpt lat="48.14215" lon="6.41676">
        <ele>437.8203125</ele>
        <time>2014-04-27T09:25:26Z</time>
      </trkpt>
      <trkpt lat="48.14208" lon="6.41669">
        <ele>436.73828125</ele>
        <time>2014-04-27T09:25:27Z</time>
      </trkpt>
      <trkpt lat="48.14201" lon="6.41662">
        <ele>436.09765625</ele>
        <time>2014-04-27T09:25:28Z</time>
      </trkpt>
      <trkpt lat="48.14194" lon="6.41658">
        <ele>436.2265625</ele>
        <time>2014-04-27T09:25:29Z</time>
      </trkpt>
      <trkpt lat="48.14187" lon="6.41655">
        <ele>436.59765625</ele>
        <time>2014-04-27T09:25:30Z</time>
      </trkpt>
      <trkpt lat="48.14179" lon="6.41651">
        <ele>436.78515625</ele>
        <time>2014-04-27T09:25:31Z</time>
      </trkpt>
      <trkpt lat="48.14164" lon="6.41639">
        <ele>436.90234375</ele>
        <time>2014-04-27T09:25:33Z</time>
      </trkpt>
      <trkpt lat="48.14157" lon="6.41631">
        <ele>437.21875</ele>
        <time>2014-04-27T09:25:34Z</time>
      </trkpt>
      <trkpt lat="48.1415" lon="6.41621">
        <ele>437.3515625</ele>
        <time>2014-04-27T09:25:35Z</time>
      </trkpt>
      <trkpt lat="48.14147" lon="6.41609">
        <ele>436.8984375</ele>
        <time>2014-04-27T09:25:36Z</time>
      </trkpt>
      <trkpt lat="48.14145" lon="6.41598">
        <ele>436.9296875</ele>
        <time>2014-04-27T09:25:37Z</time>
      </trkpt>
      <trkpt lat="48.14144" lon="6.41585">
        <ele>436.5625</ele>
        <time>2014-04-27T09:25:38Z</time>
      </trkpt>
      <trkpt lat="48.14144" lon="6.41574">
        <ele>436.36328125</ele>
        <time>2014-04-27T09:25:39Z</time>
      </trkpt>
      <trkpt lat="48.14145" lon="6.41563">
        <ele>436.15234375</ele>
        <time>2014-04-27T09:25:40Z</time>
      </trkpt>
      <trkpt lat="48.14146" lon="6.41552">
        <ele>435.85546875</ele>
        <time>2014-04-27T09:25:41Z</time>
      </trkpt>
      <trkpt lat="48.14147" lon="6.41544">
        <ele>435.9609375</ele>
        <time>2014-04-27T09:25:42Z</time>
      </trkpt>
      <trkpt lat="48.14148" lon="6.41536">
        <ele>436.14453125</ele>
        <time>2014-04-27T09:25:43Z</time>
      </trkpt>
      <trkpt lat="48.14148" lon="6.41528">
        <ele>436.33203125</ele>
        <time>2014-04-27T09:25:44Z</time>
      </trkpt>
      <trkpt lat="48.14153" lon="6.41489">
        <ele>435.6640625</ele>
        <time>2014-04-27T09:25:49Z</time>
      </trkpt>
      <trkpt lat="48.14157" lon="6.4147">
        <ele>435.49609375</ele>
        <time>2014-04-27T09:25:51Z</time>
      </trkpt>
      <trkpt lat="48.14161" lon="6.41459">
        <ele>435.38671875</ele>
        <time>2014-04-27T09:25:52Z</time>
      </trkpt>
      <trkpt lat="48.14171" lon="6.41439">
        <ele>434.8203125</ele>
        <time>2014-04-27T09:25:54Z</time>
      </trkpt>
      <trkpt lat="48.14177" lon="6.41429">
        <ele>434.57421875</ele>
        <time>2014-04-27T09:25:55Z</time>
      </trkpt>
      <trkpt lat="48.14183" lon="6.41421">
        <ele>434.5234375</ele>
        <time>2014-04-27T09:25:56Z</time>
      </trkpt>
      <trkpt lat="48.1419" lon="6.41415">
        <ele>434.2265625</ele>
        <time>2014-04-27T09:25:57Z</time>
      </trkpt>
      <trkpt lat="48.14197" lon="6.41411">
        <ele>433.828125</ele>
        <time>2014-04-27T09:25:58Z</time>
      </trkpt>
      <trkpt lat="48.14203" lon="6.41407">
        <ele>433.5</ele>
        <time>2014-04-27T09:25:59Z</time>
      </trkpt>
      <trkpt lat="48.14237" lon="6.41381">
        <ele>430.94921875</ele>
        <time>2014-04-27T09:26:06Z</time>
      </trkpt>
      <trkpt lat="48.14241" lon="6.41374">
        <ele>430.69921875</ele>
        <time>2014-04-27T09:26:07Z</time>
      </trkpt>
      <trkpt lat="48.14245" lon="6.41367">
        <ele>430.54296875</ele>
        <time>2014-04-27T09:26:08Z</time>
      </trkpt>
      <trkpt lat="48.1428" lon="6.4128">
        <ele>425.02734375</ele>
        <time>2014-04-27T09:26:17Z</time>
      </trkpt>
      <trkpt lat="48.14284" lon="6.41257">
        <ele>424.01171875</ele>
        <time>2014-04-27T09:26:19Z</time>
      </trkpt>
      <trkpt lat="48.14291" lon="6.41222">
        <ele>421.33984375</ele>
        <time>2014-04-27T09:26:22Z</time>
      </trkpt>
      <trkpt lat="48.14292" lon="6.41208">
        <ele>420.4921875</ele>
        <time>2014-04-27T09:26:23Z</time>
      </trkpt>
      <trkpt lat="48.14292" lon="6.41195">
        <ele>420.0703125</ele>
        <time>2014-04-27T09:26:24Z</time>
      </trkpt>
      <trkpt lat="48.14284" lon="6.41066">
        <ele>417.6484375</ele>
        <time>2014-04-27T09:26:35Z</time>
      </trkpt>
      <trkpt lat="48.14282" lon="6.41049">
        <ele>417.10546875</ele>
        <time>2014-04-27T09:26:37Z</time>
      </trkpt>
      <trkpt lat="48.14271" lon="6.40952">
        <ele>411.04296875</ele>
        <time>2014-04-27T09:26:47Z</time>
      </trkpt>
      <trkpt lat="48.14272" lon="6.40946">
        <ele>410.49609375</ele>
        <time>2014-04-27T09:26:48Z</time>
      </trkpt>
      <trkpt lat="48.14273" lon="6.40942">
        <ele>410.09765625</ele>
        <time>2014-04-27T09:26:49Z</time>
      </trkpt>
      <trkpt lat="48.14275" lon="6.4094">
        <ele>409.93359375</ele>
        <time>2014-04-27T09:26:50Z</time>
      </trkpt>
      <trkpt lat="48.14278" lon="6.40941">
        <ele>409.78125</ele>
        <time>2014-04-27T09:26:51Z</time>
      </trkpt>
      <trkpt lat="48.1428" lon="6.40942">
        <ele>409.66796875</ele>
        <time>2014-04-27T09:26:52Z</time>
      </trkpt>
      <trkpt lat="48.14281" lon="6.40944">
        <ele>409.62890625</ele>
        <time>2014-04-27T09:26:53Z</time>
      </trkpt>
      <trkpt lat="48.14283" lon="6.40945">
        <ele>409.515625</ele>
        <time>2014-04-27T09:26:54Z</time>
      </trkpt>
      <trkpt lat="48.14283" lon="6.40944">
        <ele>409.48828125</ele>
        <time>2014-04-27T09:27:03Z</time>
      </trkpt>
      <trkpt lat="48.14281" lon="6.40945">
        <ele>409.67578125</ele>
        <time>2014-04-27T09:27:20Z</time>
      </trkpt>
      <trkpt lat="48.14284" lon="6.40942">
        <ele>409.359375</ele>
        <time>2014-04-27T09:27:39Z</time>
      </trkpt>
      <trkpt lat="48.14285" lon="6.40942">
        <ele>409.27734375</ele>
        <time>2014-04-27T09:27:58Z</time>
      </trkpt>
      <trkpt lat="48.14285" lon="6.40942">
        <ele>409.2578125</ele>
        <time>2014-04-27T09:28:12Z</time>
      </trkpt>
      <trkpt lat="48.14286" lon="6.40942">
        <ele>409.1953125</ele>
        <time>2014-04-27T09:28:34Z</time>
      </trkpt>
      <trkpt lat="48.14287" lon="6.40941">
        <ele>409.16015625</ele>
        <time>2014-04-27T09:28:53Z</time>
      </trkpt>
      <trkpt lat="48.14287" lon="6.4094">
        <ele>409.1015625</ele>
        <time>2014-04-27T09:29:06Z</time>
      </trkpt>
      <trkpt lat="48.14289" lon="6.40939">
        <ele>409.0078125</ele>
        <time>2014-04-27T09:29:25Z</time>
      </trkpt>
      <trkpt lat="48.14289" lon="6.40938">
        <ele>409.05859375</ele>
        <time>2014-04-27T09:29:43Z</time>
      </trkpt>
      <trkpt lat="48.14289" lon="6.40938">
        <ele>409.0234375</ele>
        <time>2014-04-27T09:29:58Z</time>
      </trkpt>
      <trkpt lat="48.14286" lon="6.40936">
        <ele>409.15625</ele>
        <time>2014-04-27T09:30:18Z</time>
      </trkpt>
      <trkpt lat="48.14285" lon="6.40937">
        <ele>409.2265625</ele>
        <time>2014-04-27T09:30:45Z</time>
      </trkpt>
      <trkpt lat="48.14285" lon="6.40936">
        <ele>409.26171875</ele>
        <time>2014-04-27T09:31:00Z</time>
      </trkpt>
      <trkpt lat="48.14285" lon="6.40936">
        <ele>409.26171875</ele>
        <time>2014-04-27T09:31:16Z</time>
      </trkpt>
      <trkpt lat="48.14287" lon="6.40939">
        <ele>409.12890625</ele>
        <time>2014-04-27T09:31:33Z</time>
      </trkpt>
      <trkpt lat="48.14287" lon="6.4094">
        <ele>409.12109375</ele>
        <time>2014-04-27T09:31:52Z</time>
      </trkpt>
      <trkpt lat="48.14287" lon="6.4094">
        <ele>409.12109375</ele>
        <time>2014-04-27T09:32:07Z</time>
      </trkpt>
      <trkpt lat="48.14285" lon="6.40943">
        <ele>409.3125</ele>
        <time>2014-04-27T09:32:28Z</time>
      </trkpt>
      <trkpt lat="48.14283" lon="6.40945">
        <ele>409.48046875</ele>
        <time>2014-04-27T09:32:52Z</time>
      </trkpt>
      <trkpt lat="48.14283" lon="6.40947">
        <ele>409.5859375</ele>
        <time>2014-04-27T09:33:17Z</time>
      </trkpt>
      <trkpt lat="48.14285" lon="6.40946">
        <ele>409.453125</ele>
        <time>2014-04-27T09:33:32Z</time>
      </trkpt>
      <trkpt lat="48.14285" lon="6.40946">
        <ele>409.41015625</ele>
        <time>2014-04-27T09:33:41Z</time>
      </trkpt>
      <trkpt lat="48.14284" lon="6.40945">
        <ele>409.47265625</ele>
        <time>2014-04-27T09:33:43Z</time>
      </trkpt>
      <trkpt lat="48.14282" lon="6.4094">
        <ele>409.49609375</ele>
        <time>2014-04-27T09:33:47Z</time>
      </trkpt>
      <trkpt lat="48.14275" lon="6.40941">
        <ele>409.9453125</ele>
        <time>2014-04-27T09:33:54Z</time>
      </trkpt>
      <trkpt lat="48.14271" lon="6.40941">
        <ele>410.23828125</ele>
        <time>2014-04-27T09:33:59Z</time>
      </trkpt>
      <trkpt lat="48.14255" lon="6.40946">
        <ele>412.04296875</ele>
        <time>2014-04-27T09:34:10Z</time>
      </trkpt>
      <trkpt lat="48.14244" lon="6.40951">
        <ele>413.703125</ele>
        <time>2014-04-27T09:34:18Z</time>
      </trkpt>
      <trkpt lat="48.14226" lon="6.4096">
        <ele>416.36328125</ele>
        <time>2014-04-27T09:34:31Z</time>
      </trkpt>
      <trkpt lat="48.14204" lon="6.40964">
        <ele>418.328125</ele>
        <time>2014-04-27T09:34:45Z</time>
      </trkpt>
      <trkpt lat="48.14176" lon="6.40967">
        <ele>419.80859375</ele>
        <time>2014-04-27T09:34:56Z</time>
      </trkpt>
      <trkpt lat="48.14149" lon="6.40975">
        <ele>421.6328125</ele>
        <time>2014-04-27T09:35:06Z</time>
      </trkpt>
      <trkpt lat="48.14141" lon="6.40985">
        <ele>423.625</ele>
        <time>2014-04-27T09:35:13Z</time>
      </trkpt>
      <trkpt lat="48.14135" lon="6.4099">
        <ele>424.83203125</ele>
        <time>2014-04-27T09:35:17Z</time>
      </trkpt>
      <trkpt lat="48.14132" lon="6.40993">
        <ele>425.44921875</ele>
        <time>2014-04-27T09:35:19Z</time>
      </trkpt>
      <trkpt lat="48.14123" lon="6.41004">
        <ele>427.35546875</ele>
        <time>2014-04-27T09:35:28Z</time>
      </trkpt>
      <trkpt lat="48.14119" lon="6.41007">
        <ele>428.0625</ele>
        <time>2014-04-27T09:35:31Z</time>
      </trkpt>
      <trkpt lat="48.14113" lon="6.41019">
        <ele>429.61328125</ele>
        <time>2014-04-27T09:35:39Z</time>
      </trkpt>
      <trkpt lat="48.14103" lon="6.41029">
        <ele>431.29296875</ele>
        <time>2014-04-27T09:35:45Z</time>
      </trkpt>
      <trkpt lat="48.141" lon="6.41033">
        <ele>431.96484375</ele>
        <time>2014-04-27T09:35:47Z</time>
      </trkpt>
      <trkpt lat="48.14093" lon="6.41039">
        <ele>433.19140625</ele>
        <time>2014-04-27T09:35:51Z</time>
      </trkpt>
      <trkpt lat="48.14073" lon="6.41059">
        <ele>438.06640625</ele>
        <time>2014-04-27T09:36:04Z</time>
      </trkpt>
      <trkpt lat="48.14066" lon="6.41065">
        <ele>439.51171875</ele>
        <time>2014-04-27T09:36:09Z</time>
      </trkpt>
      <trkpt lat="48.14056" lon="6.41081">
        <ele>441.5625</ele>
        <time>2014-04-27T09:36:20Z</time>
      </trkpt>
      <trkpt lat="48.14046" lon="6.41091">
        <ele>443.14453125</ele>
        <time>2014-04-27T09:36:30Z</time>
      </trkpt>
      <trkpt lat="48.14041" lon="6.41097">
        <ele>443.8203125</ele>
        <time>2014-04-27T09:36:35Z</time>
      </trkpt>
      <trkpt lat="48.14034" lon="6.41101">
        <ele>444.3984375</ele>
        <time>2014-04-27T09:36:39Z</time>
      </trkpt>
      <trkpt lat="48.14017" lon="6.41124">
        <ele>445.69140625</ele>
        <time>2014-04-27T09:36:56Z</time>
      </trkpt>
      <trkpt lat="48.13994" lon="6.41149">
        <ele>446.15625</ele>
        <time>2014-04-27T09:37:07Z</time>
      </trkpt>
      <trkpt lat="48.13985" lon="6.41163">
        <ele>446.0546875</ele>
        <time>2014-04-27T09:37:10Z</time>
      </trkpt>
      <trkpt lat="48.13982" lon="6.41167">
        <ele>445.9453125</ele>
        <time>2014-04-27T09:37:11Z</time>
      </trkpt>
      <trkpt lat="48.13978" lon="6.41171">
        <ele>445.8125</ele>
        <time>2014-04-27T09:37:12Z</time>
      </trkpt>
      <trkpt lat="48.1397" lon="6.4118">
        <ele>445.52734375</ele>
        <time>2014-04-27T09:37:14Z</time>
      </trkpt>
      <trkpt lat="48.13952" lon="6.412">
        <ele>444.49609375</ele>
        <time>2014-04-27T09:37:18Z</time>
      </trkpt>
      <trkpt lat="48.13947" lon="6.41207">
        <ele>444.015625</ele>
        <time>2014-04-27T09:37:19Z</time>
      </trkpt>
      <trkpt lat="48.13942" lon="6.41214">
        <ele>443.609375</ele>
        <time>2014-04-27T09:37:20Z</time>
      </trkpt>
      <trkpt lat="48.13936" lon="6.4122">
        <ele>443.2890625</ele>
        <time>2014-04-27T09:37:21Z</time>
      </trkpt>
      <trkpt lat="48.1393" lon="6.41226">
        <ele>442.87109375</ele>
        <time>2014-04-27T09:37:22Z</time>
      </trkpt>
      <trkpt lat="48.13907" lon="6.41249">
        <ele>440.4765625</ele>
        <time>2014-04-27T09:37:27Z</time>
      </trkpt>
      <trkpt lat="48.13891" lon="6.41273">
        <ele>438.4453125</ele>
        <time>2014-04-27T09:37:31Z</time>
      </trkpt>
      <trkpt lat="48.13886" lon="6.41278">
        <ele>437.8515625</ele>
        <time>2014-04-27T09:37:32Z</time>
      </trkpt>
      <trkpt lat="48.13826" lon="6.41353">
        <ele>432.67578125</ele>
        <time>2014-04-27T09:37:42Z</time>
      </trkpt>
      <trkpt lat="48.13736" lon="6.41462">
        <ele>427.6875</ele>
        <time>2014-04-27T09:37:56Z</time>
      </trkpt>
      <trkpt lat="48.1373" lon="6.41464">
        <ele>427.1171875</ele>
        <time>2014-04-27T09:37:57Z</time>
      </trkpt>
      <trkpt lat="48.13722" lon="6.41465">
        <ele>426.3671875</ele>
        <time>2014-04-27T09:37:58Z</time>
      </trkpt>
      <trkpt lat="48.13715" lon="6.41464">
        <ele>425.4453125</ele>
        <time>2014-04-27T09:37:59Z</time>
      </trkpt>
      <trkpt lat="48.13707" lon="6.41462">
        <ele>424.5</ele>
        <time>2014-04-27T09:38:00Z</time>
      </trkpt>
      <trkpt lat="48.13698" lon="6.41462">
        <ele>423.3671875</ele>
        <time>2014-04-27T09:38:01Z</time>
      </trkpt>
      <trkpt lat="48.1369" lon="6.41463">
        <ele>422.30078125</ele>
        <time>2014-04-27T09:38:02Z</time>
      </trkpt>
      <trkpt lat="48.13675" lon="6.41464">
        <ele>420.30078125</ele>
        <time>2014-04-27T09:38:04Z</time>
      </trkpt>
      <trkpt lat="48.13667" lon="6.41462">
        <ele>419.1484375</ele>
        <time>2014-04-27T09:38:05Z</time>
      </trkpt>
      <trkpt lat="48.13645" lon="6.41456">
        <ele>415.73828125</ele>
        <time>2014-04-27T09:38:08Z</time>
      </trkpt>
      <trkpt lat="48.13618" lon="6.41455">
        <ele>412.765625</ele>
        <time>2014-04-27T09:38:14Z</time>
      </trkpt>
      <trkpt lat="48.13614" lon="6.41454">
        <ele>412.51953125</ele>
        <time>2014-04-27T09:38:15Z</time>
      </trkpt>
      <trkpt lat="48.13611" lon="6.41451">
        <ele>412.2890625</ele>
        <time>2014-04-27T09:38:16Z</time>
      </trkpt>
      <trkpt lat="48.13608" lon="6.41447">
        <ele>412.0546875</ele>
        <time>2014-04-27T09:38:17Z</time>
      </trkpt>
      <trkpt lat="48.13608" lon="6.4144">
        <ele>411.984375</ele>
        <time>2014-04-27T09:38:18Z</time>
      </trkpt>
      <trkpt lat="48.1361" lon="6.41434">
        <ele>412.203125</ele>
        <time>2014-04-27T09:38:19Z</time>
      </trkpt>
      <trkpt lat="48.13612" lon="6.41429">
        <ele>412.40625</ele>
        <time>2014-04-27T09:38:20Z</time>
      </trkpt>
      <trkpt lat="48.13613" lon="6.41423">
        <ele>412.55859375</ele>
        <time>2014-04-27T09:38:21Z</time>
      </trkpt>
      <trkpt lat="48.13614" lon="6.41416">
        <ele>412.67578125</ele>
        <time>2014-04-27T09:38:22Z</time>
      </trkpt>
      <trkpt lat="48.13615" lon="6.4141">
        <ele>412.88671875</ele>
        <time>2014-04-27T09:38:23Z</time>
      </trkpt>
      <trkpt lat="48.13616" lon="6.41404">
        <ele>413.15625</ele>
        <time>2014-04-27T09:38:24Z</time>
      </trkpt>
      <trkpt lat="48.13617" lon="6.41397">
        <ele>413.421875</ele>
        <time>2014-04-27T09:38:25Z</time>
      </trkpt>
      <trkpt lat="48.13618" lon="6.41391">
        <ele>413.67578125</ele>
        <time>2014-04-27T09:38:26Z</time>
      </trkpt>
      <trkpt lat="48.1362" lon="6.41373">
        <ele>414.41796875</ele>
        <time>2014-04-27T09:38:29Z</time>
      </trkpt>
      <trkpt lat="48.13619" lon="6.41289">
        <ele>416.76953125</ele>
        <time>2014-04-27T09:38:43Z</time>
      </trkpt>
      <trkpt lat="48.13623" lon="6.41194">
        <ele>416.109375</ele>
        <time>2014-04-27T09:38:59Z</time>
      </trkpt>
      <trkpt lat="48.13643" lon="6.41124">
        <ele>417.84375</ele>
        <time>2014-04-27T09:39:12Z</time>
      </trkpt>
      <trkpt lat="48.1366" lon="6.41068">
        <ele>419.2421875</ele>
        <time>2014-04-27T09:39:23Z</time>
      </trkpt>
      <trkpt lat="48.13677" lon="6.41003">
        <ele>419.12109375</ele>
        <time>2014-04-27T09:39:35Z</time>
      </trkpt>
      <trkpt lat="48.13682" lon="6.40984">
        <ele>419.3671875</ele>
        <time>2014-04-27T09:39:38Z</time>
      </trkpt>
      <trkpt lat="48.13683" lon="6.40977">
        <ele>419.4921875</ele>
        <time>2014-04-27T09:39:39Z</time>
      </trkpt>
      <trkpt lat="48.13686" lon="6.40944">
        <ele>420.55859375</ele>
        <time>2014-04-27T09:39:44Z</time>
      </trkpt>
      <trkpt lat="48.13686" lon="6.40937">
        <ele>420.62890625</ele>
        <time>2014-04-27T09:39:45Z</time>
      </trkpt>
      <trkpt lat="48.13685" lon="6.40902">
        <ele>421.21484375</ele>
        <time>2014-04-27T09:39:50Z</time>
      </trkpt>
      <trkpt lat="48.13671" lon="6.40781">
        <ele>422.375</ele>
        <time>2014-04-27T09:40:08Z</time>
      </trkpt>
      <trkpt lat="48.13668" lon="6.40726">
        <ele>422.63671875</ele>
        <time>2014-04-27T09:40:16Z</time>
      </trkpt>
      <trkpt lat="48.13666" lon="6.4072">
        <ele>422.5546875</ele>
        <time>2014-04-27T09:40:17Z</time>
      </trkpt>
      <trkpt lat="48.13662" lon="6.40714">
        <ele>422.42578125</ele>
        <time>2014-04-27T09:40:18Z</time>
      </trkpt>
      <trkpt lat="48.13658" lon="6.40711">
        <ele>422.2578125</ele>
        <time>2014-04-27T09:40:19Z</time>
      </trkpt>
      <trkpt lat="48.13652" lon="6.40709">
        <ele>422.06640625</ele>
        <time>2014-04-27T09:40:20Z</time>
      </trkpt>
      <trkpt lat="48.13647" lon="6.40708">
        <ele>422.0625</ele>
        <time>2014-04-27T09:40:21Z</time>
      </trkpt>
      <trkpt lat="48.13641" lon="6.40707">
        <ele>422.16796875</ele>
        <time>2014-04-27T09:40:22Z</time>
      </trkpt>
      <trkpt lat="48.13605" lon="6.40701">
        <ele>424.1953125</ele>
        <time>2014-04-27T09:40:29Z</time>
      </trkpt>
      <trkpt lat="48.136" lon="6.40701">
        <ele>424.58984375</ele>
        <time>2014-04-27T09:40:30Z</time>
      </trkpt>
      <trkpt lat="48.13595" lon="6.40701">
        <ele>424.94921875</ele>
        <time>2014-04-27T09:40:31Z</time>
      </trkpt>
      <trkpt lat="48.13591" lon="6.40701">
        <ele>425.26171875</ele>
        <time>2014-04-27T09:40:32Z</time>
      </trkpt>
      <trkpt lat="48.13587" lon="6.407">
        <ele>425.5703125</ele>
        <time>2014-04-27T09:40:33Z</time>
      </trkpt>
      <trkpt lat="48.13583" lon="6.40698">
        <ele>425.8828125</ele>
        <time>2014-04-27T09:40:34Z</time>
      </trkpt>
      <trkpt lat="48.13578" lon="6.40696">
        <ele>426.18359375</ele>
        <time>2014-04-27T09:40:35Z</time>
      </trkpt>
      <trkpt lat="48.13533" lon="6.40678">
        <ele>430.23828125</ele>
        <time>2014-04-27T09:40:48Z</time>
      </trkpt>
      <trkpt lat="48.13503" lon="6.40682">
        <ele>433.484375</ele>
        <time>2014-04-27T09:40:59Z</time>
      </trkpt>
      <trkpt lat="48.13472" lon="6.40704">
        <ele>436.640625</ele>
        <time>2014-04-27T09:41:11Z</time>
      </trkpt>
      <trkpt lat="48.13444" lon="6.40722">
        <ele>439.23828125</ele>
        <time>2014-04-27T09:41:23Z</time>
      </trkpt>
      <trkpt lat="48.13417" lon="6.40733">
        <ele>440.93359375</ele>
        <time>2014-04-27T09:41:33Z</time>
      </trkpt>
      <trkpt lat="48.13401" lon="6.4074">
        <ele>441.56640625</ele>
        <time>2014-04-27T09:41:39Z</time>
      </trkpt>
      <trkpt lat="48.13399" lon="6.4074">
        <ele>441.640625</ele>
        <time>2014-04-27T09:41:40Z</time>
      </trkpt>
      <trkpt lat="48.13396" lon="6.4074">
        <ele>441.6328125</ele>
        <time>2014-04-27T09:41:41Z</time>
      </trkpt>
      <trkpt lat="48.13363" lon="6.40718">
        <ele>442.8203125</ele>
        <time>2014-04-27T09:41:54Z</time>
      </trkpt>
      <trkpt lat="48.13336" lon="6.40691">
        <ele>443.4140625</ele>
        <time>2014-04-27T09:42:04Z</time>
      </trkpt>
      <trkpt lat="48.13332" lon="6.40687">
        <ele>443.3828125</ele>
        <time>2014-04-27T09:42:05Z</time>
      </trkpt>
      <trkpt lat="48.13299" lon="6.40648">
        <ele>443.31640625</ele>
        <time>2014-04-27T09:42:16Z</time>
      </trkpt>
      <trkpt lat="48.1328" lon="6.40622">
        <ele>443.58984375</ele>
        <time>2014-04-27T09:42:22Z</time>
      </trkpt>
      <trkpt lat="48.13273" lon="6.40613">
        <ele>443.67578125</ele>
        <time>2014-04-27T09:42:24Z</time>
      </trkpt>
      <trkpt lat="48.1327" lon="6.40608">
        <ele>443.68359375</ele>
        <time>2014-04-27T09:42:25Z</time>
      </trkpt>
      <trkpt lat="48.13236" lon="6.40565">
        <ele>443.73828125</ele>
        <time>2014-04-27T09:42:36Z</time>
      </trkpt>
      <trkpt lat="48.13215" lon="6.40535">
        <ele>444.0234375</ele>
        <time>2014-04-27T09:42:43Z</time>
      </trkpt>
      <trkpt lat="48.13197" lon="6.4048">
        <ele>444.98828125</ele>
        <time>2014-04-27T09:42:53Z</time>
      </trkpt>
      <trkpt lat="48.13192" lon="6.40462">
        <ele>445.1015625</ele>
        <time>2014-04-27T09:42:56Z</time>
      </trkpt>
      <trkpt lat="48.13191" lon="6.40456">
        <ele>445.1171875</ele>
        <time>2014-04-27T09:42:57Z</time>
      </trkpt>
      <trkpt lat="48.1319" lon="6.4045">
        <ele>445.171875</ele>
        <time>2014-04-27T09:42:58Z</time>
      </trkpt>
      <trkpt lat="48.13192" lon="6.40401">
        <ele>445.703125</ele>
        <time>2014-04-27T09:43:05Z</time>
      </trkpt>
      <trkpt lat="48.13195" lon="6.40389">
        <ele>446.1796875</ele>
        <time>2014-04-27T09:43:07Z</time>
      </trkpt>
      <trkpt lat="48.13202" lon="6.4037">
        <ele>447.19140625</ele>
        <time>2014-04-27T09:43:10Z</time>
      </trkpt>
      <trkpt lat="48.13204" lon="6.40365">
        <ele>447.578125</ele>
        <time>2014-04-27T09:43:11Z</time>
      </trkpt>
      <trkpt lat="48.13206" lon="6.4036">
        <ele>447.9296875</ele>
        <time>2014-04-27T09:43:12Z</time>
      </trkpt>
      <trkpt lat="48.13207" lon="6.40355">
        <ele>448.2734375</ele>
        <time>2014-04-27T09:43:13Z</time>
      </trkpt>
      <trkpt lat="48.13208" lon="6.40351">
        <ele>448.5546875</ele>
        <time>2014-04-27T09:43:14Z</time>
      </trkpt>
      <trkpt lat="48.13209" lon="6.40346">
        <ele>448.76953125</ele>
        <time>2014-04-27T09:43:15Z</time>
      </trkpt>
      <trkpt lat="48.13209" lon="6.40303">
        <ele>450.35546875</ele>
        <time>2014-04-27T09:43:25Z</time>
      </trkpt>
      <trkpt lat="48.13204" lon="6.40295">
        <ele>450.0703125</ele>
        <time>2014-04-27T09:43:27Z</time>
      </trkpt>
      <trkpt lat="48.13197" lon="6.40289">
        <ele>449.25</ele>
        <time>2014-04-27T09:43:29Z</time>
      </trkpt>
      <trkpt lat="48.13175" lon="6.40253">
        <ele>447.48046875</ele>
        <time>2014-04-27T09:43:36Z</time>
      </trkpt>
      <trkpt lat="48.13173" lon="6.4024">
        <ele>447.95703125</ele>
        <time>2014-04-27T09:43:38Z</time>
      </trkpt>
      <trkpt lat="48.13169" lon="6.40221">
        <ele>448.65625</ele>
        <time>2014-04-27T09:43:41Z</time>
      </trkpt>
      <trkpt lat="48.13158" lon="6.40188">
        <ele>450.6171875</ele>
        <time>2014-04-27T09:43:46Z</time>
      </trkpt>
      <trkpt lat="48.13138" lon="6.40153">
        <ele>452.6796875</ele>
        <time>2014-04-27T09:43:54Z</time>
      </trkpt>
      <trkpt lat="48.13122" lon="6.40143">
        <ele>452.96484375</ele>
        <time>2014-04-27T09:43:57Z</time>
      </trkpt>
      <trkpt lat="48.13115" lon="6.40141">
        <ele>452.8359375</ele>
        <time>2014-04-27T09:43:58Z</time>
      </trkpt>
      <trkpt lat="48.13071" lon="6.4013">
        <ele>452.02734375</ele>
        <time>2014-04-27T09:44:05Z</time>
      </trkpt>
      <trkpt lat="48.13066" lon="6.40127">
        <ele>452.328125</ele>
        <time>2014-04-27T09:44:06Z</time>
      </trkpt>
      <trkpt lat="48.13062" lon="6.40119">
        <ele>453.640625</ele>
        <time>2014-04-27T09:44:08Z</time>
      </trkpt>
      <trkpt lat="48.13059" lon="6.40077">
        <ele>457.609375</ele>
        <time>2014-04-27T09:44:21Z</time>
      </trkpt>
      <trkpt lat="48.13059" lon="6.40048">
        <ele>459.39453125</ele>
        <time>2014-04-27T09:44:30Z</time>
      </trkpt>
      <trkpt lat="48.13062" lon="6.40027">
        <ele>460.79296875</ele>
        <time>2014-04-27T09:44:37Z</time>
      </trkpt>
      <trkpt lat="48.13047" lon="6.40002">
        <ele>461.15625</ele>
        <time>2014-04-27T09:44:48Z</time>
      </trkpt>
      <trkpt lat="48.13011" lon="6.40012">
        <ele>459.93359375</ele>
        <time>2014-04-27T09:44:59Z</time>
      </trkpt>
      <trkpt lat="48.12987" lon="6.40046">
        <ele>459.66015625</ele>
        <time>2014-04-27T09:45:07Z</time>
      </trkpt>
      <trkpt lat="48.12984" lon="6.40051">
        <ele>459.8828125</ele>
        <time>2014-04-27T09:45:08Z</time>
      </trkpt>
      <trkpt lat="48.1298" lon="6.40055">
        <ele>460</ele>
        <time>2014-04-27T09:45:09Z</time>
      </trkpt>
      <trkpt lat="48.12977" lon="6.40059">
        <ele>460</ele>
        <time>2014-04-27T09:45:10Z</time>
      </trkpt>
      <trkpt lat="48.12974" lon="6.40063">
        <ele>460</ele>
        <time>2014-04-27T09:45:11Z</time>
      </trkpt>
      <trkpt lat="48.12971" lon="6.40067">
        <ele>460</ele>
        <time>2014-04-27T09:45:12Z</time>
      </trkpt>
      <trkpt lat="48.12967" lon="6.40071">
        <ele>460</ele>
        <time>2014-04-27T09:45:13Z</time>
      </trkpt>
      <trkpt lat="48.12952" lon="6.40092">
        <ele>460.51953125</ele>
        <time>2014-04-27T09:45:18Z</time>
      </trkpt>
      <trkpt lat="48.12949" lon="6.40096">
        <ele>460.79296875</ele>
        <time>2014-04-27T09:45:19Z</time>
      </trkpt>
      <trkpt lat="48.12931" lon="6.40157">
        <ele>461.8984375</ele>
        <time>2014-04-27T09:45:30Z</time>
      </trkpt>
      <trkpt lat="48.12925" lon="6.4018">
        <ele>461.46875</ele>
        <time>2014-04-27T09:45:34Z</time>
      </trkpt>
      <trkpt lat="48.12923" lon="6.40186">
        <ele>461.25390625</ele>
        <time>2014-04-27T09:45:35Z</time>
      </trkpt>
      <trkpt lat="48.12921" lon="6.40192">
        <ele>461.046875</ele>
        <time>2014-04-27T09:45:36Z</time>
      </trkpt>
      <trkpt lat="48.12919" lon="6.40198">
        <ele>460.83203125</ele>
        <time>2014-04-27T09:45:37Z</time>
      </trkpt>
      <trkpt lat="48.12917" lon="6.40204">
        <ele>460.6171875</ele>
        <time>2014-04-27T09:45:38Z</time>
      </trkpt>
      <trkpt lat="48.12903" lon="6.40229">
        <ele>460</ele>
        <time>2014-04-27T09:45:42Z</time>
      </trkpt>
      <trkpt lat="48.1289" lon="6.40253">
        <ele>459.9453125</ele>
        <time>2014-04-27T09:45:45Z</time>
      </trkpt>
      <trkpt lat="48.12868" lon="6.40312">
        <ele>458.87109375</ele>
        <time>2014-04-27T09:45:52Z</time>
      </trkpt>
      <trkpt lat="48.12848" lon="6.40357">
        <ele>459.90625</ele>
        <time>2014-04-27T09:45:58Z</time>
      </trkpt>
      <trkpt lat="48.12807" lon="6.40437">
        <ele>461.08984375</ele>
        <time>2014-04-27T09:46:11Z</time>
      </trkpt>
      <trkpt lat="48.12801" lon="6.40454">
        <ele>460.7734375</ele>
        <time>2014-04-27T09:46:14Z</time>
      </trkpt>
      <trkpt lat="48.1279" lon="6.40478">
        <ele>460.03515625</ele>
        <time>2014-04-27T09:46:18Z</time>
      </trkpt>
      <trkpt lat="48.12783" lon="6.40488">
        <ele>459.48828125</ele>
        <time>2014-04-27T09:46:20Z</time>
      </trkpt>
      <trkpt lat="48.12778" lon="6.40492">
        <ele>459.17578125</ele>
        <time>2014-04-27T09:46:21Z</time>
      </trkpt>
      <trkpt lat="48.12774" lon="6.40495">
        <ele>458.85546875</ele>
        <time>2014-04-27T09:46:22Z</time>
      </trkpt>
      <trkpt lat="48.12769" lon="6.40498">
        <ele>458.53125</ele>
        <time>2014-04-27T09:46:23Z</time>
      </trkpt>
      <trkpt lat="48.12765" lon="6.40501">
        <ele>458.3046875</ele>
        <time>2014-04-27T09:46:24Z</time>
      </trkpt>
      <trkpt lat="48.12761" lon="6.40502">
        <ele>458.0625</ele>
        <time>2014-04-27T09:46:25Z</time>
      </trkpt>
      <trkpt lat="48.12757" lon="6.40503">
        <ele>457.78515625</ele>
        <time>2014-04-27T09:46:26Z</time>
      </trkpt>
      <trkpt lat="48.12752" lon="6.40503">
        <ele>457.4453125</ele>
        <time>2014-04-27T09:46:27Z</time>
      </trkpt>
      <trkpt lat="48.12746" lon="6.40504">
        <ele>457.12109375</ele>
        <time>2014-04-27T09:46:28Z</time>
      </trkpt>
      <trkpt lat="48.1274" lon="6.40505">
        <ele>456.8671875</ele>
        <time>2014-04-27T09:46:29Z</time>
      </trkpt>
      <trkpt lat="48.12735" lon="6.40508">
        <ele>456.71875</ele>
        <time>2014-04-27T09:46:30Z</time>
      </trkpt>
      <trkpt lat="48.1273" lon="6.4051">
        <ele>456.8046875</ele>
        <time>2014-04-27T09:46:31Z</time>
      </trkpt>
      <trkpt lat="48.12681" lon="6.40536">
        <ele>459.00390625</ele>
        <time>2014-04-27T09:46:43Z</time>
      </trkpt>
      <trkpt lat="48.12659" lon="6.40544">
        <ele>460.13671875</ele>
        <time>2014-04-27T09:46:49Z</time>
      </trkpt>
      <trkpt lat="48.12655" lon="6.40546">
        <ele>460.375</ele>
        <time>2014-04-27T09:46:50Z</time>
      </trkpt>
      <trkpt lat="48.12653" lon="6.40549">
        <ele>460.578125</ele>
        <time>2014-04-27T09:46:51Z</time>
      </trkpt>
      <trkpt lat="48.12651" lon="6.4055">
        <ele>460.7265625</ele>
        <time>2014-04-27T09:46:52Z</time>
      </trkpt>
      <trkpt lat="48.12648" lon="6.40552">
        <ele>460.9296875</ele>
        <time>2014-04-27T09:46:53Z</time>
      </trkpt>
      <trkpt lat="48.12612" lon="6.4057">
        <ele>463.2890625</ele>
        <time>2014-04-27T09:47:03Z</time>
      </trkpt>
      <trkpt lat="48.12597" lon="6.406">
        <ele>464.63671875</ele>
        <time>2014-04-27T09:47:09Z</time>
      </trkpt>
      <trkpt lat="48.12596" lon="6.40606">
        <ele>464.8671875</ele>
        <time>2014-04-27T09:47:10Z</time>
      </trkpt>
      <trkpt lat="48.12596" lon="6.40612">
        <ele>465</ele>
        <time>2014-04-27T09:47:11Z</time>
      </trkpt>
      <trkpt lat="48.12595" lon="6.40616">
        <ele>464.99609375</ele>
        <time>2014-04-27T09:47:12Z</time>
      </trkpt>
      <trkpt lat="48.12593" lon="6.40618">
        <ele>464.9765625</ele>
        <time>2014-04-27T09:47:13Z</time>
      </trkpt>
      <trkpt lat="48.12591" lon="6.4062">
        <ele>464.9375</ele>
        <time>2014-04-27T09:47:14Z</time>
      </trkpt>
      <trkpt lat="48.12587" lon="6.40625">
        <ele>464.83984375</ele>
        <time>2014-04-27T09:47:16Z</time>
      </trkpt>
      <trkpt lat="48.12585" lon="6.40629">
        <ele>464.73828125</ele>
        <time>2014-04-27T09:47:17Z</time>
      </trkpt>
      <trkpt lat="48.12582" lon="6.40634">
        <ele>464.5703125</ele>
        <time>2014-04-27T09:47:18Z</time>
      </trkpt>
      <trkpt lat="48.12577" lon="6.40639">
        <ele>464.3125</ele>
        <time>2014-04-27T09:47:19Z</time>
      </trkpt>
      <trkpt lat="48.12573" lon="6.40646">
        <ele>463.94921875</ele>
        <time>2014-04-27T09:47:20Z</time>
      </trkpt>
      <trkpt lat="48.12567" lon="6.40657">
        <ele>463.2578125</ele>
        <time>2014-04-27T09:47:21Z</time>
      </trkpt>
      <trkpt lat="48.12564" lon="6.40668">
        <ele>462.34375</ele>
        <time>2014-04-27T09:47:22Z</time>
      </trkpt>
      <trkpt lat="48.12564" lon="6.4068">
        <ele>461.546875</ele>
        <time>2014-04-27T09:47:23Z</time>
      </trkpt>
      <trkpt lat="48.12563" lon="6.40693">
        <ele>460.48828125</ele>
        <time>2014-04-27T09:47:24Z</time>
      </trkpt>
      <trkpt lat="48.12561" lon="6.40706">
        <ele>459.30078125</ele>
        <time>2014-04-27T09:47:25Z</time>
      </trkpt>
      <trkpt lat="48.12552" lon="6.40747">
        <ele>455.34765625</ele>
        <time>2014-04-27T09:47:28Z</time>
      </trkpt>
      <trkpt lat="48.12543" lon="6.40802">
        <ele>452.359375</ele>
        <time>2014-04-27T09:47:32Z</time>
      </trkpt>
      <trkpt lat="48.12542" lon="6.40815">
        <ele>451.80078125</ele>
        <time>2014-04-27T09:47:33Z</time>
      </trkpt>
      <trkpt lat="48.12536" lon="6.40838">
        <ele>450.84765625</ele>
        <time>2014-04-27T09:47:35Z</time>
      </trkpt>
      <trkpt lat="48.12531" lon="6.40847">
        <ele>450.609375</ele>
        <time>2014-04-27T09:47:36Z</time>
      </trkpt>
      <trkpt lat="48.12525" lon="6.40854">
        <ele>450.1875</ele>
        <time>2014-04-27T09:47:37Z</time>
      </trkpt>
      <trkpt lat="48.12518" lon="6.4086">
        <ele>449.67578125</ele>
        <time>2014-04-27T09:47:38Z</time>
      </trkpt>
      <trkpt lat="48.12511" lon="6.40866">
        <ele>448.88671875</ele>
        <time>2014-04-27T09:47:39Z</time>
      </trkpt>
      <trkpt lat="48.12504" lon="6.40871">
        <ele>448.05859375</ele>
        <time>2014-04-27T09:47:40Z</time>
      </trkpt>
      <trkpt lat="48.12495" lon="6.40876">
        <ele>447.11328125</ele>
        <time>2014-04-27T09:47:41Z</time>
      </trkpt>
      <trkpt lat="48.12486" lon="6.40879">
        <ele>446.2109375</ele>
        <time>2014-04-27T09:47:42Z</time>
      </trkpt>
      <trkpt lat="48.12454" lon="6.40881">
        <ele>442.8984375</ele>
        <time>2014-04-27T09:47:47Z</time>
      </trkpt>
      <trkpt lat="48.12434" lon="6.40894">
        <ele>442.171875</ele>
        <time>2014-04-27T09:47:50Z</time>
      </trkpt>
      <trkpt lat="48.12415" lon="6.40913">
        <ele>441.484375</ele>
        <time>2014-04-27T09:47:53Z</time>
      </trkpt>
      <trkpt lat="48.12395" lon="6.40949">
        <ele>440.76171875</ele>
        <time>2014-04-27T09:47:57Z</time>
      </trkpt>
      <trkpt lat="48.12391" lon="6.4096">
        <ele>440.6171875</ele>
        <time>2014-04-27T09:47:58Z</time>
      </trkpt>
      <trkpt lat="48.12386" lon="6.40969">
        <ele>440.45703125</ele>
        <time>2014-04-27T09:47:59Z</time>
      </trkpt>
      <trkpt lat="48.12373" lon="6.40994">
        <ele>439.9921875</ele>
        <time>2014-04-27T09:48:02Z</time>
      </trkpt>
      <trkpt lat="48.12369" lon="6.41003">
        <ele>439.984375</ele>
        <time>2014-04-27T09:48:03Z</time>
      </trkpt>
      <trkpt lat="48.12362" lon="6.41021">
        <ele>440.0546875</ele>
        <time>2014-04-27T09:48:05Z</time>
      </trkpt>
      <trkpt lat="48.12325" lon="6.4113">
        <ele>439.98046875</ele>
        <time>2014-04-27T09:48:17Z</time>
      </trkpt>
      <trkpt lat="48.12316" lon="6.41144">
        <ele>439.8828125</ele>
        <time>2014-04-27T09:48:19Z</time>
      </trkpt>
      <trkpt lat="48.12302" lon="6.41163">
        <ele>439.38671875</ele>
        <time>2014-04-27T09:48:22Z</time>
      </trkpt>
      <trkpt lat="48.12289" lon="6.41185">
        <ele>438.953125</ele>
        <time>2014-04-27T09:48:25Z</time>
      </trkpt>
      <trkpt lat="48.12286" lon="6.41193">
        <ele>438.73046875</ele>
        <time>2014-04-27T09:48:26Z</time>
      </trkpt>
      <trkpt lat="48.12284" lon="6.41201">
        <ele>438.79296875</ele>
        <time>2014-04-27T09:48:27Z</time>
      </trkpt>
      <trkpt lat="48.12278" lon="6.41225">
        <ele>438.83203125</ele>
        <time>2014-04-27T09:48:30Z</time>
      </trkpt>
      <trkpt lat="48.1225" lon="6.4126">
        <ele>438.55078125</ele>
        <time>2014-04-27T09:48:40Z</time>
      </trkpt>
      <trkpt lat="48.12248" lon="6.41261">
        <ele>438.4765625</ele>
        <time>2014-04-27T09:48:41Z</time>
      </trkpt>
      <trkpt lat="48.12215" lon="6.41289">
        <ele>438</ele>
        <time>2014-04-27T09:48:50Z</time>
      </trkpt>
      <trkpt lat="48.12211" lon="6.41293">
        <ele>438</ele>
        <time>2014-04-27T09:48:51Z</time>
      </trkpt>
      <trkpt lat="48.12208" lon="6.41297">
        <ele>438</ele>
        <time>2014-04-27T09:48:52Z</time>
      </trkpt>
      <trkpt lat="48.12206" lon="6.41302">
        <ele>438.02734375</ele>
        <time>2014-04-27T09:48:53Z</time>
      </trkpt>
      <trkpt lat="48.12205" lon="6.41307">
        <ele>438.32421875</ele>
        <time>2014-04-27T09:48:54Z</time>
      </trkpt>
      <trkpt lat="48.12203" lon="6.41312">
        <ele>438.75</ele>
        <time>2014-04-27T09:48:55Z</time>
      </trkpt>
      <trkpt lat="48.12203" lon="6.41318">
        <ele>439.1796875</ele>
        <time>2014-04-27T09:48:56Z</time>
      </trkpt>
      <trkpt lat="48.12203" lon="6.41324">
        <ele>439.59375</ele>
        <time>2014-04-27T09:48:57Z</time>
      </trkpt>
      <trkpt lat="48.12203" lon="6.41329">
        <ele>439.9921875</ele>
        <time>2014-04-27T09:48:58Z</time>
      </trkpt>
      <trkpt lat="48.12203" lon="6.41335">
        <ele>440.4453125</ele>
        <time>2014-04-27T09:48:59Z</time>
      </trkpt>
      <trkpt lat="48.12201" lon="6.41346">
        <ele>441.3671875</ele>
        <time>2014-04-27T09:49:01Z</time>
      </trkpt>
      <trkpt lat="48.12198" lon="6.41349">
        <ele>441.76171875</ele>
        <time>2014-04-27T09:49:02Z</time>
      </trkpt>
      <trkpt lat="48.12195" lon="6.41349">
        <ele>441.953125</ele>
        <time>2014-04-27T09:49:03Z</time>
      </trkpt>
      <trkpt lat="48.12192" lon="6.41347">
        <ele>441.8984375</ele>
        <time>2014-04-27T09:49:04Z</time>
      </trkpt>
      <trkpt lat="48.12189" lon="6.41343">
        <ele>441.7421875</ele>
        <time>2014-04-27T09:49:05Z</time>
      </trkpt>
      <trkpt lat="48.12185" lon="6.4134">
        <ele>441.57421875</ele>
        <time>2014-04-27T09:49:06Z</time>
      </trkpt>
      <trkpt lat="48.12182" lon="6.41337">
        <ele>441.4296875</ele>
        <time>2014-04-27T09:49:07Z</time>
      </trkpt>
      <trkpt lat="48.12178" lon="6.41334">
        <ele>441.33203125</ele>
        <time>2014-04-27T09:49:08Z</time>
      </trkpt>
      <trkpt lat="48.12175" lon="6.41332">
        <ele>441.3984375</ele>
        <time>2014-04-27T09:49:09Z</time>
      </trkpt>
      <trkpt lat="48.12171" lon="6.41331">
        <ele>441.5390625</ele>
        <time>2014-04-27T09:49:10Z</time>
      </trkpt>
      <trkpt lat="48.12167" lon="6.4133">
        <ele>441.73828125</ele>
        <time>2014-04-27T09:49:11Z</time>
      </trkpt>
      <trkpt lat="48.12135" lon="6.41338">
        <ele>445.2890625</ele>
        <time>2014-04-27T09:49:21Z</time>
      </trkpt>
      <trkpt lat="48.12111" lon="6.41348">
        <ele>448.296875</ele>
        <time>2014-04-27T09:49:31Z</time>
      </trkpt>
      <trkpt lat="48.12076" lon="6.41349">
        <ele>451.328125</ele>
        <time>2014-04-27T09:49:43Z</time>
      </trkpt>
      <trkpt lat="48.12053" lon="6.4134">
        <ele>451.45703125</ele>
        <time>2014-04-27T09:49:52Z</time>
      </trkpt>
      <trkpt lat="48.12031" lon="6.41344">
        <ele>450.515625</ele>
        <time>2014-04-27T09:49:57Z</time>
      </trkpt>
      <trkpt lat="48.12027" lon="6.41346">
        <ele>450.25390625</ele>
        <time>2014-04-27T09:49:58Z</time>
      </trkpt>
      <trkpt lat="48.12012" lon="6.41357">
        <ele>449.0078125</ele>
        <time>2014-04-27T09:50:01Z</time>
      </trkpt>
      <trkpt lat="48.12003" lon="6.41359">
        <ele>448.35546875</ele>
        <time>2014-04-27T09:50:02Z</time>
      </trkpt>
      <trkpt lat="48.11994" lon="6.41357">
        <ele>447.75</ele>
        <time>2014-04-27T09:50:03Z</time>
      </trkpt>
      <trkpt lat="48.11986" lon="6.41355">
        <ele>447.23828125</ele>
        <time>2014-04-27T09:50:04Z</time>
      </trkpt>
      <trkpt lat="48.11977" lon="6.41351">
        <ele>446.5</ele>
        <time>2014-04-27T09:50:05Z</time>
      </trkpt>
      <trkpt lat="48.11855" lon="6.41288">
        <ele>439.33984375</ele>
        <time>2014-04-27T09:50:20Z</time>
      </trkpt>
      <trkpt lat="48.11813" lon="6.4128">
        <ele>439</ele>
        <time>2014-04-27T09:50:26Z</time>
      </trkpt>
      <trkpt lat="48.11807" lon="6.41281">
        <ele>439</ele>
        <time>2014-04-27T09:50:27Z</time>
      </trkpt>
      <trkpt lat="48.11775" lon="6.41287">
        <ele>439.5546875</ele>
        <time>2014-04-27T09:50:32Z</time>
      </trkpt>
      <trkpt lat="48.11758" lon="6.41293">
        <ele>440</ele>
        <time>2014-04-27T09:50:35Z</time>
      </trkpt>
      <trkpt lat="48.11744" lon="6.41303">
        <ele>440</ele>
        <time>2014-04-27T09:50:38Z</time>
      </trkpt>
      <trkpt lat="48.11739" lon="6.41305">
        <ele>440</ele>
        <time>2014-04-27T09:50:39Z</time>
      </trkpt>
      <trkpt lat="48.11695" lon="6.41331">
        <ele>442.4453125</ele>
        <time>2014-04-27T09:50:49Z</time>
      </trkpt>
      <trkpt lat="48.1169" lon="6.41333">
        <ele>442.6015625</ele>
        <time>2014-04-27T09:50:50Z</time>
      </trkpt>
      <trkpt lat="48.11686" lon="6.41334">
        <ele>442.75</ele>
        <time>2014-04-27T09:50:51Z</time>
      </trkpt>
      <trkpt lat="48.11657" lon="6.41343">
        <ele>443.79296875</ele>
        <time>2014-04-27T09:50:58Z</time>
      </trkpt>
      <trkpt lat="48.11653" lon="6.41344">
        <ele>443.9375</ele>
        <time>2014-04-27T09:50:59Z</time>
      </trkpt>
      <trkpt lat="48.11642" lon="6.41347">
        <ele>444.36328125</ele>
        <time>2014-04-27T09:51:02Z</time>
      </trkpt>
      <trkpt lat="48.11638" lon="6.41348">
        <ele>444.50390625</ele>
        <time>2014-04-27T09:51:03Z</time>
      </trkpt>
      <trkpt lat="48.11634" lon="6.4135">
        <ele>444.640625</ele>
        <time>2014-04-27T09:51:04Z</time>
      </trkpt>
      <trkpt lat="48.1163" lon="6.41352">
        <ele>444.7734375</ele>
        <time>2014-04-27T09:51:05Z</time>
      </trkpt>
      <trkpt lat="48.11626" lon="6.41353">
        <ele>444.9140625</ele>
        <time>2014-04-27T09:51:06Z</time>
      </trkpt>
      <trkpt lat="48.11622" lon="6.41354">
        <ele>445.05859375</ele>
        <time>2014-04-27T09:51:07Z</time>
      </trkpt>
      <trkpt lat="48.11574" lon="6.41372">
        <ele>446.4140625</ele>
        <time>2014-04-27T09:51:20Z</time>
      </trkpt>
      <trkpt lat="48.11546" lon="6.41393">
        <ele>446</ele>
        <time>2014-04-27T09:51:29Z</time>
      </trkpt>
      <trkpt lat="48.11545" lon="6.41398">
        <ele>446</ele>
        <time>2014-04-27T09:51:30Z</time>
      </trkpt>
      <trkpt lat="48.11545" lon="6.41405">
        <ele>446</ele>
        <time>2014-04-27T09:51:31Z</time>
      </trkpt>
      <trkpt lat="48.11546" lon="6.41411">
        <ele>446</ele>
        <time>2014-04-27T09:51:32Z</time>
      </trkpt>
      <trkpt lat="48.11547" lon="6.41417">
        <ele>446</ele>
        <time>2014-04-27T09:51:33Z</time>
      </trkpt>
      <trkpt lat="48.11548" lon="6.41423">
        <ele>446</ele>
        <time>2014-04-27T09:51:34Z</time>
      </trkpt>
      <trkpt lat="48.11549" lon="6.41429">
        <ele>446</ele>
        <time>2014-04-27T09:51:35Z</time>
      </trkpt>
      <trkpt lat="48.11549" lon="6.41436">
        <ele>446</ele>
        <time>2014-04-27T09:51:36Z</time>
      </trkpt>
      <trkpt lat="48.11549" lon="6.41442">
        <ele>446</ele>
        <time>2014-04-27T09:51:37Z</time>
      </trkpt>
      <trkpt lat="48.11549" lon="6.41449">
        <ele>446</ele>
        <time>2014-04-27T09:51:38Z</time>
      </trkpt>
      <trkpt lat="48.11549" lon="6.41461">
        <ele>446</ele>
        <time>2014-04-27T09:51:40Z</time>
      </trkpt>
      <trkpt lat="48.1155" lon="6.41468">
        <ele>446</ele>
        <time>2014-04-27T09:51:41Z</time>
      </trkpt>
      <trkpt lat="48.1155" lon="6.41475">
        <ele>446</ele>
        <time>2014-04-27T09:51:42Z</time>
      </trkpt>
      <trkpt lat="48.11547" lon="6.41543">
        <ele>446.14453125</ele>
        <time>2014-04-27T09:51:52Z</time>
      </trkpt>
      <trkpt lat="48.11546" lon="6.4155">
        <ele>446.171875</ele>
        <time>2014-04-27T09:51:53Z</time>
      </trkpt>
      <trkpt lat="48.11534" lon="6.41608">
        <ele>447.94921875</ele>
        <time>2014-04-27T09:52:02Z</time>
      </trkpt>
      <trkpt lat="48.11532" lon="6.41613">
        <ele>448.14453125</ele>
        <time>2014-04-27T09:52:03Z</time>
      </trkpt>
      <trkpt lat="48.11529" lon="6.41624">
        <ele>448.5546875</ele>
        <time>2014-04-27T09:52:05Z</time>
      </trkpt>
      <trkpt lat="48.11527" lon="6.4163">
        <ele>448.76171875</ele>
        <time>2014-04-27T09:52:06Z</time>
      </trkpt>
      <trkpt lat="48.11525" lon="6.41636">
        <ele>448.97265625</ele>
        <time>2014-04-27T09:52:07Z</time>
      </trkpt>
      <trkpt lat="48.11497" lon="6.41724">
        <ele>451</ele>
        <time>2014-04-27T09:52:24Z</time>
      </trkpt>
      <trkpt lat="48.11489" lon="6.41793">
        <ele>451</ele>
        <time>2014-04-27T09:52:36Z</time>
      </trkpt>
      <trkpt lat="48.11491" lon="6.41908">
        <ele>450.2109375</ele>
        <time>2014-04-27T09:52:51Z</time>
      </trkpt>
      <trkpt lat="48.11479" lon="6.41987">
        <ele>448.05078125</ele>
        <time>2014-04-27T09:52:59Z</time>
      </trkpt>
      <trkpt lat="48.11476" lon="6.41999">
        <ele>447.32421875</ele>
        <time>2014-04-27T09:53:00Z</time>
      </trkpt>
      <trkpt lat="48.11408" lon="6.42169">
        <ele>439.44921875</ele>
        <time>2014-04-27T09:53:16Z</time>
      </trkpt>
      <trkpt lat="48.11347" lon="6.423">
        <ele>434.13671875</ele>
        <time>2014-04-27T09:53:30Z</time>
      </trkpt>
      <trkpt lat="48.11307" lon="6.42354">
        <ele>427.44140625</ele>
        <time>2014-04-27T09:53:36Z</time>
      </trkpt>
      <trkpt lat="48.11272" lon="6.42385">
        <ele>421.890625</ele>
        <time>2014-04-27T09:53:40Z</time>
      </trkpt>
      <trkpt lat="48.11265" lon="6.42396">
        <ele>420.77734375</ele>
        <time>2014-04-27T09:53:41Z</time>
      </trkpt>
      <trkpt lat="48.11258" lon="6.42408">
        <ele>419.76953125</ele>
        <time>2014-04-27T09:53:42Z</time>
      </trkpt>
      <trkpt lat="48.11251" lon="6.42421">
        <ele>418.7265625</ele>
        <time>2014-04-27T09:53:43Z</time>
      </trkpt>
      <trkpt lat="48.11244" lon="6.42433">
        <ele>417.55859375</ele>
        <time>2014-04-27T09:53:44Z</time>
      </trkpt>
      <trkpt lat="48.11199" lon="6.42506">
        <ele>411.55078125</ele>
        <time>2014-04-27T09:53:50Z</time>
      </trkpt>
      <trkpt lat="48.11149" lon="6.42606">
        <ele>405.62109375</ele>
        <time>2014-04-27T09:53:59Z</time>
      </trkpt>
      <trkpt lat="48.11146" lon="6.42614">
        <ele>405.17578125</ele>
        <time>2014-04-27T09:54:00Z</time>
      </trkpt>
      <trkpt lat="48.11144" lon="6.42622">
        <ele>404.84375</ele>
        <time>2014-04-27T09:54:01Z</time>
      </trkpt>
      <trkpt lat="48.11144" lon="6.4263">
        <ele>404.81640625</ele>
        <time>2014-04-27T09:54:02Z</time>
      </trkpt>
      <trkpt lat="48.11144" lon="6.42637">
        <ele>404.92578125</ele>
        <time>2014-04-27T09:54:03Z</time>
      </trkpt>
      <trkpt lat="48.11146" lon="6.42643">
        <ele>405.203125</ele>
        <time>2014-04-27T09:54:04Z</time>
      </trkpt>
      <trkpt lat="48.11149" lon="6.42648">
        <ele>405.6484375</ele>
        <time>2014-04-27T09:54:05Z</time>
      </trkpt>
      <trkpt lat="48.11174" lon="6.42686">
        <ele>408.1640625</ele>
        <time>2014-04-27T09:54:13Z</time>
      </trkpt>
      <trkpt lat="48.11176" lon="6.42691">
        <ele>408.53515625</ele>
        <time>2014-04-27T09:54:14Z</time>
      </trkpt>
      <trkpt lat="48.11191" lon="6.42714">
        <ele>409.796875</ele>
        <time>2014-04-27T09:54:19Z</time>
      </trkpt>
      <trkpt lat="48.11223" lon="6.42763">
        <ele>412.9140625</ele>
        <time>2014-04-27T09:54:30Z</time>
      </trkpt>
      <trkpt lat="48.11226" lon="6.42767">
        <ele>413.23046875</ele>
        <time>2014-04-27T09:54:31Z</time>
      </trkpt>
      <trkpt lat="48.1123" lon="6.42771">
        <ele>413.5078125</ele>
        <time>2014-04-27T09:54:32Z</time>
      </trkpt>
      <trkpt lat="48.11233" lon="6.42775">
        <ele>413.71484375</ele>
        <time>2014-04-27T09:54:33Z</time>
      </trkpt>
      <trkpt lat="48.11235" lon="6.4278">
        <ele>413.85546875</ele>
        <time>2014-04-27T09:54:34Z</time>
      </trkpt>
      <trkpt lat="48.11238" lon="6.42784">
        <ele>413.91796875</ele>
        <time>2014-04-27T09:54:35Z</time>
      </trkpt>
      <trkpt lat="48.1124" lon="6.4279">
        <ele>413.9453125</ele>
        <time>2014-04-27T09:54:36Z</time>
      </trkpt>
      <trkpt lat="48.11242" lon="6.42795">
        <ele>413.98046875</ele>
        <time>2014-04-27T09:54:37Z</time>
      </trkpt>
      <trkpt lat="48.11243" lon="6.428">
        <ele>413.9609375</ele>
        <time>2014-04-27T09:54:38Z</time>
      </trkpt>
      <trkpt lat="48.11251" lon="6.42828">
        <ele>413.8125</ele>
        <time>2014-04-27T09:54:42Z</time>
      </trkpt>
      <trkpt lat="48.11252" lon="6.42837">
        <ele>413.69921875</ele>
        <time>2014-04-27T09:54:43Z</time>
      </trkpt>
      <trkpt lat="48.11253" lon="6.42848">
        <ele>413.4765625</ele>
        <time>2014-04-27T09:54:44Z</time>
      </trkpt>
      <trkpt lat="48.11252" lon="6.4286">
        <ele>413.01953125</ele>
        <time>2014-04-27T09:54:45Z</time>
      </trkpt>
      <trkpt lat="48.11251" lon="6.42873">
        <ele>411.796875</ele>
        <time>2014-04-27T09:54:46Z</time>
      </trkpt>
      <trkpt lat="48.11244" lon="6.42926">
        <ele>406.73828125</ele>
        <time>2014-04-27T09:54:50Z</time>
      </trkpt>
      <trkpt lat="48.1124" lon="6.42938">
        <ele>405.37109375</ele>
        <time>2014-04-27T09:54:51Z</time>
      </trkpt>
      <trkpt lat="48.11233" lon="6.4295">
        <ele>404.34765625</ele>
        <time>2014-04-27T09:54:52Z</time>
      </trkpt>
      <trkpt lat="48.11226" lon="6.4296">
        <ele>403.33203125</ele>
        <time>2014-04-27T09:54:53Z</time>
      </trkpt>
      <trkpt lat="48.11218" lon="6.42968">
        <ele>402.50390625</ele>
        <time>2014-04-27T09:54:54Z</time>
      </trkpt>
      <trkpt lat="48.11212" lon="6.42973">
        <ele>402.015625</ele>
        <time>2014-04-27T09:54:55Z</time>
      </trkpt>
      <trkpt lat="48.11207" lon="6.42977">
        <ele>401.69921875</ele>
        <time>2014-04-27T09:54:56Z</time>
      </trkpt>
      <trkpt lat="48.11204" lon="6.42983">
        <ele>401.3046875</ele>
        <time>2014-04-27T09:54:57Z</time>
      </trkpt>
      <trkpt lat="48.11201" lon="6.4299">
        <ele>400.890625</ele>
        <time>2014-04-27T09:54:58Z</time>
      </trkpt>
      <trkpt lat="48.112" lon="6.42997">
        <ele>400.4765625</ele>
        <time>2014-04-27T09:54:59Z</time>
      </trkpt>
      <trkpt lat="48.11199" lon="6.43005">
        <ele>400.30859375</ele>
        <time>2014-04-27T09:55:00Z</time>
      </trkpt>
      <trkpt lat="48.11198" lon="6.43012">
        <ele>400.1640625</ele>
        <time>2014-04-27T09:55:01Z</time>
      </trkpt>
      <trkpt lat="48.11197" lon="6.43019">
        <ele>400.0546875</ele>
        <time>2014-04-27T09:55:02Z</time>
      </trkpt>
      <trkpt lat="48.11193" lon="6.4304">
        <ele>400.27734375</ele>
        <time>2014-04-27T09:55:05Z</time>
      </trkpt>
      <trkpt lat="48.11191" lon="6.43046">
        <ele>400.44140625</ele>
        <time>2014-04-27T09:55:06Z</time>
      </trkpt>
      <trkpt lat="48.11189" lon="6.43052">
        <ele>400.64453125</ele>
        <time>2014-04-27T09:55:07Z</time>
      </trkpt>
      <trkpt lat="48.11185" lon="6.43056">
        <ele>401.01171875</ele>
        <time>2014-04-27T09:55:08Z</time>
      </trkpt>
      <trkpt lat="48.11181" lon="6.43057">
        <ele>401.28125</ele>
        <time>2014-04-27T09:55:09Z</time>
      </trkpt>
      <trkpt lat="48.11177" lon="6.43057">
        <ele>401.48046875</ele>
        <time>2014-04-27T09:55:10Z</time>
      </trkpt>
      <trkpt lat="48.11173" lon="6.43054">
        <ele>401.61328125</ele>
        <time>2014-04-27T09:55:11Z</time>
      </trkpt>
      <trkpt lat="48.1113" lon="6.43031">
        <ele>402.25</ele>
        <time>2014-04-27T09:55:22Z</time>
      </trkpt>
      <trkpt lat="48.11089" lon="6.43011">
        <ele>402.27734375</ele>
        <time>2014-04-27T09:55:32Z</time>
      </trkpt>
      <trkpt lat="48.11086" lon="6.43013">
        <ele>402.5</ele>
        <time>2014-04-27T09:55:33Z</time>
      </trkpt>
      <trkpt lat="48.11083" lon="6.4302">
        <ele>403.17578125</ele>
        <time>2014-04-27T09:55:35Z</time>
      </trkpt>
      <trkpt lat="48.11067" lon="6.43086">
        <ele>407.14453125</ele>
        <time>2014-04-27T09:55:51Z</time>
      </trkpt>
      <trkpt lat="48.11055" lon="6.43139">
        <ele>409.64453125</ele>
        <time>2014-04-27T09:56:05Z</time>
      </trkpt>
      <trkpt lat="48.11042" lon="6.43188">
        <ele>412.7265625</ele>
        <time>2014-04-27T09:56:19Z</time>
      </trkpt>
      <trkpt lat="48.11022" lon="6.43262">
        <ele>415.70703125</ele>
        <time>2014-04-27T09:56:38Z</time>
      </trkpt>
      <trkpt lat="48.11002" lon="6.43343">
        <ele>419</ele>
        <time>2014-04-27T09:56:59Z</time>
      </trkpt>
      <trkpt lat="48.10983" lon="6.43419">
        <ele>419.9296875</ele>
        <time>2014-04-27T09:57:15Z</time>
      </trkpt>
      <trkpt lat="48.10954" lon="6.43529">
        <ele>420</ele>
        <time>2014-04-27T09:57:34Z</time>
      </trkpt>
      <trkpt lat="48.10926" lon="6.43624">
        <ele>420.13671875</ele>
        <time>2014-04-27T09:57:49Z</time>
      </trkpt>
      <trkpt lat="48.10913" lon="6.43667">
        <ele>420.59375</ele>
        <time>2014-04-27T09:57:56Z</time>
      </trkpt>
      <trkpt lat="48.10912" lon="6.43674">
        <ele>420.640625</ele>
        <time>2014-04-27T09:57:57Z</time>
      </trkpt>
      <trkpt lat="48.1091" lon="6.4368">
        <ele>420.70703125</ele>
        <time>2014-04-27T09:57:58Z</time>
      </trkpt>
      <trkpt lat="48.10908" lon="6.43688">
        <ele>420.79296875</ele>
        <time>2014-04-27T09:57:59Z</time>
      </trkpt>
      <trkpt lat="48.10905" lon="6.43695">
        <ele>420.87890625</ele>
        <time>2014-04-27T09:58:00Z</time>
      </trkpt>
      <trkpt lat="48.10881" lon="6.43766">
        <ele>421</ele>
        <time>2014-04-27T09:58:12Z</time>
      </trkpt>
      <trkpt lat="48.10856" lon="6.43841">
        <ele>421</ele>
        <time>2014-04-27T09:58:25Z</time>
      </trkpt>
      <trkpt lat="48.10853" lon="6.43852">
        <ele>421</ele>
        <time>2014-04-27T09:58:27Z</time>
      </trkpt>
      <trkpt lat="48.10825" lon="6.43943">
        <ele>420.21484375</ele>
        <time>2014-04-27T09:58:41Z</time>
      </trkpt>
      <trkpt lat="48.10823" lon="6.43951">
        <ele>420.140625</ele>
        <time>2014-04-27T09:58:42Z</time>
      </trkpt>
      <trkpt lat="48.10816" lon="6.43973">
        <ele>419.765625</ele>
        <time>2014-04-27T09:58:45Z</time>
      </trkpt>
      <trkpt lat="48.10813" lon="6.43979">
        <ele>419.4921875</ele>
        <time>2014-04-27T09:58:46Z</time>
      </trkpt>
      <trkpt lat="48.10809" lon="6.43985">
        <ele>419.26953125</ele>
        <time>2014-04-27T09:58:47Z</time>
      </trkpt>
      <trkpt lat="48.10805" lon="6.4399">
        <ele>419.12109375</ele>
        <time>2014-04-27T09:58:48Z</time>
      </trkpt>
      <trkpt lat="48.108" lon="6.43993">
        <ele>419.0390625</ele>
        <time>2014-04-27T09:58:49Z</time>
      </trkpt>
      <trkpt lat="48.10795" lon="6.43996">
        <ele>419.00390625</ele>
        <time>2014-04-27T09:58:50Z</time>
      </trkpt>
      <trkpt lat="48.10785" lon="6.44">
        <ele>419</ele>
        <time>2014-04-27T09:58:52Z</time>
      </trkpt>
      <trkpt lat="48.1078" lon="6.44001">
        <ele>419</ele>
        <time>2014-04-27T09:58:53Z</time>
      </trkpt>
      <trkpt lat="48.10772" lon="6.44001">
        <ele>419</ele>
        <time>2014-04-27T09:58:55Z</time>
      </trkpt>
      <trkpt lat="48.10767" lon="6.44">
        <ele>419</ele>
        <time>2014-04-27T09:58:56Z</time>
      </trkpt>
      <trkpt lat="48.10763" lon="6.43999">
        <ele>419</ele>
        <time>2014-04-27T09:58:57Z</time>
      </trkpt>
      <trkpt lat="48.10749" lon="6.43992">
        <ele>419</ele>
        <time>2014-04-27T09:59:00Z</time>
      </trkpt>
      <trkpt lat="48.10686" lon="6.43969">
        <ele>417.22265625</ele>
        <time>2014-04-27T09:59:12Z</time>
      </trkpt>
      <trkpt lat="48.10647" lon="6.43956">
        <ele>414.15625</ele>
        <time>2014-04-27T09:59:20Z</time>
      </trkpt>
      <trkpt lat="48.10644" lon="6.4396">
        <ele>414.0546875</ele>
        <time>2014-04-27T09:59:21Z</time>
      </trkpt>
      <trkpt lat="48.10641" lon="6.43965">
        <ele>414.0546875</ele>
        <time>2014-04-27T09:59:22Z</time>
      </trkpt>
      <trkpt lat="48.10639" lon="6.43972">
        <ele>414.0390625</ele>
        <time>2014-04-27T09:59:23Z</time>
      </trkpt>
      <trkpt lat="48.10638" lon="6.43979">
        <ele>413.95703125</ele>
        <time>2014-04-27T09:59:24Z</time>
      </trkpt>
      <trkpt lat="48.10617" lon="6.44103">
        <ele>414.43359375</ele>
        <time>2014-04-27T09:59:39Z</time>
      </trkpt>
      <trkpt lat="48.10615" lon="6.44111">
        <ele>414.421875</ele>
        <time>2014-04-27T09:59:40Z</time>
      </trkpt>
      <trkpt lat="48.10612" lon="6.44119">
        <ele>414.53125</ele>
        <time>2014-04-27T09:59:41Z</time>
      </trkpt>
      <trkpt lat="48.10602" lon="6.44149">
        <ele>414.40234375</ele>
        <time>2014-04-27T09:59:45Z</time>
      </trkpt>
      <trkpt lat="48.106" lon="6.44156">
        <ele>414.26171875</ele>
        <time>2014-04-27T09:59:46Z</time>
      </trkpt>
      <trkpt lat="48.106" lon="6.44163">
        <ele>414.26953125</ele>
        <time>2014-04-27T09:59:47Z</time>
      </trkpt>
      <trkpt lat="48.10602" lon="6.4417">
        <ele>414.38671875</ele>
        <time>2014-04-27T09:59:48Z</time>
      </trkpt>
      <trkpt lat="48.10605" lon="6.44176">
        <ele>414.58984375</ele>
        <time>2014-04-27T09:59:49Z</time>
      </trkpt>
      <trkpt lat="48.10609" lon="6.44181">
        <ele>414.86328125</ele>
        <time>2014-04-27T09:59:50Z</time>
      </trkpt>
      <trkpt lat="48.10612" lon="6.44185">
        <ele>415.12890625</ele>
        <time>2014-04-27T09:59:51Z</time>
      </trkpt>
      <trkpt lat="48.10661" lon="6.4424">
        <ele>419</ele>
        <time>2014-04-27T10:00:05Z</time>
      </trkpt>
      <trkpt lat="48.10667" lon="6.44248">
        <ele>419</ele>
        <time>2014-04-27T10:00:10Z</time>
      </trkpt>
      <trkpt lat="48.10668" lon="6.44245">
        <ele>419</ele>
        <time>2014-04-27T10:00:14Z</time>
      </trkpt>
      <trkpt lat="48.10666" lon="6.44245">
        <ele>419</ele>
        <time>2014-04-27T10:00:24Z</time>
      </trkpt>
      <trkpt lat="48.10667" lon="6.44245">
        <ele>419</ele>
        <time>2014-04-27T10:00:44Z</time>
      </trkpt>
      <trkpt lat="48.10667" lon="6.44246">
        <ele>419</ele>
        <time>2014-04-27T10:00:45Z</time>
      </trkpt>
      <trkpt lat="48.10668" lon="6.44247">
        <ele>419</ele>
        <time>2014-04-27T10:00:46Z</time>
      </trkpt>
      <trkpt lat="48.10672" lon="6.44251">
        <ele>419</ele>
        <time>2014-04-27T10:00:49Z</time>
      </trkpt>
      <trkpt lat="48.10673" lon="6.44251">
        <ele>419</ele>
        <time>2014-04-27T10:00:50Z</time>
      </trkpt>
      <trkpt lat="48.10685" lon="6.44251">
        <ele>419.18359375</ele>
        <time>2014-04-27T10:01:00Z</time>
      </trkpt>
      <trkpt lat="48.10688" lon="6.44252">
        <ele>419.28515625</ele>
        <time>2014-04-27T10:01:04Z</time>
      </trkpt>
      <trkpt lat="48.10685" lon="6.44276">
        <ele>419.1796875</ele>
        <time>2014-04-27T10:01:12Z</time>
      </trkpt>
      <trkpt lat="48.10689" lon="6.4433">
        <ele>419.3125</ele>
        <time>2014-04-27T10:01:22Z</time>
      </trkpt>
      <trkpt lat="48.1069" lon="6.44336">
        <ele>419.3515625</ele>
        <time>2014-04-27T10:01:23Z</time>
      </trkpt>
      <trkpt lat="48.10675" lon="6.44364">
        <ele>419.18359375</ele>
        <time>2014-04-27T10:01:30Z</time>
      </trkpt>
      <trkpt lat="48.10671" lon="6.44365">
        <ele>419.19140625</ele>
        <time>2014-04-27T10:01:31Z</time>
      </trkpt>
      <trkpt lat="48.10667" lon="6.44367">
        <ele>419.18359375</ele>
        <time>2014-04-27T10:01:32Z</time>
      </trkpt>
      <trkpt lat="48.10663" lon="6.4437">
        <ele>419.1640625</ele>
        <time>2014-04-27T10:01:33Z</time>
      </trkpt>
      <trkpt lat="48.10658" lon="6.44372">
        <ele>419.109375</ele>
        <time>2014-04-27T10:01:34Z</time>
      </trkpt>
      <trkpt lat="48.10653" lon="6.44374">
        <ele>419.01953125</ele>
        <time>2014-04-27T10:01:35Z</time>
      </trkpt>
      <trkpt lat="48.10634" lon="6.4438">
        <ele>418.87890625</ele>
        <time>2014-04-27T10:01:39Z</time>
      </trkpt>
      <trkpt lat="48.10614" lon="6.44389">
        <ele>418.61328125</ele>
        <time>2014-04-27T10:01:43Z</time>
      </trkpt>
      <trkpt lat="48.1061" lon="6.44394">
        <ele>418.47265625</ele>
        <time>2014-04-27T10:01:44Z</time>
      </trkpt>
      <trkpt lat="48.10607" lon="6.44401">
        <ele>418.37890625</ele>
        <time>2014-04-27T10:01:45Z</time>
      </trkpt>
      <trkpt lat="48.10606" lon="6.44409">
        <ele>418.33984375</ele>
        <time>2014-04-27T10:01:46Z</time>
      </trkpt>
      <trkpt lat="48.10606" lon="6.44416">
        <ele>418.4375</ele>
        <time>2014-04-27T10:01:47Z</time>
      </trkpt>
      <trkpt lat="48.10606" lon="6.44422">
        <ele>418.67578125</ele>
        <time>2014-04-27T10:01:48Z</time>
      </trkpt>
      <trkpt lat="48.10607" lon="6.44428">
        <ele>418.90625</ele>
        <time>2014-04-27T10:01:49Z</time>
      </trkpt>
      <trkpt lat="48.10612" lon="6.44445">
        <ele>419.5546875</ele>
        <time>2014-04-27T10:01:53Z</time>
      </trkpt>
      <trkpt lat="48.10613" lon="6.44448">
        <ele>419.5703125</ele>
        <time>2014-04-27T10:01:54Z</time>
      </trkpt>
      <trkpt lat="48.10613" lon="6.44451">
        <ele>419.59765625</ele>
        <time>2014-04-27T10:01:55Z</time>
      </trkpt>
      <trkpt lat="48.10614" lon="6.44451">
        <ele>419.63671875</ele>
        <time>2014-04-27T10:01:56Z</time>
      </trkpt>
      <trkpt lat="48.10615" lon="6.4445">
        <ele>419.671875</ele>
        <time>2014-04-27T10:02:08Z</time>
      </trkpt>
      <trkpt lat="48.10614" lon="6.44449">
        <ele>419.62890625</ele>
        <time>2014-04-27T10:02:22Z</time>
      </trkpt>
      <trkpt lat="48.10614" lon="6.44451">
        <ele>419.609375</ele>
        <time>2014-04-27T10:02:43Z</time>
      </trkpt>
      <trkpt lat="48.10614" lon="6.44452">
        <ele>419.640625</ele>
        <time>2014-04-27T10:03:12Z</time>
      </trkpt>
      <trkpt lat="48.10614" lon="6.44452">
        <ele>419.63671875</ele>
        <time>2014-04-27T10:03:31Z</time>
      </trkpt>
      <trkpt lat="48.10614" lon="6.44452">
        <ele>419.63671875</ele>
        <time>2014-04-27T10:03:57Z</time>
      </trkpt>
      <trkpt lat="48.10614" lon="6.44451">
        <ele>419.63671875</ele>
        <time>2014-04-27T10:04:10Z</time>
      </trkpt>
      <trkpt lat="48.10622" lon="6.44455">
        <ele>419.91796875</ele>
        <time>2014-04-27T10:04:19Z</time>
      </trkpt>
      <trkpt lat="48.10622" lon="6.44455">
        <ele>419.921875</ele>
        <time>2014-04-27T10:04:20Z</time>
      </trkpt>
      <trkpt lat="48.10625" lon="6.44454">
        <ele>420</ele>
        <time>2014-04-27T10:04:33Z</time>
      </trkpt>
      <trkpt lat="48.10629" lon="6.44459">
        <ele>420</ele>
        <time>2014-04-27T10:04:47Z</time>
      </trkpt>
      <trkpt lat="48.10635" lon="6.44466">
        <ele>420</ele>
        <time>2014-04-27T10:05:08Z</time>
      </trkpt>
      <trkpt lat="48.10635" lon="6.44467">
        <ele>420</ele>
        <time>2014-04-27T10:05:22Z</time>
      </trkpt>
      <trkpt lat="48.10636" lon="6.44459">
        <ele>420</ele>
        <time>2014-04-27T10:05:34Z</time>
      </trkpt>
      <trkpt lat="48.10629" lon="6.4446">
        <ele>420</ele>
        <time>2014-04-27T10:05:46Z</time>
      </trkpt>
      <trkpt lat="48.10628" lon="6.44458">
        <ele>420</ele>
        <time>2014-04-27T10:05:56Z</time>
      </trkpt>
      <trkpt lat="48.10623" lon="6.44455">
        <ele>419.9296875</ele>
        <time>2014-04-27T10:06:08Z</time>
      </trkpt>
      <trkpt lat="48.10621" lon="6.44456">
        <ele>419.86328125</ele>
        <time>2014-04-27T10:06:27Z</time>
      </trkpt>
      <trkpt lat="48.1062" lon="6.44455">
        <ele>419.83203125</ele>
        <time>2014-04-27T10:06:39Z</time>
      </trkpt>
      <trkpt lat="48.10618" lon="6.44453">
        <ele>419.77734375</ele>
        <time>2014-04-27T10:07:03Z</time>
      </trkpt>
      <trkpt lat="48.10618" lon="6.44452">
        <ele>419.75</ele>
        <time>2014-04-27T10:07:15Z</time>
      </trkpt>
      <trkpt lat="48.10617" lon="6.44452">
        <ele>419.71875</ele>
        <time>2014-04-27T10:07:17Z</time>
      </trkpt>
      <trkpt lat="48.10612" lon="6.44437">
        <ele>419.4453125</ele>
        <time>2014-04-27T10:07:24Z</time>
      </trkpt>
      <trkpt lat="48.10609" lon="6.44398">
        <ele>418.42578125</ele>
        <time>2014-04-27T10:07:33Z</time>
      </trkpt>
      <trkpt lat="48.10631" lon="6.4437">
        <ele>418.58203125</ele>
        <time>2014-04-27T10:07:42Z</time>
      </trkpt>
      <trkpt lat="48.10641" lon="6.44352">
        <ele>418.59765625</ele>
        <time>2014-04-27T10:07:47Z</time>
      </trkpt>
      <trkpt lat="48.10653" lon="6.44319">
        <ele>419</ele>
        <time>2014-04-27T10:07:54Z</time>
      </trkpt>
      <trkpt lat="48.10683" lon="6.44294">
        <ele>419.12109375</ele>
        <time>2014-04-27T10:08:05Z</time>
      </trkpt>
      <trkpt lat="48.10685" lon="6.44292">
        <ele>419.1640625</ele>
        <time>2014-04-27T10:08:06Z</time>
      </trkpt>
      <trkpt lat="48.10686" lon="6.44285">
        <ele>419.203125</ele>
        <time>2014-04-27T10:08:08Z</time>
      </trkpt>
      <trkpt lat="48.10688" lon="6.44258">
        <ele>419.2890625</ele>
        <time>2014-04-27T10:08:16Z</time>
      </trkpt>
      <trkpt lat="48.10689" lon="6.44256">
        <ele>419.3203125</ele>
        <time>2014-04-27T10:08:30Z</time>
      </trkpt>
    </trkseg>
  </trk>
</gpx>